<?xml version="1.0" encoding="UTF-8" standalone="no" ?>
<gpx xmlns="http://www.topografix.com/GPX/1/1" xmlns:xsi="http://www.w3.org/2001/XMLSchema-instance" xsi:schemaLocation="http://www.topografix.com/GPX/1/1 http://www.topografix.com/GPX/1/1/gpx.xsd" version="1.1" creator="VisuGPX - https://www.visugpx.com">
  <metadata>
    <name>Hennezis La Roche Guyon</name>
  </metadata>
  <trk>
    <name><![CDATA[Hennezis La Roche Guyon avec Thierry et Pascal]]></name>
    <trkseg>
      <trkpt lat="49.19936" lon="1.44877">
        <ele>135.19999694824</ele>
        <time>2021-05-10T11:12:27.000Z</time>
      </trkpt>
      <trkpt lat="49.19936" lon="1.44877">
        <ele>135.19999694824</ele>
        <time>2021-05-10T11:12:28.000Z</time>
      </trkpt>
      <trkpt lat="49.19937" lon="1.4488">
        <ele>134.80000305176</ele>
        <time>2021-05-10T11:16:52.000Z</time>
      </trkpt>
      <trkpt lat="49.19937" lon="1.4488">
        <ele>134.80000305176</ele>
        <time>2021-05-10T11:16:54.000Z</time>
      </trkpt>
      <trkpt lat="49.19935" lon="1.4488">
        <ele>136</ele>
        <time>2021-05-10T11:18:13.000Z</time>
      </trkpt>
      <trkpt lat="49.19924" lon="1.44879">
        <ele>136.19999694824</ele>
        <time>2021-05-10T11:18:20.000Z</time>
      </trkpt>
      <trkpt lat="49.19907" lon="1.44877">
        <ele>136.80000305176</ele>
        <time>2021-05-10T11:18:28.000Z</time>
      </trkpt>
      <trkpt lat="49.19905" lon="1.44889">
        <ele>137</ele>
        <time>2021-05-10T11:18:32.000Z</time>
      </trkpt>
      <trkpt lat="49.19905" lon="1.44893">
        <ele>137</ele>
        <time>2021-05-10T11:18:33.000Z</time>
      </trkpt>
      <trkpt lat="49.19907" lon="1.44917">
        <ele>137.19999694824</ele>
        <time>2021-05-10T11:18:40.000Z</time>
      </trkpt>
      <trkpt lat="49.19911" lon="1.44949">
        <ele>137.60000610352</ele>
        <time>2021-05-10T11:18:48.000Z</time>
      </trkpt>
      <trkpt lat="49.19913" lon="1.44976">
        <ele>137.80000305176</ele>
        <time>2021-05-10T11:18:54.000Z</time>
      </trkpt>
      <trkpt lat="49.19915" lon="1.44996">
        <ele>138</ele>
        <time>2021-05-10T11:18:59.000Z</time>
      </trkpt>
      <trkpt lat="49.19918" lon="1.45023">
        <ele>139</ele>
        <time>2021-05-10T11:19:05.000Z</time>
      </trkpt>
      <trkpt lat="49.19919" lon="1.45036">
        <ele>139</ele>
        <time>2021-05-10T11:19:08.000Z</time>
      </trkpt>
      <trkpt lat="49.19921" lon="1.45051">
        <ele>139.19999694824</ele>
        <time>2021-05-10T11:19:11.000Z</time>
      </trkpt>
      <trkpt lat="49.19923" lon="1.45075">
        <ele>139.60000610352</ele>
        <time>2021-05-10T11:19:16.000Z</time>
      </trkpt>
      <trkpt lat="49.19923" lon="1.45084">
        <ele>139.80000305176</ele>
        <time>2021-05-10T11:19:18.000Z</time>
      </trkpt>
      <trkpt lat="49.19919" lon="1.4509">
        <ele>140</ele>
        <time>2021-05-10T11:19:20.000Z</time>
      </trkpt>
      <trkpt lat="49.19916" lon="1.45091">
        <ele>140</ele>
        <time>2021-05-10T11:19:21.000Z</time>
      </trkpt>
      <trkpt lat="49.19906" lon="1.45099">
        <ele>140.39999389648</ele>
        <time>2021-05-10T11:19:24.000Z</time>
      </trkpt>
      <trkpt lat="49.19903" lon="1.45103">
        <ele>140.39999389648</ele>
        <time>2021-05-10T11:19:25.000Z</time>
      </trkpt>
      <trkpt lat="49.19885" lon="1.45128">
        <ele>140.39999389648</ele>
        <time>2021-05-10T11:19:31.000Z</time>
      </trkpt>
      <trkpt lat="49.19882" lon="1.45132">
        <ele>140.39999389648</ele>
        <time>2021-05-10T11:19:32.000Z</time>
      </trkpt>
      <trkpt lat="49.19862" lon="1.4517">
        <ele>139.80000305176</ele>
        <time>2021-05-10T11:19:40.000Z</time>
      </trkpt>
      <trkpt lat="49.1985" lon="1.45198">
        <ele>139.60000610352</ele>
        <time>2021-05-10T11:19:45.000Z</time>
      </trkpt>
      <trkpt lat="49.19846" lon="1.45212">
        <ele>139.60000610352</ele>
        <time>2021-05-10T11:19:47.000Z</time>
      </trkpt>
      <trkpt lat="49.19836" lon="1.45243">
        <ele>139.39999389648</ele>
        <time>2021-05-10T11:19:52.000Z</time>
      </trkpt>
      <trkpt lat="49.19831" lon="1.45254">
        <ele>139.39999389648</ele>
        <time>2021-05-10T11:19:54.000Z</time>
      </trkpt>
      <trkpt lat="49.19836" lon="1.45274">
        <ele>139.19999694824</ele>
        <time>2021-05-10T11:19:57.000Z</time>
      </trkpt>
      <trkpt lat="49.19839" lon="1.45278">
        <ele>138.80000305176</ele>
        <time>2021-05-10T11:19:58.000Z</time>
      </trkpt>
      <trkpt lat="49.1985" lon="1.45295">
        <ele>138</ele>
        <time>2021-05-10T11:20:02.000Z</time>
      </trkpt>
      <trkpt lat="49.19864" lon="1.45329">
        <ele>138</ele>
        <time>2021-05-10T11:20:09.000Z</time>
      </trkpt>
      <trkpt lat="49.19867" lon="1.4534">
        <ele>138.60000610352</ele>
        <time>2021-05-10T11:20:11.000Z</time>
      </trkpt>
      <trkpt lat="49.19872" lon="1.45362">
        <ele>140.19999694824</ele>
        <time>2021-05-10T11:20:15.000Z</time>
      </trkpt>
      <trkpt lat="49.19877" lon="1.45378">
        <ele>141.39999389648</ele>
        <time>2021-05-10T11:20:18.000Z</time>
      </trkpt>
      <trkpt lat="49.19889" lon="1.45394">
        <ele>142.39999389648</ele>
        <time>2021-05-10T11:20:22.000Z</time>
      </trkpt>
      <trkpt lat="49.19892" lon="1.45397">
        <ele>142.60000610352</ele>
        <time>2021-05-10T11:20:23.000Z</time>
      </trkpt>
      <trkpt lat="49.19915" lon="1.45414">
        <ele>143.39999389648</ele>
        <time>2021-05-10T11:20:30.000Z</time>
      </trkpt>
      <trkpt lat="49.19918" lon="1.45415">
        <ele>143.80000305176</ele>
        <time>2021-05-10T11:20:31.000Z</time>
      </trkpt>
      <trkpt lat="49.19927" lon="1.45423">
        <ele>144.39999389648</ele>
        <time>2021-05-10T11:20:34.000Z</time>
      </trkpt>
      <trkpt lat="49.19931" lon="1.45431">
        <ele>144.80000305176</ele>
        <time>2021-05-10T11:20:36.000Z</time>
      </trkpt>
      <trkpt lat="49.19946" lon="1.45472">
        <ele>145.39999389648</ele>
        <time>2021-05-10T11:20:44.000Z</time>
      </trkpt>
      <trkpt lat="49.19949" lon="1.45484">
        <ele>145.80000305176</ele>
        <time>2021-05-10T11:20:46.000Z</time>
      </trkpt>
      <trkpt lat="49.1995" lon="1.45496">
        <ele>146</ele>
        <time>2021-05-10T11:20:48.000Z</time>
      </trkpt>
      <trkpt lat="49.1995" lon="1.4552">
        <ele>146.60000610352</ele>
        <time>2021-05-10T11:20:52.000Z</time>
      </trkpt>
      <trkpt lat="49.19943" lon="1.45549">
        <ele>147</ele>
        <time>2021-05-10T11:20:57.000Z</time>
      </trkpt>
      <trkpt lat="49.19941" lon="1.45555">
        <ele>147</ele>
        <time>2021-05-10T11:20:58.000Z</time>
      </trkpt>
      <trkpt lat="49.19935" lon="1.45571">
        <ele>147.19999694824</ele>
        <time>2021-05-10T11:21:01.000Z</time>
      </trkpt>
      <trkpt lat="49.19923" lon="1.45598">
        <ele>147.19999694824</ele>
        <time>2021-05-10T11:21:06.000Z</time>
      </trkpt>
      <trkpt lat="49.19921" lon="1.45604">
        <ele>147.19999694824</ele>
        <time>2021-05-10T11:21:07.000Z</time>
      </trkpt>
      <trkpt lat="49.19918" lon="1.45629">
        <ele>147.39999389648</ele>
        <time>2021-05-10T11:21:11.000Z</time>
      </trkpt>
      <trkpt lat="49.1992" lon="1.45662">
        <ele>147.60000610352</ele>
        <time>2021-05-10T11:21:16.000Z</time>
      </trkpt>
      <trkpt lat="49.19921" lon="1.45668">
        <ele>147.60000610352</ele>
        <time>2021-05-10T11:21:17.000Z</time>
      </trkpt>
      <trkpt lat="49.19923" lon="1.45674">
        <ele>147.80000305176</ele>
        <time>2021-05-10T11:21:18.000Z</time>
      </trkpt>
      <trkpt lat="49.19934" lon="1.45683">
        <ele>148</ele>
        <time>2021-05-10T11:21:21.000Z</time>
      </trkpt>
      <trkpt lat="49.19938" lon="1.45686">
        <ele>148</ele>
        <time>2021-05-10T11:21:22.000Z</time>
      </trkpt>
      <trkpt lat="49.19942" lon="1.4569">
        <ele>148.19999694824</ele>
        <time>2021-05-10T11:21:23.000Z</time>
      </trkpt>
      <trkpt lat="49.19956" lon="1.45704">
        <ele>148.60000610352</ele>
        <time>2021-05-10T11:21:27.000Z</time>
      </trkpt>
      <trkpt lat="49.19964" lon="1.45712">
        <ele>149</ele>
        <time>2021-05-10T11:21:29.000Z</time>
      </trkpt>
      <trkpt lat="49.19983" lon="1.45729">
        <ele>149.19999694824</ele>
        <time>2021-05-10T11:21:34.000Z</time>
      </trkpt>
      <trkpt lat="49.1999" lon="1.45735">
        <ele>149.19999694824</ele>
        <time>2021-05-10T11:21:36.000Z</time>
      </trkpt>
      <trkpt lat="49.19998" lon="1.45738">
        <ele>149.19999694824</ele>
        <time>2021-05-10T11:21:38.000Z</time>
      </trkpt>
      <trkpt lat="49.20022" lon="1.45748">
        <ele>149.60000610352</ele>
        <time>2021-05-10T11:21:44.000Z</time>
      </trkpt>
      <trkpt lat="49.20026" lon="1.45749">
        <ele>149.80000305176</ele>
        <time>2021-05-10T11:21:45.000Z</time>
      </trkpt>
      <trkpt lat="49.20052" lon="1.45765">
        <ele>150.39999389648</ele>
        <time>2021-05-10T11:21:52.000Z</time>
      </trkpt>
      <trkpt lat="49.2006" lon="1.45771">
        <ele>150.80000305176</ele>
        <time>2021-05-10T11:21:54.000Z</time>
      </trkpt>
      <trkpt lat="49.2008" lon="1.4579">
        <ele>151.60000610352</ele>
        <time>2021-05-10T11:22:00.000Z</time>
      </trkpt>
      <trkpt lat="49.20086" lon="1.45797">
        <ele>151.80000305176</ele>
        <time>2021-05-10T11:22:02.000Z</time>
      </trkpt>
      <trkpt lat="49.20098" lon="1.45811">
        <ele>152.19999694824</ele>
        <time>2021-05-10T11:22:06.000Z</time>
      </trkpt>
      <trkpt lat="49.20112" lon="1.45827">
        <ele>152.60000610352</ele>
        <time>2021-05-10T11:22:11.000Z</time>
      </trkpt>
      <trkpt lat="49.2012" lon="1.45841">
        <ele>152.80000305176</ele>
        <time>2021-05-10T11:22:15.000Z</time>
      </trkpt>
      <trkpt lat="49.20114" lon="1.45845">
        <ele>152.80000305176</ele>
        <time>2021-05-10T11:22:18.000Z</time>
      </trkpt>
      <trkpt lat="49.20111" lon="1.45846">
        <ele>152.80000305176</ele>
        <time>2021-05-10T11:22:19.000Z</time>
      </trkpt>
      <trkpt lat="49.20093" lon="1.45854">
        <ele>153</ele>
        <time>2021-05-10T11:22:25.000Z</time>
      </trkpt>
      <trkpt lat="49.20074" lon="1.45865">
        <ele>153</ele>
        <time>2021-05-10T11:22:31.000Z</time>
      </trkpt>
      <trkpt lat="49.20049" lon="1.45886">
        <ele>153.19999694824</ele>
        <time>2021-05-10T11:22:39.000Z</time>
      </trkpt>
      <trkpt lat="49.20025" lon="1.4591">
        <ele>153.19999694824</ele>
        <time>2021-05-10T11:22:47.000Z</time>
      </trkpt>
      <trkpt lat="49.19993" lon="1.45934">
        <ele>152.80000305176</ele>
        <time>2021-05-10T11:22:56.000Z</time>
      </trkpt>
      <trkpt lat="49.1998" lon="1.45937">
        <ele>152.60000610352</ele>
        <time>2021-05-10T11:22:59.000Z</time>
      </trkpt>
      <trkpt lat="49.19967" lon="1.45938">
        <ele>152.39999389648</ele>
        <time>2021-05-10T11:23:02.000Z</time>
      </trkpt>
      <trkpt lat="49.1995" lon="1.45941">
        <ele>151.80000305176</ele>
        <time>2021-05-10T11:23:06.000Z</time>
      </trkpt>
      <trkpt lat="49.19941" lon="1.45945">
        <ele>151.39999389648</ele>
        <time>2021-05-10T11:23:08.000Z</time>
      </trkpt>
      <trkpt lat="49.19917" lon="1.45966">
        <ele>151</ele>
        <time>2021-05-10T11:23:14.000Z</time>
      </trkpt>
      <trkpt lat="49.19913" lon="1.4597">
        <ele>150.80000305176</ele>
        <time>2021-05-10T11:23:15.000Z</time>
      </trkpt>
      <trkpt lat="49.19888" lon="1.45995">
        <ele>150.60000610352</ele>
        <time>2021-05-10T11:23:22.000Z</time>
      </trkpt>
      <trkpt lat="49.19851" lon="1.46032">
        <ele>150</ele>
        <time>2021-05-10T11:23:32.000Z</time>
      </trkpt>
      <trkpt lat="49.19844" lon="1.4604">
        <ele>149.80000305176</ele>
        <time>2021-05-10T11:23:34.000Z</time>
      </trkpt>
      <trkpt lat="49.19829" lon="1.46055">
        <ele>148.60000610352</ele>
        <time>2021-05-10T11:23:38.000Z</time>
      </trkpt>
      <trkpt lat="49.19817" lon="1.46067">
        <ele>148.19999694824</ele>
        <time>2021-05-10T11:23:41.000Z</time>
      </trkpt>
      <trkpt lat="49.198" lon="1.46083">
        <ele>147.60000610352</ele>
        <time>2021-05-10T11:23:45.000Z</time>
      </trkpt>
      <trkpt lat="49.19777" lon="1.46104">
        <ele>146.60000610352</ele>
        <time>2021-05-10T11:23:51.000Z</time>
      </trkpt>
      <trkpt lat="49.1977" lon="1.46111">
        <ele>146.39999389648</ele>
        <time>2021-05-10T11:23:53.000Z</time>
      </trkpt>
      <trkpt lat="49.19735" lon="1.46144">
        <ele>146</ele>
        <time>2021-05-10T11:24:02.000Z</time>
      </trkpt>
      <trkpt lat="49.1971" lon="1.4617">
        <ele>145.80000305176</ele>
        <time>2021-05-10T11:24:09.000Z</time>
      </trkpt>
      <trkpt lat="49.19686" lon="1.46207">
        <ele>146</ele>
        <time>2021-05-10T11:24:17.000Z</time>
      </trkpt>
      <trkpt lat="49.19668" lon="1.46241">
        <ele>146.19999694824</ele>
        <time>2021-05-10T11:24:24.000Z</time>
      </trkpt>
      <trkpt lat="49.19644" lon="1.46283">
        <ele>147.39999389648</ele>
        <time>2021-05-10T11:24:33.000Z</time>
      </trkpt>
      <trkpt lat="49.19641" lon="1.46288">
        <ele>147.39999389648</ele>
        <time>2021-05-10T11:24:34.000Z</time>
      </trkpt>
      <trkpt lat="49.19618" lon="1.46322">
        <ele>148.39999389648</ele>
        <time>2021-05-10T11:24:42.000Z</time>
      </trkpt>
      <trkpt lat="49.19611" lon="1.46328">
        <ele>148.60000610352</ele>
        <time>2021-05-10T11:24:44.000Z</time>
      </trkpt>
      <trkpt lat="49.19596" lon="1.46345">
        <ele>148.60000610352</ele>
        <time>2021-05-10T11:24:49.000Z</time>
      </trkpt>
      <trkpt lat="49.19582" lon="1.46361">
        <ele>148.60000610352</ele>
        <time>2021-05-10T11:24:54.000Z</time>
      </trkpt>
      <trkpt lat="49.1957" lon="1.46374">
        <ele>148.39999389648</ele>
        <time>2021-05-10T11:25:00.000Z</time>
      </trkpt>
      <trkpt lat="49.19568" lon="1.46375">
        <ele>148.39999389648</ele>
        <time>2021-05-10T11:25:01.000Z</time>
      </trkpt>
      <trkpt lat="49.19566" lon="1.46383">
        <ele>148.39999389648</ele>
        <time>2021-05-10T11:25:03.000Z</time>
      </trkpt>
      <trkpt lat="49.1956" lon="1.4642">
        <ele>148.39999389648</ele>
        <time>2021-05-10T11:25:10.000Z</time>
      </trkpt>
      <trkpt lat="49.1955" lon="1.46434">
        <ele>148.39999389648</ele>
        <time>2021-05-10T11:25:13.000Z</time>
      </trkpt>
      <trkpt lat="49.19546" lon="1.46437">
        <ele>148.39999389648</ele>
        <time>2021-05-10T11:25:14.000Z</time>
      </trkpt>
      <trkpt lat="49.19538" lon="1.46443">
        <ele>148.60000610352</ele>
        <time>2021-05-10T11:25:16.000Z</time>
      </trkpt>
      <trkpt lat="49.1951" lon="1.46464">
        <ele>149.60000610352</ele>
        <time>2021-05-10T11:25:23.000Z</time>
      </trkpt>
      <trkpt lat="49.19479" lon="1.4649">
        <ele>149.80000305176</ele>
        <time>2021-05-10T11:25:32.000Z</time>
      </trkpt>
      <trkpt lat="49.19454" lon="1.4651">
        <ele>149.80000305176</ele>
        <time>2021-05-10T11:25:39.000Z</time>
      </trkpt>
      <trkpt lat="49.1942" lon="1.46539">
        <ele>150</ele>
        <time>2021-05-10T11:25:49.000Z</time>
      </trkpt>
      <trkpt lat="49.19403" lon="1.46554">
        <ele>150.80000305176</ele>
        <time>2021-05-10T11:25:54.000Z</time>
      </trkpt>
      <trkpt lat="49.1939" lon="1.46565">
        <ele>151.19999694824</ele>
        <time>2021-05-10T11:25:58.000Z</time>
      </trkpt>
      <trkpt lat="49.19363" lon="1.46588">
        <ele>151.80000305176</ele>
        <time>2021-05-10T11:26:06.000Z</time>
      </trkpt>
      <trkpt lat="49.19356" lon="1.46593">
        <ele>152</ele>
        <time>2021-05-10T11:26:08.000Z</time>
      </trkpt>
      <trkpt lat="49.19325" lon="1.46617">
        <ele>152.80000305176</ele>
        <time>2021-05-10T11:26:17.000Z</time>
      </trkpt>
      <trkpt lat="49.19318" lon="1.46621">
        <ele>153</ele>
        <time>2021-05-10T11:26:19.000Z</time>
      </trkpt>
      <trkpt lat="49.19297" lon="1.4663">
        <ele>154</ele>
        <time>2021-05-10T11:26:25.000Z</time>
      </trkpt>
      <trkpt lat="49.19264" lon="1.4664">
        <ele>154.60000610352</ele>
        <time>2021-05-10T11:26:34.000Z</time>
      </trkpt>
      <trkpt lat="49.19253" lon="1.46648">
        <ele>154.60000610352</ele>
        <time>2021-05-10T11:26:37.000Z</time>
      </trkpt>
      <trkpt lat="49.1925" lon="1.46653">
        <ele>154.60000610352</ele>
        <time>2021-05-10T11:26:38.000Z</time>
      </trkpt>
      <trkpt lat="49.19228" lon="1.46687">
        <ele>154.39999389648</ele>
        <time>2021-05-10T11:26:45.000Z</time>
      </trkpt>
      <trkpt lat="49.19207" lon="1.4672">
        <ele>153.60000610352</ele>
        <time>2021-05-10T11:26:52.000Z</time>
      </trkpt>
      <trkpt lat="49.19202" lon="1.4673">
        <ele>153.60000610352</ele>
        <time>2021-05-10T11:26:54.000Z</time>
      </trkpt>
      <trkpt lat="49.19199" lon="1.46735">
        <ele>153.60000610352</ele>
        <time>2021-05-10T11:26:55.000Z</time>
      </trkpt>
      <trkpt lat="49.19186" lon="1.46749">
        <ele>153.60000610352</ele>
        <time>2021-05-10T11:26:59.000Z</time>
      </trkpt>
      <trkpt lat="49.19183" lon="1.46752">
        <ele>153.60000610352</ele>
        <time>2021-05-10T11:27:00.000Z</time>
      </trkpt>
      <trkpt lat="49.1916" lon="1.46778">
        <ele>154.39999389648</ele>
        <time>2021-05-10T11:27:08.000Z</time>
      </trkpt>
      <trkpt lat="49.19138" lon="1.46808">
        <ele>154.80000305176</ele>
        <time>2021-05-10T11:27:15.000Z</time>
      </trkpt>
      <trkpt lat="49.19112" lon="1.46849">
        <ele>154.19999694824</ele>
        <time>2021-05-10T11:27:24.000Z</time>
      </trkpt>
      <trkpt lat="49.19096" lon="1.46879">
        <ele>153</ele>
        <time>2021-05-10T11:27:30.000Z</time>
      </trkpt>
      <trkpt lat="49.1909" lon="1.4689">
        <ele>152.80000305176</ele>
        <time>2021-05-10T11:27:32.000Z</time>
      </trkpt>
      <trkpt lat="49.19076" lon="1.46923">
        <ele>152.39999389648</ele>
        <time>2021-05-10T11:27:38.000Z</time>
      </trkpt>
      <trkpt lat="49.19065" lon="1.46945">
        <ele>152</ele>
        <time>2021-05-10T11:27:42.000Z</time>
      </trkpt>
      <trkpt lat="49.19055" lon="1.46959">
        <ele>151.80000305176</ele>
        <time>2021-05-10T11:27:45.000Z</time>
      </trkpt>
      <trkpt lat="49.19032" lon="1.4699">
        <ele>151</ele>
        <time>2021-05-10T11:27:52.000Z</time>
      </trkpt>
      <trkpt lat="49.19021" lon="1.47004">
        <ele>150.80000305176</ele>
        <time>2021-05-10T11:27:55.000Z</time>
      </trkpt>
      <trkpt lat="49.18992" lon="1.47041">
        <ele>150</ele>
        <time>2021-05-10T11:28:03.000Z</time>
      </trkpt>
      <trkpt lat="49.18959" lon="1.47074">
        <ele>148.80000305176</ele>
        <time>2021-05-10T11:28:11.000Z</time>
      </trkpt>
      <trkpt lat="49.18933" lon="1.471">
        <ele>148</ele>
        <time>2021-05-10T11:28:17.000Z</time>
      </trkpt>
      <trkpt lat="49.18925" lon="1.47111">
        <ele>147.80000305176</ele>
        <time>2021-05-10T11:28:19.000Z</time>
      </trkpt>
      <trkpt lat="49.18905" lon="1.47146">
        <ele>146.60000610352</ele>
        <time>2021-05-10T11:28:25.000Z</time>
      </trkpt>
      <trkpt lat="49.18895" lon="1.47163">
        <ele>146.19999694824</ele>
        <time>2021-05-10T11:28:28.000Z</time>
      </trkpt>
      <trkpt lat="49.18885" lon="1.47174">
        <ele>146</ele>
        <time>2021-05-10T11:28:31.000Z</time>
      </trkpt>
      <trkpt lat="49.18875" lon="1.47195">
        <ele>145.60000610352</ele>
        <time>2021-05-10T11:28:35.000Z</time>
      </trkpt>
      <trkpt lat="49.18873" lon="1.47201">
        <ele>145.39999389648</ele>
        <time>2021-05-10T11:28:36.000Z</time>
      </trkpt>
      <trkpt lat="49.1887" lon="1.47206">
        <ele>145.39999389648</ele>
        <time>2021-05-10T11:28:37.000Z</time>
      </trkpt>
      <trkpt lat="49.18857" lon="1.47232">
        <ele>145</ele>
        <time>2021-05-10T11:28:42.000Z</time>
      </trkpt>
      <trkpt lat="49.18852" lon="1.47243">
        <ele>145</ele>
        <time>2021-05-10T11:28:44.000Z</time>
      </trkpt>
      <trkpt lat="49.18846" lon="1.47258">
        <ele>145</ele>
        <time>2021-05-10T11:28:47.000Z</time>
      </trkpt>
      <trkpt lat="49.18842" lon="1.47276">
        <ele>145</ele>
        <time>2021-05-10T11:28:51.000Z</time>
      </trkpt>
      <trkpt lat="49.18839" lon="1.47279">
        <ele>145</ele>
        <time>2021-05-10T11:28:52.000Z</time>
      </trkpt>
      <trkpt lat="49.18822" lon="1.47295">
        <ele>145.19999694824</ele>
        <time>2021-05-10T11:28:58.000Z</time>
      </trkpt>
      <trkpt lat="49.18806" lon="1.47312">
        <ele>145.39999389648</ele>
        <time>2021-05-10T11:29:04.000Z</time>
      </trkpt>
      <trkpt lat="49.1879" lon="1.47325">
        <ele>144.60000610352</ele>
        <time>2021-05-10T11:29:10.000Z</time>
      </trkpt>
      <trkpt lat="49.18769" lon="1.4734">
        <ele>145</ele>
        <time>2021-05-10T11:29:17.000Z</time>
      </trkpt>
      <trkpt lat="49.18747" lon="1.47352">
        <ele>145.80000305176</ele>
        <time>2021-05-10T11:29:24.000Z</time>
      </trkpt>
      <trkpt lat="49.18727" lon="1.47364">
        <ele>146.39999389648</ele>
        <time>2021-05-10T11:29:30.000Z</time>
      </trkpt>
      <trkpt lat="49.1872" lon="1.47367">
        <ele>146.80000305176</ele>
        <time>2021-05-10T11:29:32.000Z</time>
      </trkpt>
      <trkpt lat="49.18697" lon="1.4738">
        <ele>147.39999389648</ele>
        <time>2021-05-10T11:29:39.000Z</time>
      </trkpt>
      <trkpt lat="49.18687" lon="1.47386">
        <ele>147.80000305176</ele>
        <time>2021-05-10T11:29:42.000Z</time>
      </trkpt>
      <trkpt lat="49.18668" lon="1.47399">
        <ele>148.60000610352</ele>
        <time>2021-05-10T11:29:48.000Z</time>
      </trkpt>
      <trkpt lat="49.18662" lon="1.47405">
        <ele>148.60000610352</ele>
        <time>2021-05-10T11:29:50.000Z</time>
      </trkpt>
      <trkpt lat="49.18636" lon="1.47436">
        <ele>149.60000610352</ele>
        <time>2021-05-10T11:29:59.000Z</time>
      </trkpt>
      <trkpt lat="49.18606" lon="1.47472">
        <ele>150.19999694824</ele>
        <time>2021-05-10T11:30:10.000Z</time>
      </trkpt>
      <trkpt lat="49.18598" lon="1.47483">
        <ele>150.60000610352</ele>
        <time>2021-05-10T11:30:13.000Z</time>
      </trkpt>
      <trkpt lat="49.18587" lon="1.47498">
        <ele>151</ele>
        <time>2021-05-10T11:30:17.000Z</time>
      </trkpt>
      <trkpt lat="49.1856" lon="1.47531">
        <ele>151.60000610352</ele>
        <time>2021-05-10T11:30:26.000Z</time>
      </trkpt>
      <trkpt lat="49.1853" lon="1.47569">
        <ele>151.60000610352</ele>
        <time>2021-05-10T11:30:36.000Z</time>
      </trkpt>
      <trkpt lat="49.185" lon="1.47606">
        <ele>151.80000305176</ele>
        <time>2021-05-10T11:30:45.000Z</time>
      </trkpt>
      <trkpt lat="49.1847" lon="1.47645">
        <ele>151.39999389648</ele>
        <time>2021-05-10T11:30:54.000Z</time>
      </trkpt>
      <trkpt lat="49.18438" lon="1.47683">
        <ele>150.60000610352</ele>
        <time>2021-05-10T11:31:03.000Z</time>
      </trkpt>
      <trkpt lat="49.18431" lon="1.47692">
        <ele>150.39999389648</ele>
        <time>2021-05-10T11:31:05.000Z</time>
      </trkpt>
      <trkpt lat="49.18404" lon="1.47724">
        <ele>149.80000305176</ele>
        <time>2021-05-10T11:31:12.000Z</time>
      </trkpt>
      <trkpt lat="49.18397" lon="1.47733">
        <ele>149.19999694824</ele>
        <time>2021-05-10T11:31:14.000Z</time>
      </trkpt>
      <trkpt lat="49.18381" lon="1.47752">
        <ele>148.80000305176</ele>
        <time>2021-05-10T11:31:19.000Z</time>
      </trkpt>
      <trkpt lat="49.18352" lon="1.47787">
        <ele>148.80000305176</ele>
        <time>2021-05-10T11:31:28.000Z</time>
      </trkpt>
      <trkpt lat="49.18321" lon="1.47825">
        <ele>149.39999389648</ele>
        <time>2021-05-10T11:31:38.000Z</time>
      </trkpt>
      <trkpt lat="49.18297" lon="1.47855">
        <ele>150</ele>
        <time>2021-05-10T11:31:46.000Z</time>
      </trkpt>
      <trkpt lat="49.18292" lon="1.47863">
        <ele>150</ele>
        <time>2021-05-10T11:31:48.000Z</time>
      </trkpt>
      <trkpt lat="49.18294" lon="1.47872">
        <ele>150.19999694824</ele>
        <time>2021-05-10T11:31:50.000Z</time>
      </trkpt>
      <trkpt lat="49.18296" lon="1.47876">
        <ele>150.39999389648</ele>
        <time>2021-05-10T11:31:51.000Z</time>
      </trkpt>
      <trkpt lat="49.18298" lon="1.4788">
        <ele>150.39999389648</ele>
        <time>2021-05-10T11:31:52.000Z</time>
      </trkpt>
      <trkpt lat="49.18308" lon="1.47896">
        <ele>150.39999389648</ele>
        <time>2021-05-10T11:31:56.000Z</time>
      </trkpt>
      <trkpt lat="49.18317" lon="1.47909">
        <ele>151.39999389648</ele>
        <time>2021-05-10T11:31:59.000Z</time>
      </trkpt>
      <trkpt lat="49.1834" lon="1.47946">
        <ele>151.80000305176</ele>
        <time>2021-05-10T11:32:07.000Z</time>
      </trkpt>
      <trkpt lat="49.18367" lon="1.47989">
        <ele>152</ele>
        <time>2021-05-10T11:32:16.000Z</time>
      </trkpt>
      <trkpt lat="49.18398" lon="1.48038">
        <ele>152.19999694824</ele>
        <time>2021-05-10T11:32:26.000Z</time>
      </trkpt>
      <trkpt lat="49.18428" lon="1.48087">
        <ele>152.19999694824</ele>
        <time>2021-05-10T11:32:36.000Z</time>
      </trkpt>
      <trkpt lat="49.18457" lon="1.48133">
        <ele>152.19999694824</ele>
        <time>2021-05-10T11:32:45.000Z</time>
      </trkpt>
      <trkpt lat="49.18486" lon="1.48179">
        <ele>152.19999694824</ele>
        <time>2021-05-10T11:32:54.000Z</time>
      </trkpt>
      <trkpt lat="49.18511" lon="1.4822">
        <ele>152.39999389648</ele>
        <time>2021-05-10T11:33:02.000Z</time>
      </trkpt>
      <trkpt lat="49.1852" lon="1.48234">
        <ele>152.60000610352</ele>
        <time>2021-05-10T11:33:05.000Z</time>
      </trkpt>
      <trkpt lat="49.18537" lon="1.48263">
        <ele>153.39999389648</ele>
        <time>2021-05-10T11:33:11.000Z</time>
      </trkpt>
      <trkpt lat="49.1855" lon="1.48283">
        <ele>153.80000305176</ele>
        <time>2021-05-10T11:33:15.000Z</time>
      </trkpt>
      <trkpt lat="49.18578" lon="1.48329">
        <ele>154.39999389648</ele>
        <time>2021-05-10T11:33:24.000Z</time>
      </trkpt>
      <trkpt lat="49.18581" lon="1.48334">
        <ele>154.60000610352</ele>
        <time>2021-05-10T11:33:25.000Z</time>
      </trkpt>
      <trkpt lat="49.18611" lon="1.48384">
        <ele>155</ele>
        <time>2021-05-10T11:33:35.000Z</time>
      </trkpt>
      <trkpt lat="49.18642" lon="1.48433">
        <ele>155.60000610352</ele>
        <time>2021-05-10T11:33:45.000Z</time>
      </trkpt>
      <trkpt lat="49.18645" lon="1.48438">
        <ele>155.60000610352</ele>
        <time>2021-05-10T11:33:46.000Z</time>
      </trkpt>
      <trkpt lat="49.18677" lon="1.48489">
        <ele>156</ele>
        <time>2021-05-10T11:33:56.000Z</time>
      </trkpt>
      <trkpt lat="49.18697" lon="1.4852">
        <ele>156</ele>
        <time>2021-05-10T11:34:03.000Z</time>
      </trkpt>
      <trkpt lat="49.18704" lon="1.48531">
        <ele>156</ele>
        <time>2021-05-10T11:34:06.000Z</time>
      </trkpt>
      <trkpt lat="49.18704" lon="1.48536">
        <ele>156</ele>
        <time>2021-05-10T11:34:07.000Z</time>
      </trkpt>
      <trkpt lat="49.187" lon="1.48572">
        <ele>156.39999389648</ele>
        <time>2021-05-10T11:34:13.000Z</time>
      </trkpt>
      <trkpt lat="49.18699" lon="1.48585">
        <ele>156.60000610352</ele>
        <time>2021-05-10T11:34:15.000Z</time>
      </trkpt>
      <trkpt lat="49.18695" lon="1.48611">
        <ele>157</ele>
        <time>2021-05-10T11:34:19.000Z</time>
      </trkpt>
      <trkpt lat="49.18693" lon="1.48624">
        <ele>157.19999694824</ele>
        <time>2021-05-10T11:34:21.000Z</time>
      </trkpt>
      <trkpt lat="49.18684" lon="1.48669">
        <ele>157.60000610352</ele>
        <time>2021-05-10T11:34:28.000Z</time>
      </trkpt>
      <trkpt lat="49.18679" lon="1.48694">
        <ele>157.80000305176</ele>
        <time>2021-05-10T11:34:32.000Z</time>
      </trkpt>
      <trkpt lat="49.18662" lon="1.48757">
        <ele>157.19999694824</ele>
        <time>2021-05-10T11:34:42.000Z</time>
      </trkpt>
      <trkpt lat="49.1865" lon="1.48803">
        <ele>156.60000610352</ele>
        <time>2021-05-10T11:34:49.000Z</time>
      </trkpt>
      <trkpt lat="49.18642" lon="1.48837">
        <ele>156.39999389648</ele>
        <time>2021-05-10T11:34:54.000Z</time>
      </trkpt>
      <trkpt lat="49.18622" lon="1.48918">
        <ele>156.60000610352</ele>
        <time>2021-05-10T11:35:06.000Z</time>
      </trkpt>
      <trkpt lat="49.18609" lon="1.48987">
        <ele>156.60000610352</ele>
        <time>2021-05-10T11:35:16.000Z</time>
      </trkpt>
      <trkpt lat="49.18605" lon="1.49015">
        <ele>156.39999389648</ele>
        <time>2021-05-10T11:35:20.000Z</time>
      </trkpt>
      <trkpt lat="49.18604" lon="1.4903">
        <ele>156.39999389648</ele>
        <time>2021-05-10T11:35:22.000Z</time>
      </trkpt>
      <trkpt lat="49.18605" lon="1.49038">
        <ele>156.19999694824</ele>
        <time>2021-05-10T11:35:23.000Z</time>
      </trkpt>
      <trkpt lat="49.18608" lon="1.49061">
        <ele>156.19999694824</ele>
        <time>2021-05-10T11:35:26.000Z</time>
      </trkpt>
      <trkpt lat="49.18608" lon="1.49084">
        <ele>156.19999694824</ele>
        <time>2021-05-10T11:35:29.000Z</time>
      </trkpt>
      <trkpt lat="49.18606" lon="1.49091">
        <ele>156.19999694824</ele>
        <time>2021-05-10T11:35:30.000Z</time>
      </trkpt>
      <trkpt lat="49.18597" lon="1.49105">
        <ele>156.39999389648</ele>
        <time>2021-05-10T11:35:33.000Z</time>
      </trkpt>
      <trkpt lat="49.18593" lon="1.49109">
        <ele>156.39999389648</ele>
        <time>2021-05-10T11:35:34.000Z</time>
      </trkpt>
      <trkpt lat="49.18583" lon="1.49122">
        <ele>156.60000610352</ele>
        <time>2021-05-10T11:35:39.000Z</time>
      </trkpt>
      <trkpt lat="49.18583" lon="1.49122">
        <ele>156.60000610352</ele>
        <time>2021-05-10T11:35:40.000Z</time>
      </trkpt>
      <trkpt lat="49.18582" lon="1.49122">
        <ele>156.19999694824</ele>
        <time>2021-05-10T11:36:32.000Z</time>
      </trkpt>
      <trkpt lat="49.1858" lon="1.49126">
        <ele>156.19999694824</ele>
        <time>2021-05-10T11:36:34.000Z</time>
      </trkpt>
      <trkpt lat="49.18572" lon="1.4914">
        <ele>156.19999694824</ele>
        <time>2021-05-10T11:36:38.000Z</time>
      </trkpt>
      <trkpt lat="49.18561" lon="1.49165">
        <ele>156</ele>
        <time>2021-05-10T11:36:43.000Z</time>
      </trkpt>
      <trkpt lat="49.18563" lon="1.4919">
        <ele>156</ele>
        <time>2021-05-10T11:36:47.000Z</time>
      </trkpt>
      <trkpt lat="49.1857" lon="1.49234">
        <ele>155.80000305176</ele>
        <time>2021-05-10T11:36:53.000Z</time>
      </trkpt>
      <trkpt lat="49.1857" lon="1.49242">
        <ele>155.80000305176</ele>
        <time>2021-05-10T11:36:54.000Z</time>
      </trkpt>
      <trkpt lat="49.18572" lon="1.49317">
        <ele>155.80000305176</ele>
        <time>2021-05-10T11:37:04.000Z</time>
      </trkpt>
      <trkpt lat="49.18571" lon="1.49348">
        <ele>155.39999389648</ele>
        <time>2021-05-10T11:37:08.000Z</time>
      </trkpt>
      <trkpt lat="49.1857" lon="1.49356">
        <ele>155.39999389648</ele>
        <time>2021-05-10T11:37:09.000Z</time>
      </trkpt>
      <trkpt lat="49.18568" lon="1.49364">
        <ele>155.60000610352</ele>
        <time>2021-05-10T11:37:10.000Z</time>
      </trkpt>
      <trkpt lat="49.18555" lon="1.49425">
        <ele>155.39999389648</ele>
        <time>2021-05-10T11:37:18.000Z</time>
      </trkpt>
      <trkpt lat="49.1855" lon="1.49464">
        <ele>154.39999389648</ele>
        <time>2021-05-10T11:37:23.000Z</time>
      </trkpt>
      <trkpt lat="49.18549" lon="1.49472">
        <ele>154.19999694824</ele>
        <time>2021-05-10T11:37:24.000Z</time>
      </trkpt>
      <trkpt lat="49.18546" lon="1.49487">
        <ele>153.80000305176</ele>
        <time>2021-05-10T11:37:26.000Z</time>
      </trkpt>
      <trkpt lat="49.18541" lon="1.4951">
        <ele>153.60000610352</ele>
        <time>2021-05-10T11:37:29.000Z</time>
      </trkpt>
      <trkpt lat="49.1854" lon="1.49517">
        <ele>153.19999694824</ele>
        <time>2021-05-10T11:37:30.000Z</time>
      </trkpt>
      <trkpt lat="49.1854" lon="1.49533">
        <ele>153.19999694824</ele>
        <time>2021-05-10T11:37:32.000Z</time>
      </trkpt>
      <trkpt lat="49.18543" lon="1.49549">
        <ele>153</ele>
        <time>2021-05-10T11:37:34.000Z</time>
      </trkpt>
      <trkpt lat="49.18549" lon="1.4958">
        <ele>153</ele>
        <time>2021-05-10T11:37:38.000Z</time>
      </trkpt>
      <trkpt lat="49.18551" lon="1.49594">
        <ele>152.80000305176</ele>
        <time>2021-05-10T11:37:40.000Z</time>
      </trkpt>
      <trkpt lat="49.18547" lon="1.49608">
        <ele>152.80000305176</ele>
        <time>2021-05-10T11:37:42.000Z</time>
      </trkpt>
      <trkpt lat="49.18538" lon="1.49619">
        <ele>152.80000305176</ele>
        <time>2021-05-10T11:37:44.000Z</time>
      </trkpt>
      <trkpt lat="49.1852" lon="1.49643">
        <ele>152.60000610352</ele>
        <time>2021-05-10T11:37:48.000Z</time>
      </trkpt>
      <trkpt lat="49.18507" lon="1.4966">
        <ele>152.39999389648</ele>
        <time>2021-05-10T11:37:51.000Z</time>
      </trkpt>
      <trkpt lat="49.18488" lon="1.49683">
        <ele>151.19999694824</ele>
        <time>2021-05-10T11:37:55.000Z</time>
      </trkpt>
      <trkpt lat="49.18479" lon="1.49693">
        <ele>150.60000610352</ele>
        <time>2021-05-10T11:37:57.000Z</time>
      </trkpt>
      <trkpt lat="49.1847" lon="1.49703">
        <ele>150.19999694824</ele>
        <time>2021-05-10T11:37:59.000Z</time>
      </trkpt>
      <trkpt lat="49.18466" lon="1.49707">
        <ele>150.19999694824</ele>
        <time>2021-05-10T11:38:00.000Z</time>
      </trkpt>
      <trkpt lat="49.1845" lon="1.49716">
        <ele>149.80000305176</ele>
        <time>2021-05-10T11:38:03.000Z</time>
      </trkpt>
      <trkpt lat="49.18404" lon="1.4974">
        <ele>149</ele>
        <time>2021-05-10T11:38:10.000Z</time>
      </trkpt>
      <trkpt lat="49.18378" lon="1.49755">
        <ele>147.80000305176</ele>
        <time>2021-05-10T11:38:14.000Z</time>
      </trkpt>
      <trkpt lat="49.18364" lon="1.49765">
        <ele>147.19999694824</ele>
        <time>2021-05-10T11:38:16.000Z</time>
      </trkpt>
      <trkpt lat="49.18349" lon="1.49772">
        <ele>146.60000610352</ele>
        <time>2021-05-10T11:38:18.000Z</time>
      </trkpt>
      <trkpt lat="49.18328" lon="1.49785">
        <ele>145.80000305176</ele>
        <time>2021-05-10T11:38:21.000Z</time>
      </trkpt>
      <trkpt lat="49.18321" lon="1.49789">
        <ele>145.19999694824</ele>
        <time>2021-05-10T11:38:22.000Z</time>
      </trkpt>
      <trkpt lat="49.18306" lon="1.49797">
        <ele>144</ele>
        <time>2021-05-10T11:38:24.000Z</time>
      </trkpt>
      <trkpt lat="49.18288" lon="1.49808">
        <ele>142.80000305176</ele>
        <time>2021-05-10T11:38:26.000Z</time>
      </trkpt>
      <trkpt lat="49.18262" lon="1.49823">
        <ele>141.19999694824</ele>
        <time>2021-05-10T11:38:29.000Z</time>
      </trkpt>
      <trkpt lat="49.18254" lon="1.49824">
        <ele>140.60000610352</ele>
        <time>2021-05-10T11:38:30.000Z</time>
      </trkpt>
      <trkpt lat="49.18239" lon="1.49824">
        <ele>139.80000305176</ele>
        <time>2021-05-10T11:38:32.000Z</time>
      </trkpt>
      <trkpt lat="49.18232" lon="1.49823">
        <ele>139</ele>
        <time>2021-05-10T11:38:33.000Z</time>
      </trkpt>
      <trkpt lat="49.18226" lon="1.49821">
        <ele>138</ele>
        <time>2021-05-10T11:38:34.000Z</time>
      </trkpt>
      <trkpt lat="49.1822" lon="1.49818">
        <ele>136.39999389648</ele>
        <time>2021-05-10T11:38:35.000Z</time>
      </trkpt>
      <trkpt lat="49.18215" lon="1.49814">
        <ele>134.60000610352</ele>
        <time>2021-05-10T11:38:36.000Z</time>
      </trkpt>
      <trkpt lat="49.18209" lon="1.4981">
        <ele>133.19999694824</ele>
        <time>2021-05-10T11:38:37.000Z</time>
      </trkpt>
      <trkpt lat="49.18203" lon="1.49807">
        <ele>132</ele>
        <time>2021-05-10T11:38:38.000Z</time>
      </trkpt>
      <trkpt lat="49.18198" lon="1.49804">
        <ele>130.80000305176</ele>
        <time>2021-05-10T11:38:39.000Z</time>
      </trkpt>
      <trkpt lat="49.18192" lon="1.49802">
        <ele>129</ele>
        <time>2021-05-10T11:38:40.000Z</time>
      </trkpt>
      <trkpt lat="49.1818" lon="1.49799">
        <ele>128.60000610352</ele>
        <time>2021-05-10T11:38:42.000Z</time>
      </trkpt>
      <trkpt lat="49.18161" lon="1.49794">
        <ele>128.39999389648</ele>
        <time>2021-05-10T11:38:46.000Z</time>
      </trkpt>
      <trkpt lat="49.18157" lon="1.49793">
        <ele>128.39999389648</ele>
        <time>2021-05-10T11:38:47.000Z</time>
      </trkpt>
      <trkpt lat="49.18134" lon="1.49787">
        <ele>129.80000305176</ele>
        <time>2021-05-10T11:38:53.000Z</time>
      </trkpt>
      <trkpt lat="49.18127" lon="1.49786">
        <ele>130</ele>
        <time>2021-05-10T11:38:55.000Z</time>
      </trkpt>
      <trkpt lat="49.1812" lon="1.49784">
        <ele>131.60000610352</ele>
        <time>2021-05-10T11:38:58.000Z</time>
      </trkpt>
      <trkpt lat="49.18117" lon="1.49784">
        <ele>132.19999694824</ele>
        <time>2021-05-10T11:38:59.000Z</time>
      </trkpt>
      <trkpt lat="49.18115" lon="1.49784">
        <ele>132.80000305176</ele>
        <time>2021-05-10T11:39:00.000Z</time>
      </trkpt>
      <trkpt lat="49.18112" lon="1.49784">
        <ele>133.80000305176</ele>
        <time>2021-05-10T11:39:02.000Z</time>
      </trkpt>
      <trkpt lat="49.18107" lon="1.49785">
        <ele>135.19999694824</ele>
        <time>2021-05-10T11:39:04.000Z</time>
      </trkpt>
      <trkpt lat="49.18105" lon="1.49785">
        <ele>135.80000305176</ele>
        <time>2021-05-10T11:39:05.000Z</time>
      </trkpt>
      <trkpt lat="49.18103" lon="1.49785">
        <ele>136.60000610352</ele>
        <time>2021-05-10T11:39:06.000Z</time>
      </trkpt>
      <trkpt lat="49.18099" lon="1.49786">
        <ele>137.60000610352</ele>
        <time>2021-05-10T11:39:08.000Z</time>
      </trkpt>
      <trkpt lat="49.18095" lon="1.49787">
        <ele>139</ele>
        <time>2021-05-10T11:39:10.000Z</time>
      </trkpt>
      <trkpt lat="49.18091" lon="1.49787">
        <ele>139.39999389648</ele>
        <time>2021-05-10T11:39:12.000Z</time>
      </trkpt>
      <trkpt lat="49.18088" lon="1.49788">
        <ele>140.19999694824</ele>
        <time>2021-05-10T11:39:14.000Z</time>
      </trkpt>
      <trkpt lat="49.18084" lon="1.49789">
        <ele>141.39999389648</ele>
        <time>2021-05-10T11:39:16.000Z</time>
      </trkpt>
      <trkpt lat="49.18079" lon="1.49791">
        <ele>142</ele>
        <time>2021-05-10T11:39:19.000Z</time>
      </trkpt>
      <trkpt lat="49.18076" lon="1.49792">
        <ele>142.60000610352</ele>
        <time>2021-05-10T11:39:21.000Z</time>
      </trkpt>
      <trkpt lat="49.18064" lon="1.49797">
        <ele>143.60000610352</ele>
        <time>2021-05-10T11:39:29.000Z</time>
      </trkpt>
      <trkpt lat="49.18055" lon="1.498">
        <ele>144.80000305176</ele>
        <time>2021-05-10T11:39:34.000Z</time>
      </trkpt>
      <trkpt lat="49.18049" lon="1.49802">
        <ele>145.39999389648</ele>
        <time>2021-05-10T11:39:37.000Z</time>
      </trkpt>
      <trkpt lat="49.18046" lon="1.49804">
        <ele>145.80000305176</ele>
        <time>2021-05-10T11:39:39.000Z</time>
      </trkpt>
      <trkpt lat="49.18033" lon="1.49808">
        <ele>146.80000305176</ele>
        <time>2021-05-10T11:39:46.000Z</time>
      </trkpt>
      <trkpt lat="49.18017" lon="1.49815">
        <ele>148</ele>
        <time>2021-05-10T11:39:53.000Z</time>
      </trkpt>
      <trkpt lat="49.18015" lon="1.49816">
        <ele>148</ele>
        <time>2021-05-10T11:39:54.000Z</time>
      </trkpt>
      <trkpt lat="49.17993" lon="1.49828">
        <ele>148.80000305176</ele>
        <time>2021-05-10T11:40:02.000Z</time>
      </trkpt>
      <trkpt lat="49.17985" lon="1.49833">
        <ele>149</ele>
        <time>2021-05-10T11:40:05.000Z</time>
      </trkpt>
      <trkpt lat="49.17967" lon="1.49847">
        <ele>149.19999694824</ele>
        <time>2021-05-10T11:40:11.000Z</time>
      </trkpt>
      <trkpt lat="49.17951" lon="1.49863">
        <ele>150</ele>
        <time>2021-05-10T11:40:17.000Z</time>
      </trkpt>
      <trkpt lat="49.17942" lon="1.49872">
        <ele>150.60000610352</ele>
        <time>2021-05-10T11:40:20.000Z</time>
      </trkpt>
      <trkpt lat="49.17935" lon="1.49876">
        <ele>151.19999694824</ele>
        <time>2021-05-10T11:40:22.000Z</time>
      </trkpt>
      <trkpt lat="49.17924" lon="1.49879">
        <ele>151.39999389648</ele>
        <time>2021-05-10T11:40:25.000Z</time>
      </trkpt>
      <trkpt lat="49.17886" lon="1.49882">
        <ele>151.19999694824</ele>
        <time>2021-05-10T11:40:35.000Z</time>
      </trkpt>
      <trkpt lat="49.17853" lon="1.49886">
        <ele>151</ele>
        <time>2021-05-10T11:40:43.000Z</time>
      </trkpt>
      <trkpt lat="49.17825" lon="1.49894">
        <ele>151.39999389648</ele>
        <time>2021-05-10T11:40:50.000Z</time>
      </trkpt>
      <trkpt lat="49.17787" lon="1.49906">
        <ele>151.80000305176</ele>
        <time>2021-05-10T11:41:00.000Z</time>
      </trkpt>
      <trkpt lat="49.17752" lon="1.49922">
        <ele>151.39999389648</ele>
        <time>2021-05-10T11:41:09.000Z</time>
      </trkpt>
      <trkpt lat="49.17721" lon="1.4994">
        <ele>150.80000305176</ele>
        <time>2021-05-10T11:41:17.000Z</time>
      </trkpt>
      <trkpt lat="49.17683" lon="1.49966">
        <ele>150.60000610352</ele>
        <time>2021-05-10T11:41:26.000Z</time>
      </trkpt>
      <trkpt lat="49.17655" lon="1.49986">
        <ele>150</ele>
        <time>2021-05-10T11:41:33.000Z</time>
      </trkpt>
      <trkpt lat="49.17651" lon="1.49989">
        <ele>150</ele>
        <time>2021-05-10T11:41:34.000Z</time>
      </trkpt>
      <trkpt lat="49.17609" lon="1.50017">
        <ele>149.60000610352</ele>
        <time>2021-05-10T11:41:44.000Z</time>
      </trkpt>
      <trkpt lat="49.17584" lon="1.50035">
        <ele>149.60000610352</ele>
        <time>2021-05-10T11:41:52.000Z</time>
      </trkpt>
      <trkpt lat="49.17566" lon="1.50051">
        <ele>149.39999389648</ele>
        <time>2021-05-10T11:41:58.000Z</time>
      </trkpt>
      <trkpt lat="49.17553" lon="1.50068">
        <ele>149</ele>
        <time>2021-05-10T11:42:04.000Z</time>
      </trkpt>
      <trkpt lat="49.17551" lon="1.50074">
        <ele>149</ele>
        <time>2021-05-10T11:42:09.000Z</time>
      </trkpt>
      <trkpt lat="49.1755" lon="1.50074">
        <ele>149.19999694824</ele>
        <time>2021-05-10T11:43:18.000Z</time>
      </trkpt>
      <trkpt lat="49.17548" lon="1.5007">
        <ele>149.19999694824</ele>
        <time>2021-05-10T11:43:20.000Z</time>
      </trkpt>
      <trkpt lat="49.17545" lon="1.50049">
        <ele>149.19999694824</ele>
        <time>2021-05-10T11:43:24.000Z</time>
      </trkpt>
      <trkpt lat="49.17541" lon="1.50037">
        <ele>149.19999694824</ele>
        <time>2021-05-10T11:43:26.000Z</time>
      </trkpt>
      <trkpt lat="49.17539" lon="1.50032">
        <ele>148.60000610352</ele>
        <time>2021-05-10T11:43:27.000Z</time>
      </trkpt>
      <trkpt lat="49.17536" lon="1.50028">
        <ele>148.19999694824</ele>
        <time>2021-05-10T11:43:28.000Z</time>
      </trkpt>
      <trkpt lat="49.17532" lon="1.50026">
        <ele>147.80000305176</ele>
        <time>2021-05-10T11:43:29.000Z</time>
      </trkpt>
      <trkpt lat="49.17528" lon="1.50025">
        <ele>147.39999389648</ele>
        <time>2021-05-10T11:43:30.000Z</time>
      </trkpt>
      <trkpt lat="49.17519" lon="1.50028">
        <ele>147</ele>
        <time>2021-05-10T11:43:32.000Z</time>
      </trkpt>
      <trkpt lat="49.17514" lon="1.5003">
        <ele>146.80000305176</ele>
        <time>2021-05-10T11:43:33.000Z</time>
      </trkpt>
      <trkpt lat="49.17504" lon="1.50033">
        <ele>146.39999389648</ele>
        <time>2021-05-10T11:43:35.000Z</time>
      </trkpt>
      <trkpt lat="49.17473" lon="1.50045">
        <ele>146</ele>
        <time>2021-05-10T11:43:42.000Z</time>
      </trkpt>
      <trkpt lat="49.1744" lon="1.50056">
        <ele>146.80000305176</ele>
        <time>2021-05-10T11:43:50.000Z</time>
      </trkpt>
      <trkpt lat="49.17423" lon="1.50061">
        <ele>147.39999389648</ele>
        <time>2021-05-10T11:43:54.000Z</time>
      </trkpt>
      <trkpt lat="49.17403" lon="1.50068">
        <ele>147.60000610352</ele>
        <time>2021-05-10T11:43:59.000Z</time>
      </trkpt>
      <trkpt lat="49.17376" lon="1.50076">
        <ele>147.80000305176</ele>
        <time>2021-05-10T11:44:06.000Z</time>
      </trkpt>
      <trkpt lat="49.17361" lon="1.50081">
        <ele>148.39999389648</ele>
        <time>2021-05-10T11:44:10.000Z</time>
      </trkpt>
      <trkpt lat="49.17332" lon="1.50091">
        <ele>149.19999694824</ele>
        <time>2021-05-10T11:44:18.000Z</time>
      </trkpt>
      <trkpt lat="49.17298" lon="1.50105">
        <ele>149.39999389648</ele>
        <time>2021-05-10T11:44:28.000Z</time>
      </trkpt>
      <trkpt lat="49.17291" lon="1.50109">
        <ele>149.39999389648</ele>
        <time>2021-05-10T11:44:30.000Z</time>
      </trkpt>
      <trkpt lat="49.17281" lon="1.50114">
        <ele>149.80000305176</ele>
        <time>2021-05-10T11:44:33.000Z</time>
      </trkpt>
      <trkpt lat="49.17267" lon="1.50119">
        <ele>150.60000610352</ele>
        <time>2021-05-10T11:44:37.000Z</time>
      </trkpt>
      <trkpt lat="49.17254" lon="1.50124">
        <ele>151</ele>
        <time>2021-05-10T11:44:41.000Z</time>
      </trkpt>
      <trkpt lat="49.17251" lon="1.50125">
        <ele>151.19999694824</ele>
        <time>2021-05-10T11:44:42.000Z</time>
      </trkpt>
      <trkpt lat="49.17234" lon="1.50131">
        <ele>151.60000610352</ele>
        <time>2021-05-10T11:44:47.000Z</time>
      </trkpt>
      <trkpt lat="49.17227" lon="1.50133">
        <ele>151.80000305176</ele>
        <time>2021-05-10T11:44:49.000Z</time>
      </trkpt>
      <trkpt lat="49.17202" lon="1.5014">
        <ele>152</ele>
        <time>2021-05-10T11:44:57.000Z</time>
      </trkpt>
      <trkpt lat="49.17193" lon="1.50143">
        <ele>152.39999389648</ele>
        <time>2021-05-10T11:45:00.000Z</time>
      </trkpt>
      <trkpt lat="49.17176" lon="1.50147">
        <ele>153.60000610352</ele>
        <time>2021-05-10T11:45:05.000Z</time>
      </trkpt>
      <trkpt lat="49.17155" lon="1.5016">
        <ele>154</ele>
        <time>2021-05-10T11:45:11.000Z</time>
      </trkpt>
      <trkpt lat="49.17132" lon="1.50182">
        <ele>154.80000305176</ele>
        <time>2021-05-10T11:45:18.000Z</time>
      </trkpt>
      <trkpt lat="49.17119" lon="1.50196">
        <ele>155.60000610352</ele>
        <time>2021-05-10T11:45:22.000Z</time>
      </trkpt>
      <trkpt lat="49.1711" lon="1.50206">
        <ele>155.80000305176</ele>
        <time>2021-05-10T11:45:25.000Z</time>
      </trkpt>
      <trkpt lat="49.17092" lon="1.50226">
        <ele>155.80000305176</ele>
        <time>2021-05-10T11:45:31.000Z</time>
      </trkpt>
      <trkpt lat="49.17078" lon="1.50244">
        <ele>155.39999389648</ele>
        <time>2021-05-10T11:45:37.000Z</time>
      </trkpt>
      <trkpt lat="49.17084" lon="1.50264">
        <ele>155.19999694824</ele>
        <time>2021-05-10T11:45:41.000Z</time>
      </trkpt>
      <trkpt lat="49.17101" lon="1.50312">
        <ele>156.39999389648</ele>
        <time>2021-05-10T11:45:49.000Z</time>
      </trkpt>
      <trkpt lat="49.17105" lon="1.50325">
        <ele>156.80000305176</ele>
        <time>2021-05-10T11:45:51.000Z</time>
      </trkpt>
      <trkpt lat="49.1712" lon="1.50369">
        <ele>157.19999694824</ele>
        <time>2021-05-10T11:45:58.000Z</time>
      </trkpt>
      <trkpt lat="49.17128" lon="1.50404">
        <ele>157.39999389648</ele>
        <time>2021-05-10T11:46:03.000Z</time>
      </trkpt>
      <trkpt lat="49.17127" lon="1.50411">
        <ele>157.39999389648</ele>
        <time>2021-05-10T11:46:04.000Z</time>
      </trkpt>
      <trkpt lat="49.1712" lon="1.50455">
        <ele>157.19999694824</ele>
        <time>2021-05-10T11:46:10.000Z</time>
      </trkpt>
      <trkpt lat="49.17117" lon="1.5048">
        <ele>157</ele>
        <time>2021-05-10T11:46:13.000Z</time>
      </trkpt>
      <trkpt lat="49.17115" lon="1.50496">
        <ele>156</ele>
        <time>2021-05-10T11:46:15.000Z</time>
      </trkpt>
      <trkpt lat="49.17113" lon="1.50504">
        <ele>155.80000305176</ele>
        <time>2021-05-10T11:46:16.000Z</time>
      </trkpt>
      <trkpt lat="49.17099" lon="1.50575">
        <ele>155.60000610352</ele>
        <time>2021-05-10T11:46:25.000Z</time>
      </trkpt>
      <trkpt lat="49.1709" lon="1.50658">
        <ele>155.39999389648</ele>
        <time>2021-05-10T11:46:35.000Z</time>
      </trkpt>
      <trkpt lat="49.17095" lon="1.50716">
        <ele>155.19999694824</ele>
        <time>2021-05-10T11:46:42.000Z</time>
      </trkpt>
      <trkpt lat="49.17102" lon="1.50776">
        <ele>154.80000305176</ele>
        <time>2021-05-10T11:46:50.000Z</time>
      </trkpt>
      <trkpt lat="49.17099" lon="1.50788">
        <ele>154.39999389648</ele>
        <time>2021-05-10T11:46:52.000Z</time>
      </trkpt>
      <trkpt lat="49.17096" lon="1.50792">
        <ele>154.39999389648</ele>
        <time>2021-05-10T11:46:53.000Z</time>
      </trkpt>
      <trkpt lat="49.17084" lon="1.50805">
        <ele>154.19999694824</ele>
        <time>2021-05-10T11:46:56.000Z</time>
      </trkpt>
      <trkpt lat="49.1708" lon="1.50809">
        <ele>154.19999694824</ele>
        <time>2021-05-10T11:46:57.000Z</time>
      </trkpt>
      <trkpt lat="49.17072" lon="1.50818">
        <ele>154</ele>
        <time>2021-05-10T11:46:59.000Z</time>
      </trkpt>
      <trkpt lat="49.17063" lon="1.50828">
        <ele>153.80000305176</ele>
        <time>2021-05-10T11:47:01.000Z</time>
      </trkpt>
      <trkpt lat="49.17048" lon="1.50847">
        <ele>153.39999389648</ele>
        <time>2021-05-10T11:47:05.000Z</time>
      </trkpt>
      <trkpt lat="49.17023" lon="1.50891">
        <ele>152.19999694824</ele>
        <time>2021-05-10T11:47:12.000Z</time>
      </trkpt>
      <trkpt lat="49.17016" lon="1.50905">
        <ele>151.19999694824</ele>
        <time>2021-05-10T11:47:14.000Z</time>
      </trkpt>
      <trkpt lat="49.16996" lon="1.50955">
        <ele>150.60000610352</ele>
        <time>2021-05-10T11:47:21.000Z</time>
      </trkpt>
      <trkpt lat="49.16967" lon="1.51023">
        <ele>150.60000610352</ele>
        <time>2021-05-10T11:47:31.000Z</time>
      </trkpt>
      <trkpt lat="49.16946" lon="1.5108">
        <ele>150.60000610352</ele>
        <time>2021-05-10T11:47:39.000Z</time>
      </trkpt>
      <trkpt lat="49.16933" lon="1.51117">
        <ele>150.19999694824</ele>
        <time>2021-05-10T11:47:44.000Z</time>
      </trkpt>
      <trkpt lat="49.16927" lon="1.5114">
        <ele>150.19999694824</ele>
        <time>2021-05-10T11:47:47.000Z</time>
      </trkpt>
      <trkpt lat="49.16912" lon="1.51211">
        <ele>149.60000610352</ele>
        <time>2021-05-10T11:47:56.000Z</time>
      </trkpt>
      <trkpt lat="49.16905" lon="1.51284">
        <ele>149.80000305176</ele>
        <time>2021-05-10T11:48:05.000Z</time>
      </trkpt>
      <trkpt lat="49.16907" lon="1.51354">
        <ele>149.39999389648</ele>
        <time>2021-05-10T11:48:14.000Z</time>
      </trkpt>
      <trkpt lat="49.16907" lon="1.51362">
        <ele>149.19999694824</ele>
        <time>2021-05-10T11:48:15.000Z</time>
      </trkpt>
      <trkpt lat="49.16908" lon="1.5141">
        <ele>148.80000305176</ele>
        <time>2021-05-10T11:48:22.000Z</time>
      </trkpt>
      <trkpt lat="49.16911" lon="1.51461">
        <ele>148.19999694824</ele>
        <time>2021-05-10T11:48:29.000Z</time>
      </trkpt>
      <trkpt lat="49.16912" lon="1.51468">
        <ele>148.19999694824</ele>
        <time>2021-05-10T11:48:30.000Z</time>
      </trkpt>
      <trkpt lat="49.16915" lon="1.51518">
        <ele>147.19999694824</ele>
        <time>2021-05-10T11:48:37.000Z</time>
      </trkpt>
      <trkpt lat="49.16917" lon="1.51558">
        <ele>146.39999389648</ele>
        <time>2021-05-10T11:48:43.000Z</time>
      </trkpt>
      <trkpt lat="49.16917" lon="1.51578">
        <ele>146.19999694824</ele>
        <time>2021-05-10T11:48:46.000Z</time>
      </trkpt>
      <trkpt lat="49.16917" lon="1.51609">
        <ele>146.39999389648</ele>
        <time>2021-05-10T11:48:52.000Z</time>
      </trkpt>
      <trkpt lat="49.1691" lon="1.51613">
        <ele>146.39999389648</ele>
        <time>2021-05-10T11:48:55.000Z</time>
      </trkpt>
      <trkpt lat="49.16907" lon="1.51612">
        <ele>146.39999389648</ele>
        <time>2021-05-10T11:48:56.000Z</time>
      </trkpt>
      <trkpt lat="49.1689" lon="1.51609">
        <ele>146.39999389648</ele>
        <time>2021-05-10T11:49:00.000Z</time>
      </trkpt>
      <trkpt lat="49.16881" lon="1.51617">
        <ele>146.19999694824</ele>
        <time>2021-05-10T11:49:03.000Z</time>
      </trkpt>
      <trkpt lat="49.16879" lon="1.51622">
        <ele>146</ele>
        <time>2021-05-10T11:49:04.000Z</time>
      </trkpt>
      <trkpt lat="49.16878" lon="1.51627">
        <ele>145.80000305176</ele>
        <time>2021-05-10T11:49:05.000Z</time>
      </trkpt>
      <trkpt lat="49.16873" lon="1.51652">
        <ele>145.60000610352</ele>
        <time>2021-05-10T11:49:09.000Z</time>
      </trkpt>
      <trkpt lat="49.16859" lon="1.5173">
        <ele>145.80000305176</ele>
        <time>2021-05-10T11:49:20.000Z</time>
      </trkpt>
      <trkpt lat="49.16846" lon="1.51812">
        <ele>146</ele>
        <time>2021-05-10T11:49:32.000Z</time>
      </trkpt>
      <trkpt lat="49.1684" lon="1.51849">
        <ele>146.60000610352</ele>
        <time>2021-05-10T11:49:37.000Z</time>
      </trkpt>
      <trkpt lat="49.16836" lon="1.5187">
        <ele>146.60000610352</ele>
        <time>2021-05-10T11:49:40.000Z</time>
      </trkpt>
      <trkpt lat="49.16825" lon="1.51934">
        <ele>146.60000610352</ele>
        <time>2021-05-10T11:49:49.000Z</time>
      </trkpt>
      <trkpt lat="49.16825" lon="1.51941">
        <ele>147</ele>
        <time>2021-05-10T11:49:50.000Z</time>
      </trkpt>
      <trkpt lat="49.16827" lon="1.51983">
        <ele>147.60000610352</ele>
        <time>2021-05-10T11:49:56.000Z</time>
      </trkpt>
      <trkpt lat="49.16829" lon="1.51995">
        <ele>148</ele>
        <time>2021-05-10T11:49:58.000Z</time>
      </trkpt>
      <trkpt lat="49.16838" lon="1.52037">
        <ele>149.19999694824</ele>
        <time>2021-05-10T11:50:05.000Z</time>
      </trkpt>
      <trkpt lat="49.16839" lon="1.52043">
        <ele>149.19999694824</ele>
        <time>2021-05-10T11:50:06.000Z</time>
      </trkpt>
      <trkpt lat="49.16841" lon="1.52056">
        <ele>149.80000305176</ele>
        <time>2021-05-10T11:50:08.000Z</time>
      </trkpt>
      <trkpt lat="49.16841" lon="1.52079">
        <ele>150.19999694824</ele>
        <time>2021-05-10T11:50:12.000Z</time>
      </trkpt>
      <trkpt lat="49.16835" lon="1.52088">
        <ele>150.19999694824</ele>
        <time>2021-05-10T11:50:14.000Z</time>
      </trkpt>
      <trkpt lat="49.16828" lon="1.52094">
        <ele>150.39999389648</ele>
        <time>2021-05-10T11:50:16.000Z</time>
      </trkpt>
      <trkpt lat="49.16809" lon="1.52107">
        <ele>150.39999389648</ele>
        <time>2021-05-10T11:50:21.000Z</time>
      </trkpt>
      <trkpt lat="49.16804" lon="1.52106">
        <ele>150.39999389648</ele>
        <time>2021-05-10T11:50:22.000Z</time>
      </trkpt>
      <trkpt lat="49.16795" lon="1.52094">
        <ele>150.39999389648</ele>
        <time>2021-05-10T11:50:25.000Z</time>
      </trkpt>
      <trkpt lat="49.16792" lon="1.52089">
        <ele>150.19999694824</ele>
        <time>2021-05-10T11:50:26.000Z</time>
      </trkpt>
      <trkpt lat="49.16764" lon="1.52044">
        <ele>149.60000610352</ele>
        <time>2021-05-10T11:50:35.000Z</time>
      </trkpt>
      <trkpt lat="49.16751" lon="1.52027">
        <ele>149.39999389648</ele>
        <time>2021-05-10T11:50:39.000Z</time>
      </trkpt>
      <trkpt lat="49.16741" lon="1.52011">
        <ele>149.19999694824</ele>
        <time>2021-05-10T11:50:42.000Z</time>
      </trkpt>
      <trkpt lat="49.16722" lon="1.51983">
        <ele>148.39999389648</ele>
        <time>2021-05-10T11:50:47.000Z</time>
      </trkpt>
      <trkpt lat="49.16715" lon="1.51973">
        <ele>148.19999694824</ele>
        <time>2021-05-10T11:50:49.000Z</time>
      </trkpt>
      <trkpt lat="49.16701" lon="1.51949">
        <ele>147.80000305176</ele>
        <time>2021-05-10T11:50:54.000Z</time>
      </trkpt>
      <trkpt lat="49.16679" lon="1.51916">
        <ele>147.39999389648</ele>
        <time>2021-05-10T11:51:02.000Z</time>
      </trkpt>
      <trkpt lat="49.16663" lon="1.51892">
        <ele>147.39999389648</ele>
        <time>2021-05-10T11:51:08.000Z</time>
      </trkpt>
      <trkpt lat="49.16637" lon="1.51853">
        <ele>147.60000610352</ele>
        <time>2021-05-10T11:51:18.000Z</time>
      </trkpt>
      <trkpt lat="49.16612" lon="1.51812">
        <ele>148.80000305176</ele>
        <time>2021-05-10T11:51:27.000Z</time>
      </trkpt>
      <trkpt lat="49.16591" lon="1.51773">
        <ele>149.19999694824</ele>
        <time>2021-05-10T11:51:36.000Z</time>
      </trkpt>
      <trkpt lat="49.16577" lon="1.51748">
        <ele>149.80000305176</ele>
        <time>2021-05-10T11:51:42.000Z</time>
      </trkpt>
      <trkpt lat="49.16565" lon="1.51725">
        <ele>150.19999694824</ele>
        <time>2021-05-10T11:51:47.000Z</time>
      </trkpt>
      <trkpt lat="49.16557" lon="1.51706">
        <ele>150.19999694824</ele>
        <time>2021-05-10T11:51:51.000Z</time>
      </trkpt>
      <trkpt lat="49.16547" lon="1.51673">
        <ele>150.60000610352</ele>
        <time>2021-05-10T11:51:57.000Z</time>
      </trkpt>
      <trkpt lat="49.16535" lon="1.51626">
        <ele>150.39999389648</ele>
        <time>2021-05-10T11:52:05.000Z</time>
      </trkpt>
      <trkpt lat="49.16521" lon="1.51591">
        <ele>150.39999389648</ele>
        <time>2021-05-10T11:52:12.000Z</time>
      </trkpt>
      <trkpt lat="49.16492" lon="1.51553">
        <ele>149.80000305176</ele>
        <time>2021-05-10T11:52:22.000Z</time>
      </trkpt>
      <trkpt lat="49.1647" lon="1.5152">
        <ele>149.19999694824</ele>
        <time>2021-05-10T11:52:31.000Z</time>
      </trkpt>
      <trkpt lat="49.16454" lon="1.51494">
        <ele>149.19999694824</ele>
        <time>2021-05-10T11:52:38.000Z</time>
      </trkpt>
      <trkpt lat="49.16444" lon="1.5148">
        <ele>149.19999694824</ele>
        <time>2021-05-10T11:52:42.000Z</time>
      </trkpt>
      <trkpt lat="49.16439" lon="1.51481">
        <ele>149.39999389648</ele>
        <time>2021-05-10T11:52:44.000Z</time>
      </trkpt>
      <trkpt lat="49.16435" lon="1.51488">
        <ele>150.80000305176</ele>
        <time>2021-05-10T11:52:46.000Z</time>
      </trkpt>
      <trkpt lat="49.16433" lon="1.51492">
        <ele>151</ele>
        <time>2021-05-10T11:52:47.000Z</time>
      </trkpt>
      <trkpt lat="49.16426" lon="1.51504">
        <ele>151.60000610352</ele>
        <time>2021-05-10T11:52:50.000Z</time>
      </trkpt>
      <trkpt lat="49.16419" lon="1.51516">
        <ele>152.19999694824</ele>
        <time>2021-05-10T11:52:53.000Z</time>
      </trkpt>
      <trkpt lat="49.1641" lon="1.51532">
        <ele>153.19999694824</ele>
        <time>2021-05-10T11:52:57.000Z</time>
      </trkpt>
      <trkpt lat="49.16406" lon="1.5154">
        <ele>153.39999389648</ele>
        <time>2021-05-10T11:52:59.000Z</time>
      </trkpt>
      <trkpt lat="49.16383" lon="1.51581">
        <ele>153.80000305176</ele>
        <time>2021-05-10T11:53:09.000Z</time>
      </trkpt>
      <trkpt lat="49.16371" lon="1.516">
        <ele>154.19999694824</ele>
        <time>2021-05-10T11:53:14.000Z</time>
      </trkpt>
      <trkpt lat="49.16357" lon="1.51625">
        <ele>154.19999694824</ele>
        <time>2021-05-10T11:53:20.000Z</time>
      </trkpt>
      <trkpt lat="49.16336" lon="1.51661">
        <ele>154.19999694824</ele>
        <time>2021-05-10T11:53:29.000Z</time>
      </trkpt>
      <trkpt lat="49.1631" lon="1.5169">
        <ele>154.60000610352</ele>
        <time>2021-05-10T11:53:38.000Z</time>
      </trkpt>
      <trkpt lat="49.1629" lon="1.51711">
        <ele>154.60000610352</ele>
        <time>2021-05-10T11:53:45.000Z</time>
      </trkpt>
      <trkpt lat="49.16261" lon="1.51741">
        <ele>154.60000610352</ele>
        <time>2021-05-10T11:53:55.000Z</time>
      </trkpt>
      <trkpt lat="49.16239" lon="1.51764">
        <ele>154.80000305176</ele>
        <time>2021-05-10T11:54:02.000Z</time>
      </trkpt>
      <trkpt lat="49.16236" lon="1.51767">
        <ele>154.80000305176</ele>
        <time>2021-05-10T11:54:03.000Z</time>
      </trkpt>
      <trkpt lat="49.16217" lon="1.51788">
        <ele>154.60000610352</ele>
        <time>2021-05-10T11:54:09.000Z</time>
      </trkpt>
      <trkpt lat="49.16195" lon="1.51812">
        <ele>154.39999389648</ele>
        <time>2021-05-10T11:54:16.000Z</time>
      </trkpt>
      <trkpt lat="49.16166" lon="1.51844">
        <ele>154.19999694824</ele>
        <time>2021-05-10T11:54:25.000Z</time>
      </trkpt>
      <trkpt lat="49.16163" lon="1.51847">
        <ele>154.19999694824</ele>
        <time>2021-05-10T11:54:26.000Z</time>
      </trkpt>
      <trkpt lat="49.16136" lon="1.51876">
        <ele>153.80000305176</ele>
        <time>2021-05-10T11:54:34.000Z</time>
      </trkpt>
      <trkpt lat="49.16116" lon="1.51899">
        <ele>153.39999389648</ele>
        <time>2021-05-10T11:54:40.000Z</time>
      </trkpt>
      <trkpt lat="49.16095" lon="1.51922">
        <ele>153.19999694824</ele>
        <time>2021-05-10T11:54:46.000Z</time>
      </trkpt>
      <trkpt lat="49.16081" lon="1.51938">
        <ele>153</ele>
        <time>2021-05-10T11:54:50.000Z</time>
      </trkpt>
      <trkpt lat="49.16067" lon="1.51955">
        <ele>152.19999694824</ele>
        <time>2021-05-10T11:54:54.000Z</time>
      </trkpt>
      <trkpt lat="49.16053" lon="1.5197">
        <ele>151.60000610352</ele>
        <time>2021-05-10T11:54:58.000Z</time>
      </trkpt>
      <trkpt lat="49.16026" lon="1.52004">
        <ele>151.39999389648</ele>
        <time>2021-05-10T11:55:06.000Z</time>
      </trkpt>
      <trkpt lat="49.16008" lon="1.52025">
        <ele>151.39999389648</ele>
        <time>2021-05-10T11:55:11.000Z</time>
      </trkpt>
      <trkpt lat="49.15997" lon="1.52039">
        <ele>151.19999694824</ele>
        <time>2021-05-10T11:55:14.000Z</time>
      </trkpt>
      <trkpt lat="49.15968" lon="1.52074">
        <ele>150.80000305176</ele>
        <time>2021-05-10T11:55:22.000Z</time>
      </trkpt>
      <trkpt lat="49.1596" lon="1.52082">
        <ele>150.60000610352</ele>
        <time>2021-05-10T11:55:24.000Z</time>
      </trkpt>
      <trkpt lat="49.15935" lon="1.52113">
        <ele>149.80000305176</ele>
        <time>2021-05-10T11:55:31.000Z</time>
      </trkpt>
      <trkpt lat="49.15923" lon="1.52126">
        <ele>149.60000610352</ele>
        <time>2021-05-10T11:55:34.000Z</time>
      </trkpt>
      <trkpt lat="49.159" lon="1.52152">
        <ele>148.39999389648</ele>
        <time>2021-05-10T11:55:40.000Z</time>
      </trkpt>
      <trkpt lat="49.15892" lon="1.52161">
        <ele>148.19999694824</ele>
        <time>2021-05-10T11:55:42.000Z</time>
      </trkpt>
      <trkpt lat="49.15862" lon="1.52182">
        <ele>147.80000305176</ele>
        <time>2021-05-10T11:55:49.000Z</time>
      </trkpt>
      <trkpt lat="49.15831" lon="1.522">
        <ele>147.80000305176</ele>
        <time>2021-05-10T11:55:57.000Z</time>
      </trkpt>
      <trkpt lat="49.15807" lon="1.52212">
        <ele>148</ele>
        <time>2021-05-10T11:56:04.000Z</time>
      </trkpt>
      <trkpt lat="49.15781" lon="1.52223">
        <ele>148</ele>
        <time>2021-05-10T11:56:11.000Z</time>
      </trkpt>
      <trkpt lat="49.1577" lon="1.52228">
        <ele>147.39999389648</ele>
        <time>2021-05-10T11:56:14.000Z</time>
      </trkpt>
      <trkpt lat="49.15746" lon="1.5224">
        <ele>147</ele>
        <time>2021-05-10T11:56:20.000Z</time>
      </trkpt>
      <trkpt lat="49.15708" lon="1.5226">
        <ele>147.80000305176</ele>
        <time>2021-05-10T11:56:30.000Z</time>
      </trkpt>
      <trkpt lat="49.1567" lon="1.52279">
        <ele>148.60000610352</ele>
        <time>2021-05-10T11:56:39.000Z</time>
      </trkpt>
      <trkpt lat="49.15666" lon="1.52281">
        <ele>148.80000305176</ele>
        <time>2021-05-10T11:56:40.000Z</time>
      </trkpt>
      <trkpt lat="49.15642" lon="1.52295">
        <ele>149.60000610352</ele>
        <time>2021-05-10T11:56:46.000Z</time>
      </trkpt>
      <trkpt lat="49.15634" lon="1.52299">
        <ele>150</ele>
        <time>2021-05-10T11:56:48.000Z</time>
      </trkpt>
      <trkpt lat="49.15617" lon="1.52307">
        <ele>150.60000610352</ele>
        <time>2021-05-10T11:56:52.000Z</time>
      </trkpt>
      <trkpt lat="49.15602" lon="1.52314">
        <ele>151.19999694824</ele>
        <time>2021-05-10T11:56:56.000Z</time>
      </trkpt>
      <trkpt lat="49.15573" lon="1.52329">
        <ele>151.60000610352</ele>
        <time>2021-05-10T11:57:04.000Z</time>
      </trkpt>
      <trkpt lat="49.15552" lon="1.5234">
        <ele>151.60000610352</ele>
        <time>2021-05-10T11:57:10.000Z</time>
      </trkpt>
      <trkpt lat="49.15538" lon="1.52349">
        <ele>151.80000305176</ele>
        <time>2021-05-10T11:57:14.000Z</time>
      </trkpt>
      <trkpt lat="49.15523" lon="1.52357">
        <ele>152.60000610352</ele>
        <time>2021-05-10T11:57:18.000Z</time>
      </trkpt>
      <trkpt lat="49.15501" lon="1.52369">
        <ele>152.80000305176</ele>
        <time>2021-05-10T11:57:24.000Z</time>
      </trkpt>
      <trkpt lat="49.15493" lon="1.52373">
        <ele>153</ele>
        <time>2021-05-10T11:57:26.000Z</time>
      </trkpt>
      <trkpt lat="49.15459" lon="1.5239">
        <ele>153</ele>
        <time>2021-05-10T11:57:35.000Z</time>
      </trkpt>
      <trkpt lat="49.15433" lon="1.52403">
        <ele>152.80000305176</ele>
        <time>2021-05-10T11:57:42.000Z</time>
      </trkpt>
      <trkpt lat="49.15398" lon="1.5242">
        <ele>151.80000305176</ele>
        <time>2021-05-10T11:57:51.000Z</time>
      </trkpt>
      <trkpt lat="49.15394" lon="1.52422">
        <ele>151.60000610352</ele>
        <time>2021-05-10T11:57:52.000Z</time>
      </trkpt>
      <trkpt lat="49.15357" lon="1.52441">
        <ele>151.39999389648</ele>
        <time>2021-05-10T11:58:01.000Z</time>
      </trkpt>
      <trkpt lat="49.1532" lon="1.52463">
        <ele>151</ele>
        <time>2021-05-10T11:58:09.000Z</time>
      </trkpt>
      <trkpt lat="49.15284" lon="1.52486">
        <ele>150.60000610352</ele>
        <time>2021-05-10T11:58:17.000Z</time>
      </trkpt>
      <trkpt lat="49.15245" lon="1.52517">
        <ele>150.19999694824</ele>
        <time>2021-05-10T11:58:26.000Z</time>
      </trkpt>
      <trkpt lat="49.15222" lon="1.52535">
        <ele>149.39999389648</ele>
        <time>2021-05-10T11:58:31.000Z</time>
      </trkpt>
      <trkpt lat="49.15204" lon="1.5255">
        <ele>149</ele>
        <time>2021-05-10T11:58:35.000Z</time>
      </trkpt>
      <trkpt lat="49.15191" lon="1.52561">
        <ele>148.39999389648</ele>
        <time>2021-05-10T11:58:38.000Z</time>
      </trkpt>
      <trkpt lat="49.15155" lon="1.5259">
        <ele>147.60000610352</ele>
        <time>2021-05-10T11:58:46.000Z</time>
      </trkpt>
      <trkpt lat="49.15137" lon="1.52604">
        <ele>147.39999389648</ele>
        <time>2021-05-10T11:58:50.000Z</time>
      </trkpt>
      <trkpt lat="49.15102" lon="1.52633">
        <ele>146.80000305176</ele>
        <time>2021-05-10T11:58:58.000Z</time>
      </trkpt>
      <trkpt lat="49.15088" lon="1.52644">
        <ele>146.39999389648</ele>
        <time>2021-05-10T11:59:01.000Z</time>
      </trkpt>
      <trkpt lat="49.15053" lon="1.52672">
        <ele>145.39999389648</ele>
        <time>2021-05-10T11:59:09.000Z</time>
      </trkpt>
      <trkpt lat="49.15049" lon="1.52676">
        <ele>145.19999694824</ele>
        <time>2021-05-10T11:59:10.000Z</time>
      </trkpt>
      <trkpt lat="49.15008" lon="1.52709">
        <ele>144.39999389648</ele>
        <time>2021-05-10T11:59:20.000Z</time>
      </trkpt>
      <trkpt lat="49.14978" lon="1.52733">
        <ele>145.60000610352</ele>
        <time>2021-05-10T11:59:28.000Z</time>
      </trkpt>
      <trkpt lat="49.14948" lon="1.52759">
        <ele>146.19999694824</ele>
        <time>2021-05-10T11:59:37.000Z</time>
      </trkpt>
      <trkpt lat="49.14941" lon="1.52764">
        <ele>146.19999694824</ele>
        <time>2021-05-10T11:59:39.000Z</time>
      </trkpt>
      <trkpt lat="49.14918" lon="1.52783">
        <ele>147.19999694824</ele>
        <time>2021-05-10T11:59:46.000Z</time>
      </trkpt>
      <trkpt lat="49.14912" lon="1.52788">
        <ele>147.19999694824</ele>
        <time>2021-05-10T11:59:48.000Z</time>
      </trkpt>
      <trkpt lat="49.14888" lon="1.52807">
        <ele>148.19999694824</ele>
        <time>2021-05-10T11:59:55.000Z</time>
      </trkpt>
      <trkpt lat="49.14885" lon="1.52809">
        <ele>148.39999389648</ele>
        <time>2021-05-10T11:59:56.000Z</time>
      </trkpt>
      <trkpt lat="49.1485" lon="1.52837">
        <ele>149.19999694824</ele>
        <time>2021-05-10T12:00:06.000Z</time>
      </trkpt>
      <trkpt lat="49.14839" lon="1.52845">
        <ele>149.39999389648</ele>
        <time>2021-05-10T12:00:09.000Z</time>
      </trkpt>
      <trkpt lat="49.14813" lon="1.52865">
        <ele>149.60000610352</ele>
        <time>2021-05-10T12:00:16.000Z</time>
      </trkpt>
      <trkpt lat="49.14776" lon="1.52893">
        <ele>150</ele>
        <time>2021-05-10T12:00:26.000Z</time>
      </trkpt>
      <trkpt lat="49.14745" lon="1.52915">
        <ele>150.19999694824</ele>
        <time>2021-05-10T12:00:33.000Z</time>
      </trkpt>
      <trkpt lat="49.14736" lon="1.5292">
        <ele>150.19999694824</ele>
        <time>2021-05-10T12:00:35.000Z</time>
      </trkpt>
      <trkpt lat="49.14714" lon="1.52937">
        <ele>150</ele>
        <time>2021-05-10T12:00:40.000Z</time>
      </trkpt>
      <trkpt lat="49.14677" lon="1.52965">
        <ele>150</ele>
        <time>2021-05-10T12:00:48.000Z</time>
      </trkpt>
      <trkpt lat="49.1466" lon="1.52976">
        <ele>149.80000305176</ele>
        <time>2021-05-10T12:00:52.000Z</time>
      </trkpt>
      <trkpt lat="49.14652" lon="1.5298">
        <ele>149.80000305176</ele>
        <time>2021-05-10T12:00:54.000Z</time>
      </trkpt>
      <trkpt lat="49.14624" lon="1.52999">
        <ele>149.60000610352</ele>
        <time>2021-05-10T12:01:01.000Z</time>
      </trkpt>
      <trkpt lat="49.14594" lon="1.53019">
        <ele>149.60000610352</ele>
        <time>2021-05-10T12:01:09.000Z</time>
      </trkpt>
      <trkpt lat="49.14563" lon="1.53039">
        <ele>148.80000305176</ele>
        <time>2021-05-10T12:01:17.000Z</time>
      </trkpt>
      <trkpt lat="49.14542" lon="1.53047">
        <ele>148.60000610352</ele>
        <time>2021-05-10T12:01:23.000Z</time>
      </trkpt>
      <trkpt lat="49.14539" lon="1.53046">
        <ele>148.39999389648</ele>
        <time>2021-05-10T12:01:25.000Z</time>
      </trkpt>
      <trkpt lat="49.14537" lon="1.53041">
        <ele>148</ele>
        <time>2021-05-10T12:01:27.000Z</time>
      </trkpt>
      <trkpt lat="49.14533" lon="1.53018">
        <ele>147.80000305176</ele>
        <time>2021-05-10T12:01:32.000Z</time>
      </trkpt>
      <trkpt lat="49.14526" lon="1.52975">
        <ele>147.39999389648</ele>
        <time>2021-05-10T12:01:39.000Z</time>
      </trkpt>
      <trkpt lat="49.14518" lon="1.52936">
        <ele>147.39999389648</ele>
        <time>2021-05-10T12:01:45.000Z</time>
      </trkpt>
      <trkpt lat="49.14517" lon="1.52929">
        <ele>147.39999389648</ele>
        <time>2021-05-10T12:01:46.000Z</time>
      </trkpt>
      <trkpt lat="49.14507" lon="1.52884">
        <ele>147.39999389648</ele>
        <time>2021-05-10T12:01:53.000Z</time>
      </trkpt>
      <trkpt lat="49.145" lon="1.52858">
        <ele>147.19999694824</ele>
        <time>2021-05-10T12:01:59.000Z</time>
      </trkpt>
      <trkpt lat="49.14499" lon="1.52857">
        <ele>147</ele>
        <time>2021-05-10T12:02:00.000Z</time>
      </trkpt>
      <trkpt lat="49.14495" lon="1.5286">
        <ele>146.60000610352</ele>
        <time>2021-05-10T12:02:02.000Z</time>
      </trkpt>
      <trkpt lat="49.14492" lon="1.52862">
        <ele>146.60000610352</ele>
        <time>2021-05-10T12:02:03.000Z</time>
      </trkpt>
      <trkpt lat="49.14477" lon="1.52873">
        <ele>146.60000610352</ele>
        <time>2021-05-10T12:02:08.000Z</time>
      </trkpt>
      <trkpt lat="49.1445" lon="1.529">
        <ele>145.80000305176</ele>
        <time>2021-05-10T12:02:17.000Z</time>
      </trkpt>
      <trkpt lat="49.14423" lon="1.52927">
        <ele>145.19999694824</ele>
        <time>2021-05-10T12:02:25.000Z</time>
      </trkpt>
      <trkpt lat="49.14397" lon="1.52957">
        <ele>145.80000305176</ele>
        <time>2021-05-10T12:02:33.000Z</time>
      </trkpt>
      <trkpt lat="49.14365" lon="1.52995">
        <ele>146</ele>
        <time>2021-05-10T12:02:42.000Z</time>
      </trkpt>
      <trkpt lat="49.14324" lon="1.5304">
        <ele>146</ele>
        <time>2021-05-10T12:02:53.000Z</time>
      </trkpt>
      <trkpt lat="49.14312" lon="1.53049">
        <ele>146</ele>
        <time>2021-05-10T12:02:56.000Z</time>
      </trkpt>
      <trkpt lat="49.14298" lon="1.53054">
        <ele>146</ele>
        <time>2021-05-10T12:02:59.000Z</time>
      </trkpt>
      <trkpt lat="49.14289" lon="1.53057">
        <ele>146</ele>
        <time>2021-05-10T12:03:01.000Z</time>
      </trkpt>
      <trkpt lat="49.14278" lon="1.53068">
        <ele>146.19999694824</ele>
        <time>2021-05-10T12:03:04.000Z</time>
      </trkpt>
      <trkpt lat="49.1427" lon="1.53076">
        <ele>146.39999389648</ele>
        <time>2021-05-10T12:03:06.000Z</time>
      </trkpt>
      <trkpt lat="49.14244" lon="1.53105">
        <ele>146.39999389648</ele>
        <time>2021-05-10T12:03:13.000Z</time>
      </trkpt>
      <trkpt lat="49.14217" lon="1.53135">
        <ele>146.39999389648</ele>
        <time>2021-05-10T12:03:21.000Z</time>
      </trkpt>
      <trkpt lat="49.14187" lon="1.53168">
        <ele>145.80000305176</ele>
        <time>2021-05-10T12:03:29.000Z</time>
      </trkpt>
      <trkpt lat="49.14155" lon="1.53202">
        <ele>145.19999694824</ele>
        <time>2021-05-10T12:03:37.000Z</time>
      </trkpt>
      <trkpt lat="49.14143" lon="1.53215">
        <ele>144.80000305176</ele>
        <time>2021-05-10T12:03:40.000Z</time>
      </trkpt>
      <trkpt lat="49.14124" lon="1.53236">
        <ele>143.80000305176</ele>
        <time>2021-05-10T12:03:45.000Z</time>
      </trkpt>
      <trkpt lat="49.1412" lon="1.5324">
        <ele>143.60000610352</ele>
        <time>2021-05-10T12:03:46.000Z</time>
      </trkpt>
      <trkpt lat="49.14092" lon="1.53264">
        <ele>142.39999389648</ele>
        <time>2021-05-10T12:03:53.000Z</time>
      </trkpt>
      <trkpt lat="49.14073" lon="1.53278">
        <ele>142.19999694824</ele>
        <time>2021-05-10T12:03:59.000Z</time>
      </trkpt>
      <trkpt lat="49.14057" lon="1.53292">
        <ele>142.39999389648</ele>
        <time>2021-05-10T12:04:05.000Z</time>
      </trkpt>
      <trkpt lat="49.14029" lon="1.53315">
        <ele>143.39999389648</ele>
        <time>2021-05-10T12:04:14.000Z</time>
      </trkpt>
      <trkpt lat="49.14009" lon="1.53332">
        <ele>143.80000305176</ele>
        <time>2021-05-10T12:04:21.000Z</time>
      </trkpt>
      <trkpt lat="49.13992" lon="1.53347">
        <ele>144.60000610352</ele>
        <time>2021-05-10T12:04:27.000Z</time>
      </trkpt>
      <trkpt lat="49.13983" lon="1.53355">
        <ele>144.80000305176</ele>
        <time>2021-05-10T12:04:30.000Z</time>
      </trkpt>
      <trkpt lat="49.13963" lon="1.53374">
        <ele>145.60000610352</ele>
        <time>2021-05-10T12:04:37.000Z</time>
      </trkpt>
      <trkpt lat="49.13957" lon="1.5338">
        <ele>146</ele>
        <time>2021-05-10T12:04:39.000Z</time>
      </trkpt>
      <trkpt lat="49.1394" lon="1.53397">
        <ele>146.60000610352</ele>
        <time>2021-05-10T12:04:45.000Z</time>
      </trkpt>
      <trkpt lat="49.13934" lon="1.53402">
        <ele>147</ele>
        <time>2021-05-10T12:04:47.000Z</time>
      </trkpt>
      <trkpt lat="49.13919" lon="1.53419">
        <ele>147.60000610352</ele>
        <time>2021-05-10T12:04:52.000Z</time>
      </trkpt>
      <trkpt lat="49.13898" lon="1.53438">
        <ele>148</ele>
        <time>2021-05-10T12:04:58.000Z</time>
      </trkpt>
      <trkpt lat="49.13891" lon="1.53445">
        <ele>148</ele>
        <time>2021-05-10T12:05:00.000Z</time>
      </trkpt>
      <trkpt lat="49.13857" lon="1.53472">
        <ele>148</ele>
        <time>2021-05-10T12:05:10.000Z</time>
      </trkpt>
      <trkpt lat="49.13822" lon="1.53486">
        <ele>148</ele>
        <time>2021-05-10T12:05:19.000Z</time>
      </trkpt>
      <trkpt lat="49.13794" lon="1.53493">
        <ele>148.39999389648</ele>
        <time>2021-05-10T12:05:26.000Z</time>
      </trkpt>
      <trkpt lat="49.13762" lon="1.53501">
        <ele>148.39999389648</ele>
        <time>2021-05-10T12:05:34.000Z</time>
      </trkpt>
      <trkpt lat="49.13731" lon="1.5351">
        <ele>148</ele>
        <time>2021-05-10T12:05:41.000Z</time>
      </trkpt>
      <trkpt lat="49.137" lon="1.5352">
        <ele>147</ele>
        <time>2021-05-10T12:05:48.000Z</time>
      </trkpt>
      <trkpt lat="49.13691" lon="1.53523">
        <ele>146.80000305176</ele>
        <time>2021-05-10T12:05:50.000Z</time>
      </trkpt>
      <trkpt lat="49.1367" lon="1.5353">
        <ele>145.80000305176</ele>
        <time>2021-05-10T12:05:54.000Z</time>
      </trkpt>
      <trkpt lat="49.13664" lon="1.53532">
        <ele>145.39999389648</ele>
        <time>2021-05-10T12:05:55.000Z</time>
      </trkpt>
      <trkpt lat="49.13647" lon="1.53538">
        <ele>144.60000610352</ele>
        <time>2021-05-10T12:05:58.000Z</time>
      </trkpt>
      <trkpt lat="49.1361" lon="1.53551">
        <ele>144</ele>
        <time>2021-05-10T12:06:05.000Z</time>
      </trkpt>
      <trkpt lat="49.13599" lon="1.53556">
        <ele>143.60000610352</ele>
        <time>2021-05-10T12:06:07.000Z</time>
      </trkpt>
      <trkpt lat="49.13559" lon="1.53567">
        <ele>142.60000610352</ele>
        <time>2021-05-10T12:06:14.000Z</time>
      </trkpt>
      <trkpt lat="49.13537" lon="1.53572">
        <ele>142.19999694824</ele>
        <time>2021-05-10T12:06:18.000Z</time>
      </trkpt>
      <trkpt lat="49.13515" lon="1.53575">
        <ele>141</ele>
        <time>2021-05-10T12:06:22.000Z</time>
      </trkpt>
      <trkpt lat="49.1351" lon="1.53576">
        <ele>140.19999694824</ele>
        <time>2021-05-10T12:06:23.000Z</time>
      </trkpt>
      <trkpt lat="49.13504" lon="1.53577">
        <ele>139.80000305176</ele>
        <time>2021-05-10T12:06:24.000Z</time>
      </trkpt>
      <trkpt lat="49.13455" lon="1.53585">
        <ele>139.39999389648</ele>
        <time>2021-05-10T12:06:32.000Z</time>
      </trkpt>
      <trkpt lat="49.13423" lon="1.53598">
        <ele>140.39999389648</ele>
        <time>2021-05-10T12:06:37.000Z</time>
      </trkpt>
      <trkpt lat="49.13384" lon="1.53615">
        <ele>140.39999389648</ele>
        <time>2021-05-10T12:06:44.000Z</time>
      </trkpt>
      <trkpt lat="49.13363" lon="1.53624">
        <ele>138.80000305176</ele>
        <time>2021-05-10T12:06:48.000Z</time>
      </trkpt>
      <trkpt lat="49.13354" lon="1.53628">
        <ele>137.80000305176</ele>
        <time>2021-05-10T12:06:50.000Z</time>
      </trkpt>
      <trkpt lat="49.13349" lon="1.5363">
        <ele>137.39999389648</ele>
        <time>2021-05-10T12:06:51.000Z</time>
      </trkpt>
      <trkpt lat="49.13345" lon="1.53633">
        <ele>137</ele>
        <time>2021-05-10T12:06:52.000Z</time>
      </trkpt>
      <trkpt lat="49.13334" lon="1.53645">
        <ele>136.60000610352</ele>
        <time>2021-05-10T12:06:55.000Z</time>
      </trkpt>
      <trkpt lat="49.13331" lon="1.5365">
        <ele>136.60000610352</ele>
        <time>2021-05-10T12:06:56.000Z</time>
      </trkpt>
      <trkpt lat="49.13312" lon="1.53681">
        <ele>136.39999389648</ele>
        <time>2021-05-10T12:07:02.000Z</time>
      </trkpt>
      <trkpt lat="49.13289" lon="1.5372">
        <ele>137.80000305176</ele>
        <time>2021-05-10T12:07:10.000Z</time>
      </trkpt>
      <trkpt lat="49.13275" lon="1.53742">
        <ele>138.39999389648</ele>
        <time>2021-05-10T12:07:15.000Z</time>
      </trkpt>
      <trkpt lat="49.13269" lon="1.53749">
        <ele>138.60000610352</ele>
        <time>2021-05-10T12:07:17.000Z</time>
      </trkpt>
      <trkpt lat="49.13246" lon="1.53787">
        <ele>139.19999694824</ele>
        <time>2021-05-10T12:07:26.000Z</time>
      </trkpt>
      <trkpt lat="49.13238" lon="1.53801">
        <ele>139.39999389648</ele>
        <time>2021-05-10T12:07:29.000Z</time>
      </trkpt>
      <trkpt lat="49.13219" lon="1.53829">
        <ele>139.80000305176</ele>
        <time>2021-05-10T12:07:36.000Z</time>
      </trkpt>
      <trkpt lat="49.13188" lon="1.53871">
        <ele>140.19999694824</ele>
        <time>2021-05-10T12:07:47.000Z</time>
      </trkpt>
      <trkpt lat="49.13158" lon="1.539">
        <ele>140.19999694824</ele>
        <time>2021-05-10T12:07:56.000Z</time>
      </trkpt>
      <trkpt lat="49.13123" lon="1.53928">
        <ele>139.80000305176</ele>
        <time>2021-05-10T12:08:05.000Z</time>
      </trkpt>
      <trkpt lat="49.13087" lon="1.53951">
        <ele>139.19999694824</ele>
        <time>2021-05-10T12:08:13.000Z</time>
      </trkpt>
      <trkpt lat="49.13043" lon="1.53977">
        <ele>139.19999694824</ele>
        <time>2021-05-10T12:08:22.000Z</time>
      </trkpt>
      <trkpt lat="49.1302" lon="1.5399">
        <ele>139</ele>
        <time>2021-05-10T12:08:27.000Z</time>
      </trkpt>
      <trkpt lat="49.12997" lon="1.54006">
        <ele>138.39999389648</ele>
        <time>2021-05-10T12:08:32.000Z</time>
      </trkpt>
      <trkpt lat="49.12988" lon="1.54015">
        <ele>138.19999694824</ele>
        <time>2021-05-10T12:08:34.000Z</time>
      </trkpt>
      <trkpt lat="49.12984" lon="1.5402">
        <ele>138</ele>
        <time>2021-05-10T12:08:35.000Z</time>
      </trkpt>
      <trkpt lat="49.12973" lon="1.54035">
        <ele>137.80000305176</ele>
        <time>2021-05-10T12:08:38.000Z</time>
      </trkpt>
      <trkpt lat="49.1297" lon="1.5404">
        <ele>137.80000305176</ele>
        <time>2021-05-10T12:08:39.000Z</time>
      </trkpt>
      <trkpt lat="49.12953" lon="1.54073">
        <ele>137.19999694824</ele>
        <time>2021-05-10T12:08:45.000Z</time>
      </trkpt>
      <trkpt lat="49.12947" lon="1.54079">
        <ele>137.19999694824</ele>
        <time>2021-05-10T12:08:47.000Z</time>
      </trkpt>
      <trkpt lat="49.12943" lon="1.54078">
        <ele>137</ele>
        <time>2021-05-10T12:08:48.000Z</time>
      </trkpt>
      <trkpt lat="49.12937" lon="1.54064">
        <ele>136.39999389648</ele>
        <time>2021-05-10T12:08:51.000Z</time>
      </trkpt>
      <trkpt lat="49.12935" lon="1.54058">
        <ele>136.19999694824</ele>
        <time>2021-05-10T12:08:52.000Z</time>
      </trkpt>
      <trkpt lat="49.1292" lon="1.54017">
        <ele>135.60000610352</ele>
        <time>2021-05-10T12:08:59.000Z</time>
      </trkpt>
      <trkpt lat="49.12915" lon="1.54005">
        <ele>135.19999694824</ele>
        <time>2021-05-10T12:09:01.000Z</time>
      </trkpt>
      <trkpt lat="49.12903" lon="1.5397">
        <ele>134.60000610352</ele>
        <time>2021-05-10T12:09:07.000Z</time>
      </trkpt>
      <trkpt lat="49.12888" lon="1.53928">
        <ele>134.60000610352</ele>
        <time>2021-05-10T12:09:14.000Z</time>
      </trkpt>
      <trkpt lat="49.1287" lon="1.53889">
        <ele>134.39999389648</ele>
        <time>2021-05-10T12:09:21.000Z</time>
      </trkpt>
      <trkpt lat="49.12849" lon="1.5385">
        <ele>134.80000305176</ele>
        <time>2021-05-10T12:09:29.000Z</time>
      </trkpt>
      <trkpt lat="49.12831" lon="1.53815">
        <ele>135.39999389648</ele>
        <time>2021-05-10T12:09:36.000Z</time>
      </trkpt>
      <trkpt lat="49.12823" lon="1.53799">
        <ele>136.39999389648</ele>
        <time>2021-05-10T12:09:39.000Z</time>
      </trkpt>
      <trkpt lat="49.1281" lon="1.53775">
        <ele>136.80000305176</ele>
        <time>2021-05-10T12:09:44.000Z</time>
      </trkpt>
      <trkpt lat="49.12798" lon="1.53751">
        <ele>137</ele>
        <time>2021-05-10T12:09:50.000Z</time>
      </trkpt>
      <trkpt lat="49.12782" lon="1.53717">
        <ele>136.80000305176</ele>
        <time>2021-05-10T12:09:56.000Z</time>
      </trkpt>
      <trkpt lat="49.12764" lon="1.53672">
        <ele>135.60000610352</ele>
        <time>2021-05-10T12:10:02.000Z</time>
      </trkpt>
      <trkpt lat="49.12762" lon="1.53665">
        <ele>135.39999389648</ele>
        <time>2021-05-10T12:10:03.000Z</time>
      </trkpt>
      <trkpt lat="49.12759" lon="1.53659">
        <ele>135.19999694824</ele>
        <time>2021-05-10T12:10:04.000Z</time>
      </trkpt>
      <trkpt lat="49.12753" lon="1.5364">
        <ele>135.19999694824</ele>
        <time>2021-05-10T12:10:07.000Z</time>
      </trkpt>
      <trkpt lat="49.12733" lon="1.53602">
        <ele>134.80000305176</ele>
        <time>2021-05-10T12:10:14.000Z</time>
      </trkpt>
      <trkpt lat="49.12715" lon="1.53583">
        <ele>134</ele>
        <time>2021-05-10T12:10:19.000Z</time>
      </trkpt>
      <trkpt lat="49.12707" lon="1.53577">
        <ele>133.39999389648</ele>
        <time>2021-05-10T12:10:21.000Z</time>
      </trkpt>
      <trkpt lat="49.12657" lon="1.53541">
        <ele>134.80000305176</ele>
        <time>2021-05-10T12:10:34.000Z</time>
      </trkpt>
      <trkpt lat="49.12654" lon="1.53538">
        <ele>135</ele>
        <time>2021-05-10T12:10:35.000Z</time>
      </trkpt>
      <trkpt lat="49.12635" lon="1.53529">
        <ele>135.39999389648</ele>
        <time>2021-05-10T12:10:40.000Z</time>
      </trkpt>
      <trkpt lat="49.12617" lon="1.53533">
        <ele>135.39999389648</ele>
        <time>2021-05-10T12:10:45.000Z</time>
      </trkpt>
      <trkpt lat="49.12608" lon="1.53537">
        <ele>135.80000305176</ele>
        <time>2021-05-10T12:10:48.000Z</time>
      </trkpt>
      <trkpt lat="49.12593" lon="1.53542">
        <ele>136.80000305176</ele>
        <time>2021-05-10T12:10:52.000Z</time>
      </trkpt>
      <trkpt lat="49.1257" lon="1.5355">
        <ele>138</ele>
        <time>2021-05-10T12:10:59.000Z</time>
      </trkpt>
      <trkpt lat="49.12539" lon="1.53561">
        <ele>139</ele>
        <time>2021-05-10T12:11:08.000Z</time>
      </trkpt>
      <trkpt lat="49.12536" lon="1.53563">
        <ele>139.19999694824</ele>
        <time>2021-05-10T12:11:09.000Z</time>
      </trkpt>
      <trkpt lat="49.12532" lon="1.53564">
        <ele>139.19999694824</ele>
        <time>2021-05-10T12:11:10.000Z</time>
      </trkpt>
      <trkpt lat="49.12503" lon="1.53576">
        <ele>139.60000610352</ele>
        <time>2021-05-10T12:11:19.000Z</time>
      </trkpt>
      <trkpt lat="49.12476" lon="1.53587">
        <ele>139.60000610352</ele>
        <time>2021-05-10T12:11:27.000Z</time>
      </trkpt>
      <trkpt lat="49.12456" lon="1.53595">
        <ele>140.39999389648</ele>
        <time>2021-05-10T12:11:33.000Z</time>
      </trkpt>
      <trkpt lat="49.12449" lon="1.53598">
        <ele>141.60000610352</ele>
        <time>2021-05-10T12:11:35.000Z</time>
      </trkpt>
      <trkpt lat="49.12446" lon="1.536">
        <ele>141.80000305176</ele>
        <time>2021-05-10T12:11:36.000Z</time>
      </trkpt>
      <trkpt lat="49.12425" lon="1.53608">
        <ele>142.39999389648</ele>
        <time>2021-05-10T12:11:44.000Z</time>
      </trkpt>
      <trkpt lat="49.12425" lon="1.53608">
        <ele>142.39999389648</ele>
        <time>2021-05-10T12:11:45.000Z</time>
      </trkpt>
      <trkpt lat="49.12423" lon="1.53609">
        <ele>143.80000305176</ele>
        <time>2021-05-10T12:11:59.000Z</time>
      </trkpt>
      <trkpt lat="49.12419" lon="1.5361">
        <ele>144</ele>
        <time>2021-05-10T12:12:02.000Z</time>
      </trkpt>
      <trkpt lat="49.124" lon="1.53617">
        <ele>143.80000305176</ele>
        <time>2021-05-10T12:12:08.000Z</time>
      </trkpt>
      <trkpt lat="49.12366" lon="1.53627">
        <ele>144</ele>
        <time>2021-05-10T12:12:18.000Z</time>
      </trkpt>
      <trkpt lat="49.12338" lon="1.5364">
        <ele>144.60000610352</ele>
        <time>2021-05-10T12:12:26.000Z</time>
      </trkpt>
      <trkpt lat="49.12335" lon="1.53642">
        <ele>145</ele>
        <time>2021-05-10T12:12:27.000Z</time>
      </trkpt>
      <trkpt lat="49.12317" lon="1.5365">
        <ele>145.60000610352</ele>
        <time>2021-05-10T12:12:32.000Z</time>
      </trkpt>
      <trkpt lat="49.12288" lon="1.53663">
        <ele>146</ele>
        <time>2021-05-10T12:12:40.000Z</time>
      </trkpt>
      <trkpt lat="49.12256" lon="1.53669">
        <ele>146.60000610352</ele>
        <time>2021-05-10T12:12:48.000Z</time>
      </trkpt>
      <trkpt lat="49.12248" lon="1.53671">
        <ele>146.60000610352</ele>
        <time>2021-05-10T12:12:50.000Z</time>
      </trkpt>
      <trkpt lat="49.12231" lon="1.5367">
        <ele>146.80000305176</ele>
        <time>2021-05-10T12:12:54.000Z</time>
      </trkpt>
      <trkpt lat="49.12192" lon="1.53665">
        <ele>146.60000610352</ele>
        <time>2021-05-10T12:13:03.000Z</time>
      </trkpt>
      <trkpt lat="49.12154" lon="1.53657">
        <ele>145.80000305176</ele>
        <time>2021-05-10T12:13:11.000Z</time>
      </trkpt>
      <trkpt lat="49.12115" lon="1.5365">
        <ele>145.39999389648</ele>
        <time>2021-05-10T12:13:19.000Z</time>
      </trkpt>
      <trkpt lat="49.12091" lon="1.53646">
        <ele>144.60000610352</ele>
        <time>2021-05-10T12:13:24.000Z</time>
      </trkpt>
      <trkpt lat="49.12072" lon="1.53643">
        <ele>144</ele>
        <time>2021-05-10T12:13:28.000Z</time>
      </trkpt>
      <trkpt lat="49.12058" lon="1.53642">
        <ele>143.19999694824</ele>
        <time>2021-05-10T12:13:31.000Z</time>
      </trkpt>
      <trkpt lat="49.12044" lon="1.53641">
        <ele>142.19999694824</ele>
        <time>2021-05-10T12:13:34.000Z</time>
      </trkpt>
      <trkpt lat="49.12034" lon="1.53642">
        <ele>142.19999694824</ele>
        <time>2021-05-10T12:13:36.000Z</time>
      </trkpt>
      <trkpt lat="49.11996" lon="1.53645">
        <ele>142</ele>
        <time>2021-05-10T12:13:44.000Z</time>
      </trkpt>
      <trkpt lat="49.11966" lon="1.53649">
        <ele>142.60000610352</ele>
        <time>2021-05-10T12:13:52.000Z</time>
      </trkpt>
      <trkpt lat="49.11943" lon="1.53654">
        <ele>142.80000305176</ele>
        <time>2021-05-10T12:13:58.000Z</time>
      </trkpt>
      <trkpt lat="49.11917" lon="1.53659">
        <ele>143</ele>
        <time>2021-05-10T12:14:05.000Z</time>
      </trkpt>
      <trkpt lat="49.11914" lon="1.5366">
        <ele>143.19999694824</ele>
        <time>2021-05-10T12:14:06.000Z</time>
      </trkpt>
      <trkpt lat="49.11888" lon="1.53666">
        <ele>144</ele>
        <time>2021-05-10T12:14:13.000Z</time>
      </trkpt>
      <trkpt lat="49.11881" lon="1.53668">
        <ele>144.19999694824</ele>
        <time>2021-05-10T12:14:15.000Z</time>
      </trkpt>
      <trkpt lat="49.11861" lon="1.53674">
        <ele>144.39999389648</ele>
        <time>2021-05-10T12:14:21.000Z</time>
      </trkpt>
      <trkpt lat="49.11834" lon="1.53682">
        <ele>144.80000305176</ele>
        <time>2021-05-10T12:14:29.000Z</time>
      </trkpt>
      <trkpt lat="49.1182" lon="1.53686">
        <ele>145.19999694824</ele>
        <time>2021-05-10T12:14:33.000Z</time>
      </trkpt>
      <trkpt lat="49.11806" lon="1.53691">
        <ele>146.19999694824</ele>
        <time>2021-05-10T12:14:37.000Z</time>
      </trkpt>
      <trkpt lat="49.11802" lon="1.53693">
        <ele>146.39999389648</ele>
        <time>2021-05-10T12:14:38.000Z</time>
      </trkpt>
      <trkpt lat="49.11785" lon="1.53697">
        <ele>146.80000305176</ele>
        <time>2021-05-10T12:14:43.000Z</time>
      </trkpt>
      <trkpt lat="49.11763" lon="1.53706">
        <ele>147.19999694824</ele>
        <time>2021-05-10T12:14:49.000Z</time>
      </trkpt>
      <trkpt lat="49.11749" lon="1.53712">
        <ele>147.39999389648</ele>
        <time>2021-05-10T12:14:53.000Z</time>
      </trkpt>
      <trkpt lat="49.11727" lon="1.53721">
        <ele>147.80000305176</ele>
        <time>2021-05-10T12:15:00.000Z</time>
      </trkpt>
      <trkpt lat="49.1171" lon="1.53728">
        <ele>148.39999389648</ele>
        <time>2021-05-10T12:15:05.000Z</time>
      </trkpt>
      <trkpt lat="49.11695" lon="1.53735">
        <ele>148.60000610352</ele>
        <time>2021-05-10T12:15:09.000Z</time>
      </trkpt>
      <trkpt lat="49.1166" lon="1.53749">
        <ele>149</ele>
        <time>2021-05-10T12:15:18.000Z</time>
      </trkpt>
      <trkpt lat="49.11625" lon="1.53763">
        <ele>149</ele>
        <time>2021-05-10T12:15:27.000Z</time>
      </trkpt>
      <trkpt lat="49.11589" lon="1.53777">
        <ele>148.80000305176</ele>
        <time>2021-05-10T12:15:36.000Z</time>
      </trkpt>
      <trkpt lat="49.11552" lon="1.53793">
        <ele>148.39999389648</ele>
        <time>2021-05-10T12:15:45.000Z</time>
      </trkpt>
      <trkpt lat="49.11507" lon="1.53812">
        <ele>147.80000305176</ele>
        <time>2021-05-10T12:15:56.000Z</time>
      </trkpt>
      <trkpt lat="49.11489" lon="1.53817">
        <ele>147.60000610352</ele>
        <time>2021-05-10T12:16:01.000Z</time>
      </trkpt>
      <trkpt lat="49.11486" lon="1.53815">
        <ele>147.60000610352</ele>
        <time>2021-05-10T12:16:02.000Z</time>
      </trkpt>
      <trkpt lat="49.11478" lon="1.53795">
        <ele>147.60000610352</ele>
        <time>2021-05-10T12:16:06.000Z</time>
      </trkpt>
      <trkpt lat="49.11471" lon="1.53771">
        <ele>147.39999389648</ele>
        <time>2021-05-10T12:16:10.000Z</time>
      </trkpt>
      <trkpt lat="49.11466" lon="1.53752">
        <ele>146</ele>
        <time>2021-05-10T12:16:13.000Z</time>
      </trkpt>
      <trkpt lat="49.11464" lon="1.53745">
        <ele>145.80000305176</ele>
        <time>2021-05-10T12:16:14.000Z</time>
      </trkpt>
      <trkpt lat="49.11449" lon="1.53695">
        <ele>145</ele>
        <time>2021-05-10T12:16:22.000Z</time>
      </trkpt>
      <trkpt lat="49.11447" lon="1.53689">
        <ele>145</ele>
        <time>2021-05-10T12:16:23.000Z</time>
      </trkpt>
      <trkpt lat="49.11433" lon="1.53645">
        <ele>145</ele>
        <time>2021-05-10T12:16:29.000Z</time>
      </trkpt>
      <trkpt lat="49.11422" lon="1.53609">
        <ele>144.80000305176</ele>
        <time>2021-05-10T12:16:34.000Z</time>
      </trkpt>
      <trkpt lat="49.11415" lon="1.53597">
        <ele>144.80000305176</ele>
        <time>2021-05-10T12:16:36.000Z</time>
      </trkpt>
      <trkpt lat="49.114" lon="1.53597">
        <ele>145</ele>
        <time>2021-05-10T12:16:39.000Z</time>
      </trkpt>
      <trkpt lat="49.11395" lon="1.53599">
        <ele>145</ele>
        <time>2021-05-10T12:16:40.000Z</time>
      </trkpt>
      <trkpt lat="49.11382" lon="1.53604">
        <ele>145</ele>
        <time>2021-05-10T12:16:43.000Z</time>
      </trkpt>
      <trkpt lat="49.11373" lon="1.53606">
        <ele>145.19999694824</ele>
        <time>2021-05-10T12:16:45.000Z</time>
      </trkpt>
      <trkpt lat="49.11347" lon="1.53616">
        <ele>145</ele>
        <time>2021-05-10T12:16:50.000Z</time>
      </trkpt>
      <trkpt lat="49.11307" lon="1.53631">
        <ele>143.60000610352</ele>
        <time>2021-05-10T12:16:57.000Z</time>
      </trkpt>
      <trkpt lat="49.11302" lon="1.53633">
        <ele>143.19999694824</ele>
        <time>2021-05-10T12:16:58.000Z</time>
      </trkpt>
      <trkpt lat="49.11269" lon="1.53649">
        <ele>142</ele>
        <time>2021-05-10T12:17:04.000Z</time>
      </trkpt>
      <trkpt lat="49.11253" lon="1.53658">
        <ele>141.19999694824</ele>
        <time>2021-05-10T12:17:07.000Z</time>
      </trkpt>
      <trkpt lat="49.11247" lon="1.5366">
        <ele>141</ele>
        <time>2021-05-10T12:17:08.000Z</time>
      </trkpt>
      <trkpt lat="49.11242" lon="1.53662">
        <ele>141.19999694824</ele>
        <time>2021-05-10T12:17:09.000Z</time>
      </trkpt>
      <trkpt lat="49.11236" lon="1.53665">
        <ele>141</ele>
        <time>2021-05-10T12:17:10.000Z</time>
      </trkpt>
      <trkpt lat="49.11201" lon="1.53681">
        <ele>139.80000305176</ele>
        <time>2021-05-10T12:17:16.000Z</time>
      </trkpt>
      <trkpt lat="49.11165" lon="1.53698">
        <ele>138.60000610352</ele>
        <time>2021-05-10T12:17:22.000Z</time>
      </trkpt>
      <trkpt lat="49.11152" lon="1.53703">
        <ele>138.19999694824</ele>
        <time>2021-05-10T12:17:24.000Z</time>
      </trkpt>
      <trkpt lat="49.11127" lon="1.53715">
        <ele>137.39999389648</ele>
        <time>2021-05-10T12:17:28.000Z</time>
      </trkpt>
      <trkpt lat="49.11114" lon="1.53721">
        <ele>137.19999694824</ele>
        <time>2021-05-10T12:17:30.000Z</time>
      </trkpt>
      <trkpt lat="49.11102" lon="1.53728">
        <ele>137</ele>
        <time>2021-05-10T12:17:32.000Z</time>
      </trkpt>
      <trkpt lat="49.11062" lon="1.53745">
        <ele>136.80000305176</ele>
        <time>2021-05-10T12:17:39.000Z</time>
      </trkpt>
      <trkpt lat="49.11025" lon="1.53759">
        <ele>136.80000305176</ele>
        <time>2021-05-10T12:17:46.000Z</time>
      </trkpt>
      <trkpt lat="49.10987" lon="1.53774">
        <ele>136.39999389648</ele>
        <time>2021-05-10T12:17:53.000Z</time>
      </trkpt>
      <trkpt lat="49.10981" lon="1.53775">
        <ele>136.19999694824</ele>
        <time>2021-05-10T12:17:54.000Z</time>
      </trkpt>
      <trkpt lat="49.1096" lon="1.53772">
        <ele>135.80000305176</ele>
        <time>2021-05-10T12:17:58.000Z</time>
      </trkpt>
      <trkpt lat="49.1095" lon="1.53769">
        <ele>135.80000305176</ele>
        <time>2021-05-10T12:18:00.000Z</time>
      </trkpt>
      <trkpt lat="49.1094" lon="1.53766">
        <ele>135.80000305176</ele>
        <time>2021-05-10T12:18:02.000Z</time>
      </trkpt>
      <trkpt lat="49.10936" lon="1.53767">
        <ele>135.80000305176</ele>
        <time>2021-05-10T12:18:03.000Z</time>
      </trkpt>
      <trkpt lat="49.10918" lon="1.53777">
        <ele>135.80000305176</ele>
        <time>2021-05-10T12:18:07.000Z</time>
      </trkpt>
      <trkpt lat="49.10914" lon="1.53781">
        <ele>135.80000305176</ele>
        <time>2021-05-10T12:18:08.000Z</time>
      </trkpt>
      <trkpt lat="49.1091" lon="1.53784">
        <ele>135.80000305176</ele>
        <time>2021-05-10T12:18:09.000Z</time>
      </trkpt>
      <trkpt lat="49.10896" lon="1.53794">
        <ele>136</ele>
        <time>2021-05-10T12:18:13.000Z</time>
      </trkpt>
      <trkpt lat="49.10885" lon="1.53795">
        <ele>137.19999694824</ele>
        <time>2021-05-10T12:18:17.000Z</time>
      </trkpt>
      <trkpt lat="49.10883" lon="1.53792">
        <ele>137.39999389648</ele>
        <time>2021-05-10T12:18:18.000Z</time>
      </trkpt>
      <trkpt lat="49.10876" lon="1.53779">
        <ele>137.80000305176</ele>
        <time>2021-05-10T12:18:22.000Z</time>
      </trkpt>
      <trkpt lat="49.10866" lon="1.53746">
        <ele>137.80000305176</ele>
        <time>2021-05-10T12:18:29.000Z</time>
      </trkpt>
      <trkpt lat="49.10861" lon="1.53729">
        <ele>137.60000610352</ele>
        <time>2021-05-10T12:18:33.000Z</time>
      </trkpt>
      <trkpt lat="49.10858" lon="1.53727">
        <ele>137.60000610352</ele>
        <time>2021-05-10T12:18:34.000Z</time>
      </trkpt>
      <trkpt lat="49.10845" lon="1.53732">
        <ele>137.39999389648</ele>
        <time>2021-05-10T12:18:38.000Z</time>
      </trkpt>
      <trkpt lat="49.10842" lon="1.53735">
        <ele>137.39999389648</ele>
        <time>2021-05-10T12:18:39.000Z</time>
      </trkpt>
      <trkpt lat="49.10832" lon="1.53746">
        <ele>137.39999389648</ele>
        <time>2021-05-10T12:18:42.000Z</time>
      </trkpt>
      <trkpt lat="49.10819" lon="1.5376">
        <ele>137.39999389648</ele>
        <time>2021-05-10T12:18:46.000Z</time>
      </trkpt>
      <trkpt lat="49.10785" lon="1.53798">
        <ele>138.19999694824</ele>
        <time>2021-05-10T12:18:56.000Z</time>
      </trkpt>
      <trkpt lat="49.10764" lon="1.53821">
        <ele>138.39999389648</ele>
        <time>2021-05-10T12:19:01.000Z</time>
      </trkpt>
      <trkpt lat="49.10747" lon="1.53839">
        <ele>138.60000610352</ele>
        <time>2021-05-10T12:19:05.000Z</time>
      </trkpt>
      <trkpt lat="49.1071" lon="1.53879">
        <ele>138.80000305176</ele>
        <time>2021-05-10T12:19:14.000Z</time>
      </trkpt>
      <trkpt lat="49.10675" lon="1.53916">
        <ele>138.39999389648</ele>
        <time>2021-05-10T12:19:23.000Z</time>
      </trkpt>
      <trkpt lat="49.10656" lon="1.53936">
        <ele>138.19999694824</ele>
        <time>2021-05-10T12:19:29.000Z</time>
      </trkpt>
      <trkpt lat="49.10639" lon="1.53955">
        <ele>138</ele>
        <time>2021-05-10T12:19:36.000Z</time>
      </trkpt>
      <trkpt lat="49.10639" lon="1.53959">
        <ele>138</ele>
        <time>2021-05-10T12:19:37.000Z</time>
      </trkpt>
      <trkpt lat="49.10641" lon="1.53973">
        <ele>137.80000305176</ele>
        <time>2021-05-10T12:19:40.000Z</time>
      </trkpt>
      <trkpt lat="49.10645" lon="1.5399">
        <ele>137.60000610352</ele>
        <time>2021-05-10T12:19:43.000Z</time>
      </trkpt>
      <trkpt lat="49.10649" lon="1.54008">
        <ele>137.39999389648</ele>
        <time>2021-05-10T12:19:46.000Z</time>
      </trkpt>
      <trkpt lat="49.10659" lon="1.5405">
        <ele>137.39999389648</ele>
        <time>2021-05-10T12:19:53.000Z</time>
      </trkpt>
      <trkpt lat="49.1066" lon="1.54056">
        <ele>137.39999389648</ele>
        <time>2021-05-10T12:19:54.000Z</time>
      </trkpt>
      <trkpt lat="49.10675" lon="1.54119">
        <ele>137.19999694824</ele>
        <time>2021-05-10T12:20:04.000Z</time>
      </trkpt>
      <trkpt lat="49.10688" lon="1.54175">
        <ele>137.39999389648</ele>
        <time>2021-05-10T12:20:13.000Z</time>
      </trkpt>
      <trkpt lat="49.10701" lon="1.54221">
        <ele>137.80000305176</ele>
        <time>2021-05-10T12:20:21.000Z</time>
      </trkpt>
      <trkpt lat="49.10701" lon="1.54226">
        <ele>137.80000305176</ele>
        <time>2021-05-10T12:20:22.000Z</time>
      </trkpt>
      <trkpt lat="49.10696" lon="1.54235">
        <ele>137.80000305176</ele>
        <time>2021-05-10T12:20:24.000Z</time>
      </trkpt>
      <trkpt lat="49.10689" lon="1.54242">
        <ele>137.80000305176</ele>
        <time>2021-05-10T12:20:26.000Z</time>
      </trkpt>
      <trkpt lat="49.10677" lon="1.54256">
        <ele>137.80000305176</ele>
        <time>2021-05-10T12:20:29.000Z</time>
      </trkpt>
      <trkpt lat="49.10643" lon="1.54296">
        <ele>136.80000305176</ele>
        <time>2021-05-10T12:20:37.000Z</time>
      </trkpt>
      <trkpt lat="49.10634" lon="1.54307">
        <ele>136.39999389648</ele>
        <time>2021-05-10T12:20:39.000Z</time>
      </trkpt>
      <trkpt lat="49.1061" lon="1.54334">
        <ele>135.60000610352</ele>
        <time>2021-05-10T12:20:44.000Z</time>
      </trkpt>
      <trkpt lat="49.10602" lon="1.54344">
        <ele>135.19999694824</ele>
        <time>2021-05-10T12:20:46.000Z</time>
      </trkpt>
      <trkpt lat="49.10579" lon="1.5437">
        <ele>134.39999389648</ele>
        <time>2021-05-10T12:20:51.000Z</time>
      </trkpt>
      <trkpt lat="49.1057" lon="1.54381">
        <ele>134.19999694824</ele>
        <time>2021-05-10T12:20:53.000Z</time>
      </trkpt>
      <trkpt lat="49.10566" lon="1.54387">
        <ele>134.19999694824</ele>
        <time>2021-05-10T12:20:54.000Z</time>
      </trkpt>
      <trkpt lat="49.10533" lon="1.54428">
        <ele>132.80000305176</ele>
        <time>2021-05-10T12:21:01.000Z</time>
      </trkpt>
      <trkpt lat="49.10504" lon="1.54464">
        <ele>131.80000305176</ele>
        <time>2021-05-10T12:21:07.000Z</time>
      </trkpt>
      <trkpt lat="49.10475" lon="1.54501">
        <ele>130.60000610352</ele>
        <time>2021-05-10T12:21:13.000Z</time>
      </trkpt>
      <trkpt lat="49.10447" lon="1.54533">
        <ele>129.60000610352</ele>
        <time>2021-05-10T12:21:19.000Z</time>
      </trkpt>
      <trkpt lat="49.10421" lon="1.54567">
        <ele>128.80000305176</ele>
        <time>2021-05-10T12:21:25.000Z</time>
      </trkpt>
      <trkpt lat="49.10416" lon="1.54572">
        <ele>128.60000610352</ele>
        <time>2021-05-10T12:21:26.000Z</time>
      </trkpt>
      <trkpt lat="49.10408" lon="1.54584">
        <ele>128.60000610352</ele>
        <time>2021-05-10T12:21:28.000Z</time>
      </trkpt>
      <trkpt lat="49.10395" lon="1.54601">
        <ele>128.19999694824</ele>
        <time>2021-05-10T12:21:31.000Z</time>
      </trkpt>
      <trkpt lat="49.10367" lon="1.54635">
        <ele>127.19999694824</ele>
        <time>2021-05-10T12:21:37.000Z</time>
      </trkpt>
      <trkpt lat="49.10358" lon="1.54645">
        <ele>126.40000152588</ele>
        <time>2021-05-10T12:21:39.000Z</time>
      </trkpt>
      <trkpt lat="49.10354" lon="1.5465">
        <ele>126.19999694824</ele>
        <time>2021-05-10T12:21:40.000Z</time>
      </trkpt>
      <trkpt lat="49.10336" lon="1.54671">
        <ele>125</ele>
        <time>2021-05-10T12:21:44.000Z</time>
      </trkpt>
      <trkpt lat="49.10322" lon="1.54687">
        <ele>124.59999847412</ele>
        <time>2021-05-10T12:21:47.000Z</time>
      </trkpt>
      <trkpt lat="49.10284" lon="1.54732">
        <ele>124</ele>
        <time>2021-05-10T12:21:55.000Z</time>
      </trkpt>
      <trkpt lat="49.1028" lon="1.54738">
        <ele>124</ele>
        <time>2021-05-10T12:21:56.000Z</time>
      </trkpt>
      <trkpt lat="49.10271" lon="1.54748">
        <ele>123.80000305176</ele>
        <time>2021-05-10T12:21:58.000Z</time>
      </trkpt>
      <trkpt lat="49.10257" lon="1.54765">
        <ele>123.59999847412</ele>
        <time>2021-05-10T12:22:02.000Z</time>
      </trkpt>
      <trkpt lat="49.10248" lon="1.54773">
        <ele>123.59999847412</ele>
        <time>2021-05-10T12:22:06.000Z</time>
      </trkpt>
      <trkpt lat="49.10246" lon="1.54773">
        <ele>123.59999847412</ele>
        <time>2021-05-10T12:22:07.000Z</time>
      </trkpt>
      <trkpt lat="49.10242" lon="1.54768">
        <ele>123.59999847412</ele>
        <time>2021-05-10T12:22:10.000Z</time>
      </trkpt>
      <trkpt lat="49.10239" lon="1.54759">
        <ele>124</ele>
        <time>2021-05-10T12:22:14.000Z</time>
      </trkpt>
      <trkpt lat="49.10234" lon="1.5475">
        <ele>124.19999694824</ele>
        <time>2021-05-10T12:22:17.000Z</time>
      </trkpt>
      <trkpt lat="49.10231" lon="1.54741">
        <ele>124.19999694824</ele>
        <time>2021-05-10T12:22:19.000Z</time>
      </trkpt>
      <trkpt lat="49.10224" lon="1.54711">
        <ele>124.19999694824</ele>
        <time>2021-05-10T12:22:25.000Z</time>
      </trkpt>
      <trkpt lat="49.10211" lon="1.54667">
        <ele>124</ele>
        <time>2021-05-10T12:22:33.000Z</time>
      </trkpt>
      <trkpt lat="49.10193" lon="1.54609">
        <ele>123.59999847412</ele>
        <time>2021-05-10T12:22:43.000Z</time>
      </trkpt>
      <trkpt lat="49.10175" lon="1.54567">
        <ele>123</ele>
        <time>2021-05-10T12:22:51.000Z</time>
      </trkpt>
      <trkpt lat="49.10169" lon="1.54557">
        <ele>123</ele>
        <time>2021-05-10T12:22:53.000Z</time>
      </trkpt>
      <trkpt lat="49.10153" lon="1.54535">
        <ele>122.80000305176</ele>
        <time>2021-05-10T12:22:58.000Z</time>
      </trkpt>
      <trkpt lat="49.10135" lon="1.54512">
        <ele>122.59999847412</ele>
        <time>2021-05-10T12:23:03.000Z</time>
      </trkpt>
      <trkpt lat="49.10125" lon="1.54497">
        <ele>122</ele>
        <time>2021-05-10T12:23:06.000Z</time>
      </trkpt>
      <trkpt lat="49.10118" lon="1.54488">
        <ele>122</ele>
        <time>2021-05-10T12:23:08.000Z</time>
      </trkpt>
      <trkpt lat="49.10109" lon="1.54472">
        <ele>121.80000305176</ele>
        <time>2021-05-10T12:23:11.000Z</time>
      </trkpt>
      <trkpt lat="49.10107" lon="1.54467">
        <ele>121.80000305176</ele>
        <time>2021-05-10T12:23:12.000Z</time>
      </trkpt>
      <trkpt lat="49.10095" lon="1.5444">
        <ele>121.80000305176</ele>
        <time>2021-05-10T12:23:17.000Z</time>
      </trkpt>
      <trkpt lat="49.1009" lon="1.54433">
        <ele>122</ele>
        <time>2021-05-10T12:23:19.000Z</time>
      </trkpt>
      <trkpt lat="49.10087" lon="1.54434">
        <ele>122</ele>
        <time>2021-05-10T12:23:20.000Z</time>
      </trkpt>
      <trkpt lat="49.10077" lon="1.54442">
        <ele>122.40000152588</ele>
        <time>2021-05-10T12:23:24.000Z</time>
      </trkpt>
      <trkpt lat="49.10061" lon="1.54452">
        <ele>123</ele>
        <time>2021-05-10T12:23:30.000Z</time>
      </trkpt>
      <trkpt lat="49.10042" lon="1.54462">
        <ele>123.19999694824</ele>
        <time>2021-05-10T12:23:37.000Z</time>
      </trkpt>
      <trkpt lat="49.10023" lon="1.54471">
        <ele>123.80000305176</ele>
        <time>2021-05-10T12:23:44.000Z</time>
      </trkpt>
      <trkpt lat="49.10015" lon="1.54475">
        <ele>124</ele>
        <time>2021-05-10T12:23:47.000Z</time>
      </trkpt>
      <trkpt lat="49.10001" lon="1.54489">
        <ele>125</ele>
        <time>2021-05-10T12:23:53.000Z</time>
      </trkpt>
      <trkpt lat="49.09991" lon="1.54497">
        <ele>125.40000152588</ele>
        <time>2021-05-10T12:23:57.000Z</time>
      </trkpt>
      <trkpt lat="49.0998" lon="1.54505">
        <ele>126</ele>
        <time>2021-05-10T12:24:01.000Z</time>
      </trkpt>
      <trkpt lat="49.09973" lon="1.54514">
        <ele>126.40000152588</ele>
        <time>2021-05-10T12:24:04.000Z</time>
      </trkpt>
      <trkpt lat="49.09964" lon="1.5454">
        <ele>126.80000305176</ele>
        <time>2021-05-10T12:24:10.000Z</time>
      </trkpt>
      <trkpt lat="49.0996" lon="1.54551">
        <ele>127</ele>
        <time>2021-05-10T12:24:12.000Z</time>
      </trkpt>
      <trkpt lat="49.09946" lon="1.54591">
        <ele>127.59999847412</ele>
        <time>2021-05-10T12:24:20.000Z</time>
      </trkpt>
      <trkpt lat="49.0993" lon="1.54629">
        <ele>128</ele>
        <time>2021-05-10T12:24:28.000Z</time>
      </trkpt>
      <trkpt lat="49.09929" lon="1.54633">
        <ele>128</ele>
        <time>2021-05-10T12:24:29.000Z</time>
      </trkpt>
      <trkpt lat="49.09912" lon="1.54668">
        <ele>128.39999389648</ele>
        <time>2021-05-10T12:24:37.000Z</time>
      </trkpt>
      <trkpt lat="49.09888" lon="1.54701">
        <ele>128.19999694824</ele>
        <time>2021-05-10T12:24:45.000Z</time>
      </trkpt>
      <trkpt lat="49.09863" lon="1.54716">
        <ele>128</ele>
        <time>2021-05-10T12:24:52.000Z</time>
      </trkpt>
      <trkpt lat="49.09834" lon="1.54725">
        <ele>128.19999694824</ele>
        <time>2021-05-10T12:25:00.000Z</time>
      </trkpt>
      <trkpt lat="49.09808" lon="1.54735">
        <ele>129.19999694824</ele>
        <time>2021-05-10T12:25:07.000Z</time>
      </trkpt>
      <trkpt lat="49.09801" lon="1.54738">
        <ele>129.39999389648</ele>
        <time>2021-05-10T12:25:09.000Z</time>
      </trkpt>
      <trkpt lat="49.09771" lon="1.54748">
        <ele>130</ele>
        <time>2021-05-10T12:25:17.000Z</time>
      </trkpt>
      <trkpt lat="49.0976" lon="1.54752">
        <ele>130.19999694824</ele>
        <time>2021-05-10T12:25:20.000Z</time>
      </trkpt>
      <trkpt lat="49.09743" lon="1.54757">
        <ele>130.80000305176</ele>
        <time>2021-05-10T12:25:25.000Z</time>
      </trkpt>
      <trkpt lat="49.09729" lon="1.54761">
        <ele>131.19999694824</ele>
        <time>2021-05-10T12:25:29.000Z</time>
      </trkpt>
      <trkpt lat="49.09715" lon="1.54765">
        <ele>131.80000305176</ele>
        <time>2021-05-10T12:25:33.000Z</time>
      </trkpt>
      <trkpt lat="49.0969" lon="1.54771">
        <ele>132.19999694824</ele>
        <time>2021-05-10T12:25:40.000Z</time>
      </trkpt>
      <trkpt lat="49.09679" lon="1.54773">
        <ele>132.60000610352</ele>
        <time>2021-05-10T12:25:43.000Z</time>
      </trkpt>
      <trkpt lat="49.09641" lon="1.54781">
        <ele>133.19999694824</ele>
        <time>2021-05-10T12:25:54.000Z</time>
      </trkpt>
      <trkpt lat="49.09603" lon="1.54789">
        <ele>134</ele>
        <time>2021-05-10T12:26:05.000Z</time>
      </trkpt>
      <trkpt lat="49.0958" lon="1.54794">
        <ele>134.39999389648</ele>
        <time>2021-05-10T12:26:12.000Z</time>
      </trkpt>
      <trkpt lat="49.09566" lon="1.54798">
        <ele>134.39999389648</ele>
        <time>2021-05-10T12:26:16.000Z</time>
      </trkpt>
      <trkpt lat="49.0953" lon="1.54806">
        <ele>134.80000305176</ele>
        <time>2021-05-10T12:26:26.000Z</time>
      </trkpt>
      <trkpt lat="49.09491" lon="1.54815">
        <ele>134.80000305176</ele>
        <time>2021-05-10T12:26:37.000Z</time>
      </trkpt>
      <trkpt lat="49.09449" lon="1.54827">
        <ele>134.80000305176</ele>
        <time>2021-05-10T12:26:49.000Z</time>
      </trkpt>
      <trkpt lat="49.09411" lon="1.54836">
        <ele>134.80000305176</ele>
        <time>2021-05-10T12:27:00.000Z</time>
      </trkpt>
      <trkpt lat="49.09399" lon="1.54844">
        <ele>135</ele>
        <time>2021-05-10T12:27:04.000Z</time>
      </trkpt>
      <trkpt lat="49.09397" lon="1.54848">
        <ele>135</ele>
        <time>2021-05-10T12:27:05.000Z</time>
      </trkpt>
      <trkpt lat="49.09395" lon="1.54878">
        <ele>135.39999389648</ele>
        <time>2021-05-10T12:27:10.000Z</time>
      </trkpt>
      <trkpt lat="49.09398" lon="1.54928">
        <ele>136.19999694824</ele>
        <time>2021-05-10T12:27:17.000Z</time>
      </trkpt>
      <trkpt lat="49.09399" lon="1.54956">
        <ele>136.39999389648</ele>
        <time>2021-05-10T12:27:21.000Z</time>
      </trkpt>
      <trkpt lat="49.09399" lon="1.54967">
        <ele>136.39999389648</ele>
        <time>2021-05-10T12:27:23.000Z</time>
      </trkpt>
      <trkpt lat="49.094" lon="1.55001">
        <ele>136.39999389648</ele>
        <time>2021-05-10T12:27:29.000Z</time>
      </trkpt>
      <trkpt lat="49.09403" lon="1.55046">
        <ele>136</ele>
        <time>2021-05-10T12:27:36.000Z</time>
      </trkpt>
      <trkpt lat="49.09404" lon="1.55081">
        <ele>135.60000610352</ele>
        <time>2021-05-10T12:27:41.000Z</time>
      </trkpt>
      <trkpt lat="49.09404" lon="1.55089">
        <ele>135.60000610352</ele>
        <time>2021-05-10T12:27:42.000Z</time>
      </trkpt>
      <trkpt lat="49.09405" lon="1.55119">
        <ele>135.19999694824</ele>
        <time>2021-05-10T12:27:46.000Z</time>
      </trkpt>
      <trkpt lat="49.09403" lon="1.5513">
        <ele>135</ele>
        <time>2021-05-10T12:27:48.000Z</time>
      </trkpt>
      <trkpt lat="49.094" lon="1.55134">
        <ele>134.80000305176</ele>
        <time>2021-05-10T12:27:49.000Z</time>
      </trkpt>
      <trkpt lat="49.0939" lon="1.55139">
        <ele>134.60000610352</ele>
        <time>2021-05-10T12:27:52.000Z</time>
      </trkpt>
      <trkpt lat="49.09378" lon="1.55144">
        <ele>134.19999694824</ele>
        <time>2021-05-10T12:27:55.000Z</time>
      </trkpt>
      <trkpt lat="49.09362" lon="1.55152">
        <ele>133.80000305176</ele>
        <time>2021-05-10T12:27:59.000Z</time>
      </trkpt>
      <trkpt lat="49.09348" lon="1.55158">
        <ele>133.80000305176</ele>
        <time>2021-05-10T12:28:02.000Z</time>
      </trkpt>
      <trkpt lat="49.09319" lon="1.55171">
        <ele>133</ele>
        <time>2021-05-10T12:28:08.000Z</time>
      </trkpt>
      <trkpt lat="49.0931" lon="1.55176">
        <ele>132.60000610352</ele>
        <time>2021-05-10T12:28:10.000Z</time>
      </trkpt>
      <trkpt lat="49.09278" lon="1.55192">
        <ele>132.19999694824</ele>
        <time>2021-05-10T12:28:17.000Z</time>
      </trkpt>
      <trkpt lat="49.09246" lon="1.55207">
        <ele>132.19999694824</ele>
        <time>2021-05-10T12:28:24.000Z</time>
      </trkpt>
      <trkpt lat="49.09241" lon="1.55209">
        <ele>132.19999694824</ele>
        <time>2021-05-10T12:28:25.000Z</time>
      </trkpt>
      <trkpt lat="49.0921" lon="1.55225">
        <ele>132.19999694824</ele>
        <time>2021-05-10T12:28:33.000Z</time>
      </trkpt>
      <trkpt lat="49.09191" lon="1.55234">
        <ele>132</ele>
        <time>2021-05-10T12:28:38.000Z</time>
      </trkpt>
      <trkpt lat="49.09179" lon="1.5524">
        <ele>131.80000305176</ele>
        <time>2021-05-10T12:28:41.000Z</time>
      </trkpt>
      <trkpt lat="49.09145" lon="1.55258">
        <ele>131.60000610352</ele>
        <time>2021-05-10T12:28:50.000Z</time>
      </trkpt>
      <trkpt lat="49.09141" lon="1.5526">
        <ele>131.60000610352</ele>
        <time>2021-05-10T12:28:51.000Z</time>
      </trkpt>
      <trkpt lat="49.09108" lon="1.55276">
        <ele>131.60000610352</ele>
        <time>2021-05-10T12:28:59.000Z</time>
      </trkpt>
      <trkpt lat="49.09055" lon="1.55302">
        <ele>131.60000610352</ele>
        <time>2021-05-10T12:29:11.000Z</time>
      </trkpt>
      <trkpt lat="49.09047" lon="1.55307">
        <ele>131.60000610352</ele>
        <time>2021-05-10T12:29:13.000Z</time>
      </trkpt>
      <trkpt lat="49.09023" lon="1.5532">
        <ele>131.60000610352</ele>
        <time>2021-05-10T12:29:19.000Z</time>
      </trkpt>
      <trkpt lat="49.08992" lon="1.55337">
        <ele>132</ele>
        <time>2021-05-10T12:29:28.000Z</time>
      </trkpt>
      <trkpt lat="49.08969" lon="1.55349">
        <ele>132.19999694824</ele>
        <time>2021-05-10T12:29:34.000Z</time>
      </trkpt>
      <trkpt lat="49.08942" lon="1.55361">
        <ele>132.19999694824</ele>
        <time>2021-05-10T12:29:42.000Z</time>
      </trkpt>
      <trkpt lat="49.08934" lon="1.55365">
        <ele>132.19999694824</ele>
        <time>2021-05-10T12:29:48.000Z</time>
      </trkpt>
      <trkpt lat="49.08915" lon="1.55373">
        <ele>132.19999694824</ele>
        <time>2021-05-10T12:29:54.000Z</time>
      </trkpt>
      <trkpt lat="49.08893" lon="1.55382">
        <ele>132</ele>
        <time>2021-05-10T12:30:01.000Z</time>
      </trkpt>
      <trkpt lat="49.08881" lon="1.55386">
        <ele>131.60000610352</ele>
        <time>2021-05-10T12:30:06.000Z</time>
      </trkpt>
      <trkpt lat="49.08852" lon="1.55398">
        <ele>131.39999389648</ele>
        <time>2021-05-10T12:30:14.000Z</time>
      </trkpt>
      <trkpt lat="49.08822" lon="1.5541">
        <ele>131.39999389648</ele>
        <time>2021-05-10T12:30:23.000Z</time>
      </trkpt>
      <trkpt lat="49.08796" lon="1.5542">
        <ele>131.60000610352</ele>
        <time>2021-05-10T12:30:31.000Z</time>
      </trkpt>
      <trkpt lat="49.0876" lon="1.55434">
        <ele>132</ele>
        <time>2021-05-10T12:30:42.000Z</time>
      </trkpt>
      <trkpt lat="49.08742" lon="1.55444">
        <ele>131.80000305176</ele>
        <time>2021-05-10T12:30:48.000Z</time>
      </trkpt>
      <trkpt lat="49.08715" lon="1.55457">
        <ele>131.80000305176</ele>
        <time>2021-05-10T12:30:55.000Z</time>
      </trkpt>
      <trkpt lat="49.08677" lon="1.55476">
        <ele>131.60000610352</ele>
        <time>2021-05-10T12:31:04.000Z</time>
      </trkpt>
      <trkpt lat="49.08644" lon="1.55493">
        <ele>131.19999694824</ele>
        <time>2021-05-10T12:31:12.000Z</time>
      </trkpt>
      <trkpt lat="49.08606" lon="1.55513">
        <ele>131</ele>
        <time>2021-05-10T12:31:21.000Z</time>
      </trkpt>
      <trkpt lat="49.0859" lon="1.55521">
        <ele>131</ele>
        <time>2021-05-10T12:31:25.000Z</time>
      </trkpt>
      <trkpt lat="49.08569" lon="1.55528">
        <ele>130.80000305176</ele>
        <time>2021-05-10T12:31:30.000Z</time>
      </trkpt>
      <trkpt lat="49.08528" lon="1.55542">
        <ele>131</ele>
        <time>2021-05-10T12:31:40.000Z</time>
      </trkpt>
      <trkpt lat="49.08497" lon="1.55552">
        <ele>131</ele>
        <time>2021-05-10T12:31:48.000Z</time>
      </trkpt>
      <trkpt lat="49.08464" lon="1.55561">
        <ele>131.19999694824</ele>
        <time>2021-05-10T12:31:57.000Z</time>
      </trkpt>
      <trkpt lat="49.08458" lon="1.55566">
        <ele>131.19999694824</ele>
        <time>2021-05-10T12:31:59.000Z</time>
      </trkpt>
      <trkpt lat="49.08456" lon="1.55576">
        <ele>131.19999694824</ele>
        <time>2021-05-10T12:32:01.000Z</time>
      </trkpt>
      <trkpt lat="49.08459" lon="1.55591">
        <ele>131.19999694824</ele>
        <time>2021-05-10T12:32:04.000Z</time>
      </trkpt>
      <trkpt lat="49.08463" lon="1.55608">
        <ele>131.19999694824</ele>
        <time>2021-05-10T12:32:07.000Z</time>
      </trkpt>
      <trkpt lat="49.08475" lon="1.55655">
        <ele>131.19999694824</ele>
        <time>2021-05-10T12:32:14.000Z</time>
      </trkpt>
      <trkpt lat="49.08491" lon="1.55719">
        <ele>130.39999389648</ele>
        <time>2021-05-10T12:32:23.000Z</time>
      </trkpt>
      <trkpt lat="49.0851" lon="1.55799">
        <ele>130</ele>
        <time>2021-05-10T12:32:33.000Z</time>
      </trkpt>
      <trkpt lat="49.08518" lon="1.5583">
        <ele>129.80000305176</ele>
        <time>2021-05-10T12:32:37.000Z</time>
      </trkpt>
      <trkpt lat="49.0853" lon="1.55883">
        <ele>129.60000610352</ele>
        <time>2021-05-10T12:32:44.000Z</time>
      </trkpt>
      <trkpt lat="49.08543" lon="1.55933">
        <ele>128.80000305176</ele>
        <time>2021-05-10T12:32:51.000Z</time>
      </trkpt>
      <trkpt lat="49.08552" lon="1.55968">
        <ele>128.39999389648</ele>
        <time>2021-05-10T12:32:56.000Z</time>
      </trkpt>
      <trkpt lat="49.08563" lon="1.56013">
        <ele>127.80000305176</ele>
        <time>2021-05-10T12:33:02.000Z</time>
      </trkpt>
      <trkpt lat="49.08574" lon="1.56055">
        <ele>127.40000152588</ele>
        <time>2021-05-10T12:33:08.000Z</time>
      </trkpt>
      <trkpt lat="49.08582" lon="1.56083">
        <ele>127.19999694824</ele>
        <time>2021-05-10T12:33:12.000Z</time>
      </trkpt>
      <trkpt lat="49.08593" lon="1.56125">
        <ele>127</ele>
        <time>2021-05-10T12:33:18.000Z</time>
      </trkpt>
      <trkpt lat="49.08599" lon="1.56146">
        <ele>126.80000305176</ele>
        <time>2021-05-10T12:33:21.000Z</time>
      </trkpt>
      <trkpt lat="49.0861" lon="1.56189">
        <ele>125.80000305176</ele>
        <time>2021-05-10T12:33:27.000Z</time>
      </trkpt>
      <trkpt lat="49.08618" lon="1.56217">
        <ele>125.80000305176</ele>
        <time>2021-05-10T12:33:31.000Z</time>
      </trkpt>
      <trkpt lat="49.08625" lon="1.56245">
        <ele>124.80000305176</ele>
        <time>2021-05-10T12:33:35.000Z</time>
      </trkpt>
      <trkpt lat="49.08626" lon="1.56251">
        <ele>124.59999847412</ele>
        <time>2021-05-10T12:33:36.000Z</time>
      </trkpt>
      <trkpt lat="49.08626" lon="1.56256">
        <ele>124.59999847412</ele>
        <time>2021-05-10T12:33:37.000Z</time>
      </trkpt>
      <trkpt lat="49.08622" lon="1.56265">
        <ele>124.40000152588</ele>
        <time>2021-05-10T12:33:39.000Z</time>
      </trkpt>
      <trkpt lat="49.08616" lon="1.56271">
        <ele>124</ele>
        <time>2021-05-10T12:33:41.000Z</time>
      </trkpt>
      <trkpt lat="49.08613" lon="1.56273">
        <ele>123.59999847412</ele>
        <time>2021-05-10T12:33:42.000Z</time>
      </trkpt>
      <trkpt lat="49.08606" lon="1.56278">
        <ele>123.19999694824</ele>
        <time>2021-05-10T12:33:44.000Z</time>
      </trkpt>
      <trkpt lat="49.08594" lon="1.56286">
        <ele>122.59999847412</ele>
        <time>2021-05-10T12:33:47.000Z</time>
      </trkpt>
      <trkpt lat="49.08578" lon="1.56296">
        <ele>122.19999694824</ele>
        <time>2021-05-10T12:33:51.000Z</time>
      </trkpt>
      <trkpt lat="49.08542" lon="1.56321">
        <ele>122.19999694824</ele>
        <time>2021-05-10T12:34:00.000Z</time>
      </trkpt>
      <trkpt lat="49.08498" lon="1.56353">
        <ele>123</ele>
        <time>2021-05-10T12:34:11.000Z</time>
      </trkpt>
      <trkpt lat="49.08494" lon="1.56356">
        <ele>123.40000152588</ele>
        <time>2021-05-10T12:34:12.000Z</time>
      </trkpt>
      <trkpt lat="49.08489" lon="1.56358">
        <ele>123.80000305176</ele>
        <time>2021-05-10T12:34:13.000Z</time>
      </trkpt>
      <trkpt lat="49.08482" lon="1.56362">
        <ele>124.59999847412</ele>
        <time>2021-05-10T12:34:15.000Z</time>
      </trkpt>
      <trkpt lat="49.08475" lon="1.56367">
        <ele>125</ele>
        <time>2021-05-10T12:34:17.000Z</time>
      </trkpt>
      <trkpt lat="49.08467" lon="1.5637">
        <ele>125.40000152588</ele>
        <time>2021-05-10T12:34:19.000Z</time>
      </trkpt>
      <trkpt lat="49.08464" lon="1.56371">
        <ele>125.40000152588</ele>
        <time>2021-05-10T12:34:20.000Z</time>
      </trkpt>
      <trkpt lat="49.0844" lon="1.56376">
        <ele>125.59999847412</ele>
        <time>2021-05-10T12:34:26.000Z</time>
      </trkpt>
      <trkpt lat="49.08412" lon="1.56386">
        <ele>126</ele>
        <time>2021-05-10T12:34:33.000Z</time>
      </trkpt>
      <trkpt lat="49.0838" lon="1.56399">
        <ele>126.59999847412</ele>
        <time>2021-05-10T12:34:40.000Z</time>
      </trkpt>
      <trkpt lat="49.08349" lon="1.56412">
        <ele>127.19999694824</ele>
        <time>2021-05-10T12:34:46.000Z</time>
      </trkpt>
      <trkpt lat="49.08344" lon="1.56414">
        <ele>127.19999694824</ele>
        <time>2021-05-10T12:34:47.000Z</time>
      </trkpt>
      <trkpt lat="49.08307" lon="1.56429">
        <ele>127.40000152588</ele>
        <time>2021-05-10T12:34:55.000Z</time>
      </trkpt>
      <trkpt lat="49.08296" lon="1.56436">
        <ele>127.40000152588</ele>
        <time>2021-05-10T12:34:58.000Z</time>
      </trkpt>
      <trkpt lat="49.08294" lon="1.56441">
        <ele>127.40000152588</ele>
        <time>2021-05-10T12:34:59.000Z</time>
      </trkpt>
      <trkpt lat="49.08297" lon="1.5646">
        <ele>127.40000152588</ele>
        <time>2021-05-10T12:35:02.000Z</time>
      </trkpt>
      <trkpt lat="49.08304" lon="1.56502">
        <ele>126.80000305176</ele>
        <time>2021-05-10T12:35:09.000Z</time>
      </trkpt>
      <trkpt lat="49.08309" lon="1.56541">
        <ele>126.59999847412</ele>
        <time>2021-05-10T12:35:16.000Z</time>
      </trkpt>
      <trkpt lat="49.08316" lon="1.56582">
        <ele>126.19999694824</ele>
        <time>2021-05-10T12:35:22.000Z</time>
      </trkpt>
      <trkpt lat="49.08318" lon="1.56597">
        <ele>126</ele>
        <time>2021-05-10T12:35:24.000Z</time>
      </trkpt>
      <trkpt lat="49.08329" lon="1.56655">
        <ele>125.59999847412</ele>
        <time>2021-05-10T12:35:32.000Z</time>
      </trkpt>
      <trkpt lat="49.08336" lon="1.56698">
        <ele>125.19999694824</ele>
        <time>2021-05-10T12:35:38.000Z</time>
      </trkpt>
      <trkpt lat="49.0834" lon="1.56724">
        <ele>125</ele>
        <time>2021-05-10T12:35:42.000Z</time>
      </trkpt>
      <trkpt lat="49.08343" lon="1.56742">
        <ele>124.40000152588</ele>
        <time>2021-05-10T12:35:45.000Z</time>
      </trkpt>
      <trkpt lat="49.08351" lon="1.568">
        <ele>124.19999694824</ele>
        <time>2021-05-10T12:35:53.000Z</time>
      </trkpt>
      <trkpt lat="49.08352" lon="1.56808">
        <ele>124</ele>
        <time>2021-05-10T12:35:54.000Z</time>
      </trkpt>
      <trkpt lat="49.0836" lon="1.56846">
        <ele>123.80000305176</ele>
        <time>2021-05-10T12:35:59.000Z</time>
      </trkpt>
      <trkpt lat="49.08372" lon="1.56902">
        <ele>123.40000152588</ele>
        <time>2021-05-10T12:36:06.000Z</time>
      </trkpt>
      <trkpt lat="49.08382" lon="1.56959">
        <ele>123</ele>
        <time>2021-05-10T12:36:13.000Z</time>
      </trkpt>
      <trkpt lat="49.08384" lon="1.56976">
        <ele>122.80000305176</ele>
        <time>2021-05-10T12:36:15.000Z</time>
      </trkpt>
      <trkpt lat="49.08394" lon="1.5704">
        <ele>122</ele>
        <time>2021-05-10T12:36:23.000Z</time>
      </trkpt>
      <trkpt lat="49.08397" lon="1.57055">
        <ele>121.59999847412</ele>
        <time>2021-05-10T12:36:25.000Z</time>
      </trkpt>
      <trkpt lat="49.08406" lon="1.57115">
        <ele>121.19999694824</ele>
        <time>2021-05-10T12:36:33.000Z</time>
      </trkpt>
      <trkpt lat="49.0841" lon="1.57142">
        <ele>121</ele>
        <time>2021-05-10T12:36:38.000Z</time>
      </trkpt>
      <trkpt lat="49.08411" lon="1.57145">
        <ele>121</ele>
        <time>2021-05-10T12:36:41.000Z</time>
      </trkpt>
      <trkpt lat="49.0841" lon="1.57144">
        <ele>121.80000305176</ele>
        <time>2021-05-10T12:42:50.000Z</time>
      </trkpt>
      <trkpt lat="49.08413" lon="1.57159">
        <ele>121.59999847412</ele>
        <time>2021-05-10T12:42:55.000Z</time>
      </trkpt>
      <trkpt lat="49.08418" lon="1.57188">
        <ele>121.40000152588</ele>
        <time>2021-05-10T12:42:59.000Z</time>
      </trkpt>
      <trkpt lat="49.08425" lon="1.57236">
        <ele>121</ele>
        <time>2021-05-10T12:43:04.000Z</time>
      </trkpt>
      <trkpt lat="49.08426" lon="1.57246">
        <ele>120.80000305176</ele>
        <time>2021-05-10T12:43:05.000Z</time>
      </trkpt>
      <trkpt lat="49.08433" lon="1.57287">
        <ele>120</ele>
        <time>2021-05-10T12:43:09.000Z</time>
      </trkpt>
      <trkpt lat="49.08436" lon="1.57296">
        <ele>119.59999847412</ele>
        <time>2021-05-10T12:43:10.000Z</time>
      </trkpt>
      <trkpt lat="49.08439" lon="1.57305">
        <ele>119.19999694824</ele>
        <time>2021-05-10T12:43:11.000Z</time>
      </trkpt>
      <trkpt lat="49.08441" lon="1.57312">
        <ele>118.80000305176</ele>
        <time>2021-05-10T12:43:12.000Z</time>
      </trkpt>
      <trkpt lat="49.08445" lon="1.57321">
        <ele>118.19999694824</ele>
        <time>2021-05-10T12:43:14.000Z</time>
      </trkpt>
      <trkpt lat="49.08449" lon="1.57329">
        <ele>118</ele>
        <time>2021-05-10T12:43:16.000Z</time>
      </trkpt>
      <trkpt lat="49.08453" lon="1.57344">
        <ele>117.80000305176</ele>
        <time>2021-05-10T12:43:19.000Z</time>
      </trkpt>
      <trkpt lat="49.08455" lon="1.57378">
        <ele>117.19999694824</ele>
        <time>2021-05-10T12:43:25.000Z</time>
      </trkpt>
      <trkpt lat="49.08452" lon="1.57404">
        <ele>116.59999847412</ele>
        <time>2021-05-10T12:43:29.000Z</time>
      </trkpt>
      <trkpt lat="49.08452" lon="1.57412">
        <ele>116.19999694824</ele>
        <time>2021-05-10T12:43:30.000Z</time>
      </trkpt>
      <trkpt lat="49.0845" lon="1.57427">
        <ele>115.40000152588</ele>
        <time>2021-05-10T12:43:32.000Z</time>
      </trkpt>
      <trkpt lat="49.0845" lon="1.57435">
        <ele>115</ele>
        <time>2021-05-10T12:43:33.000Z</time>
      </trkpt>
      <trkpt lat="49.08449" lon="1.57453">
        <ele>114.40000152588</ele>
        <time>2021-05-10T12:43:35.000Z</time>
      </trkpt>
      <trkpt lat="49.08449" lon="1.57462">
        <ele>114.19999694824</ele>
        <time>2021-05-10T12:43:36.000Z</time>
      </trkpt>
      <trkpt lat="49.08447" lon="1.57486">
        <ele>113.19999694824</ele>
        <time>2021-05-10T12:43:39.000Z</time>
      </trkpt>
      <trkpt lat="49.08445" lon="1.5751">
        <ele>112.59999847412</ele>
        <time>2021-05-10T12:43:42.000Z</time>
      </trkpt>
      <trkpt lat="49.08444" lon="1.57531">
        <ele>111.80000305176</ele>
        <time>2021-05-10T12:43:44.000Z</time>
      </trkpt>
      <trkpt lat="49.08442" lon="1.57553">
        <ele>110.59999847412</ele>
        <time>2021-05-10T12:43:46.000Z</time>
      </trkpt>
      <trkpt lat="49.08441" lon="1.57565">
        <ele>109.80000305176</ele>
        <time>2021-05-10T12:43:47.000Z</time>
      </trkpt>
      <trkpt lat="49.0844" lon="1.57577">
        <ele>109.40000152588</ele>
        <time>2021-05-10T12:43:48.000Z</time>
      </trkpt>
      <trkpt lat="49.08439" lon="1.57589">
        <ele>108.40000152588</ele>
        <time>2021-05-10T12:43:49.000Z</time>
      </trkpt>
      <trkpt lat="49.08437" lon="1.57613">
        <ele>107</ele>
        <time>2021-05-10T12:43:51.000Z</time>
      </trkpt>
      <trkpt lat="49.08437" lon="1.57639">
        <ele>105.40000152588</ele>
        <time>2021-05-10T12:43:53.000Z</time>
      </trkpt>
      <trkpt lat="49.08435" lon="1.57653">
        <ele>104.40000152588</ele>
        <time>2021-05-10T12:43:54.000Z</time>
      </trkpt>
      <trkpt lat="49.08434" lon="1.57666">
        <ele>103.19999694824</ele>
        <time>2021-05-10T12:43:55.000Z</time>
      </trkpt>
      <trkpt lat="49.08431" lon="1.57678">
        <ele>102.19999694824</ele>
        <time>2021-05-10T12:43:56.000Z</time>
      </trkpt>
      <trkpt lat="49.08428" lon="1.57692">
        <ele>101.59999847412</ele>
        <time>2021-05-10T12:43:57.000Z</time>
      </trkpt>
      <trkpt lat="49.08426" lon="1.57706">
        <ele>100.80000305176</ele>
        <time>2021-05-10T12:43:58.000Z</time>
      </trkpt>
      <trkpt lat="49.08419" lon="1.57734">
        <ele>99.800003051758</ele>
        <time>2021-05-10T12:44:00.000Z</time>
      </trkpt>
      <trkpt lat="49.08415" lon="1.57747">
        <ele>99.199996948242</ele>
        <time>2021-05-10T12:44:01.000Z</time>
      </trkpt>
      <trkpt lat="49.08411" lon="1.57759">
        <ele>98.400001525879</ele>
        <time>2021-05-10T12:44:02.000Z</time>
      </trkpt>
      <trkpt lat="49.08407" lon="1.57771">
        <ele>97.199996948242</ele>
        <time>2021-05-10T12:44:03.000Z</time>
      </trkpt>
      <trkpt lat="49.08402" lon="1.57783">
        <ele>96</ele>
        <time>2021-05-10T12:44:04.000Z</time>
      </trkpt>
      <trkpt lat="49.08396" lon="1.57796">
        <ele>95</ele>
        <time>2021-05-10T12:44:05.000Z</time>
      </trkpt>
      <trkpt lat="49.08392" lon="1.57809">
        <ele>94</ele>
        <time>2021-05-10T12:44:06.000Z</time>
      </trkpt>
      <trkpt lat="49.08383" lon="1.57837">
        <ele>92.199996948242</ele>
        <time>2021-05-10T12:44:08.000Z</time>
      </trkpt>
      <trkpt lat="49.08377" lon="1.57863">
        <ele>90.599998474121</ele>
        <time>2021-05-10T12:44:10.000Z</time>
      </trkpt>
      <trkpt lat="49.08376" lon="1.57877">
        <ele>89.800003051758</ele>
        <time>2021-05-10T12:44:11.000Z</time>
      </trkpt>
      <trkpt lat="49.08374" lon="1.5789">
        <ele>89</ele>
        <time>2021-05-10T12:44:12.000Z</time>
      </trkpt>
      <trkpt lat="49.08372" lon="1.57904">
        <ele>87.800003051758</ele>
        <time>2021-05-10T12:44:13.000Z</time>
      </trkpt>
      <trkpt lat="49.0837" lon="1.57918">
        <ele>86.599998474121</ele>
        <time>2021-05-10T12:44:14.000Z</time>
      </trkpt>
      <trkpt lat="49.08368" lon="1.57933">
        <ele>85</ele>
        <time>2021-05-10T12:44:15.000Z</time>
      </trkpt>
      <trkpt lat="49.08367" lon="1.57948">
        <ele>83.400001525879</ele>
        <time>2021-05-10T12:44:16.000Z</time>
      </trkpt>
      <trkpt lat="49.08366" lon="1.57965">
        <ele>82</ele>
        <time>2021-05-10T12:44:17.000Z</time>
      </trkpt>
      <trkpt lat="49.08367" lon="1.57981">
        <ele>79.800003051758</ele>
        <time>2021-05-10T12:44:18.000Z</time>
      </trkpt>
      <trkpt lat="49.08368" lon="1.58013">
        <ele>77.800003051758</ele>
        <time>2021-05-10T12:44:20.000Z</time>
      </trkpt>
      <trkpt lat="49.08367" lon="1.58028">
        <ele>76.599998474121</ele>
        <time>2021-05-10T12:44:21.000Z</time>
      </trkpt>
      <trkpt lat="49.08364" lon="1.58043">
        <ele>75.400001525879</ele>
        <time>2021-05-10T12:44:22.000Z</time>
      </trkpt>
      <trkpt lat="49.08361" lon="1.58058">
        <ele>74</ele>
        <time>2021-05-10T12:44:23.000Z</time>
      </trkpt>
      <trkpt lat="49.08359" lon="1.58072">
        <ele>72.800003051758</ele>
        <time>2021-05-10T12:44:24.000Z</time>
      </trkpt>
      <trkpt lat="49.08358" lon="1.58084">
        <ele>71.599998474121</ele>
        <time>2021-05-10T12:44:25.000Z</time>
      </trkpt>
      <trkpt lat="49.08355" lon="1.58091">
        <ele>70.400001525879</ele>
        <time>2021-05-10T12:44:26.000Z</time>
      </trkpt>
      <trkpt lat="49.08356" lon="1.581">
        <ele>69.199996948242</ele>
        <time>2021-05-10T12:44:27.000Z</time>
      </trkpt>
      <trkpt lat="49.08358" lon="1.58108">
        <ele>68</ele>
        <time>2021-05-10T12:44:28.000Z</time>
      </trkpt>
      <trkpt lat="49.08361" lon="1.58116">
        <ele>66.800003051758</ele>
        <time>2021-05-10T12:44:29.000Z</time>
      </trkpt>
      <trkpt lat="49.08362" lon="1.58123">
        <ele>65.599998474121</ele>
        <time>2021-05-10T12:44:30.000Z</time>
      </trkpt>
      <trkpt lat="49.08361" lon="1.58139">
        <ele>63.799999237061</ele>
        <time>2021-05-10T12:44:32.000Z</time>
      </trkpt>
      <trkpt lat="49.08362" lon="1.58147">
        <ele>63.200000762939</ele>
        <time>2021-05-10T12:44:33.000Z</time>
      </trkpt>
      <trkpt lat="49.08364" lon="1.58164">
        <ele>62.599998474121</ele>
        <time>2021-05-10T12:44:35.000Z</time>
      </trkpt>
      <trkpt lat="49.08366" lon="1.58187">
        <ele>62.200000762939</ele>
        <time>2021-05-10T12:44:37.000Z</time>
      </trkpt>
      <trkpt lat="49.08368" lon="1.58209">
        <ele>61.200000762939</ele>
        <time>2021-05-10T12:44:39.000Z</time>
      </trkpt>
      <trkpt lat="49.08367" lon="1.58221">
        <ele>60.599998474121</ele>
        <time>2021-05-10T12:44:40.000Z</time>
      </trkpt>
      <trkpt lat="49.08366" lon="1.58233">
        <ele>60</ele>
        <time>2021-05-10T12:44:41.000Z</time>
      </trkpt>
      <trkpt lat="49.08364" lon="1.58245">
        <ele>59</ele>
        <time>2021-05-10T12:44:42.000Z</time>
      </trkpt>
      <trkpt lat="49.08357" lon="1.58268">
        <ele>57.200000762939</ele>
        <time>2021-05-10T12:44:44.000Z</time>
      </trkpt>
      <trkpt lat="49.08345" lon="1.58284">
        <ele>55</ele>
        <time>2021-05-10T12:44:46.000Z</time>
      </trkpt>
      <trkpt lat="49.08341" lon="1.5829">
        <ele>54.200000762939</ele>
        <time>2021-05-10T12:44:47.000Z</time>
      </trkpt>
      <trkpt lat="49.08339" lon="1.58296">
        <ele>53</ele>
        <time>2021-05-10T12:44:48.000Z</time>
      </trkpt>
      <trkpt lat="49.0834" lon="1.583">
        <ele>51.799999237061</ele>
        <time>2021-05-10T12:44:49.000Z</time>
      </trkpt>
      <trkpt lat="49.08342" lon="1.58301">
        <ele>50.599998474121</ele>
        <time>2021-05-10T12:44:50.000Z</time>
      </trkpt>
      <trkpt lat="49.08345" lon="1.583">
        <ele>49.400001525879</ele>
        <time>2021-05-10T12:44:51.000Z</time>
      </trkpt>
      <trkpt lat="49.08348" lon="1.58297">
        <ele>48.200000762939</ele>
        <time>2021-05-10T12:44:52.000Z</time>
      </trkpt>
      <trkpt lat="49.08351" lon="1.58294">
        <ele>47</ele>
        <time>2021-05-10T12:44:53.000Z</time>
      </trkpt>
      <trkpt lat="49.08354" lon="1.5829">
        <ele>45.799999237061</ele>
        <time>2021-05-10T12:44:54.000Z</time>
      </trkpt>
      <trkpt lat="49.08362" lon="1.58284">
        <ele>45</ele>
        <time>2021-05-10T12:44:56.000Z</time>
      </trkpt>
      <trkpt lat="49.08366" lon="1.58282">
        <ele>44.799999237061</ele>
        <time>2021-05-10T12:44:57.000Z</time>
      </trkpt>
      <trkpt lat="49.08379" lon="1.58282">
        <ele>44</ele>
        <time>2021-05-10T12:45:00.000Z</time>
      </trkpt>
      <trkpt lat="49.08388" lon="1.58283">
        <ele>43.400001525879</ele>
        <time>2021-05-10T12:45:02.000Z</time>
      </trkpt>
      <trkpt lat="49.0839" lon="1.58284">
        <ele>43.200000762939</ele>
        <time>2021-05-10T12:45:03.000Z</time>
      </trkpt>
      <trkpt lat="49.08394" lon="1.58292">
        <ele>42.400001525879</ele>
        <time>2021-05-10T12:45:05.000Z</time>
      </trkpt>
      <trkpt lat="49.08397" lon="1.58298">
        <ele>41.799999237061</ele>
        <time>2021-05-10T12:45:06.000Z</time>
      </trkpt>
      <trkpt lat="49.08406" lon="1.58308">
        <ele>40.799999237061</ele>
        <time>2021-05-10T12:45:08.000Z</time>
      </trkpt>
      <trkpt lat="49.0841" lon="1.58313">
        <ele>40.200000762939</ele>
        <time>2021-05-10T12:45:09.000Z</time>
      </trkpt>
      <trkpt lat="49.08415" lon="1.58319">
        <ele>40</ele>
        <time>2021-05-10T12:45:10.000Z</time>
      </trkpt>
      <trkpt lat="49.08419" lon="1.58324">
        <ele>39.599998474121</ele>
        <time>2021-05-10T12:45:11.000Z</time>
      </trkpt>
      <trkpt lat="49.0843" lon="1.58342">
        <ele>39</ele>
        <time>2021-05-10T12:45:14.000Z</time>
      </trkpt>
      <trkpt lat="49.08432" lon="1.58349">
        <ele>38.400001525879</ele>
        <time>2021-05-10T12:45:15.000Z</time>
      </trkpt>
      <trkpt lat="49.08433" lon="1.58357">
        <ele>38</ele>
        <time>2021-05-10T12:45:16.000Z</time>
      </trkpt>
      <trkpt lat="49.08429" lon="1.58378">
        <ele>37.400001525879</ele>
        <time>2021-05-10T12:45:19.000Z</time>
      </trkpt>
      <trkpt lat="49.08421" lon="1.58408">
        <ele>36.200000762939</ele>
        <time>2021-05-10T12:45:23.000Z</time>
      </trkpt>
      <trkpt lat="49.08418" lon="1.58424">
        <ele>35.599998474121</ele>
        <time>2021-05-10T12:45:25.000Z</time>
      </trkpt>
      <trkpt lat="49.08415" lon="1.58431">
        <ele>35.599998474121</ele>
        <time>2021-05-10T12:45:26.000Z</time>
      </trkpt>
      <trkpt lat="49.08403" lon="1.58452">
        <ele>35.200000762939</ele>
        <time>2021-05-10T12:45:29.000Z</time>
      </trkpt>
      <trkpt lat="49.08398" lon="1.58458">
        <ele>35.200000762939</ele>
        <time>2021-05-10T12:45:30.000Z</time>
      </trkpt>
      <trkpt lat="49.08368" lon="1.5849">
        <ele>34.799999237061</ele>
        <time>2021-05-10T12:45:35.000Z</time>
      </trkpt>
      <trkpt lat="49.0835" lon="1.58503">
        <ele>33.799999237061</ele>
        <time>2021-05-10T12:45:38.000Z</time>
      </trkpt>
      <trkpt lat="49.08338" lon="1.58509">
        <ele>32.799999237061</ele>
        <time>2021-05-10T12:45:40.000Z</time>
      </trkpt>
      <trkpt lat="49.08327" lon="1.58514">
        <ele>31.200000762939</ele>
        <time>2021-05-10T12:45:42.000Z</time>
      </trkpt>
      <trkpt lat="49.08316" lon="1.58518">
        <ele>29.39999961853</ele>
        <time>2021-05-10T12:45:44.000Z</time>
      </trkpt>
      <trkpt lat="49.08311" lon="1.5852">
        <ele>28.799999237061</ele>
        <time>2021-05-10T12:45:45.000Z</time>
      </trkpt>
      <trkpt lat="49.08307" lon="1.5852">
        <ele>28.200000762939</ele>
        <time>2021-05-10T12:45:46.000Z</time>
      </trkpt>
      <trkpt lat="49.08296" lon="1.5852">
        <ele>26.799999237061</ele>
        <time>2021-05-10T12:45:49.000Z</time>
      </trkpt>
      <trkpt lat="49.08285" lon="1.58526">
        <ele>26.60000038147</ele>
        <time>2021-05-10T12:45:52.000Z</time>
      </trkpt>
      <trkpt lat="49.08275" lon="1.58533">
        <ele>26.39999961853</ele>
        <time>2021-05-10T12:45:54.000Z</time>
      </trkpt>
      <trkpt lat="49.08246" lon="1.58553">
        <ele>25.799999237061</ele>
        <time>2021-05-10T12:45:59.000Z</time>
      </trkpt>
      <trkpt lat="49.08227" lon="1.58567">
        <ele>24.39999961853</ele>
        <time>2021-05-10T12:46:02.000Z</time>
      </trkpt>
      <trkpt lat="49.08217" lon="1.5858">
        <ele>23</ele>
        <time>2021-05-10T12:46:04.000Z</time>
      </trkpt>
      <trkpt lat="49.08208" lon="1.58594">
        <ele>22</ele>
        <time>2021-05-10T12:46:06.000Z</time>
      </trkpt>
      <trkpt lat="49.082" lon="1.58606">
        <ele>21.39999961853</ele>
        <time>2021-05-10T12:46:08.000Z</time>
      </trkpt>
      <trkpt lat="49.08196" lon="1.58612">
        <ele>21</ele>
        <time>2021-05-10T12:46:09.000Z</time>
      </trkpt>
      <trkpt lat="49.08187" lon="1.58623">
        <ele>20.200000762939</ele>
        <time>2021-05-10T12:46:11.000Z</time>
      </trkpt>
      <trkpt lat="49.08183" lon="1.58628">
        <ele>19.799999237061</ele>
        <time>2021-05-10T12:46:12.000Z</time>
      </trkpt>
      <trkpt lat="49.08167" lon="1.58643">
        <ele>19.200000762939</ele>
        <time>2021-05-10T12:46:15.000Z</time>
      </trkpt>
      <trkpt lat="49.08156" lon="1.58651">
        <ele>18.60000038147</ele>
        <time>2021-05-10T12:46:17.000Z</time>
      </trkpt>
      <trkpt lat="49.08123" lon="1.58672">
        <ele>17.799999237061</ele>
        <time>2021-05-10T12:46:23.000Z</time>
      </trkpt>
      <trkpt lat="49.08089" lon="1.58696">
        <ele>17.60000038147</ele>
        <time>2021-05-10T12:46:30.000Z</time>
      </trkpt>
      <trkpt lat="49.08066" lon="1.58713">
        <ele>18</ele>
        <time>2021-05-10T12:46:36.000Z</time>
      </trkpt>
      <trkpt lat="49.08045" lon="1.58727">
        <ele>18.200000762939</ele>
        <time>2021-05-10T12:46:41.000Z</time>
      </trkpt>
      <trkpt lat="49.08032" lon="1.58737">
        <ele>18.200000762939</ele>
        <time>2021-05-10T12:46:44.000Z</time>
      </trkpt>
      <trkpt lat="49.07995" lon="1.58764">
        <ele>18.200000762939</ele>
        <time>2021-05-10T12:46:53.000Z</time>
      </trkpt>
      <trkpt lat="49.07988" lon="1.58768">
        <ele>18.200000762939</ele>
        <time>2021-05-10T12:46:57.000Z</time>
      </trkpt>
      <trkpt lat="49.07987" lon="1.58769">
        <ele>18.200000762939</ele>
        <time>2021-05-10T12:46:58.000Z</time>
      </trkpt>
      <trkpt lat="49.07986" lon="1.5877">
        <ele>18.39999961853</ele>
        <time>2021-05-10T12:47:01.000Z</time>
      </trkpt>
      <trkpt lat="49.07985" lon="1.5877">
        <ele>18.60000038147</ele>
        <time>2021-05-10T12:47:59.000Z</time>
      </trkpt>
      <trkpt lat="49.07977" lon="1.58775">
        <ele>18.60000038147</ele>
        <time>2021-05-10T12:48:03.000Z</time>
      </trkpt>
      <trkpt lat="49.07962" lon="1.58787">
        <ele>18.799999237061</ele>
        <time>2021-05-10T12:48:08.000Z</time>
      </trkpt>
      <trkpt lat="49.07938" lon="1.58805">
        <ele>18.60000038147</ele>
        <time>2021-05-10T12:48:15.000Z</time>
      </trkpt>
      <trkpt lat="49.07927" lon="1.58817">
        <ele>18.200000762939</ele>
        <time>2021-05-10T12:48:19.000Z</time>
      </trkpt>
      <trkpt lat="49.07926" lon="1.58821">
        <ele>18</ele>
        <time>2021-05-10T12:48:20.000Z</time>
      </trkpt>
      <trkpt lat="49.0793" lon="1.58835">
        <ele>17.799999237061</ele>
        <time>2021-05-10T12:48:24.000Z</time>
      </trkpt>
      <trkpt lat="49.0793" lon="1.58837">
        <ele>17.799999237061</ele>
        <time>2021-05-10T12:48:27.000Z</time>
      </trkpt>
      <trkpt lat="49.0793" lon="1.58841">
        <ele>17.60000038147</ele>
        <time>2021-05-10T12:48:59.000Z</time>
      </trkpt>
      <trkpt lat="49.07929" lon="1.58847">
        <ele>17.60000038147</ele>
        <time>2021-05-10T12:49:01.000Z</time>
      </trkpt>
      <trkpt lat="49.07925" lon="1.58875">
        <ele>17.60000038147</ele>
        <time>2021-05-10T12:49:06.000Z</time>
      </trkpt>
      <trkpt lat="49.07922" lon="1.58903">
        <ele>17.60000038147</ele>
        <time>2021-05-10T12:49:11.000Z</time>
      </trkpt>
      <trkpt lat="49.07923" lon="1.58906">
        <ele>17.799999237061</ele>
        <time>2021-05-10T12:49:12.000Z</time>
      </trkpt>
      <trkpt lat="49.07926" lon="1.5891">
        <ele>17.799999237061</ele>
        <time>2021-05-10T12:49:14.000Z</time>
      </trkpt>
      <trkpt lat="49.07931" lon="1.58909">
        <ele>18</ele>
        <time>2021-05-10T12:49:18.000Z</time>
      </trkpt>
      <trkpt lat="49.07933" lon="1.58908">
        <ele>18</ele>
        <time>2021-05-10T12:49:19.000Z</time>
      </trkpt>
      <trkpt lat="49.07946" lon="1.58907">
        <ele>18.39999961853</ele>
        <time>2021-05-10T12:49:23.000Z</time>
      </trkpt>
      <trkpt lat="49.07965" lon="1.58911">
        <ele>18.799999237061</ele>
        <time>2021-05-10T12:49:28.000Z</time>
      </trkpt>
      <trkpt lat="49.0798" lon="1.58924">
        <ele>19</ele>
        <time>2021-05-10T12:49:32.000Z</time>
      </trkpt>
      <trkpt lat="49.0799" lon="1.58951">
        <ele>19.200000762939</ele>
        <time>2021-05-10T12:49:37.000Z</time>
      </trkpt>
      <trkpt lat="49.07993" lon="1.58956">
        <ele>19.39999961853</ele>
        <time>2021-05-10T12:49:38.000Z</time>
      </trkpt>
      <trkpt lat="49.08" lon="1.58966">
        <ele>19.39999961853</ele>
        <time>2021-05-10T12:49:40.000Z</time>
      </trkpt>
      <trkpt lat="49.08012" lon="1.5898">
        <ele>19.60000038147</ele>
        <time>2021-05-10T12:49:43.000Z</time>
      </trkpt>
      <trkpt lat="49.08015" lon="1.58985">
        <ele>19.799999237061</ele>
        <time>2021-05-10T12:49:44.000Z</time>
      </trkpt>
      <trkpt lat="49.0803" lon="1.59008">
        <ele>19.799999237061</ele>
        <time>2021-05-10T12:49:49.000Z</time>
      </trkpt>
      <trkpt lat="49.08044" lon="1.59028">
        <ele>19.799999237061</ele>
        <time>2021-05-10T12:49:53.000Z</time>
      </trkpt>
      <trkpt lat="49.08047" lon="1.59034">
        <ele>19.799999237061</ele>
        <time>2021-05-10T12:49:54.000Z</time>
      </trkpt>
      <trkpt lat="49.0806" lon="1.59062">
        <ele>19.200000762939</ele>
        <time>2021-05-10T12:49:59.000Z</time>
      </trkpt>
      <trkpt lat="49.08063" lon="1.59068">
        <ele>19.200000762939</ele>
        <time>2021-05-10T12:50:00.000Z</time>
      </trkpt>
      <trkpt lat="49.08071" lon="1.59085">
        <ele>19.200000762939</ele>
        <time>2021-05-10T12:50:03.000Z</time>
      </trkpt>
      <trkpt lat="49.08077" lon="1.59096">
        <ele>19.200000762939</ele>
        <time>2021-05-10T12:50:05.000Z</time>
      </trkpt>
      <trkpt lat="49.0808" lon="1.59101">
        <ele>19.200000762939</ele>
        <time>2021-05-10T12:50:06.000Z</time>
      </trkpt>
      <trkpt lat="49.08089" lon="1.59115">
        <ele>19.39999961853</ele>
        <time>2021-05-10T12:50:09.000Z</time>
      </trkpt>
      <trkpt lat="49.08092" lon="1.59119">
        <ele>19.39999961853</ele>
        <time>2021-05-10T12:50:10.000Z</time>
      </trkpt>
      <trkpt lat="49.08101" lon="1.59136">
        <ele>19.60000038147</ele>
        <time>2021-05-10T12:50:13.000Z</time>
      </trkpt>
      <trkpt lat="49.08107" lon="1.59147">
        <ele>19.60000038147</ele>
        <time>2021-05-10T12:50:15.000Z</time>
      </trkpt>
      <trkpt lat="49.08117" lon="1.59172">
        <ele>19.60000038147</ele>
        <time>2021-05-10T12:50:20.000Z</time>
      </trkpt>
      <trkpt lat="49.08125" lon="1.59196">
        <ele>19.60000038147</ele>
        <time>2021-05-10T12:50:24.000Z</time>
      </trkpt>
      <trkpt lat="49.08128" lon="1.59202">
        <ele>19.60000038147</ele>
        <time>2021-05-10T12:50:25.000Z</time>
      </trkpt>
      <trkpt lat="49.08135" lon="1.59232">
        <ele>19.60000038147</ele>
        <time>2021-05-10T12:50:29.000Z</time>
      </trkpt>
      <trkpt lat="49.08141" lon="1.59267">
        <ele>19.60000038147</ele>
        <time>2021-05-10T12:50:34.000Z</time>
      </trkpt>
      <trkpt lat="49.08142" lon="1.59274">
        <ele>19.60000038147</ele>
        <time>2021-05-10T12:50:35.000Z</time>
      </trkpt>
      <trkpt lat="49.0815" lon="1.59302">
        <ele>19.39999961853</ele>
        <time>2021-05-10T12:50:39.000Z</time>
      </trkpt>
      <trkpt lat="49.08152" lon="1.59317">
        <ele>19.39999961853</ele>
        <time>2021-05-10T12:50:41.000Z</time>
      </trkpt>
      <trkpt lat="49.08154" lon="1.59338">
        <ele>19.39999961853</ele>
        <time>2021-05-10T12:50:44.000Z</time>
      </trkpt>
      <trkpt lat="49.08155" lon="1.59344">
        <ele>19.39999961853</ele>
        <time>2021-05-10T12:50:45.000Z</time>
      </trkpt>
      <trkpt lat="49.08156" lon="1.59352">
        <ele>19.39999961853</ele>
        <time>2021-05-10T12:50:46.000Z</time>
      </trkpt>
      <trkpt lat="49.08159" lon="1.59368">
        <ele>19.39999961853</ele>
        <time>2021-05-10T12:50:48.000Z</time>
      </trkpt>
      <trkpt lat="49.08169" lon="1.59411">
        <ele>19.39999961853</ele>
        <time>2021-05-10T12:50:53.000Z</time>
      </trkpt>
      <trkpt lat="49.08175" lon="1.59456">
        <ele>19.60000038147</ele>
        <time>2021-05-10T12:50:59.000Z</time>
      </trkpt>
      <trkpt lat="49.08177" lon="1.59469">
        <ele>19.60000038147</ele>
        <time>2021-05-10T12:51:01.000Z</time>
      </trkpt>
      <trkpt lat="49.08181" lon="1.59495">
        <ele>19.60000038147</ele>
        <time>2021-05-10T12:51:04.000Z</time>
      </trkpt>
      <trkpt lat="49.08185" lon="1.59524">
        <ele>19.60000038147</ele>
        <time>2021-05-10T12:51:08.000Z</time>
      </trkpt>
      <trkpt lat="49.0819" lon="1.59538">
        <ele>19.39999961853</ele>
        <time>2021-05-10T12:51:10.000Z</time>
      </trkpt>
      <trkpt lat="49.08208" lon="1.59567">
        <ele>19.39999961853</ele>
        <time>2021-05-10T12:51:15.000Z</time>
      </trkpt>
      <trkpt lat="49.08211" lon="1.59572">
        <ele>19.39999961853</ele>
        <time>2021-05-10T12:51:16.000Z</time>
      </trkpt>
      <trkpt lat="49.08229" lon="1.59599">
        <ele>19.39999961853</ele>
        <time>2021-05-10T12:51:21.000Z</time>
      </trkpt>
      <trkpt lat="49.08247" lon="1.59622">
        <ele>19.39999961853</ele>
        <time>2021-05-10T12:51:25.000Z</time>
      </trkpt>
      <trkpt lat="49.08254" lon="1.59633">
        <ele>19.39999961853</ele>
        <time>2021-05-10T12:51:27.000Z</time>
      </trkpt>
      <trkpt lat="49.08258" lon="1.59638">
        <ele>19.39999961853</ele>
        <time>2021-05-10T12:51:28.000Z</time>
      </trkpt>
      <trkpt lat="49.08265" lon="1.5965">
        <ele>19.39999961853</ele>
        <time>2021-05-10T12:51:30.000Z</time>
      </trkpt>
      <trkpt lat="49.08274" lon="1.59666">
        <ele>19</ele>
        <time>2021-05-10T12:51:33.000Z</time>
      </trkpt>
      <trkpt lat="49.0829" lon="1.59699">
        <ele>19.200000762939</ele>
        <time>2021-05-10T12:51:39.000Z</time>
      </trkpt>
      <trkpt lat="49.08299" lon="1.59722">
        <ele>18.60000038147</ele>
        <time>2021-05-10T12:51:44.000Z</time>
      </trkpt>
      <trkpt lat="49.08306" lon="1.59744">
        <ele>18.60000038147</ele>
        <time>2021-05-10T12:51:48.000Z</time>
      </trkpt>
      <trkpt lat="49.08308" lon="1.5975">
        <ele>18.60000038147</ele>
        <time>2021-05-10T12:51:49.000Z</time>
      </trkpt>
      <trkpt lat="49.08317" lon="1.59783">
        <ele>18.60000038147</ele>
        <time>2021-05-10T12:51:55.000Z</time>
      </trkpt>
      <trkpt lat="49.08319" lon="1.5979">
        <ele>18.799999237061</ele>
        <time>2021-05-10T12:51:59.000Z</time>
      </trkpt>
      <trkpt lat="49.08327" lon="1.59809">
        <ele>19</ele>
        <time>2021-05-10T12:52:05.000Z</time>
      </trkpt>
      <trkpt lat="49.08335" lon="1.5984">
        <ele>19</ele>
        <time>2021-05-10T12:52:11.000Z</time>
      </trkpt>
      <trkpt lat="49.08338" lon="1.59853">
        <ele>18.799999237061</ele>
        <time>2021-05-10T12:52:13.000Z</time>
      </trkpt>
      <trkpt lat="49.08343" lon="1.59873">
        <ele>18.799999237061</ele>
        <time>2021-05-10T12:52:16.000Z</time>
      </trkpt>
      <trkpt lat="49.08351" lon="1.59903">
        <ele>18.60000038147</ele>
        <time>2021-05-10T12:52:21.000Z</time>
      </trkpt>
      <trkpt lat="49.08355" lon="1.59919">
        <ele>18.60000038147</ele>
        <time>2021-05-10T12:52:25.000Z</time>
      </trkpt>
      <trkpt lat="49.08359" lon="1.59931">
        <ele>18.60000038147</ele>
        <time>2021-05-10T12:52:27.000Z</time>
      </trkpt>
      <trkpt lat="49.08362" lon="1.59944">
        <ele>18.60000038147</ele>
        <time>2021-05-10T12:52:29.000Z</time>
      </trkpt>
      <trkpt lat="49.0837" lon="1.5998">
        <ele>18.39999961853</ele>
        <time>2021-05-10T12:52:35.000Z</time>
      </trkpt>
      <trkpt lat="49.08371" lon="1.59993">
        <ele>18.39999961853</ele>
        <time>2021-05-10T12:52:37.000Z</time>
      </trkpt>
      <trkpt lat="49.08375" lon="1.60017">
        <ele>18.60000038147</ele>
        <time>2021-05-10T12:52:41.000Z</time>
      </trkpt>
      <trkpt lat="49.08383" lon="1.60057">
        <ele>18.39999961853</ele>
        <time>2021-05-10T12:52:46.000Z</time>
      </trkpt>
      <trkpt lat="49.08386" lon="1.60065">
        <ele>18.39999961853</ele>
        <time>2021-05-10T12:52:47.000Z</time>
      </trkpt>
      <trkpt lat="49.08393" lon="1.60086">
        <ele>18.60000038147</ele>
        <time>2021-05-10T12:52:50.000Z</time>
      </trkpt>
      <trkpt lat="49.08398" lon="1.60101">
        <ele>18.60000038147</ele>
        <time>2021-05-10T12:52:52.000Z</time>
      </trkpt>
      <trkpt lat="49.08402" lon="1.60124">
        <ele>18.60000038147</ele>
        <time>2021-05-10T12:52:55.000Z</time>
      </trkpt>
      <trkpt lat="49.08402" lon="1.60131">
        <ele>18.60000038147</ele>
        <time>2021-05-10T12:52:56.000Z</time>
      </trkpt>
      <trkpt lat="49.08403" lon="1.60149">
        <ele>18.39999961853</ele>
        <time>2021-05-10T12:52:59.000Z</time>
      </trkpt>
      <trkpt lat="49.08405" lon="1.60158">
        <ele>18.200000762939</ele>
        <time>2021-05-10T12:53:02.000Z</time>
      </trkpt>
      <trkpt lat="49.08405" lon="1.6016">
        <ele>18</ele>
        <time>2021-05-10T12:53:04.000Z</time>
      </trkpt>
      <trkpt lat="49.08405" lon="1.6018">
        <ele>18</ele>
        <time>2021-05-10T12:53:37.000Z</time>
      </trkpt>
      <trkpt lat="49.08405" lon="1.60182">
        <ele>18</ele>
        <time>2021-05-10T12:53:38.000Z</time>
      </trkpt>
      <trkpt lat="49.08406" lon="1.60187">
        <ele>18</ele>
        <time>2021-05-10T12:53:40.000Z</time>
      </trkpt>
      <trkpt lat="49.08404" lon="1.60195">
        <ele>18</ele>
        <time>2021-05-10T12:53:43.000Z</time>
      </trkpt>
      <trkpt lat="49.08403" lon="1.6021">
        <ele>18</ele>
        <time>2021-05-10T12:53:46.000Z</time>
      </trkpt>
      <trkpt lat="49.08404" lon="1.60215">
        <ele>18</ele>
        <time>2021-05-10T12:53:47.000Z</time>
      </trkpt>
      <trkpt lat="49.08406" lon="1.6023">
        <ele>18.200000762939</ele>
        <time>2021-05-10T12:53:51.000Z</time>
      </trkpt>
      <trkpt lat="49.08407" lon="1.60241">
        <ele>18.60000038147</ele>
        <time>2021-05-10T12:53:56.000Z</time>
      </trkpt>
      <trkpt lat="49.08407" lon="1.60248">
        <ele>19</ele>
        <time>2021-05-10T12:54:00.000Z</time>
      </trkpt>
      <trkpt lat="49.08406" lon="1.60261">
        <ele>19</ele>
        <time>2021-05-10T12:54:04.000Z</time>
      </trkpt>
      <trkpt lat="49.08403" lon="1.60275">
        <ele>18.799999237061</ele>
        <time>2021-05-10T12:54:09.000Z</time>
      </trkpt>
      <trkpt lat="49.084" lon="1.60279">
        <ele>18.799999237061</ele>
        <time>2021-05-10T12:54:11.000Z</time>
      </trkpt>
      <trkpt lat="49.08398" lon="1.60289">
        <ele>18.60000038147</ele>
        <time>2021-05-10T12:54:14.000Z</time>
      </trkpt>
      <trkpt lat="49.08395" lon="1.60312">
        <ele>18.60000038147</ele>
        <time>2021-05-10T12:54:19.000Z</time>
      </trkpt>
      <trkpt lat="49.08397" lon="1.60339">
        <ele>18.60000038147</ele>
        <time>2021-05-10T12:54:24.000Z</time>
      </trkpt>
      <trkpt lat="49.08403" lon="1.60361">
        <ele>18.799999237061</ele>
        <time>2021-05-10T12:54:28.000Z</time>
      </trkpt>
      <trkpt lat="49.0841" lon="1.60376">
        <ele>18.799999237061</ele>
        <time>2021-05-10T12:54:31.000Z</time>
      </trkpt>
      <trkpt lat="49.08412" lon="1.60381">
        <ele>19</ele>
        <time>2021-05-10T12:54:32.000Z</time>
      </trkpt>
      <trkpt lat="49.08418" lon="1.60404">
        <ele>19</ele>
        <time>2021-05-10T12:54:36.000Z</time>
      </trkpt>
      <trkpt lat="49.08425" lon="1.60426">
        <ele>19</ele>
        <time>2021-05-10T12:54:40.000Z</time>
      </trkpt>
      <trkpt lat="49.08435" lon="1.60462">
        <ele>19.200000762939</ele>
        <time>2021-05-10T12:54:46.000Z</time>
      </trkpt>
      <trkpt lat="49.0844" lon="1.6048">
        <ele>19.200000762939</ele>
        <time>2021-05-10T12:54:49.000Z</time>
      </trkpt>
      <trkpt lat="49.08445" lon="1.60491">
        <ele>19.200000762939</ele>
        <time>2021-05-10T12:54:51.000Z</time>
      </trkpt>
      <trkpt lat="49.08448" lon="1.60503">
        <ele>19.200000762939</ele>
        <time>2021-05-10T12:54:53.000Z</time>
      </trkpt>
      <trkpt lat="49.08457" lon="1.60527">
        <ele>19</ele>
        <time>2021-05-10T12:54:57.000Z</time>
      </trkpt>
      <trkpt lat="49.08459" lon="1.60534">
        <ele>19</ele>
        <time>2021-05-10T12:54:58.000Z</time>
      </trkpt>
      <trkpt lat="49.08468" lon="1.60566">
        <ele>18.799999237061</ele>
        <time>2021-05-10T12:55:03.000Z</time>
      </trkpt>
      <trkpt lat="49.08483" lon="1.60591">
        <ele>18.799999237061</ele>
        <time>2021-05-10T12:55:08.000Z</time>
      </trkpt>
      <trkpt lat="49.08502" lon="1.60623">
        <ele>18.799999237061</ele>
        <time>2021-05-10T12:55:13.000Z</time>
      </trkpt>
      <trkpt lat="49.08506" lon="1.6063">
        <ele>18.799999237061</ele>
        <time>2021-05-10T12:55:14.000Z</time>
      </trkpt>
      <trkpt lat="49.08517" lon="1.60651">
        <ele>19</ele>
        <time>2021-05-10T12:55:17.000Z</time>
      </trkpt>
      <trkpt lat="49.08533" lon="1.6067">
        <ele>19.200000762939</ele>
        <time>2021-05-10T12:55:21.000Z</time>
      </trkpt>
      <trkpt lat="49.08538" lon="1.60674">
        <ele>19.200000762939</ele>
        <time>2021-05-10T12:55:22.000Z</time>
      </trkpt>
      <trkpt lat="49.08557" lon="1.60704">
        <ele>19.200000762939</ele>
        <time>2021-05-10T12:55:28.000Z</time>
      </trkpt>
      <trkpt lat="49.0856" lon="1.6071">
        <ele>19.200000762939</ele>
        <time>2021-05-10T12:55:29.000Z</time>
      </trkpt>
      <trkpt lat="49.08564" lon="1.60729">
        <ele>19.39999961853</ele>
        <time>2021-05-10T12:55:32.000Z</time>
      </trkpt>
      <trkpt lat="49.08562" lon="1.60741">
        <ele>19.39999961853</ele>
        <time>2021-05-10T12:55:34.000Z</time>
      </trkpt>
      <trkpt lat="49.08558" lon="1.60771">
        <ele>19.39999961853</ele>
        <time>2021-05-10T12:55:39.000Z</time>
      </trkpt>
      <trkpt lat="49.08551" lon="1.6082">
        <ele>19.799999237061</ele>
        <time>2021-05-10T12:55:47.000Z</time>
      </trkpt>
      <trkpt lat="49.08548" lon="1.60848">
        <ele>20.200000762939</ele>
        <time>2021-05-10T12:55:52.000Z</time>
      </trkpt>
      <trkpt lat="49.08548" lon="1.60886">
        <ele>20.39999961853</ele>
        <time>2021-05-10T12:55:58.000Z</time>
      </trkpt>
      <trkpt lat="49.08547" lon="1.60893">
        <ele>20.39999961853</ele>
        <time>2021-05-10T12:55:59.000Z</time>
      </trkpt>
      <trkpt lat="49.08547" lon="1.60945">
        <ele>20.60000038147</ele>
        <time>2021-05-10T12:56:06.000Z</time>
      </trkpt>
      <trkpt lat="49.0855" lon="1.6101">
        <ele>20.39999961853</ele>
        <time>2021-05-10T12:56:15.000Z</time>
      </trkpt>
      <trkpt lat="49.08553" lon="1.61051">
        <ele>20.39999961853</ele>
        <time>2021-05-10T12:56:22.000Z</time>
      </trkpt>
      <trkpt lat="49.08549" lon="1.61068">
        <ele>20.39999961853</ele>
        <time>2021-05-10T12:56:26.000Z</time>
      </trkpt>
      <trkpt lat="49.08533" lon="1.61089">
        <ele>20.39999961853</ele>
        <time>2021-05-10T12:56:33.000Z</time>
      </trkpt>
      <trkpt lat="49.08514" lon="1.61106">
        <ele>20.39999961853</ele>
        <time>2021-05-10T12:56:40.000Z</time>
      </trkpt>
      <trkpt lat="49.08492" lon="1.61126">
        <ele>20.60000038147</ele>
        <time>2021-05-10T12:56:48.000Z</time>
      </trkpt>
      <trkpt lat="49.08476" lon="1.61141">
        <ele>20.799999237061</ele>
        <time>2021-05-10T12:56:53.000Z</time>
      </trkpt>
      <trkpt lat="49.08473" lon="1.61145">
        <ele>20.799999237061</ele>
        <time>2021-05-10T12:56:54.000Z</time>
      </trkpt>
      <trkpt lat="49.08445" lon="1.61173">
        <ele>20.799999237061</ele>
        <time>2021-05-10T12:57:02.000Z</time>
      </trkpt>
      <trkpt lat="49.08424" lon="1.61194">
        <ele>20.799999237061</ele>
        <time>2021-05-10T12:57:08.000Z</time>
      </trkpt>
      <trkpt lat="49.08418" lon="1.61202">
        <ele>20.799999237061</ele>
        <time>2021-05-10T12:57:10.000Z</time>
      </trkpt>
      <trkpt lat="49.08406" lon="1.61213">
        <ele>21</ele>
        <time>2021-05-10T12:57:15.000Z</time>
      </trkpt>
      <trkpt lat="49.08403" lon="1.61219">
        <ele>21</ele>
        <time>2021-05-10T12:57:19.000Z</time>
      </trkpt>
      <trkpt lat="49.08401" lon="1.6122">
        <ele>22.60000038147</ele>
        <time>2021-05-10T12:57:32.000Z</time>
      </trkpt>
      <trkpt lat="49.08398" lon="1.61224">
        <ele>22.60000038147</ele>
        <time>2021-05-10T12:57:37.000Z</time>
      </trkpt>
      <trkpt lat="49.08398" lon="1.61224">
        <ele>22.60000038147</ele>
        <time>2021-05-10T12:57:39.000Z</time>
      </trkpt>
      <trkpt lat="49.08395" lon="1.61225">
        <ele>23.200000762939</ele>
        <time>2021-05-10T12:58:00.000Z</time>
      </trkpt>
      <trkpt lat="49.08394" lon="1.61227">
        <ele>23.200000762939</ele>
        <time>2021-05-10T12:58:01.000Z</time>
      </trkpt>
      <trkpt lat="49.08384" lon="1.61247">
        <ele>23.200000762939</ele>
        <time>2021-05-10T12:58:10.000Z</time>
      </trkpt>
      <trkpt lat="49.08381" lon="1.61253">
        <ele>23.39999961853</ele>
        <time>2021-05-10T12:58:14.000Z</time>
      </trkpt>
      <trkpt lat="49.08378" lon="1.61258">
        <ele>24.200000762939</ele>
        <time>2021-05-10T12:58:17.000Z</time>
      </trkpt>
      <trkpt lat="49.08378" lon="1.6126">
        <ele>24.60000038147</ele>
        <time>2021-05-10T12:58:18.000Z</time>
      </trkpt>
      <trkpt lat="49.08376" lon="1.61267">
        <ele>25.799999237061</ele>
        <time>2021-05-10T12:58:21.000Z</time>
      </trkpt>
      <trkpt lat="49.08376" lon="1.61269">
        <ele>26.200000762939</ele>
        <time>2021-05-10T12:58:22.000Z</time>
      </trkpt>
      <trkpt lat="49.08374" lon="1.61272">
        <ele>26.799999237061</ele>
        <time>2021-05-10T12:58:24.000Z</time>
      </trkpt>
      <trkpt lat="49.08373" lon="1.61276">
        <ele>27.39999961853</ele>
        <time>2021-05-10T12:58:26.000Z</time>
      </trkpt>
      <trkpt lat="49.08371" lon="1.61278">
        <ele>27.799999237061</ele>
        <time>2021-05-10T12:58:28.000Z</time>
      </trkpt>
      <trkpt lat="49.0837" lon="1.6128">
        <ele>28</ele>
        <time>2021-05-10T12:58:29.000Z</time>
      </trkpt>
      <trkpt lat="49.08368" lon="1.61284">
        <ele>29</ele>
        <time>2021-05-10T12:58:32.000Z</time>
      </trkpt>
      <trkpt lat="49.08366" lon="1.61288">
        <ele>30.200000762939</ele>
        <time>2021-05-10T12:58:35.000Z</time>
      </trkpt>
      <trkpt lat="49.08363" lon="1.61292">
        <ele>31.39999961853</ele>
        <time>2021-05-10T12:58:38.000Z</time>
      </trkpt>
      <trkpt lat="49.0836" lon="1.61298">
        <ele>32.200000762939</ele>
        <time>2021-05-10T12:58:42.000Z</time>
      </trkpt>
      <trkpt lat="49.0836" lon="1.61299">
        <ele>32.400001525879</ele>
        <time>2021-05-10T12:58:43.000Z</time>
      </trkpt>
      <trkpt lat="49.08357" lon="1.61304">
        <ele>33.400001525879</ele>
        <time>2021-05-10T12:58:47.000Z</time>
      </trkpt>
      <trkpt lat="49.08355" lon="1.61308">
        <ele>34.599998474121</ele>
        <time>2021-05-10T12:58:51.000Z</time>
      </trkpt>
      <trkpt lat="49.08352" lon="1.61315">
        <ele>35.799999237061</ele>
        <time>2021-05-10T12:58:56.000Z</time>
      </trkpt>
      <trkpt lat="49.08351" lon="1.61317">
        <ele>36</ele>
        <time>2021-05-10T12:58:57.000Z</time>
      </trkpt>
      <trkpt lat="49.08349" lon="1.6132">
        <ele>37</ele>
        <time>2021-05-10T12:59:00.000Z</time>
      </trkpt>
      <trkpt lat="49.08346" lon="1.61324">
        <ele>38.599998474121</ele>
        <time>2021-05-10T12:59:04.000Z</time>
      </trkpt>
      <trkpt lat="49.08343" lon="1.61327">
        <ele>39.799999237061</ele>
        <time>2021-05-10T12:59:07.000Z</time>
      </trkpt>
      <trkpt lat="49.08342" lon="1.61329">
        <ele>40.599998474121</ele>
        <time>2021-05-10T12:59:09.000Z</time>
      </trkpt>
      <trkpt lat="49.08341" lon="1.61331">
        <ele>41</ele>
        <time>2021-05-10T12:59:10.000Z</time>
      </trkpt>
      <trkpt lat="49.08339" lon="1.61336">
        <ele>42.200000762939</ele>
        <time>2021-05-10T12:59:13.000Z</time>
      </trkpt>
      <trkpt lat="49.08337" lon="1.61341">
        <ele>43.400001525879</ele>
        <time>2021-05-10T12:59:16.000Z</time>
      </trkpt>
      <trkpt lat="49.08335" lon="1.61344">
        <ele>44</ele>
        <time>2021-05-10T12:59:18.000Z</time>
      </trkpt>
      <trkpt lat="49.08334" lon="1.61346">
        <ele>44.400001525879</ele>
        <time>2021-05-10T12:59:19.000Z</time>
      </trkpt>
      <trkpt lat="49.08331" lon="1.61352">
        <ele>45.599998474121</ele>
        <time>2021-05-10T12:59:23.000Z</time>
      </trkpt>
      <trkpt lat="49.08328" lon="1.61357">
        <ele>46</ele>
        <time>2021-05-10T12:59:26.000Z</time>
      </trkpt>
      <trkpt lat="49.08325" lon="1.61361">
        <ele>46.799999237061</ele>
        <time>2021-05-10T12:59:29.000Z</time>
      </trkpt>
      <trkpt lat="49.08321" lon="1.61367">
        <ele>48</ele>
        <time>2021-05-10T12:59:33.000Z</time>
      </trkpt>
      <trkpt lat="49.0832" lon="1.61369">
        <ele>48.200000762939</ele>
        <time>2021-05-10T12:59:34.000Z</time>
      </trkpt>
      <trkpt lat="49.08317" lon="1.61375">
        <ele>49.200000762939</ele>
        <time>2021-05-10T12:59:38.000Z</time>
      </trkpt>
      <trkpt lat="49.08314" lon="1.61379">
        <ele>49.599998474121</ele>
        <time>2021-05-10T12:59:41.000Z</time>
      </trkpt>
      <trkpt lat="49.08311" lon="1.61384">
        <ele>50.400001525879</ele>
        <time>2021-05-10T12:59:44.000Z</time>
      </trkpt>
      <trkpt lat="49.08307" lon="1.61391">
        <ele>51.200000762939</ele>
        <time>2021-05-10T12:59:48.000Z</time>
      </trkpt>
      <trkpt lat="49.08305" lon="1.61392">
        <ele>51.400001525879</ele>
        <time>2021-05-10T12:59:49.000Z</time>
      </trkpt>
      <trkpt lat="49.08296" lon="1.61404">
        <ele>52</ele>
        <time>2021-05-10T12:59:56.000Z</time>
      </trkpt>
      <trkpt lat="49.08295" lon="1.61406">
        <ele>52</ele>
        <time>2021-05-10T12:59:57.000Z</time>
      </trkpt>
      <trkpt lat="49.08287" lon="1.61415">
        <ele>52.400001525879</ele>
        <time>2021-05-10T13:00:03.000Z</time>
      </trkpt>
      <trkpt lat="49.08281" lon="1.61422">
        <ele>52.799999237061</ele>
        <time>2021-05-10T13:00:07.000Z</time>
      </trkpt>
      <trkpt lat="49.08277" lon="1.61426">
        <ele>53.599998474121</ele>
        <time>2021-05-10T13:00:10.000Z</time>
      </trkpt>
      <trkpt lat="49.0827" lon="1.61434">
        <ele>54.799999237061</ele>
        <time>2021-05-10T13:00:15.000Z</time>
      </trkpt>
      <trkpt lat="49.08268" lon="1.61438">
        <ele>55</ele>
        <time>2021-05-10T13:00:17.000Z</time>
      </trkpt>
      <trkpt lat="49.08257" lon="1.61451">
        <ele>55.799999237061</ele>
        <time>2021-05-10T13:00:25.000Z</time>
      </trkpt>
      <trkpt lat="49.08255" lon="1.61454">
        <ele>56.400001525879</ele>
        <time>2021-05-10T13:00:27.000Z</time>
      </trkpt>
      <trkpt lat="49.08252" lon="1.61457">
        <ele>57.200000762939</ele>
        <time>2021-05-10T13:00:29.000Z</time>
      </trkpt>
      <trkpt lat="49.08245" lon="1.61465">
        <ele>58.400001525879</ele>
        <time>2021-05-10T13:00:34.000Z</time>
      </trkpt>
      <trkpt lat="49.08241" lon="1.6147">
        <ele>59</ele>
        <time>2021-05-10T13:00:37.000Z</time>
      </trkpt>
      <trkpt lat="49.08237" lon="1.61475">
        <ele>59.599998474121</ele>
        <time>2021-05-10T13:00:40.000Z</time>
      </trkpt>
      <trkpt lat="49.0823" lon="1.61483">
        <ele>60.599998474121</ele>
        <time>2021-05-10T13:00:45.000Z</time>
      </trkpt>
      <trkpt lat="49.08224" lon="1.61489">
        <ele>61.400001525879</ele>
        <time>2021-05-10T13:00:49.000Z</time>
      </trkpt>
      <trkpt lat="49.08221" lon="1.61493">
        <ele>61.599998474121</ele>
        <time>2021-05-10T13:00:51.000Z</time>
      </trkpt>
      <trkpt lat="49.08213" lon="1.61504">
        <ele>62.400001525879</ele>
        <time>2021-05-10T13:00:57.000Z</time>
      </trkpt>
      <trkpt lat="49.0821" lon="1.61507">
        <ele>63.200000762939</ele>
        <time>2021-05-10T13:00:59.000Z</time>
      </trkpt>
      <trkpt lat="49.08205" lon="1.61514">
        <ele>64.400001525879</ele>
        <time>2021-05-10T13:01:03.000Z</time>
      </trkpt>
      <trkpt lat="49.08199" lon="1.61522">
        <ele>65.199996948242</ele>
        <time>2021-05-10T13:01:08.000Z</time>
      </trkpt>
      <trkpt lat="49.08198" lon="1.61523">
        <ele>65.400001525879</ele>
        <time>2021-05-10T13:01:09.000Z</time>
      </trkpt>
      <trkpt lat="49.08196" lon="1.61523">
        <ele>65.599998474121</ele>
        <time>2021-05-10T13:01:10.000Z</time>
      </trkpt>
      <trkpt lat="49.08195" lon="1.61521">
        <ele>65.800003051758</ele>
        <time>2021-05-10T13:01:11.000Z</time>
      </trkpt>
      <trkpt lat="49.08188" lon="1.61513">
        <ele>66</ele>
        <time>2021-05-10T13:01:14.000Z</time>
      </trkpt>
      <trkpt lat="49.08185" lon="1.61514">
        <ele>66</ele>
        <time>2021-05-10T13:01:15.000Z</time>
      </trkpt>
      <trkpt lat="49.08178" lon="1.61522">
        <ele>66.199996948242</ele>
        <time>2021-05-10T13:01:19.000Z</time>
      </trkpt>
      <trkpt lat="49.0817" lon="1.61532">
        <ele>66.599998474121</ele>
        <time>2021-05-10T13:01:24.000Z</time>
      </trkpt>
      <trkpt lat="49.08161" lon="1.61543">
        <ele>66.599998474121</ele>
        <time>2021-05-10T13:01:29.000Z</time>
      </trkpt>
      <trkpt lat="49.08151" lon="1.61555">
        <ele>67.599998474121</ele>
        <time>2021-05-10T13:01:35.000Z</time>
      </trkpt>
      <trkpt lat="49.08143" lon="1.61565">
        <ele>68.400001525879</ele>
        <time>2021-05-10T13:01:40.000Z</time>
      </trkpt>
      <trkpt lat="49.08139" lon="1.61569">
        <ele>68.800003051758</ele>
        <time>2021-05-10T13:01:42.000Z</time>
      </trkpt>
      <trkpt lat="49.08128" lon="1.61584">
        <ele>70</ele>
        <time>2021-05-10T13:01:49.000Z</time>
      </trkpt>
      <trkpt lat="49.08125" lon="1.61588">
        <ele>70.400001525879</ele>
        <time>2021-05-10T13:01:51.000Z</time>
      </trkpt>
      <trkpt lat="49.08119" lon="1.61594">
        <ele>70.800003051758</ele>
        <time>2021-05-10T13:01:54.000Z</time>
      </trkpt>
      <trkpt lat="49.08113" lon="1.61602">
        <ele>72.199996948242</ele>
        <time>2021-05-10T13:01:58.000Z</time>
      </trkpt>
      <trkpt lat="49.08107" lon="1.6161">
        <ele>72.800003051758</ele>
        <time>2021-05-10T13:02:02.000Z</time>
      </trkpt>
      <trkpt lat="49.08103" lon="1.61614">
        <ele>73.199996948242</ele>
        <time>2021-05-10T13:02:04.000Z</time>
      </trkpt>
      <trkpt lat="49.08095" lon="1.61625">
        <ele>74.199996948242</ele>
        <time>2021-05-10T13:02:09.000Z</time>
      </trkpt>
      <trkpt lat="49.0809" lon="1.61631">
        <ele>74.800003051758</ele>
        <time>2021-05-10T13:02:12.000Z</time>
      </trkpt>
      <trkpt lat="49.08085" lon="1.61637">
        <ele>75.400001525879</ele>
        <time>2021-05-10T13:02:15.000Z</time>
      </trkpt>
      <trkpt lat="49.08075" lon="1.6165">
        <ele>76.400001525879</ele>
        <time>2021-05-10T13:02:21.000Z</time>
      </trkpt>
      <trkpt lat="49.08071" lon="1.61654">
        <ele>76.599998474121</ele>
        <time>2021-05-10T13:02:23.000Z</time>
      </trkpt>
      <trkpt lat="49.08068" lon="1.61659">
        <ele>77.599998474121</ele>
        <time>2021-05-10T13:02:25.000Z</time>
      </trkpt>
      <trkpt lat="49.08058" lon="1.61671">
        <ele>78.599998474121</ele>
        <time>2021-05-10T13:02:31.000Z</time>
      </trkpt>
      <trkpt lat="49.08055" lon="1.61675">
        <ele>79</ele>
        <time>2021-05-10T13:02:33.000Z</time>
      </trkpt>
      <trkpt lat="49.08051" lon="1.61681">
        <ele>79.599998474121</ele>
        <time>2021-05-10T13:02:36.000Z</time>
      </trkpt>
      <trkpt lat="49.08042" lon="1.61691">
        <ele>81</ele>
        <time>2021-05-10T13:02:41.000Z</time>
      </trkpt>
      <trkpt lat="49.08039" lon="1.61696">
        <ele>81.199996948242</ele>
        <time>2021-05-10T13:02:43.000Z</time>
      </trkpt>
      <trkpt lat="49.08031" lon="1.61707">
        <ele>82.199996948242</ele>
        <time>2021-05-10T13:02:48.000Z</time>
      </trkpt>
      <trkpt lat="49.08024" lon="1.61715">
        <ele>83.400001525879</ele>
        <time>2021-05-10T13:02:52.000Z</time>
      </trkpt>
      <trkpt lat="49.08022" lon="1.61718">
        <ele>83.599998474121</ele>
        <time>2021-05-10T13:02:53.000Z</time>
      </trkpt>
      <trkpt lat="49.08016" lon="1.61727">
        <ele>84.400001525879</ele>
        <time>2021-05-10T13:02:57.000Z</time>
      </trkpt>
      <trkpt lat="49.08008" lon="1.61739">
        <ele>85.199996948242</ele>
        <time>2021-05-10T13:03:02.000Z</time>
      </trkpt>
      <trkpt lat="49.08005" lon="1.61743">
        <ele>85.400001525879</ele>
        <time>2021-05-10T13:03:04.000Z</time>
      </trkpt>
      <trkpt lat="49.07997" lon="1.61755">
        <ele>86.199996948242</ele>
        <time>2021-05-10T13:03:09.000Z</time>
      </trkpt>
      <trkpt lat="49.07996" lon="1.61758">
        <ele>86.400001525879</ele>
        <time>2021-05-10T13:03:10.000Z</time>
      </trkpt>
      <trkpt lat="49.07988" lon="1.6177">
        <ele>87.199996948242</ele>
        <time>2021-05-10T13:03:15.000Z</time>
      </trkpt>
      <trkpt lat="49.07985" lon="1.61775">
        <ele>87.400001525879</ele>
        <time>2021-05-10T13:03:17.000Z</time>
      </trkpt>
      <trkpt lat="49.07974" lon="1.61792">
        <ele>88.400001525879</ele>
        <time>2021-05-10T13:03:24.000Z</time>
      </trkpt>
      <trkpt lat="49.07973" lon="1.61793">
        <ele>88.800003051758</ele>
        <time>2021-05-10T13:03:25.000Z</time>
      </trkpt>
      <trkpt lat="49.07966" lon="1.61804">
        <ele>89.199996948242</ele>
        <time>2021-05-10T13:03:30.000Z</time>
      </trkpt>
      <trkpt lat="49.07963" lon="1.61807">
        <ele>89.800003051758</ele>
        <time>2021-05-10T13:03:33.000Z</time>
      </trkpt>
      <trkpt lat="49.07963" lon="1.61807">
        <ele>90.199996948242</ele>
        <time>2021-05-10T13:03:35.000Z</time>
      </trkpt>
      <trkpt lat="49.07963" lon="1.61808">
        <ele>91.199996948242</ele>
        <time>2021-05-10T13:05:28.000Z</time>
      </trkpt>
      <trkpt lat="49.07962" lon="1.61807">
        <ele>91.199996948242</ele>
        <time>2021-05-10T13:05:31.000Z</time>
      </trkpt>
      <trkpt lat="49.07961" lon="1.61808">
        <ele>91</ele>
        <time>2021-05-10T13:07:48.000Z</time>
      </trkpt>
      <trkpt lat="49.07959" lon="1.6181">
        <ele>91</ele>
        <time>2021-05-10T13:07:49.000Z</time>
      </trkpt>
      <trkpt lat="49.07957" lon="1.61821">
        <ele>90.800003051758</ele>
        <time>2021-05-10T13:07:53.000Z</time>
      </trkpt>
      <trkpt lat="49.07956" lon="1.61826">
        <ele>90.800003051758</ele>
        <time>2021-05-10T13:07:55.000Z</time>
      </trkpt>
      <trkpt lat="49.07953" lon="1.61833">
        <ele>90.599998474121</ele>
        <time>2021-05-10T13:08:00.000Z</time>
      </trkpt>
      <trkpt lat="49.07953" lon="1.61833">
        <ele>90.599998474121</ele>
        <time>2021-05-10T13:08:01.000Z</time>
      </trkpt>
      <trkpt lat="49.07953" lon="1.61835">
        <ele>90.400001525879</ele>
        <time>2021-05-10T13:08:09.000Z</time>
      </trkpt>
      <trkpt lat="49.07952" lon="1.6184">
        <ele>90.400001525879</ele>
        <time>2021-05-10T13:08:11.000Z</time>
      </trkpt>
      <trkpt lat="49.07951" lon="1.61863">
        <ele>90.400001525879</ele>
        <time>2021-05-10T13:08:18.000Z</time>
      </trkpt>
      <trkpt lat="49.07949" lon="1.61884">
        <ele>89.599998474121</ele>
        <time>2021-05-10T13:08:25.000Z</time>
      </trkpt>
      <trkpt lat="49.07949" lon="1.61889">
        <ele>89.400001525879</ele>
        <time>2021-05-10T13:08:26.000Z</time>
      </trkpt>
      <trkpt lat="49.07945" lon="1.61902">
        <ele>88.800003051758</ele>
        <time>2021-05-10T13:08:29.000Z</time>
      </trkpt>
      <trkpt lat="49.07943" lon="1.6192">
        <ele>88.599998474121</ele>
        <time>2021-05-10T13:08:32.000Z</time>
      </trkpt>
      <trkpt lat="49.07942" lon="1.61957">
        <ele>87.400001525879</ele>
        <time>2021-05-10T13:08:36.000Z</time>
      </trkpt>
      <trkpt lat="49.07953" lon="1.61984">
        <ele>86.400001525879</ele>
        <time>2021-05-10T13:08:39.000Z</time>
      </trkpt>
      <trkpt lat="49.07959" lon="1.61992">
        <ele>85.800003051758</ele>
        <time>2021-05-10T13:08:40.000Z</time>
      </trkpt>
      <trkpt lat="49.07965" lon="1.62">
        <ele>85.199996948242</ele>
        <time>2021-05-10T13:08:41.000Z</time>
      </trkpt>
      <trkpt lat="49.07979" lon="1.6202">
        <ele>83.800003051758</ele>
        <time>2021-05-10T13:08:43.000Z</time>
      </trkpt>
      <trkpt lat="49.07993" lon="1.62043">
        <ele>82</ele>
        <time>2021-05-10T13:08:45.000Z</time>
      </trkpt>
      <trkpt lat="49.08" lon="1.62055">
        <ele>81</ele>
        <time>2021-05-10T13:08:46.000Z</time>
      </trkpt>
      <trkpt lat="49.08006" lon="1.62069">
        <ele>80.199996948242</ele>
        <time>2021-05-10T13:08:47.000Z</time>
      </trkpt>
      <trkpt lat="49.08015" lon="1.62098">
        <ele>78.199996948242</ele>
        <time>2021-05-10T13:08:49.000Z</time>
      </trkpt>
      <trkpt lat="49.08017" lon="1.62111">
        <ele>76.800003051758</ele>
        <time>2021-05-10T13:08:50.000Z</time>
      </trkpt>
      <trkpt lat="49.08015" lon="1.62123">
        <ele>75.199996948242</ele>
        <time>2021-05-10T13:08:51.000Z</time>
      </trkpt>
      <trkpt lat="49.08011" lon="1.62134">
        <ele>73.599998474121</ele>
        <time>2021-05-10T13:08:52.000Z</time>
      </trkpt>
      <trkpt lat="49.08006" lon="1.62145">
        <ele>72</ele>
        <time>2021-05-10T13:08:53.000Z</time>
      </trkpt>
      <trkpt lat="49.08001" lon="1.62157">
        <ele>70.400001525879</ele>
        <time>2021-05-10T13:08:54.000Z</time>
      </trkpt>
      <trkpt lat="49.07996" lon="1.62169">
        <ele>68.599998474121</ele>
        <time>2021-05-10T13:08:55.000Z</time>
      </trkpt>
      <trkpt lat="49.07992" lon="1.62181">
        <ele>66.800003051758</ele>
        <time>2021-05-10T13:08:56.000Z</time>
      </trkpt>
      <trkpt lat="49.07989" lon="1.62192">
        <ele>64.800003051758</ele>
        <time>2021-05-10T13:08:57.000Z</time>
      </trkpt>
      <trkpt lat="49.07987" lon="1.62204">
        <ele>63.799999237061</ele>
        <time>2021-05-10T13:08:58.000Z</time>
      </trkpt>
      <trkpt lat="49.07986" lon="1.62218">
        <ele>62.799999237061</ele>
        <time>2021-05-10T13:08:59.000Z</time>
      </trkpt>
      <trkpt lat="49.07987" lon="1.62231">
        <ele>62.400001525879</ele>
        <time>2021-05-10T13:09:00.000Z</time>
      </trkpt>
      <trkpt lat="49.07992" lon="1.62257">
        <ele>61.200000762939</ele>
        <time>2021-05-10T13:09:02.000Z</time>
      </trkpt>
      <trkpt lat="49.07994" lon="1.6227">
        <ele>59.599998474121</ele>
        <time>2021-05-10T13:09:03.000Z</time>
      </trkpt>
      <trkpt lat="49.07997" lon="1.62282">
        <ele>58.400001525879</ele>
        <time>2021-05-10T13:09:04.000Z</time>
      </trkpt>
      <trkpt lat="49.07999" lon="1.62295">
        <ele>56.200000762939</ele>
        <time>2021-05-10T13:09:05.000Z</time>
      </trkpt>
      <trkpt lat="49.08005" lon="1.6232">
        <ele>54.599998474121</ele>
        <time>2021-05-10T13:09:07.000Z</time>
      </trkpt>
      <trkpt lat="49.08009" lon="1.62333">
        <ele>53.799999237061</ele>
        <time>2021-05-10T13:09:08.000Z</time>
      </trkpt>
      <trkpt lat="49.08013" lon="1.62346">
        <ele>52.599998474121</ele>
        <time>2021-05-10T13:09:09.000Z</time>
      </trkpt>
      <trkpt lat="49.0802" lon="1.62373">
        <ele>51.200000762939</ele>
        <time>2021-05-10T13:09:11.000Z</time>
      </trkpt>
      <trkpt lat="49.08026" lon="1.62399">
        <ele>49.599998474121</ele>
        <time>2021-05-10T13:09:13.000Z</time>
      </trkpt>
      <trkpt lat="49.08029" lon="1.62411">
        <ele>48.799999237061</ele>
        <time>2021-05-10T13:09:14.000Z</time>
      </trkpt>
      <trkpt lat="49.08032" lon="1.62424">
        <ele>48.400001525879</ele>
        <time>2021-05-10T13:09:15.000Z</time>
      </trkpt>
      <trkpt lat="49.08037" lon="1.62448">
        <ele>46.799999237061</ele>
        <time>2021-05-10T13:09:17.000Z</time>
      </trkpt>
      <trkpt lat="49.08042" lon="1.62472">
        <ele>45.599998474121</ele>
        <time>2021-05-10T13:09:19.000Z</time>
      </trkpt>
      <trkpt lat="49.0805" lon="1.62505">
        <ele>44</ele>
        <time>2021-05-10T13:09:22.000Z</time>
      </trkpt>
      <trkpt lat="49.08053" lon="1.62514">
        <ele>43.400001525879</ele>
        <time>2021-05-10T13:09:23.000Z</time>
      </trkpt>
      <trkpt lat="49.08056" lon="1.62521">
        <ele>42.799999237061</ele>
        <time>2021-05-10T13:09:24.000Z</time>
      </trkpt>
      <trkpt lat="49.08059" lon="1.62527">
        <ele>41.799999237061</ele>
        <time>2021-05-10T13:09:25.000Z</time>
      </trkpt>
      <trkpt lat="49.08062" lon="1.62532">
        <ele>41.200000762939</ele>
        <time>2021-05-10T13:09:26.000Z</time>
      </trkpt>
      <trkpt lat="49.08065" lon="1.62536">
        <ele>40.400001525879</ele>
        <time>2021-05-10T13:09:27.000Z</time>
      </trkpt>
      <trkpt lat="49.08068" lon="1.62539">
        <ele>39.599998474121</ele>
        <time>2021-05-10T13:09:28.000Z</time>
      </trkpt>
      <trkpt lat="49.08072" lon="1.62545">
        <ele>38.200000762939</ele>
        <time>2021-05-10T13:09:30.000Z</time>
      </trkpt>
      <trkpt lat="49.08075" lon="1.62547">
        <ele>37.200000762939</ele>
        <time>2021-05-10T13:09:32.000Z</time>
      </trkpt>
      <trkpt lat="49.08076" lon="1.62547">
        <ele>37</ele>
        <time>2021-05-10T13:09:33.000Z</time>
      </trkpt>
      <trkpt lat="49.08085" lon="1.62543">
        <ele>36.200000762939</ele>
        <time>2021-05-10T13:09:38.000Z</time>
      </trkpt>
      <trkpt lat="49.08086" lon="1.62543">
        <ele>36</ele>
        <time>2021-05-10T13:09:39.000Z</time>
      </trkpt>
      <trkpt lat="49.08094" lon="1.62534">
        <ele>35.799999237061</ele>
        <time>2021-05-10T13:09:46.000Z</time>
      </trkpt>
      <trkpt lat="49.08101" lon="1.62527">
        <ele>36.799999237061</ele>
        <time>2021-05-10T13:09:53.000Z</time>
      </trkpt>
      <trkpt lat="49.08102" lon="1.62525">
        <ele>37.200000762939</ele>
        <time>2021-05-10T13:09:54.000Z</time>
      </trkpt>
      <trkpt lat="49.08106" lon="1.62522">
        <ele>38.400001525879</ele>
        <time>2021-05-10T13:09:58.000Z</time>
      </trkpt>
      <trkpt lat="49.08108" lon="1.6252">
        <ele>39</ele>
        <time>2021-05-10T13:10:00.000Z</time>
      </trkpt>
      <trkpt lat="49.08108" lon="1.62518">
        <ele>39.400001525879</ele>
        <time>2021-05-10T13:10:02.000Z</time>
      </trkpt>
      <trkpt lat="49.0811" lon="1.62516">
        <ele>40.599998474121</ele>
        <time>2021-05-10T13:10:04.000Z</time>
      </trkpt>
      <trkpt lat="49.08111" lon="1.62516">
        <ele>41</ele>
        <time>2021-05-10T13:10:05.000Z</time>
      </trkpt>
      <trkpt lat="49.08111" lon="1.62518">
        <ele>41.400001525879</ele>
        <time>2021-05-10T13:10:06.000Z</time>
      </trkpt>
      <trkpt lat="49.08111" lon="1.6252">
        <ele>42</ele>
        <time>2021-05-10T13:10:07.000Z</time>
      </trkpt>
      <trkpt lat="49.08111" lon="1.62523">
        <ele>42.799999237061</ele>
        <time>2021-05-10T13:10:09.000Z</time>
      </trkpt>
      <trkpt lat="49.08112" lon="1.62524">
        <ele>43.200000762939</ele>
        <time>2021-05-10T13:10:10.000Z</time>
      </trkpt>
      <trkpt lat="49.08115" lon="1.62529">
        <ele>43.799999237061</ele>
        <time>2021-05-10T13:10:15.000Z</time>
      </trkpt>
      <trkpt lat="49.08119" lon="1.6254">
        <ele>44.200000762939</ele>
        <time>2021-05-10T13:10:23.000Z</time>
      </trkpt>
      <trkpt lat="49.0812" lon="1.6254">
        <ele>44.200000762939</ele>
        <time>2021-05-10T13:10:24.000Z</time>
      </trkpt>
      <trkpt lat="49.0812" lon="1.6254">
        <ele>44.400001525879</ele>
        <time>2021-05-10T13:10:25.000Z</time>
      </trkpt>
      <trkpt lat="49.08123" lon="1.62538">
        <ele>46.799999237061</ele>
        <time>2021-05-10T13:10:43.000Z</time>
      </trkpt>
      <trkpt lat="49.08124" lon="1.62537">
        <ele>46.799999237061</ele>
        <time>2021-05-10T13:10:44.000Z</time>
      </trkpt>
      <trkpt lat="49.08125" lon="1.62536">
        <ele>46.799999237061</ele>
        <time>2021-05-10T13:10:45.000Z</time>
      </trkpt>
      <trkpt lat="49.08129" lon="1.62529">
        <ele>47.200000762939</ele>
        <time>2021-05-10T13:10:50.000Z</time>
      </trkpt>
      <trkpt lat="49.08135" lon="1.62523">
        <ele>47.799999237061</ele>
        <time>2021-05-10T13:10:57.000Z</time>
      </trkpt>
      <trkpt lat="49.08136" lon="1.62522">
        <ele>48</ele>
        <time>2021-05-10T13:10:58.000Z</time>
      </trkpt>
      <trkpt lat="49.08139" lon="1.62519">
        <ele>49</ele>
        <time>2021-05-10T13:11:02.000Z</time>
      </trkpt>
      <trkpt lat="49.08139" lon="1.62518">
        <ele>49.200000762939</ele>
        <time>2021-05-10T13:11:03.000Z</time>
      </trkpt>
      <trkpt lat="49.08142" lon="1.62515">
        <ele>50.200000762939</ele>
        <time>2021-05-10T13:11:06.000Z</time>
      </trkpt>
      <trkpt lat="49.08145" lon="1.62511">
        <ele>51.599998474121</ele>
        <time>2021-05-10T13:11:10.000Z</time>
      </trkpt>
      <trkpt lat="49.08147" lon="1.62508">
        <ele>52.599998474121</ele>
        <time>2021-05-10T13:11:13.000Z</time>
      </trkpt>
      <trkpt lat="49.08147" lon="1.62508">
        <ele>52.799999237061</ele>
        <time>2021-05-10T13:11:14.000Z</time>
      </trkpt>
      <trkpt lat="49.08151" lon="1.62503">
        <ele>53.799999237061</ele>
        <time>2021-05-10T13:11:18.000Z</time>
      </trkpt>
      <trkpt lat="49.08154" lon="1.62499">
        <ele>55</ele>
        <time>2021-05-10T13:11:22.000Z</time>
      </trkpt>
      <trkpt lat="49.08155" lon="1.62498">
        <ele>55.200000762939</ele>
        <time>2021-05-10T13:11:23.000Z</time>
      </trkpt>
      <trkpt lat="49.08155" lon="1.62496">
        <ele>56.200000762939</ele>
        <time>2021-05-10T13:11:26.000Z</time>
      </trkpt>
      <trkpt lat="49.08156" lon="1.62496">
        <ele>56.200000762939</ele>
        <time>2021-05-10T13:11:27.000Z</time>
      </trkpt>
      <trkpt lat="49.08161" lon="1.62489">
        <ele>58.799999237061</ele>
        <time>2021-05-10T13:11:36.000Z</time>
      </trkpt>
      <trkpt lat="49.08165" lon="1.62486">
        <ele>59.599998474121</ele>
        <time>2021-05-10T13:11:39.000Z</time>
      </trkpt>
      <trkpt lat="49.08166" lon="1.62484">
        <ele>60</ele>
        <time>2021-05-10T13:11:41.000Z</time>
      </trkpt>
      <trkpt lat="49.0817" lon="1.62481">
        <ele>61</ele>
        <time>2021-05-10T13:11:45.000Z</time>
      </trkpt>
      <trkpt lat="49.08173" lon="1.62477">
        <ele>62.200000762939</ele>
        <time>2021-05-10T13:11:49.000Z</time>
      </trkpt>
      <trkpt lat="49.08172" lon="1.62479">
        <ele>63.200000762939</ele>
        <time>2021-05-10T13:11:53.000Z</time>
      </trkpt>
      <trkpt lat="49.08172" lon="1.6248">
        <ele>64.199996948242</ele>
        <time>2021-05-10T13:11:55.000Z</time>
      </trkpt>
      <trkpt lat="49.08172" lon="1.62481">
        <ele>64.400001525879</ele>
        <time>2021-05-10T13:11:56.000Z</time>
      </trkpt>
      <trkpt lat="49.08174" lon="1.62485">
        <ele>65.800003051758</ele>
        <time>2021-05-10T13:12:01.000Z</time>
      </trkpt>
      <trkpt lat="49.08175" lon="1.62486">
        <ele>66.599998474121</ele>
        <time>2021-05-10T13:12:04.000Z</time>
      </trkpt>
      <trkpt lat="49.08176" lon="1.62489">
        <ele>68.599998474121</ele>
        <time>2021-05-10T13:12:19.000Z</time>
      </trkpt>
      <trkpt lat="49.08176" lon="1.62491">
        <ele>68.599998474121</ele>
        <time>2021-05-10T13:12:24.000Z</time>
      </trkpt>
      <trkpt lat="49.0818" lon="1.62507">
        <ele>73.400001525879</ele>
        <time>2021-05-10T13:13:07.000Z</time>
      </trkpt>
      <trkpt lat="49.0818" lon="1.62507">
        <ele>73.599998474121</ele>
        <time>2021-05-10T13:13:08.000Z</time>
      </trkpt>
      <trkpt lat="49.0818" lon="1.62515">
        <ele>73.800003051758</ele>
        <time>2021-05-10T13:13:23.000Z</time>
      </trkpt>
      <trkpt lat="49.0818" lon="1.6252">
        <ele>74.199996948242</ele>
        <time>2021-05-10T13:13:28.000Z</time>
      </trkpt>
      <trkpt lat="49.08181" lon="1.6252">
        <ele>74.199996948242</ele>
        <time>2021-05-10T13:13:29.000Z</time>
      </trkpt>
      <trkpt lat="49.08181" lon="1.62522">
        <ele>75.199996948242</ele>
        <time>2021-05-10T13:13:32.000Z</time>
      </trkpt>
      <trkpt lat="49.08185" lon="1.62541">
        <ele>79.800003051758</ele>
        <time>2021-05-10T13:14:35.000Z</time>
      </trkpt>
      <trkpt lat="49.08185" lon="1.62542">
        <ele>79.800003051758</ele>
        <time>2021-05-10T13:14:36.000Z</time>
      </trkpt>
      <trkpt lat="49.08187" lon="1.62546">
        <ele>79.800003051758</ele>
        <time>2021-05-10T13:14:39.000Z</time>
      </trkpt>
      <trkpt lat="49.08189" lon="1.62546">
        <ele>80</ele>
        <time>2021-05-10T13:14:41.000Z</time>
      </trkpt>
      <trkpt lat="49.08192" lon="1.62546">
        <ele>80.800003051758</ele>
        <time>2021-05-10T13:14:44.000Z</time>
      </trkpt>
      <trkpt lat="49.08194" lon="1.62546">
        <ele>81.800003051758</ele>
        <time>2021-05-10T13:14:46.000Z</time>
      </trkpt>
      <trkpt lat="49.08195" lon="1.62546">
        <ele>82</ele>
        <time>2021-05-10T13:14:47.000Z</time>
      </trkpt>
      <trkpt lat="49.08198" lon="1.62546">
        <ele>83.599998474121</ele>
        <time>2021-05-10T13:14:51.000Z</time>
      </trkpt>
      <trkpt lat="49.08201" lon="1.62547">
        <ele>84.599998474121</ele>
        <time>2021-05-10T13:14:54.000Z</time>
      </trkpt>
      <trkpt lat="49.08201" lon="1.62547">
        <ele>85.199996948242</ele>
        <time>2021-05-10T13:14:56.000Z</time>
      </trkpt>
      <trkpt lat="49.08212" lon="1.62545">
        <ele>91</ele>
        <time>2021-05-10T13:16:00.000Z</time>
      </trkpt>
      <trkpt lat="49.08217" lon="1.62543">
        <ele>91</ele>
        <time>2021-05-10T13:16:06.000Z</time>
      </trkpt>
      <trkpt lat="49.08223" lon="1.6254">
        <ele>92.199996948242</ele>
        <time>2021-05-10T13:16:13.000Z</time>
      </trkpt>
      <trkpt lat="49.08226" lon="1.62539">
        <ele>93.199996948242</ele>
        <time>2021-05-10T13:16:16.000Z</time>
      </trkpt>
      <trkpt lat="49.08227" lon="1.62539">
        <ele>93.599998474121</ele>
        <time>2021-05-10T13:16:17.000Z</time>
      </trkpt>
      <trkpt lat="49.08228" lon="1.62539">
        <ele>94.800003051758</ele>
        <time>2021-05-10T13:16:21.000Z</time>
      </trkpt>
      <trkpt lat="49.08241" lon="1.62533">
        <ele>99.199996948242</ele>
        <time>2021-05-10T13:18:41.000Z</time>
      </trkpt>
      <trkpt lat="49.08243" lon="1.62533">
        <ele>100</ele>
        <time>2021-05-10T13:18:43.000Z</time>
      </trkpt>
      <trkpt lat="49.08244" lon="1.62532">
        <ele>100.40000152588</ele>
        <time>2021-05-10T13:18:44.000Z</time>
      </trkpt>
      <trkpt lat="49.08246" lon="1.62531">
        <ele>101.59999847412</ele>
        <time>2021-05-10T13:18:47.000Z</time>
      </trkpt>
      <trkpt lat="49.08249" lon="1.62529">
        <ele>102.80000305176</ele>
        <time>2021-05-10T13:18:50.000Z</time>
      </trkpt>
      <trkpt lat="49.08254" lon="1.62526">
        <ele>104</ele>
        <time>2021-05-10T13:18:53.000Z</time>
      </trkpt>
      <trkpt lat="49.08258" lon="1.62523">
        <ele>105.19999694824</ele>
        <time>2021-05-10T13:18:56.000Z</time>
      </trkpt>
      <trkpt lat="49.08262" lon="1.62521">
        <ele>106.19999694824</ele>
        <time>2021-05-10T13:18:59.000Z</time>
      </trkpt>
      <trkpt lat="49.08265" lon="1.62519">
        <ele>107.19999694824</ele>
        <time>2021-05-10T13:19:02.000Z</time>
      </trkpt>
      <trkpt lat="49.08268" lon="1.62516">
        <ele>107.59999847412</ele>
        <time>2021-05-10T13:19:04.000Z</time>
      </trkpt>
      <trkpt lat="49.08273" lon="1.62512">
        <ele>108.59999847412</ele>
        <time>2021-05-10T13:19:07.000Z</time>
      </trkpt>
      <trkpt lat="49.08281" lon="1.62507">
        <ele>109.80000305176</ele>
        <time>2021-05-10T13:19:11.000Z</time>
      </trkpt>
      <trkpt lat="49.08283" lon="1.62507">
        <ele>110</ele>
        <time>2021-05-10T13:19:12.000Z</time>
      </trkpt>
      <trkpt lat="49.08288" lon="1.62503">
        <ele>110.80000305176</ele>
        <time>2021-05-10T13:19:16.000Z</time>
      </trkpt>
      <trkpt lat="49.08294" lon="1.625">
        <ele>111</ele>
        <time>2021-05-10T13:19:19.000Z</time>
      </trkpt>
      <trkpt lat="49.08298" lon="1.62497">
        <ele>111.19999694824</ele>
        <time>2021-05-10T13:19:25.000Z</time>
      </trkpt>
      <trkpt lat="49.083" lon="1.62501">
        <ele>111.59999847412</ele>
        <time>2021-05-10T13:19:44.000Z</time>
      </trkpt>
      <trkpt lat="49.08305" lon="1.62518">
        <ele>111.40000152588</ele>
        <time>2021-05-10T13:19:50.000Z</time>
      </trkpt>
      <trkpt lat="49.08308" lon="1.62528">
        <ele>111.19999694824</ele>
        <time>2021-05-10T13:19:53.000Z</time>
      </trkpt>
      <trkpt lat="49.08309" lon="1.62532">
        <ele>111.19999694824</ele>
        <time>2021-05-10T13:19:54.000Z</time>
      </trkpt>
      <trkpt lat="49.08313" lon="1.62545">
        <ele>111</ele>
        <time>2021-05-10T13:19:58.000Z</time>
      </trkpt>
      <trkpt lat="49.08315" lon="1.62559">
        <ele>111</ele>
        <time>2021-05-10T13:20:03.000Z</time>
      </trkpt>
      <trkpt lat="49.08316" lon="1.6257">
        <ele>111</ele>
        <time>2021-05-10T13:20:06.000Z</time>
      </trkpt>
      <trkpt lat="49.08317" lon="1.62574">
        <ele>111</ele>
        <time>2021-05-10T13:20:07.000Z</time>
      </trkpt>
      <trkpt lat="49.08322" lon="1.62596">
        <ele>111</ele>
        <time>2021-05-10T13:20:12.000Z</time>
      </trkpt>
      <trkpt lat="49.08327" lon="1.62618">
        <ele>111</ele>
        <time>2021-05-10T13:20:18.000Z</time>
      </trkpt>
      <trkpt lat="49.08328" lon="1.62621">
        <ele>111</ele>
        <time>2021-05-10T13:20:19.000Z</time>
      </trkpt>
      <trkpt lat="49.08329" lon="1.62628">
        <ele>111</ele>
        <time>2021-05-10T13:20:22.000Z</time>
      </trkpt>
      <trkpt lat="49.08326" lon="1.62633">
        <ele>111</ele>
        <time>2021-05-10T13:20:24.000Z</time>
      </trkpt>
      <trkpt lat="49.08321" lon="1.62644">
        <ele>111.40000152588</ele>
        <time>2021-05-10T13:20:27.000Z</time>
      </trkpt>
      <trkpt lat="49.08319" lon="1.62651">
        <ele>112</ele>
        <time>2021-05-10T13:20:29.000Z</time>
      </trkpt>
      <trkpt lat="49.08316" lon="1.62657">
        <ele>112.40000152588</ele>
        <time>2021-05-10T13:20:32.000Z</time>
      </trkpt>
      <trkpt lat="49.08311" lon="1.62669">
        <ele>112.40000152588</ele>
        <time>2021-05-10T13:20:37.000Z</time>
      </trkpt>
      <trkpt lat="49.08311" lon="1.62672">
        <ele>112.59999847412</ele>
        <time>2021-05-10T13:20:39.000Z</time>
      </trkpt>
      <trkpt lat="49.08309" lon="1.62676">
        <ele>112.59999847412</ele>
        <time>2021-05-10T13:20:46.000Z</time>
      </trkpt>
      <trkpt lat="49.08309" lon="1.62677">
        <ele>112.80000305176</ele>
        <time>2021-05-10T13:20:48.000Z</time>
      </trkpt>
      <trkpt lat="49.08308" lon="1.6268">
        <ele>112.80000305176</ele>
        <time>2021-05-10T13:20:58.000Z</time>
      </trkpt>
      <trkpt lat="49.08309" lon="1.62679">
        <ele>112.80000305176</ele>
        <time>2021-05-10T13:20:59.000Z</time>
      </trkpt>
      <trkpt lat="49.08312" lon="1.6268">
        <ele>112.80000305176</ele>
        <time>2021-05-10T13:21:02.000Z</time>
      </trkpt>
      <trkpt lat="49.08316" lon="1.62683">
        <ele>112.80000305176</ele>
        <time>2021-05-10T13:21:05.000Z</time>
      </trkpt>
      <trkpt lat="49.08322" lon="1.62687">
        <ele>113</ele>
        <time>2021-05-10T13:21:08.000Z</time>
      </trkpt>
      <trkpt lat="49.08325" lon="1.62689">
        <ele>113.40000152588</ele>
        <time>2021-05-10T13:21:09.000Z</time>
      </trkpt>
      <trkpt lat="49.08332" lon="1.62696">
        <ele>114.19999694824</ele>
        <time>2021-05-10T13:21:12.000Z</time>
      </trkpt>
      <trkpt lat="49.08334" lon="1.627">
        <ele>114.59999847412</ele>
        <time>2021-05-10T13:21:13.000Z</time>
      </trkpt>
      <trkpt lat="49.08341" lon="1.62713">
        <ele>115</ele>
        <time>2021-05-10T13:21:17.000Z</time>
      </trkpt>
      <trkpt lat="49.08348" lon="1.62726">
        <ele>115.19999694824</ele>
        <time>2021-05-10T13:21:21.000Z</time>
      </trkpt>
      <trkpt lat="49.08348" lon="1.62729">
        <ele>115.19999694824</ele>
        <time>2021-05-10T13:21:22.000Z</time>
      </trkpt>
      <trkpt lat="49.08347" lon="1.62735">
        <ele>115.59999847412</ele>
        <time>2021-05-10T13:21:25.000Z</time>
      </trkpt>
      <trkpt lat="49.08348" lon="1.6274">
        <ele>115.59999847412</ele>
        <time>2021-05-10T13:21:27.000Z</time>
      </trkpt>
      <trkpt lat="49.0835" lon="1.62748">
        <ele>115.59999847412</ele>
        <time>2021-05-10T13:21:29.000Z</time>
      </trkpt>
      <trkpt lat="49.08353" lon="1.62758">
        <ele>115.59999847412</ele>
        <time>2021-05-10T13:21:32.000Z</time>
      </trkpt>
      <trkpt lat="49.08361" lon="1.62778">
        <ele>115.59999847412</ele>
        <time>2021-05-10T13:21:37.000Z</time>
      </trkpt>
      <trkpt lat="49.08368" lon="1.62797">
        <ele>115.40000152588</ele>
        <time>2021-05-10T13:21:42.000Z</time>
      </trkpt>
      <trkpt lat="49.08374" lon="1.62821">
        <ele>115</ele>
        <time>2021-05-10T13:21:48.000Z</time>
      </trkpt>
      <trkpt lat="49.0838" lon="1.62842">
        <ele>114.80000305176</ele>
        <time>2021-05-10T13:21:53.000Z</time>
      </trkpt>
      <trkpt lat="49.08382" lon="1.62859">
        <ele>114.80000305176</ele>
        <time>2021-05-10T13:21:58.000Z</time>
      </trkpt>
      <trkpt lat="49.08383" lon="1.62875">
        <ele>115.19999694824</ele>
        <time>2021-05-10T13:22:03.000Z</time>
      </trkpt>
      <trkpt lat="49.08382" lon="1.62884">
        <ele>116</ele>
        <time>2021-05-10T13:22:05.000Z</time>
      </trkpt>
      <trkpt lat="49.08381" lon="1.62899">
        <ele>116.40000152588</ele>
        <time>2021-05-10T13:22:09.000Z</time>
      </trkpt>
      <trkpt lat="49.08378" lon="1.62919">
        <ele>116.59999847412</ele>
        <time>2021-05-10T13:22:14.000Z</time>
      </trkpt>
      <trkpt lat="49.08378" lon="1.62926">
        <ele>116.59999847412</ele>
        <time>2021-05-10T13:22:17.000Z</time>
      </trkpt>
      <trkpt lat="49.08379" lon="1.62929">
        <ele>116.19999694824</ele>
        <time>2021-05-10T13:22:20.000Z</time>
      </trkpt>
      <trkpt lat="49.0838" lon="1.62929">
        <ele>116</ele>
        <time>2021-05-10T13:22:21.000Z</time>
      </trkpt>
      <trkpt lat="49.08379" lon="1.62931">
        <ele>116</ele>
        <time>2021-05-10T13:22:28.000Z</time>
      </trkpt>
      <trkpt lat="49.08379" lon="1.62932">
        <ele>116</ele>
        <time>2021-05-10T13:22:31.000Z</time>
      </trkpt>
      <trkpt lat="49.08379" lon="1.62934">
        <ele>116</ele>
        <time>2021-05-10T13:22:35.000Z</time>
      </trkpt>
      <trkpt lat="49.08379" lon="1.62937">
        <ele>115.80000305176</ele>
        <time>2021-05-10T13:22:36.000Z</time>
      </trkpt>
      <trkpt lat="49.08376" lon="1.62944">
        <ele>115.80000305176</ele>
        <time>2021-05-10T13:22:38.000Z</time>
      </trkpt>
      <trkpt lat="49.0837" lon="1.62949">
        <ele>115.80000305176</ele>
        <time>2021-05-10T13:22:40.000Z</time>
      </trkpt>
      <trkpt lat="49.08366" lon="1.62951">
        <ele>115.80000305176</ele>
        <time>2021-05-10T13:22:41.000Z</time>
      </trkpt>
      <trkpt lat="49.08358" lon="1.62954">
        <ele>115.59999847412</ele>
        <time>2021-05-10T13:22:43.000Z</time>
      </trkpt>
      <trkpt lat="49.0835" lon="1.62954">
        <ele>115</ele>
        <time>2021-05-10T13:22:46.000Z</time>
      </trkpt>
      <trkpt lat="49.08348" lon="1.62953">
        <ele>114.59999847412</ele>
        <time>2021-05-10T13:22:47.000Z</time>
      </trkpt>
      <trkpt lat="49.08346" lon="1.62952">
        <ele>113.80000305176</ele>
        <time>2021-05-10T13:22:48.000Z</time>
      </trkpt>
      <trkpt lat="49.08343" lon="1.62951">
        <ele>110.40000152588</ele>
        <time>2021-05-10T13:22:50.000Z</time>
      </trkpt>
      <trkpt lat="49.08341" lon="1.6295">
        <ele>109.19999694824</ele>
        <time>2021-05-10T13:22:51.000Z</time>
      </trkpt>
      <trkpt lat="49.0834" lon="1.62951">
        <ele>108</ele>
        <time>2021-05-10T13:22:52.000Z</time>
      </trkpt>
      <trkpt lat="49.08338" lon="1.62951">
        <ele>107</ele>
        <time>2021-05-10T13:22:53.000Z</time>
      </trkpt>
      <trkpt lat="49.08335" lon="1.62951">
        <ele>105.40000152588</ele>
        <time>2021-05-10T13:22:55.000Z</time>
      </trkpt>
      <trkpt lat="49.08334" lon="1.62951">
        <ele>104.59999847412</ele>
        <time>2021-05-10T13:22:56.000Z</time>
      </trkpt>
      <trkpt lat="49.08333" lon="1.62952">
        <ele>104</ele>
        <time>2021-05-10T13:22:57.000Z</time>
      </trkpt>
      <trkpt lat="49.08331" lon="1.62953">
        <ele>103</ele>
        <time>2021-05-10T13:22:59.000Z</time>
      </trkpt>
      <trkpt lat="49.0833" lon="1.62953">
        <ele>101.80000305176</ele>
        <time>2021-05-10T13:23:01.000Z</time>
      </trkpt>
      <trkpt lat="49.08327" lon="1.62953">
        <ele>100.59999847412</ele>
        <time>2021-05-10T13:23:04.000Z</time>
      </trkpt>
      <trkpt lat="49.08325" lon="1.62953">
        <ele>99.599998474121</ele>
        <time>2021-05-10T13:23:07.000Z</time>
      </trkpt>
      <trkpt lat="49.08323" lon="1.62949">
        <ele>95.400001525879</ele>
        <time>2021-05-10T13:23:27.000Z</time>
      </trkpt>
      <trkpt lat="49.08323" lon="1.62948">
        <ele>95.400001525879</ele>
        <time>2021-05-10T13:23:28.000Z</time>
      </trkpt>
      <trkpt lat="49.08323" lon="1.62947">
        <ele>95.400001525879</ele>
        <time>2021-05-10T13:23:30.000Z</time>
      </trkpt>
      <trkpt lat="49.08321" lon="1.62941">
        <ele>94.800003051758</ele>
        <time>2021-05-10T13:23:36.000Z</time>
      </trkpt>
      <trkpt lat="49.08319" lon="1.62938">
        <ele>94.400001525879</ele>
        <time>2021-05-10T13:23:38.000Z</time>
      </trkpt>
      <trkpt lat="49.08318" lon="1.62931">
        <ele>93.199996948242</ele>
        <time>2021-05-10T13:23:42.000Z</time>
      </trkpt>
      <trkpt lat="49.08319" lon="1.62927">
        <ele>92</ele>
        <time>2021-05-10T13:23:44.000Z</time>
      </trkpt>
      <trkpt lat="49.08321" lon="1.62921">
        <ele>90</ele>
        <time>2021-05-10T13:23:46.000Z</time>
      </trkpt>
      <trkpt lat="49.08323" lon="1.62915">
        <ele>88.599998474121</ele>
        <time>2021-05-10T13:23:48.000Z</time>
      </trkpt>
      <trkpt lat="49.08325" lon="1.62912">
        <ele>87.800003051758</ele>
        <time>2021-05-10T13:23:49.000Z</time>
      </trkpt>
      <trkpt lat="49.08326" lon="1.62908">
        <ele>87.199996948242</ele>
        <time>2021-05-10T13:23:50.000Z</time>
      </trkpt>
      <trkpt lat="49.08328" lon="1.62895">
        <ele>85.800003051758</ele>
        <time>2021-05-10T13:23:53.000Z</time>
      </trkpt>
      <trkpt lat="49.08327" lon="1.6289">
        <ele>85.400001525879</ele>
        <time>2021-05-10T13:23:54.000Z</time>
      </trkpt>
      <trkpt lat="49.08327" lon="1.62873">
        <ele>84.800003051758</ele>
        <time>2021-05-10T13:23:58.000Z</time>
      </trkpt>
      <trkpt lat="49.08328" lon="1.6287">
        <ele>84.800003051758</ele>
        <time>2021-05-10T13:23:59.000Z</time>
      </trkpt>
      <trkpt lat="49.08328" lon="1.62868">
        <ele>84.800003051758</ele>
        <time>2021-05-10T13:24:00.000Z</time>
      </trkpt>
      <trkpt lat="49.08323" lon="1.62851">
        <ele>84.800003051758</ele>
        <time>2021-05-10T13:24:05.000Z</time>
      </trkpt>
      <trkpt lat="49.08318" lon="1.62841">
        <ele>86</ele>
        <time>2021-05-10T13:24:09.000Z</time>
      </trkpt>
      <trkpt lat="49.08317" lon="1.6284">
        <ele>86.400001525879</ele>
        <time>2021-05-10T13:24:10.000Z</time>
      </trkpt>
      <trkpt lat="49.08314" lon="1.62837">
        <ele>86.400001525879</ele>
        <time>2021-05-10T13:24:12.000Z</time>
      </trkpt>
      <trkpt lat="49.08307" lon="1.62828">
        <ele>86.599998474121</ele>
        <time>2021-05-10T13:24:15.000Z</time>
      </trkpt>
      <trkpt lat="49.08305" lon="1.62826">
        <ele>86.599998474121</ele>
        <time>2021-05-10T13:24:16.000Z</time>
      </trkpt>
      <trkpt lat="49.08302" lon="1.62819">
        <ele>86.599998474121</ele>
        <time>2021-05-10T13:24:19.000Z</time>
      </trkpt>
      <trkpt lat="49.083" lon="1.62812">
        <ele>84.800003051758</ele>
        <time>2021-05-10T13:24:23.000Z</time>
      </trkpt>
      <trkpt lat="49.08299" lon="1.62811">
        <ele>84.599998474121</ele>
        <time>2021-05-10T13:24:24.000Z</time>
      </trkpt>
      <trkpt lat="49.08294" lon="1.62809">
        <ele>84.400001525879</ele>
        <time>2021-05-10T13:24:27.000Z</time>
      </trkpt>
      <trkpt lat="49.08288" lon="1.62809">
        <ele>84.199996948242</ele>
        <time>2021-05-10T13:24:30.000Z</time>
      </trkpt>
      <trkpt lat="49.08284" lon="1.62813">
        <ele>84</ele>
        <time>2021-05-10T13:24:34.000Z</time>
      </trkpt>
      <trkpt lat="49.08284" lon="1.62813">
        <ele>83.599998474121</ele>
        <time>2021-05-10T13:24:35.000Z</time>
      </trkpt>
      <trkpt lat="49.08275" lon="1.62816">
        <ele>75.800003051758</ele>
        <time>2021-05-10T13:26:05.000Z</time>
      </trkpt>
      <trkpt lat="49.08273" lon="1.62823">
        <ele>75.800003051758</ele>
        <time>2021-05-10T13:26:09.000Z</time>
      </trkpt>
      <trkpt lat="49.08268" lon="1.62833">
        <ele>75.199996948242</ele>
        <time>2021-05-10T13:26:14.000Z</time>
      </trkpt>
      <trkpt lat="49.08266" lon="1.62836">
        <ele>74.599998474121</ele>
        <time>2021-05-10T13:26:15.000Z</time>
      </trkpt>
      <trkpt lat="49.08264" lon="1.62842">
        <ele>73.199996948242</ele>
        <time>2021-05-10T13:26:17.000Z</time>
      </trkpt>
      <trkpt lat="49.08262" lon="1.62847">
        <ele>71.800003051758</ele>
        <time>2021-05-10T13:26:19.000Z</time>
      </trkpt>
      <trkpt lat="49.08261" lon="1.62849">
        <ele>70.800003051758</ele>
        <time>2021-05-10T13:26:20.000Z</time>
      </trkpt>
      <trkpt lat="49.0826" lon="1.62853">
        <ele>69.599998474121</ele>
        <time>2021-05-10T13:26:21.000Z</time>
      </trkpt>
      <trkpt lat="49.08259" lon="1.62859">
        <ele>68.599998474121</ele>
        <time>2021-05-10T13:26:22.000Z</time>
      </trkpt>
      <trkpt lat="49.08258" lon="1.62864">
        <ele>67.599998474121</ele>
        <time>2021-05-10T13:26:23.000Z</time>
      </trkpt>
      <trkpt lat="49.08256" lon="1.62872">
        <ele>65.599998474121</ele>
        <time>2021-05-10T13:26:25.000Z</time>
      </trkpt>
      <trkpt lat="49.08255" lon="1.62875">
        <ele>64.599998474121</ele>
        <time>2021-05-10T13:26:26.000Z</time>
      </trkpt>
      <trkpt lat="49.08252" lon="1.62878">
        <ele>62.799999237061</ele>
        <time>2021-05-10T13:26:28.000Z</time>
      </trkpt>
      <trkpt lat="49.08251" lon="1.62879">
        <ele>61.400001525879</ele>
        <time>2021-05-10T13:26:29.000Z</time>
      </trkpt>
      <trkpt lat="49.0825" lon="1.62879">
        <ele>60.200000762939</ele>
        <time>2021-05-10T13:26:30.000Z</time>
      </trkpt>
      <trkpt lat="49.08249" lon="1.6288">
        <ele>59</ele>
        <time>2021-05-10T13:26:31.000Z</time>
      </trkpt>
      <trkpt lat="49.08248" lon="1.6288">
        <ele>57.799999237061</ele>
        <time>2021-05-10T13:26:32.000Z</time>
      </trkpt>
      <trkpt lat="49.08245" lon="1.62886">
        <ele>54</ele>
        <time>2021-05-10T13:27:11.000Z</time>
      </trkpt>
      <trkpt lat="49.08244" lon="1.62888">
        <ele>54</ele>
        <time>2021-05-10T13:27:12.000Z</time>
      </trkpt>
      <trkpt lat="49.08242" lon="1.62894">
        <ele>54</ele>
        <time>2021-05-10T13:27:14.000Z</time>
      </trkpt>
      <trkpt lat="49.08239" lon="1.62902">
        <ele>54</ele>
        <time>2021-05-10T13:27:17.000Z</time>
      </trkpt>
      <trkpt lat="49.08238" lon="1.62902">
        <ele>54</ele>
        <time>2021-05-10T13:27:18.000Z</time>
      </trkpt>
      <trkpt lat="49.08234" lon="1.62906">
        <ele>52.799999237061</ele>
        <time>2021-05-10T13:27:23.000Z</time>
      </trkpt>
      <trkpt lat="49.08232" lon="1.62907">
        <ele>52.200000762939</ele>
        <time>2021-05-10T13:27:25.000Z</time>
      </trkpt>
      <trkpt lat="49.08217" lon="1.6289">
        <ele>36.799999237061</ele>
        <time>2021-05-10T13:29:04.000Z</time>
      </trkpt>
      <trkpt lat="49.08213" lon="1.62891">
        <ele>35.799999237061</ele>
        <time>2021-05-10T13:29:10.000Z</time>
      </trkpt>
      <trkpt lat="49.0821" lon="1.62895">
        <ele>34.400001525879</ele>
        <time>2021-05-10T13:29:15.000Z</time>
      </trkpt>
      <trkpt lat="49.08207" lon="1.62897">
        <ele>33.799999237061</ele>
        <time>2021-05-10T13:29:17.000Z</time>
      </trkpt>
      <trkpt lat="49.08199" lon="1.62904">
        <ele>33.200000762939</ele>
        <time>2021-05-10T13:29:19.000Z</time>
      </trkpt>
      <trkpt lat="49.08194" lon="1.62909">
        <ele>32.799999237061</ele>
        <time>2021-05-10T13:29:20.000Z</time>
      </trkpt>
      <trkpt lat="49.08184" lon="1.62921">
        <ele>32.400001525879</ele>
        <time>2021-05-10T13:29:22.000Z</time>
      </trkpt>
      <trkpt lat="49.08181" lon="1.62928">
        <ele>32.200000762939</ele>
        <time>2021-05-10T13:29:23.000Z</time>
      </trkpt>
      <trkpt lat="49.08177" lon="1.62934">
        <ele>31.799999237061</ele>
        <time>2021-05-10T13:29:24.000Z</time>
      </trkpt>
      <trkpt lat="49.08163" lon="1.62938">
        <ele>30.60000038147</ele>
        <time>2021-05-10T13:29:27.000Z</time>
      </trkpt>
      <trkpt lat="49.08158" lon="1.62936">
        <ele>28.200000762939</ele>
        <time>2021-05-10T13:29:28.000Z</time>
      </trkpt>
      <trkpt lat="49.08156" lon="1.62931">
        <ele>27</ele>
        <time>2021-05-10T13:29:29.000Z</time>
      </trkpt>
      <trkpt lat="49.08154" lon="1.62925">
        <ele>26.200000762939</ele>
        <time>2021-05-10T13:29:30.000Z</time>
      </trkpt>
      <trkpt lat="49.08152" lon="1.62919">
        <ele>25.39999961853</ele>
        <time>2021-05-10T13:29:31.000Z</time>
      </trkpt>
      <trkpt lat="49.08148" lon="1.62908">
        <ele>24</ele>
        <time>2021-05-10T13:29:33.000Z</time>
      </trkpt>
      <trkpt lat="49.08143" lon="1.62897">
        <ele>23</ele>
        <time>2021-05-10T13:29:36.000Z</time>
      </trkpt>
      <trkpt lat="49.08142" lon="1.62895">
        <ele>22.39999961853</ele>
        <time>2021-05-10T13:29:39.000Z</time>
      </trkpt>
      <trkpt lat="49.0814" lon="1.62892">
        <ele>20.60000038147</ele>
        <time>2021-05-10T13:29:52.000Z</time>
      </trkpt>
      <trkpt lat="49.08137" lon="1.62889">
        <ele>20.799999237061</ele>
        <time>2021-05-10T13:29:58.000Z</time>
      </trkpt>
      <trkpt lat="49.08139" lon="1.6289">
        <ele>20.39999961853</ele>
        <time>2021-05-10T13:33:01.000Z</time>
      </trkpt>
      <trkpt lat="49.08143" lon="1.62893">
        <ele>20.39999961853</ele>
        <time>2021-05-10T13:33:03.000Z</time>
      </trkpt>
      <trkpt lat="49.0815" lon="1.62907">
        <ele>20.60000038147</ele>
        <time>2021-05-10T13:33:07.000Z</time>
      </trkpt>
      <trkpt lat="49.08158" lon="1.62931">
        <ele>21</ele>
        <time>2021-05-10T13:33:14.000Z</time>
      </trkpt>
      <trkpt lat="49.08162" lon="1.6294">
        <ele>21.200000762939</ele>
        <time>2021-05-10T13:33:17.000Z</time>
      </trkpt>
      <trkpt lat="49.08166" lon="1.62943">
        <ele>21.60000038147</ele>
        <time>2021-05-10T13:33:19.000Z</time>
      </trkpt>
      <trkpt lat="49.08169" lon="1.62942">
        <ele>22</ele>
        <time>2021-05-10T13:33:20.000Z</time>
      </trkpt>
      <trkpt lat="49.08171" lon="1.62941">
        <ele>22.200000762939</ele>
        <time>2021-05-10T13:33:21.000Z</time>
      </trkpt>
      <trkpt lat="49.08181" lon="1.6293">
        <ele>22.799999237061</ele>
        <time>2021-05-10T13:33:28.000Z</time>
      </trkpt>
      <trkpt lat="49.08184" lon="1.62924">
        <ele>23</ele>
        <time>2021-05-10T13:33:31.000Z</time>
      </trkpt>
      <trkpt lat="49.08191" lon="1.62915">
        <ele>23.60000038147</ele>
        <time>2021-05-10T13:33:36.000Z</time>
      </trkpt>
      <trkpt lat="49.08195" lon="1.62911">
        <ele>24.39999961853</ele>
        <time>2021-05-10T13:33:39.000Z</time>
      </trkpt>
      <trkpt lat="49.08199" lon="1.62908">
        <ele>25.39999961853</ele>
        <time>2021-05-10T13:33:42.000Z</time>
      </trkpt>
      <trkpt lat="49.08203" lon="1.62904">
        <ele>26</ele>
        <time>2021-05-10T13:33:45.000Z</time>
      </trkpt>
      <trkpt lat="49.08206" lon="1.62902">
        <ele>26.60000038147</ele>
        <time>2021-05-10T13:33:47.000Z</time>
      </trkpt>
      <trkpt lat="49.0821" lon="1.62897">
        <ele>27.60000038147</ele>
        <time>2021-05-10T13:33:51.000Z</time>
      </trkpt>
      <trkpt lat="49.08212" lon="1.62896">
        <ele>27.799999237061</ele>
        <time>2021-05-10T13:33:52.000Z</time>
      </trkpt>
      <trkpt lat="49.08212" lon="1.62895">
        <ele>28.39999961853</ele>
        <time>2021-05-10T13:33:55.000Z</time>
      </trkpt>
      <trkpt lat="49.08213" lon="1.62894">
        <ele>31.200000762939</ele>
        <time>2021-05-10T13:34:13.000Z</time>
      </trkpt>
      <trkpt lat="49.08221" lon="1.62893">
        <ele>31.799999237061</ele>
        <time>2021-05-10T13:34:23.000Z</time>
      </trkpt>
      <trkpt lat="49.08223" lon="1.62894">
        <ele>32.200000762939</ele>
        <time>2021-05-10T13:34:25.000Z</time>
      </trkpt>
      <trkpt lat="49.08226" lon="1.62893">
        <ele>33.400001525879</ele>
        <time>2021-05-10T13:34:29.000Z</time>
      </trkpt>
      <trkpt lat="49.08228" lon="1.62892">
        <ele>34.200000762939</ele>
        <time>2021-05-10T13:34:33.000Z</time>
      </trkpt>
      <trkpt lat="49.0823" lon="1.62891">
        <ele>35.400001525879</ele>
        <time>2021-05-10T13:34:38.000Z</time>
      </trkpt>
      <trkpt lat="49.0823" lon="1.62892">
        <ele>36</ele>
        <time>2021-05-10T13:34:40.000Z</time>
      </trkpt>
      <trkpt lat="49.0823" lon="1.629">
        <ele>38.799999237061</ele>
        <time>2021-05-10T13:34:49.000Z</time>
      </trkpt>
      <trkpt lat="49.0823" lon="1.62903">
        <ele>39.200000762939</ele>
        <time>2021-05-10T13:34:51.000Z</time>
      </trkpt>
      <trkpt lat="49.08231" lon="1.62905">
        <ele>40</ele>
        <time>2021-05-10T13:34:54.000Z</time>
      </trkpt>
      <trkpt lat="49.0823" lon="1.62918">
        <ele>45.200000762939</ele>
        <time>2021-05-10T13:36:04.000Z</time>
      </trkpt>
      <trkpt lat="49.08229" lon="1.62922">
        <ele>45.200000762939</ele>
        <time>2021-05-10T13:36:06.000Z</time>
      </trkpt>
      <trkpt lat="49.08229" lon="1.62931">
        <ele>45.200000762939</ele>
        <time>2021-05-10T13:36:10.000Z</time>
      </trkpt>
      <trkpt lat="49.08229" lon="1.62933">
        <ele>45.200000762939</ele>
        <time>2021-05-10T13:36:11.000Z</time>
      </trkpt>
      <trkpt lat="49.08227" lon="1.6295">
        <ele>46.400001525879</ele>
        <time>2021-05-10T13:36:17.000Z</time>
      </trkpt>
      <trkpt lat="49.08227" lon="1.62952">
        <ele>46.799999237061</ele>
        <time>2021-05-10T13:36:18.000Z</time>
      </trkpt>
      <trkpt lat="49.08227" lon="1.6296">
        <ele>47.799999237061</ele>
        <time>2021-05-10T13:36:21.000Z</time>
      </trkpt>
      <trkpt lat="49.08228" lon="1.62968">
        <ele>48.799999237061</ele>
        <time>2021-05-10T13:36:24.000Z</time>
      </trkpt>
      <trkpt lat="49.08228" lon="1.62971">
        <ele>49.200000762939</ele>
        <time>2021-05-10T13:36:25.000Z</time>
      </trkpt>
      <trkpt lat="49.08229" lon="1.62976">
        <ele>49.799999237061</ele>
        <time>2021-05-10T13:36:27.000Z</time>
      </trkpt>
      <trkpt lat="49.08233" lon="1.62983">
        <ele>50.400001525879</ele>
        <time>2021-05-10T13:36:30.000Z</time>
      </trkpt>
      <trkpt lat="49.08236" lon="1.62986">
        <ele>50.799999237061</ele>
        <time>2021-05-10T13:36:32.000Z</time>
      </trkpt>
      <trkpt lat="49.08237" lon="1.62988">
        <ele>51.200000762939</ele>
        <time>2021-05-10T13:36:33.000Z</time>
      </trkpt>
      <trkpt lat="49.0824" lon="1.62992">
        <ele>52</ele>
        <time>2021-05-10T13:36:36.000Z</time>
      </trkpt>
      <trkpt lat="49.08245" lon="1.63">
        <ele>53.200000762939</ele>
        <time>2021-05-10T13:36:41.000Z</time>
      </trkpt>
      <trkpt lat="49.08247" lon="1.63003">
        <ele>53.599998474121</ele>
        <time>2021-05-10T13:36:43.000Z</time>
      </trkpt>
      <trkpt lat="49.08249" lon="1.63005">
        <ele>54.200000762939</ele>
        <time>2021-05-10T13:36:45.000Z</time>
      </trkpt>
      <trkpt lat="49.08252" lon="1.6301">
        <ele>55.400001525879</ele>
        <time>2021-05-10T13:36:48.000Z</time>
      </trkpt>
      <trkpt lat="49.08253" lon="1.6301">
        <ele>55.799999237061</ele>
        <time>2021-05-10T13:36:49.000Z</time>
      </trkpt>
      <trkpt lat="49.08256" lon="1.63012">
        <ele>56.400001525879</ele>
        <time>2021-05-10T13:36:51.000Z</time>
      </trkpt>
      <trkpt lat="49.08257" lon="1.63013">
        <ele>56.599998474121</ele>
        <time>2021-05-10T13:36:52.000Z</time>
      </trkpt>
      <trkpt lat="49.0826" lon="1.63015">
        <ele>57.200000762939</ele>
        <time>2021-05-10T13:36:55.000Z</time>
      </trkpt>
      <trkpt lat="49.08262" lon="1.63015">
        <ele>57.599998474121</ele>
        <time>2021-05-10T13:36:57.000Z</time>
      </trkpt>
      <trkpt lat="49.08267" lon="1.63019">
        <ele>58.200000762939</ele>
        <time>2021-05-10T13:37:01.000Z</time>
      </trkpt>
      <trkpt lat="49.08272" lon="1.63023">
        <ele>58.799999237061</ele>
        <time>2021-05-10T13:37:05.000Z</time>
      </trkpt>
      <trkpt lat="49.08277" lon="1.63025">
        <ele>59.400001525879</ele>
        <time>2021-05-10T13:37:08.000Z</time>
      </trkpt>
      <trkpt lat="49.0828" lon="1.63027">
        <ele>60</ele>
        <time>2021-05-10T13:37:10.000Z</time>
      </trkpt>
      <trkpt lat="49.08289" lon="1.6303">
        <ele>61.200000762939</ele>
        <time>2021-05-10T13:37:16.000Z</time>
      </trkpt>
      <trkpt lat="49.08294" lon="1.63031">
        <ele>62.400001525879</ele>
        <time>2021-05-10T13:37:21.000Z</time>
      </trkpt>
      <trkpt lat="49.08296" lon="1.63033">
        <ele>63</ele>
        <time>2021-05-10T13:37:23.000Z</time>
      </trkpt>
      <trkpt lat="49.08301" lon="1.63033">
        <ele>63.599998474121</ele>
        <time>2021-05-10T13:37:26.000Z</time>
      </trkpt>
      <trkpt lat="49.08307" lon="1.63034">
        <ele>64.599998474121</ele>
        <time>2021-05-10T13:37:31.000Z</time>
      </trkpt>
      <trkpt lat="49.08312" lon="1.63035">
        <ele>65.800003051758</ele>
        <time>2021-05-10T13:37:35.000Z</time>
      </trkpt>
      <trkpt lat="49.08316" lon="1.63036">
        <ele>66.599998474121</ele>
        <time>2021-05-10T13:37:38.000Z</time>
      </trkpt>
      <trkpt lat="49.08318" lon="1.63036">
        <ele>67</ele>
        <time>2021-05-10T13:37:40.000Z</time>
      </trkpt>
      <trkpt lat="49.08322" lon="1.63039">
        <ele>68</ele>
        <time>2021-05-10T13:37:45.000Z</time>
      </trkpt>
      <trkpt lat="49.08327" lon="1.63043">
        <ele>69</ele>
        <time>2021-05-10T13:37:50.000Z</time>
      </trkpt>
      <trkpt lat="49.0833" lon="1.63049">
        <ele>70.199996948242</ele>
        <time>2021-05-10T13:37:55.000Z</time>
      </trkpt>
      <trkpt lat="49.0833" lon="1.63052">
        <ele>70.599998474121</ele>
        <time>2021-05-10T13:37:57.000Z</time>
      </trkpt>
      <trkpt lat="49.08331" lon="1.63056">
        <ele>71.199996948242</ele>
        <time>2021-05-10T13:37:59.000Z</time>
      </trkpt>
      <trkpt lat="49.08331" lon="1.63062">
        <ele>72.599998474121</ele>
        <time>2021-05-10T13:38:02.000Z</time>
      </trkpt>
      <trkpt lat="49.0833" lon="1.63072">
        <ele>73.599998474121</ele>
        <time>2021-05-10T13:38:07.000Z</time>
      </trkpt>
      <trkpt lat="49.08327" lon="1.6309">
        <ele>74.599998474121</ele>
        <time>2021-05-10T13:38:13.000Z</time>
      </trkpt>
      <trkpt lat="49.08326" lon="1.63093">
        <ele>74.800003051758</ele>
        <time>2021-05-10T13:38:14.000Z</time>
      </trkpt>
      <trkpt lat="49.08323" lon="1.63107">
        <ele>75.400001525879</ele>
        <time>2021-05-10T13:38:19.000Z</time>
      </trkpt>
      <trkpt lat="49.08319" lon="1.63129">
        <ele>75.800003051758</ele>
        <time>2021-05-10T13:38:25.000Z</time>
      </trkpt>
      <trkpt lat="49.08319" lon="1.63133">
        <ele>75.800003051758</ele>
        <time>2021-05-10T13:38:26.000Z</time>
      </trkpt>
      <trkpt lat="49.08322" lon="1.63153">
        <ele>76</ele>
        <time>2021-05-10T13:38:31.000Z</time>
      </trkpt>
      <trkpt lat="49.08328" lon="1.63174">
        <ele>76.800003051758</ele>
        <time>2021-05-10T13:38:37.000Z</time>
      </trkpt>
      <trkpt lat="49.08331" lon="1.63179">
        <ele>77.199996948242</ele>
        <time>2021-05-10T13:38:39.000Z</time>
      </trkpt>
      <trkpt lat="49.08335" lon="1.63185">
        <ele>77.400001525879</ele>
        <time>2021-05-10T13:38:42.000Z</time>
      </trkpt>
      <trkpt lat="49.0834" lon="1.6319">
        <ele>77.800003051758</ele>
        <time>2021-05-10T13:38:45.000Z</time>
      </trkpt>
      <trkpt lat="49.08341" lon="1.63191">
        <ele>78</ele>
        <time>2021-05-10T13:38:47.000Z</time>
      </trkpt>
      <trkpt lat="49.08346" lon="1.63192">
        <ele>78.599998474121</ele>
        <time>2021-05-10T13:38:52.000Z</time>
      </trkpt>
      <trkpt lat="49.08353" lon="1.63194">
        <ele>78.599998474121</ele>
        <time>2021-05-10T13:38:54.000Z</time>
      </trkpt>
      <trkpt lat="49.08377" lon="1.63207">
        <ele>78.599998474121</ele>
        <time>2021-05-10T13:38:58.000Z</time>
      </trkpt>
      <trkpt lat="49.08391" lon="1.63214">
        <ele>78.400001525879</ele>
        <time>2021-05-10T13:39:00.000Z</time>
      </trkpt>
      <trkpt lat="49.08404" lon="1.6322">
        <ele>77.800003051758</ele>
        <time>2021-05-10T13:39:02.000Z</time>
      </trkpt>
      <trkpt lat="49.08415" lon="1.63229">
        <ele>76.400001525879</ele>
        <time>2021-05-10T13:39:04.000Z</time>
      </trkpt>
      <trkpt lat="49.0842" lon="1.63232">
        <ele>75.400001525879</ele>
        <time>2021-05-10T13:39:05.000Z</time>
      </trkpt>
      <trkpt lat="49.08423" lon="1.63234">
        <ele>74</ele>
        <time>2021-05-10T13:39:06.000Z</time>
      </trkpt>
      <trkpt lat="49.08425" lon="1.63235">
        <ele>72.599998474121</ele>
        <time>2021-05-10T13:39:07.000Z</time>
      </trkpt>
      <trkpt lat="49.08427" lon="1.63236">
        <ele>71.599998474121</ele>
        <time>2021-05-10T13:39:08.000Z</time>
      </trkpt>
      <trkpt lat="49.08429" lon="1.63237">
        <ele>70.599998474121</ele>
        <time>2021-05-10T13:39:09.000Z</time>
      </trkpt>
      <trkpt lat="49.08431" lon="1.63238">
        <ele>69.599998474121</ele>
        <time>2021-05-10T13:39:10.000Z</time>
      </trkpt>
      <trkpt lat="49.08435" lon="1.63242">
        <ele>68</ele>
        <time>2021-05-10T13:39:12.000Z</time>
      </trkpt>
      <trkpt lat="49.08438" lon="1.63245">
        <ele>66.800003051758</ele>
        <time>2021-05-10T13:39:14.000Z</time>
      </trkpt>
      <trkpt lat="49.0844" lon="1.63246">
        <ele>66.400001525879</ele>
        <time>2021-05-10T13:39:15.000Z</time>
      </trkpt>
      <trkpt lat="49.0845" lon="1.63252">
        <ele>66.199996948242</ele>
        <time>2021-05-10T13:39:21.000Z</time>
      </trkpt>
      <trkpt lat="49.08452" lon="1.63253">
        <ele>66.199996948242</ele>
        <time>2021-05-10T13:39:22.000Z</time>
      </trkpt>
      <trkpt lat="49.08453" lon="1.63259">
        <ele>66.199996948242</ele>
        <time>2021-05-10T13:39:25.000Z</time>
      </trkpt>
      <trkpt lat="49.0845" lon="1.63269">
        <ele>67.599998474121</ele>
        <time>2021-05-10T13:39:29.000Z</time>
      </trkpt>
      <trkpt lat="49.0845" lon="1.63273">
        <ele>67.800003051758</ele>
        <time>2021-05-10T13:39:30.000Z</time>
      </trkpt>
      <trkpt lat="49.08451" lon="1.63299">
        <ele>68.199996948242</ele>
        <time>2021-05-10T13:39:34.000Z</time>
      </trkpt>
      <trkpt lat="49.08452" lon="1.63305">
        <ele>68.199996948242</ele>
        <time>2021-05-10T13:39:35.000Z</time>
      </trkpt>
      <trkpt lat="49.08456" lon="1.63341">
        <ele>68.199996948242</ele>
        <time>2021-05-10T13:39:41.000Z</time>
      </trkpt>
      <trkpt lat="49.08456" lon="1.63368">
        <ele>68</ele>
        <time>2021-05-10T13:39:46.000Z</time>
      </trkpt>
      <trkpt lat="49.08457" lon="1.63379">
        <ele>68</ele>
        <time>2021-05-10T13:39:48.000Z</time>
      </trkpt>
      <trkpt lat="49.08457" lon="1.63395">
        <ele>68.199996948242</ele>
        <time>2021-05-10T13:39:52.000Z</time>
      </trkpt>
      <trkpt lat="49.08456" lon="1.63402">
        <ele>68.400001525879</ele>
        <time>2021-05-10T13:39:54.000Z</time>
      </trkpt>
      <trkpt lat="49.08454" lon="1.63408">
        <ele>69.199996948242</ele>
        <time>2021-05-10T13:39:56.000Z</time>
      </trkpt>
      <trkpt lat="49.08452" lon="1.63418">
        <ele>70</ele>
        <time>2021-05-10T13:39:59.000Z</time>
      </trkpt>
      <trkpt lat="49.08448" lon="1.63434">
        <ele>71.400001525879</ele>
        <time>2021-05-10T13:40:03.000Z</time>
      </trkpt>
      <trkpt lat="49.08447" lon="1.63439">
        <ele>71.599998474121</ele>
        <time>2021-05-10T13:40:04.000Z</time>
      </trkpt>
      <trkpt lat="49.08439" lon="1.63455">
        <ele>72.400001525879</ele>
        <time>2021-05-10T13:40:08.000Z</time>
      </trkpt>
      <trkpt lat="49.08435" lon="1.63464">
        <ele>72.800003051758</ele>
        <time>2021-05-10T13:40:10.000Z</time>
      </trkpt>
      <trkpt lat="49.08425" lon="1.6348">
        <ele>73.400001525879</ele>
        <time>2021-05-10T13:40:15.000Z</time>
      </trkpt>
      <trkpt lat="49.08423" lon="1.63483">
        <ele>73.599998474121</ele>
        <time>2021-05-10T13:40:16.000Z</time>
      </trkpt>
      <trkpt lat="49.08414" lon="1.63499">
        <ele>74.400001525879</ele>
        <time>2021-05-10T13:40:20.000Z</time>
      </trkpt>
      <trkpt lat="49.08411" lon="1.63508">
        <ele>74.800003051758</ele>
        <time>2021-05-10T13:40:22.000Z</time>
      </trkpt>
      <trkpt lat="49.08408" lon="1.63525">
        <ele>75</ele>
        <time>2021-05-10T13:40:26.000Z</time>
      </trkpt>
      <trkpt lat="49.08411" lon="1.63552">
        <ele>75.199996948242</ele>
        <time>2021-05-10T13:40:33.000Z</time>
      </trkpt>
      <trkpt lat="49.08412" lon="1.63568">
        <ele>75.800003051758</ele>
        <time>2021-05-10T13:40:37.000Z</time>
      </trkpt>
      <trkpt lat="49.08415" lon="1.63582">
        <ele>76.800003051758</ele>
        <time>2021-05-10T13:40:41.000Z</time>
      </trkpt>
      <trkpt lat="49.08421" lon="1.63596">
        <ele>77.800003051758</ele>
        <time>2021-05-10T13:40:47.000Z</time>
      </trkpt>
      <trkpt lat="49.08424" lon="1.63612">
        <ele>79</ele>
        <time>2021-05-10T13:40:52.000Z</time>
      </trkpt>
      <trkpt lat="49.08424" lon="1.63621">
        <ele>80</ele>
        <time>2021-05-10T13:40:54.000Z</time>
      </trkpt>
      <trkpt lat="49.08425" lon="1.63631">
        <ele>80.199996948242</ele>
        <time>2021-05-10T13:40:56.000Z</time>
      </trkpt>
      <trkpt lat="49.08424" lon="1.63643">
        <ele>80.199996948242</ele>
        <time>2021-05-10T13:40:59.000Z</time>
      </trkpt>
      <trkpt lat="49.08427" lon="1.63664">
        <ele>80</ele>
        <time>2021-05-10T13:41:04.000Z</time>
      </trkpt>
      <trkpt lat="49.08429" lon="1.63666">
        <ele>79</ele>
        <time>2021-05-10T13:41:08.000Z</time>
      </trkpt>
      <trkpt lat="49.0843" lon="1.63667">
        <ele>76.400001525879</ele>
        <time>2021-05-10T13:41:16.000Z</time>
      </trkpt>
      <trkpt lat="49.08439" lon="1.6367">
        <ele>76</ele>
        <time>2021-05-10T13:41:20.000Z</time>
      </trkpt>
      <trkpt lat="49.0846" lon="1.6367">
        <ele>75.199996948242</ele>
        <time>2021-05-10T13:41:27.000Z</time>
      </trkpt>
      <trkpt lat="49.08476" lon="1.63679">
        <ele>74.599998474121</ele>
        <time>2021-05-10T13:41:33.000Z</time>
      </trkpt>
      <trkpt lat="49.08484" lon="1.63695">
        <ele>74.599998474121</ele>
        <time>2021-05-10T13:41:38.000Z</time>
      </trkpt>
      <trkpt lat="49.08494" lon="1.63717">
        <ele>74.599998474121</ele>
        <time>2021-05-10T13:41:43.000Z</time>
      </trkpt>
      <trkpt lat="49.08508" lon="1.63738">
        <ele>74.400001525879</ele>
        <time>2021-05-10T13:41:47.000Z</time>
      </trkpt>
      <trkpt lat="49.08511" lon="1.63743">
        <ele>74.400001525879</ele>
        <time>2021-05-10T13:41:48.000Z</time>
      </trkpt>
      <trkpt lat="49.08513" lon="1.63748">
        <ele>74.199996948242</ele>
        <time>2021-05-10T13:41:49.000Z</time>
      </trkpt>
      <trkpt lat="49.08513" lon="1.63754">
        <ele>73.400001525879</ele>
        <time>2021-05-10T13:41:50.000Z</time>
      </trkpt>
      <trkpt lat="49.08513" lon="1.63761">
        <ele>73.199996948242</ele>
        <time>2021-05-10T13:41:51.000Z</time>
      </trkpt>
      <trkpt lat="49.08512" lon="1.63769">
        <ele>73</ele>
        <time>2021-05-10T13:41:52.000Z</time>
      </trkpt>
      <trkpt lat="49.08504" lon="1.63798">
        <ele>71.800003051758</ele>
        <time>2021-05-10T13:41:56.000Z</time>
      </trkpt>
      <trkpt lat="49.08499" lon="1.63823">
        <ele>71.199996948242</ele>
        <time>2021-05-10T13:42:01.000Z</time>
      </trkpt>
      <trkpt lat="49.08496" lon="1.63847">
        <ele>71.199996948242</ele>
        <time>2021-05-10T13:42:07.000Z</time>
      </trkpt>
      <trkpt lat="49.08501" lon="1.63857">
        <ele>72.800003051758</ele>
        <time>2021-05-10T13:42:12.000Z</time>
      </trkpt>
      <trkpt lat="49.08504" lon="1.63862">
        <ele>74</ele>
        <time>2021-05-10T13:42:15.000Z</time>
      </trkpt>
      <trkpt lat="49.08507" lon="1.63866">
        <ele>75.199996948242</ele>
        <time>2021-05-10T13:42:18.000Z</time>
      </trkpt>
      <trkpt lat="49.0851" lon="1.6387">
        <ele>76.400001525879</ele>
        <time>2021-05-10T13:42:21.000Z</time>
      </trkpt>
      <trkpt lat="49.08513" lon="1.63873">
        <ele>77.400001525879</ele>
        <time>2021-05-10T13:42:24.000Z</time>
      </trkpt>
      <trkpt lat="49.08515" lon="1.63875">
        <ele>78</ele>
        <time>2021-05-10T13:42:26.000Z</time>
      </trkpt>
      <trkpt lat="49.08517" lon="1.63877">
        <ele>78.599998474121</ele>
        <time>2021-05-10T13:42:28.000Z</time>
      </trkpt>
      <trkpt lat="49.08522" lon="1.63882">
        <ele>79.800003051758</ele>
        <time>2021-05-10T13:42:33.000Z</time>
      </trkpt>
      <trkpt lat="49.08523" lon="1.63883">
        <ele>80.199996948242</ele>
        <time>2021-05-10T13:42:34.000Z</time>
      </trkpt>
      <trkpt lat="49.08526" lon="1.63887">
        <ele>81</ele>
        <time>2021-05-10T13:42:37.000Z</time>
      </trkpt>
      <trkpt lat="49.0853" lon="1.63894">
        <ele>82.199996948242</ele>
        <time>2021-05-10T13:42:41.000Z</time>
      </trkpt>
      <trkpt lat="49.08534" lon="1.63902">
        <ele>83.400001525879</ele>
        <time>2021-05-10T13:42:45.000Z</time>
      </trkpt>
      <trkpt lat="49.0854" lon="1.63912">
        <ele>84</ele>
        <time>2021-05-10T13:42:49.000Z</time>
      </trkpt>
      <trkpt lat="49.08546" lon="1.63926">
        <ele>84.400001525879</ele>
        <time>2021-05-10T13:42:56.000Z</time>
      </trkpt>
      <trkpt lat="49.08545" lon="1.63942">
        <ele>85.199996948242</ele>
        <time>2021-05-10T13:43:01.000Z</time>
      </trkpt>
      <trkpt lat="49.08543" lon="1.63948">
        <ele>85.400001525879</ele>
        <time>2021-05-10T13:43:03.000Z</time>
      </trkpt>
      <trkpt lat="49.08541" lon="1.63959">
        <ele>85.800003051758</ele>
        <time>2021-05-10T13:43:08.000Z</time>
      </trkpt>
      <trkpt lat="49.08538" lon="1.63969">
        <ele>86.400001525879</ele>
        <time>2021-05-10T13:43:15.000Z</time>
      </trkpt>
      <trkpt lat="49.08537" lon="1.6397">
        <ele>86.800003051758</ele>
        <time>2021-05-10T13:43:16.000Z</time>
      </trkpt>
      <trkpt lat="49.08535" lon="1.63984">
        <ele>87.400001525879</ele>
        <time>2021-05-10T13:43:23.000Z</time>
      </trkpt>
      <trkpt lat="49.08535" lon="1.63987">
        <ele>87.400001525879</ele>
        <time>2021-05-10T13:43:26.000Z</time>
      </trkpt>
      <trkpt lat="49.08533" lon="1.63992">
        <ele>89.400001525879</ele>
        <time>2021-05-10T13:43:43.000Z</time>
      </trkpt>
      <trkpt lat="49.08532" lon="1.63995">
        <ele>89.199996948242</ele>
        <time>2021-05-10T13:43:45.000Z</time>
      </trkpt>
      <trkpt lat="49.08528" lon="1.64008">
        <ele>89.400001525879</ele>
        <time>2021-05-10T13:43:52.000Z</time>
      </trkpt>
      <trkpt lat="49.08525" lon="1.64015">
        <ele>90.400001525879</ele>
        <time>2021-05-10T13:43:55.000Z</time>
      </trkpt>
      <trkpt lat="49.08523" lon="1.64018">
        <ele>91</ele>
        <time>2021-05-10T13:43:57.000Z</time>
      </trkpt>
      <trkpt lat="49.08522" lon="1.6402">
        <ele>91.400001525879</ele>
        <time>2021-05-10T13:43:58.000Z</time>
      </trkpt>
      <trkpt lat="49.08519" lon="1.64026">
        <ele>92.599998474121</ele>
        <time>2021-05-10T13:44:01.000Z</time>
      </trkpt>
      <trkpt lat="49.08518" lon="1.64028">
        <ele>92.800003051758</ele>
        <time>2021-05-10T13:44:02.000Z</time>
      </trkpt>
      <trkpt lat="49.08516" lon="1.64032">
        <ele>93.800003051758</ele>
        <time>2021-05-10T13:44:04.000Z</time>
      </trkpt>
      <trkpt lat="49.08514" lon="1.64039">
        <ele>95</ele>
        <time>2021-05-10T13:44:07.000Z</time>
      </trkpt>
      <trkpt lat="49.08516" lon="1.64044">
        <ele>95.800003051758</ele>
        <time>2021-05-10T13:44:09.000Z</time>
      </trkpt>
      <trkpt lat="49.08517" lon="1.64046">
        <ele>96.400001525879</ele>
        <time>2021-05-10T13:44:11.000Z</time>
      </trkpt>
      <trkpt lat="49.08518" lon="1.64047">
        <ele>97</ele>
        <time>2021-05-10T13:44:13.000Z</time>
      </trkpt>
      <trkpt lat="49.08516" lon="1.64046">
        <ele>97.800003051758</ele>
        <time>2021-05-10T13:46:08.000Z</time>
      </trkpt>
      <trkpt lat="49.08517" lon="1.64047">
        <ele>97.800003051758</ele>
        <time>2021-05-10T13:46:09.000Z</time>
      </trkpt>
      <trkpt lat="49.08519" lon="1.64048">
        <ele>97.800003051758</ele>
        <time>2021-05-10T13:46:11.000Z</time>
      </trkpt>
      <trkpt lat="49.08521" lon="1.64045">
        <ele>97.800003051758</ele>
        <time>2021-05-10T13:46:13.000Z</time>
      </trkpt>
      <trkpt lat="49.08522" lon="1.64045">
        <ele>98</ele>
        <time>2021-05-10T13:46:16.000Z</time>
      </trkpt>
      <trkpt lat="49.08523" lon="1.64043">
        <ele>101</ele>
        <time>2021-05-10T13:47:05.000Z</time>
      </trkpt>
      <trkpt lat="49.08527" lon="1.64043">
        <ele>101</ele>
        <time>2021-05-10T13:47:08.000Z</time>
      </trkpt>
      <trkpt lat="49.08529" lon="1.64045">
        <ele>101.19999694824</ele>
        <time>2021-05-10T13:47:11.000Z</time>
      </trkpt>
      <trkpt lat="49.08536" lon="1.64045">
        <ele>101.59999847412</ele>
        <time>2021-05-10T13:47:16.000Z</time>
      </trkpt>
      <trkpt lat="49.08538" lon="1.64043">
        <ele>102.19999694824</ele>
        <time>2021-05-10T13:47:18.000Z</time>
      </trkpt>
      <trkpt lat="49.08543" lon="1.6404">
        <ele>103.40000152588</ele>
        <time>2021-05-10T13:47:22.000Z</time>
      </trkpt>
      <trkpt lat="49.08547" lon="1.64041">
        <ele>104.80000305176</ele>
        <time>2021-05-10T13:47:25.000Z</time>
      </trkpt>
      <trkpt lat="49.08548" lon="1.64042">
        <ele>105.40000152588</ele>
        <time>2021-05-10T13:47:27.000Z</time>
      </trkpt>
      <trkpt lat="49.08548" lon="1.64043">
        <ele>109</ele>
        <time>2021-05-10T13:47:50.000Z</time>
      </trkpt>
      <trkpt lat="49.08548" lon="1.64044">
        <ele>109.40000152588</ele>
        <time>2021-05-10T13:47:54.000Z</time>
      </trkpt>
      <trkpt lat="49.08546" lon="1.64044">
        <ele>109.59999847412</ele>
        <time>2021-05-10T13:48:03.000Z</time>
      </trkpt>
      <trkpt lat="49.08545" lon="1.64044">
        <ele>109.59999847412</ele>
        <time>2021-05-10T13:48:06.000Z</time>
      </trkpt>
      <trkpt lat="49.08546" lon="1.64045">
        <ele>110.40000152588</ele>
        <time>2021-05-10T13:51:25.000Z</time>
      </trkpt>
      <trkpt lat="49.08547" lon="1.64047">
        <ele>110.40000152588</ele>
        <time>2021-05-10T13:51:26.000Z</time>
      </trkpt>
      <trkpt lat="49.08551" lon="1.64056">
        <ele>110.59999847412</ele>
        <time>2021-05-10T13:51:32.000Z</time>
      </trkpt>
      <trkpt lat="49.08556" lon="1.6406">
        <ele>110.59999847412</ele>
        <time>2021-05-10T13:51:38.000Z</time>
      </trkpt>
      <trkpt lat="49.08558" lon="1.64061">
        <ele>110.80000305176</ele>
        <time>2021-05-10T13:51:40.000Z</time>
      </trkpt>
      <trkpt lat="49.08563" lon="1.64063">
        <ele>111</ele>
        <time>2021-05-10T13:51:44.000Z</time>
      </trkpt>
      <trkpt lat="49.08565" lon="1.64062">
        <ele>111.40000152588</ele>
        <time>2021-05-10T13:51:46.000Z</time>
      </trkpt>
      <trkpt lat="49.08567" lon="1.64061">
        <ele>111.59999847412</ele>
        <time>2021-05-10T13:51:47.000Z</time>
      </trkpt>
      <trkpt lat="49.08571" lon="1.64059">
        <ele>112.40000152588</ele>
        <time>2021-05-10T13:51:50.000Z</time>
      </trkpt>
      <trkpt lat="49.08573" lon="1.6406">
        <ele>112.80000305176</ele>
        <time>2021-05-10T13:51:52.000Z</time>
      </trkpt>
      <trkpt lat="49.08576" lon="1.64062">
        <ele>113.19999694824</ele>
        <time>2021-05-10T13:51:54.000Z</time>
      </trkpt>
      <trkpt lat="49.08579" lon="1.64065">
        <ele>113.59999847412</ele>
        <time>2021-05-10T13:51:56.000Z</time>
      </trkpt>
      <trkpt lat="49.0858" lon="1.64066">
        <ele>114</ele>
        <time>2021-05-10T13:51:57.000Z</time>
      </trkpt>
      <trkpt lat="49.08585" lon="1.64067">
        <ele>115</ele>
        <time>2021-05-10T13:52:00.000Z</time>
      </trkpt>
      <trkpt lat="49.0859" lon="1.64068">
        <ele>116</ele>
        <time>2021-05-10T13:52:03.000Z</time>
      </trkpt>
      <trkpt lat="49.08594" lon="1.6407">
        <ele>116.19999694824</ele>
        <time>2021-05-10T13:52:06.000Z</time>
      </trkpt>
      <trkpt lat="49.08599" lon="1.64075">
        <ele>116.59999847412</ele>
        <time>2021-05-10T13:52:10.000Z</time>
      </trkpt>
      <trkpt lat="49.0861" lon="1.64085">
        <ele>117.40000152588</ele>
        <time>2021-05-10T13:52:17.000Z</time>
      </trkpt>
      <trkpt lat="49.08612" lon="1.64086">
        <ele>117.40000152588</ele>
        <time>2021-05-10T13:52:18.000Z</time>
      </trkpt>
      <trkpt lat="49.08615" lon="1.64088">
        <ele>117.40000152588</ele>
        <time>2021-05-10T13:52:20.000Z</time>
      </trkpt>
      <trkpt lat="49.08619" lon="1.64092">
        <ele>117.59999847412</ele>
        <time>2021-05-10T13:52:23.000Z</time>
      </trkpt>
      <trkpt lat="49.08621" lon="1.64093">
        <ele>117.59999847412</ele>
        <time>2021-05-10T13:52:24.000Z</time>
      </trkpt>
      <trkpt lat="49.08628" lon="1.64094">
        <ele>117.80000305176</ele>
        <time>2021-05-10T13:52:29.000Z</time>
      </trkpt>
      <trkpt lat="49.08633" lon="1.64093">
        <ele>118.19999694824</ele>
        <time>2021-05-10T13:52:35.000Z</time>
      </trkpt>
      <trkpt lat="49.08634" lon="1.64093">
        <ele>118.19999694824</ele>
        <time>2021-05-10T13:52:37.000Z</time>
      </trkpt>
      <trkpt lat="49.08638" lon="1.64087">
        <ele>118.19999694824</ele>
        <time>2021-05-10T13:52:40.000Z</time>
      </trkpt>
      <trkpt lat="49.08639" lon="1.64074">
        <ele>118.19999694824</ele>
        <time>2021-05-10T13:52:43.000Z</time>
      </trkpt>
      <trkpt lat="49.08638" lon="1.6407">
        <ele>118.19999694824</ele>
        <time>2021-05-10T13:52:44.000Z</time>
      </trkpt>
      <trkpt lat="49.08637" lon="1.64049">
        <ele>118.19999694824</ele>
        <time>2021-05-10T13:52:50.000Z</time>
      </trkpt>
      <trkpt lat="49.08637" lon="1.64045">
        <ele>118.19999694824</ele>
        <time>2021-05-10T13:52:51.000Z</time>
      </trkpt>
      <trkpt lat="49.08635" lon="1.64015">
        <ele>118</ele>
        <time>2021-05-10T13:52:58.000Z</time>
      </trkpt>
      <trkpt lat="49.08634" lon="1.63977">
        <ele>118.19999694824</ele>
        <time>2021-05-10T13:53:07.000Z</time>
      </trkpt>
      <trkpt lat="49.08633" lon="1.63941">
        <ele>118.19999694824</ele>
        <time>2021-05-10T13:53:15.000Z</time>
      </trkpt>
      <trkpt lat="49.08632" lon="1.63906">
        <ele>117.80000305176</ele>
        <time>2021-05-10T13:53:23.000Z</time>
      </trkpt>
      <trkpt lat="49.08631" lon="1.63873">
        <ele>117.80000305176</ele>
        <time>2021-05-10T13:53:29.000Z</time>
      </trkpt>
      <trkpt lat="49.08628" lon="1.63834">
        <ele>117.59999847412</ele>
        <time>2021-05-10T13:53:35.000Z</time>
      </trkpt>
      <trkpt lat="49.08627" lon="1.63777">
        <ele>117.40000152588</ele>
        <time>2021-05-10T13:53:44.000Z</time>
      </trkpt>
      <trkpt lat="49.08627" lon="1.6377">
        <ele>117.40000152588</ele>
        <time>2021-05-10T13:53:45.000Z</time>
      </trkpt>
      <trkpt lat="49.08624" lon="1.63734">
        <ele>117.19999694824</ele>
        <time>2021-05-10T13:53:50.000Z</time>
      </trkpt>
      <trkpt lat="49.08623" lon="1.63726">
        <ele>117.19999694824</ele>
        <time>2021-05-10T13:53:51.000Z</time>
      </trkpt>
      <trkpt lat="49.08621" lon="1.63695">
        <ele>117</ele>
        <time>2021-05-10T13:53:55.000Z</time>
      </trkpt>
      <trkpt lat="49.0862" lon="1.63656">
        <ele>116.19999694824</ele>
        <time>2021-05-10T13:54:00.000Z</time>
      </trkpt>
      <trkpt lat="49.08619" lon="1.63639">
        <ele>115.80000305176</ele>
        <time>2021-05-10T13:54:02.000Z</time>
      </trkpt>
      <trkpt lat="49.08615" lon="1.63603">
        <ele>115</ele>
        <time>2021-05-10T13:54:06.000Z</time>
      </trkpt>
      <trkpt lat="49.08615" lon="1.63594">
        <ele>114.80000305176</ele>
        <time>2021-05-10T13:54:07.000Z</time>
      </trkpt>
      <trkpt lat="49.0861" lon="1.63534">
        <ele>113.80000305176</ele>
        <time>2021-05-10T13:54:13.000Z</time>
      </trkpt>
      <trkpt lat="49.08607" lon="1.63501">
        <ele>112.80000305176</ele>
        <time>2021-05-10T13:54:16.000Z</time>
      </trkpt>
      <trkpt lat="49.08605" lon="1.63492">
        <ele>112.40000152588</ele>
        <time>2021-05-10T13:54:17.000Z</time>
      </trkpt>
      <trkpt lat="49.08603" lon="1.63475">
        <ele>111.59999847412</ele>
        <time>2021-05-10T13:54:19.000Z</time>
      </trkpt>
      <trkpt lat="49.08601" lon="1.63464">
        <ele>110.80000305176</ele>
        <time>2021-05-10T13:54:21.000Z</time>
      </trkpt>
      <trkpt lat="49.08601" lon="1.6346">
        <ele>110.40000152588</ele>
        <time>2021-05-10T13:54:22.000Z</time>
      </trkpt>
      <trkpt lat="49.086" lon="1.63454">
        <ele>109.19999694824</ele>
        <time>2021-05-10T13:54:25.000Z</time>
      </trkpt>
      <trkpt lat="49.086" lon="1.63453">
        <ele>108.80000305176</ele>
        <time>2021-05-10T13:54:27.000Z</time>
      </trkpt>
      <trkpt lat="49.086" lon="1.6345">
        <ele>106.40000152588</ele>
        <time>2021-05-10T13:55:10.000Z</time>
      </trkpt>
      <trkpt lat="49.08598" lon="1.63444">
        <ele>106.40000152588</ele>
        <time>2021-05-10T13:55:12.000Z</time>
      </trkpt>
      <trkpt lat="49.08595" lon="1.63436">
        <ele>106.19999694824</ele>
        <time>2021-05-10T13:55:14.000Z</time>
      </trkpt>
      <trkpt lat="49.08592" lon="1.63425">
        <ele>106</ele>
        <time>2021-05-10T13:55:16.000Z</time>
      </trkpt>
      <trkpt lat="49.08584" lon="1.63386">
        <ele>106</ele>
        <time>2021-05-10T13:55:21.000Z</time>
      </trkpt>
      <trkpt lat="49.08583" lon="1.63378">
        <ele>105.80000305176</ele>
        <time>2021-05-10T13:55:22.000Z</time>
      </trkpt>
      <trkpt lat="49.0858" lon="1.63354">
        <ele>105.19999694824</ele>
        <time>2021-05-10T13:55:25.000Z</time>
      </trkpt>
      <trkpt lat="49.08579" lon="1.63346">
        <ele>105</ele>
        <time>2021-05-10T13:55:26.000Z</time>
      </trkpt>
      <trkpt lat="49.08575" lon="1.63315">
        <ele>104.40000152588</ele>
        <time>2021-05-10T13:55:31.000Z</time>
      </trkpt>
      <trkpt lat="49.08573" lon="1.63288">
        <ele>104.40000152588</ele>
        <time>2021-05-10T13:55:36.000Z</time>
      </trkpt>
      <trkpt lat="49.08567" lon="1.63243">
        <ele>106</ele>
        <time>2021-05-10T13:55:44.000Z</time>
      </trkpt>
      <trkpt lat="49.08565" lon="1.63222">
        <ele>106.40000152588</ele>
        <time>2021-05-10T13:55:48.000Z</time>
      </trkpt>
      <trkpt lat="49.08562" lon="1.63201">
        <ele>107.19999694824</ele>
        <time>2021-05-10T13:55:52.000Z</time>
      </trkpt>
      <trkpt lat="49.08561" lon="1.63196">
        <ele>107.40000152588</ele>
        <time>2021-05-10T13:55:53.000Z</time>
      </trkpt>
      <trkpt lat="49.08557" lon="1.63173">
        <ele>108.80000305176</ele>
        <time>2021-05-10T13:55:58.000Z</time>
      </trkpt>
      <trkpt lat="49.08555" lon="1.63164">
        <ele>109</ele>
        <time>2021-05-10T13:56:00.000Z</time>
      </trkpt>
      <trkpt lat="49.08552" lon="1.6315">
        <ele>109.80000305176</ele>
        <time>2021-05-10T13:56:03.000Z</time>
      </trkpt>
      <trkpt lat="49.08549" lon="1.63138">
        <ele>110.80000305176</ele>
        <time>2021-05-10T13:56:06.000Z</time>
      </trkpt>
      <trkpt lat="49.08543" lon="1.63123">
        <ele>112</ele>
        <time>2021-05-10T13:56:10.000Z</time>
      </trkpt>
      <trkpt lat="49.08537" lon="1.63108">
        <ele>113.19999694824</ele>
        <time>2021-05-10T13:56:14.000Z</time>
      </trkpt>
      <trkpt lat="49.08528" lon="1.6309">
        <ele>114.59999847412</ele>
        <time>2021-05-10T13:56:19.000Z</time>
      </trkpt>
      <trkpt lat="49.08519" lon="1.63074">
        <ele>115.59999847412</ele>
        <time>2021-05-10T13:56:24.000Z</time>
      </trkpt>
      <trkpt lat="49.08508" lon="1.63051">
        <ele>116.59999847412</ele>
        <time>2021-05-10T13:56:31.000Z</time>
      </trkpt>
      <trkpt lat="49.08502" lon="1.63042">
        <ele>116.59999847412</ele>
        <time>2021-05-10T13:56:34.000Z</time>
      </trkpt>
      <trkpt lat="49.08496" lon="1.63032">
        <ele>117</ele>
        <time>2021-05-10T13:56:37.000Z</time>
      </trkpt>
      <trkpt lat="49.08476" lon="1.62995">
        <ele>117.19999694824</ele>
        <time>2021-05-10T13:56:47.000Z</time>
      </trkpt>
      <trkpt lat="49.08454" lon="1.62953">
        <ele>117.40000152588</ele>
        <time>2021-05-10T13:56:57.000Z</time>
      </trkpt>
      <trkpt lat="49.08443" lon="1.62933">
        <ele>117.80000305176</ele>
        <time>2021-05-10T13:57:02.000Z</time>
      </trkpt>
      <trkpt lat="49.08435" lon="1.62917">
        <ele>118</ele>
        <time>2021-05-10T13:57:06.000Z</time>
      </trkpt>
      <trkpt lat="49.08419" lon="1.62885">
        <ele>118.59999847412</ele>
        <time>2021-05-10T13:57:13.000Z</time>
      </trkpt>
      <trkpt lat="49.08404" lon="1.62846">
        <ele>118.80000305176</ele>
        <time>2021-05-10T13:57:21.000Z</time>
      </trkpt>
      <trkpt lat="49.08388" lon="1.62795">
        <ele>118.40000152588</ele>
        <time>2021-05-10T13:57:29.000Z</time>
      </trkpt>
      <trkpt lat="49.0837" lon="1.62737">
        <ele>117.59999847412</ele>
        <time>2021-05-10T13:57:37.000Z</time>
      </trkpt>
      <trkpt lat="49.08355" lon="1.6269">
        <ele>116.80000305176</ele>
        <time>2021-05-10T13:57:43.000Z</time>
      </trkpt>
      <trkpt lat="49.08349" lon="1.62664">
        <ele>116.40000152588</ele>
        <time>2021-05-10T13:57:46.000Z</time>
      </trkpt>
      <trkpt lat="49.08345" lon="1.62646">
        <ele>115.80000305176</ele>
        <time>2021-05-10T13:57:48.000Z</time>
      </trkpt>
      <trkpt lat="49.08335" lon="1.6259">
        <ele>115.19999694824</ele>
        <time>2021-05-10T13:57:54.000Z</time>
      </trkpt>
      <trkpt lat="49.08332" lon="1.62572">
        <ele>115</ele>
        <time>2021-05-10T13:57:56.000Z</time>
      </trkpt>
      <trkpt lat="49.0833" lon="1.62564">
        <ele>114.80000305176</ele>
        <time>2021-05-10T13:57:57.000Z</time>
      </trkpt>
      <trkpt lat="49.08326" lon="1.62537">
        <ele>114</ele>
        <time>2021-05-10T13:58:00.000Z</time>
      </trkpt>
      <trkpt lat="49.08324" lon="1.62528">
        <ele>113.80000305176</ele>
        <time>2021-05-10T13:58:01.000Z</time>
      </trkpt>
      <trkpt lat="49.08315" lon="1.6247">
        <ele>113.40000152588</ele>
        <time>2021-05-10T13:58:08.000Z</time>
      </trkpt>
      <trkpt lat="49.08302" lon="1.62399">
        <ele>113.40000152588</ele>
        <time>2021-05-10T13:58:16.000Z</time>
      </trkpt>
      <trkpt lat="49.08284" lon="1.62327">
        <ele>113.19999694824</ele>
        <time>2021-05-10T13:58:24.000Z</time>
      </trkpt>
      <trkpt lat="49.08281" lon="1.62319">
        <ele>112.80000305176</ele>
        <time>2021-05-10T13:58:25.000Z</time>
      </trkpt>
      <trkpt lat="49.08258" lon="1.62271">
        <ele>112.19999694824</ele>
        <time>2021-05-10T13:58:31.000Z</time>
      </trkpt>
      <trkpt lat="49.0824" lon="1.62237">
        <ele>111.59999847412</ele>
        <time>2021-05-10T13:58:35.000Z</time>
      </trkpt>
      <trkpt lat="49.08218" lon="1.62192">
        <ele>111</ele>
        <time>2021-05-10T13:58:40.000Z</time>
      </trkpt>
      <trkpt lat="49.08209" lon="1.62174">
        <ele>110.59999847412</ele>
        <time>2021-05-10T13:58:42.000Z</time>
      </trkpt>
      <trkpt lat="49.08179" lon="1.62113">
        <ele>109.59999847412</ele>
        <time>2021-05-10T13:58:49.000Z</time>
      </trkpt>
      <trkpt lat="49.08175" lon="1.62104">
        <ele>109.19999694824</ele>
        <time>2021-05-10T13:58:50.000Z</time>
      </trkpt>
      <trkpt lat="49.08159" lon="1.62073">
        <ele>108.40000152588</ele>
        <time>2021-05-10T13:58:54.000Z</time>
      </trkpt>
      <trkpt lat="49.08148" lon="1.62052">
        <ele>108.40000152588</ele>
        <time>2021-05-10T13:58:57.000Z</time>
      </trkpt>
      <trkpt lat="49.08121" lon="1.62004">
        <ele>108.19999694824</ele>
        <time>2021-05-10T13:59:04.000Z</time>
      </trkpt>
      <trkpt lat="49.08094" lon="1.61965">
        <ele>108</ele>
        <time>2021-05-10T13:59:09.000Z</time>
      </trkpt>
      <trkpt lat="49.08066" lon="1.61929">
        <ele>107.19999694824</ele>
        <time>2021-05-10T13:59:13.000Z</time>
      </trkpt>
      <trkpt lat="49.08059" lon="1.61919">
        <ele>106.59999847412</ele>
        <time>2021-05-10T13:59:14.000Z</time>
      </trkpt>
      <trkpt lat="49.08051" lon="1.61909">
        <ele>105.80000305176</ele>
        <time>2021-05-10T13:59:15.000Z</time>
      </trkpt>
      <trkpt lat="49.08035" lon="1.61887">
        <ele>104</ele>
        <time>2021-05-10T13:59:17.000Z</time>
      </trkpt>
      <trkpt lat="49.08019" lon="1.61864">
        <ele>102.59999847412</ele>
        <time>2021-05-10T13:59:19.000Z</time>
      </trkpt>
      <trkpt lat="49.0801" lon="1.61852">
        <ele>102.19999694824</ele>
        <time>2021-05-10T13:59:20.000Z</time>
      </trkpt>
      <trkpt lat="49.08002" lon="1.6184">
        <ele>101.40000152588</ele>
        <time>2021-05-10T13:59:21.000Z</time>
      </trkpt>
      <trkpt lat="49.07983" lon="1.61815">
        <ele>99.400001525879</ele>
        <time>2021-05-10T13:59:23.000Z</time>
      </trkpt>
      <trkpt lat="49.07973" lon="1.61801">
        <ele>98.400001525879</ele>
        <time>2021-05-10T13:59:24.000Z</time>
      </trkpt>
      <trkpt lat="49.07964" lon="1.61787">
        <ele>97.199996948242</ele>
        <time>2021-05-10T13:59:25.000Z</time>
      </trkpt>
      <trkpt lat="49.07955" lon="1.61773">
        <ele>96.199996948242</ele>
        <time>2021-05-10T13:59:26.000Z</time>
      </trkpt>
      <trkpt lat="49.07947" lon="1.61757">
        <ele>95.199996948242</ele>
        <time>2021-05-10T13:59:27.000Z</time>
      </trkpt>
      <trkpt lat="49.0793" lon="1.61726">
        <ele>92.199996948242</ele>
        <time>2021-05-10T13:59:29.000Z</time>
      </trkpt>
      <trkpt lat="49.07921" lon="1.61711">
        <ele>91</ele>
        <time>2021-05-10T13:59:30.000Z</time>
      </trkpt>
      <trkpt lat="49.07913" lon="1.61696">
        <ele>89.599998474121</ele>
        <time>2021-05-10T13:59:31.000Z</time>
      </trkpt>
      <trkpt lat="49.07904" lon="1.61682">
        <ele>88.400001525879</ele>
        <time>2021-05-10T13:59:32.000Z</time>
      </trkpt>
      <trkpt lat="49.07896" lon="1.61668">
        <ele>87.400001525879</ele>
        <time>2021-05-10T13:59:33.000Z</time>
      </trkpt>
      <trkpt lat="49.07879" lon="1.61641">
        <ele>85.599998474121</ele>
        <time>2021-05-10T13:59:35.000Z</time>
      </trkpt>
      <trkpt lat="49.07871" lon="1.61627">
        <ele>84.400001525879</ele>
        <time>2021-05-10T13:59:36.000Z</time>
      </trkpt>
      <trkpt lat="49.07864" lon="1.61614">
        <ele>83.400001525879</ele>
        <time>2021-05-10T13:59:37.000Z</time>
      </trkpt>
      <trkpt lat="49.07849" lon="1.61591">
        <ele>81.800003051758</ele>
        <time>2021-05-10T13:59:39.000Z</time>
      </trkpt>
      <trkpt lat="49.07835" lon="1.61569">
        <ele>81.400001525879</ele>
        <time>2021-05-10T13:59:41.000Z</time>
      </trkpt>
      <trkpt lat="49.07804" lon="1.61521">
        <ele>80.599998474121</ele>
        <time>2021-05-10T13:59:46.000Z</time>
      </trkpt>
      <trkpt lat="49.07784" lon="1.61485">
        <ele>79.400001525879</ele>
        <time>2021-05-10T13:59:50.000Z</time>
      </trkpt>
      <trkpt lat="49.07777" lon="1.61471">
        <ele>78.800003051758</ele>
        <time>2021-05-10T13:59:52.000Z</time>
      </trkpt>
      <trkpt lat="49.07768" lon="1.61454">
        <ele>78.599998474121</ele>
        <time>2021-05-10T13:59:56.000Z</time>
      </trkpt>
      <trkpt lat="49.07765" lon="1.61447">
        <ele>78.400001525879</ele>
        <time>2021-05-10T13:59:58.000Z</time>
      </trkpt>
      <trkpt lat="49.0776" lon="1.6144">
        <ele>78.400001525879</ele>
        <time>2021-05-10T14:00:01.000Z</time>
      </trkpt>
      <trkpt lat="49.07753" lon="1.61433">
        <ele>78.400001525879</ele>
        <time>2021-05-10T14:00:06.000Z</time>
      </trkpt>
      <trkpt lat="49.07752" lon="1.61431">
        <ele>78.400001525879</ele>
        <time>2021-05-10T14:00:07.000Z</time>
      </trkpt>
      <trkpt lat="49.07752" lon="1.61428">
        <ele>78.400001525879</ele>
        <time>2021-05-10T14:00:08.000Z</time>
      </trkpt>
      <trkpt lat="49.07753" lon="1.61423">
        <ele>78.599998474121</ele>
        <time>2021-05-10T14:00:10.000Z</time>
      </trkpt>
      <trkpt lat="49.07749" lon="1.61414">
        <ele>78.599998474121</ele>
        <time>2021-05-10T14:00:13.000Z</time>
      </trkpt>
      <trkpt lat="49.07741" lon="1.61401">
        <ele>79</ele>
        <time>2021-05-10T14:00:17.000Z</time>
      </trkpt>
      <trkpt lat="49.07738" lon="1.61397">
        <ele>79</ele>
        <time>2021-05-10T14:00:18.000Z</time>
      </trkpt>
      <trkpt lat="49.07724" lon="1.61375">
        <ele>79.400001525879</ele>
        <time>2021-05-10T14:00:23.000Z</time>
      </trkpt>
      <trkpt lat="49.07719" lon="1.61367">
        <ele>79.599998474121</ele>
        <time>2021-05-10T14:00:25.000Z</time>
      </trkpt>
      <trkpt lat="49.07703" lon="1.61338">
        <ele>80.199996948242</ele>
        <time>2021-05-10T14:00:32.000Z</time>
      </trkpt>
      <trkpt lat="49.07683" lon="1.61306">
        <ele>80.199996948242</ele>
        <time>2021-05-10T14:00:40.000Z</time>
      </trkpt>
      <trkpt lat="49.07664" lon="1.61287">
        <ele>80</ele>
        <time>2021-05-10T14:00:46.000Z</time>
      </trkpt>
      <trkpt lat="49.07645" lon="1.61261">
        <ele>79.400001525879</ele>
        <time>2021-05-10T14:00:52.000Z</time>
      </trkpt>
      <trkpt lat="49.07622" lon="1.6123">
        <ele>79.199996948242</ele>
        <time>2021-05-10T14:00:58.000Z</time>
      </trkpt>
      <trkpt lat="49.07618" lon="1.61226">
        <ele>79.199996948242</ele>
        <time>2021-05-10T14:00:59.000Z</time>
      </trkpt>
      <trkpt lat="49.07605" lon="1.61216">
        <ele>79</ele>
        <time>2021-05-10T14:01:02.000Z</time>
      </trkpt>
      <trkpt lat="49.07594" lon="1.61209">
        <ele>79</ele>
        <time>2021-05-10T14:01:05.000Z</time>
      </trkpt>
      <trkpt lat="49.07585" lon="1.61206">
        <ele>79.199996948242</ele>
        <time>2021-05-10T14:01:09.000Z</time>
      </trkpt>
      <trkpt lat="49.07573" lon="1.61216">
        <ele>80.199996948242</ele>
        <time>2021-05-10T14:01:15.000Z</time>
      </trkpt>
      <trkpt lat="49.07565" lon="1.61218">
        <ele>80.400001525879</ele>
        <time>2021-05-10T14:01:19.000Z</time>
      </trkpt>
      <trkpt lat="49.07564" lon="1.61216">
        <ele>80.400001525879</ele>
        <time>2021-05-10T14:01:20.000Z</time>
      </trkpt>
      <trkpt lat="49.07566" lon="1.61199">
        <ele>80.599998474121</ele>
        <time>2021-05-10T14:01:25.000Z</time>
      </trkpt>
      <trkpt lat="49.07569" lon="1.61167">
        <ele>80.800003051758</ele>
        <time>2021-05-10T14:01:31.000Z</time>
      </trkpt>
      <trkpt lat="49.07568" lon="1.61146">
        <ele>80.599998474121</ele>
        <time>2021-05-10T14:01:35.000Z</time>
      </trkpt>
      <trkpt lat="49.07557" lon="1.6112">
        <ele>80.599998474121</ele>
        <time>2021-05-10T14:01:40.000Z</time>
      </trkpt>
      <trkpt lat="49.07554" lon="1.61115">
        <ele>80.400001525879</ele>
        <time>2021-05-10T14:01:41.000Z</time>
      </trkpt>
      <trkpt lat="49.07538" lon="1.61092">
        <ele>80.199996948242</ele>
        <time>2021-05-10T14:01:47.000Z</time>
      </trkpt>
      <trkpt lat="49.07525" lon="1.6107">
        <ele>80</ele>
        <time>2021-05-10T14:01:52.000Z</time>
      </trkpt>
      <trkpt lat="49.07521" lon="1.61068">
        <ele>80</ele>
        <time>2021-05-10T14:01:53.000Z</time>
      </trkpt>
      <trkpt lat="49.07512" lon="1.61061">
        <ele>79.800003051758</ele>
        <time>2021-05-10T14:01:55.000Z</time>
      </trkpt>
      <trkpt lat="49.07508" lon="1.61057">
        <ele>79.800003051758</ele>
        <time>2021-05-10T14:01:56.000Z</time>
      </trkpt>
      <trkpt lat="49.07501" lon="1.61049">
        <ele>79.599998474121</ele>
        <time>2021-05-10T14:01:58.000Z</time>
      </trkpt>
      <trkpt lat="49.07474" lon="1.61028">
        <ele>79.599998474121</ele>
        <time>2021-05-10T14:02:05.000Z</time>
      </trkpt>
      <trkpt lat="49.07464" lon="1.61018">
        <ele>79.599998474121</ele>
        <time>2021-05-10T14:02:08.000Z</time>
      </trkpt>
      <trkpt lat="49.07458" lon="1.61009">
        <ele>79.599998474121</ele>
        <time>2021-05-10T14:02:10.000Z</time>
      </trkpt>
      <trkpt lat="49.07438" lon="1.60969">
        <ele>79.599998474121</ele>
        <time>2021-05-10T14:02:17.000Z</time>
      </trkpt>
      <trkpt lat="49.07422" lon="1.60934">
        <ele>79.599998474121</ele>
        <time>2021-05-10T14:02:23.000Z</time>
      </trkpt>
      <trkpt lat="49.07399" lon="1.60893">
        <ele>78.800003051758</ele>
        <time>2021-05-10T14:02:31.000Z</time>
      </trkpt>
      <trkpt lat="49.07371" lon="1.60862">
        <ele>78</ele>
        <time>2021-05-10T14:02:39.000Z</time>
      </trkpt>
      <trkpt lat="49.07349" lon="1.60835">
        <ele>78</ele>
        <time>2021-05-10T14:02:46.000Z</time>
      </trkpt>
      <trkpt lat="49.0733" lon="1.60816">
        <ele>78.800003051758</ele>
        <time>2021-05-10T14:02:52.000Z</time>
      </trkpt>
      <trkpt lat="49.07309" lon="1.608">
        <ele>79.400001525879</ele>
        <time>2021-05-10T14:02:59.000Z</time>
      </trkpt>
      <trkpt lat="49.07299" lon="1.60788">
        <ele>80</ele>
        <time>2021-05-10T14:03:03.000Z</time>
      </trkpt>
      <trkpt lat="49.07294" lon="1.60782">
        <ele>80.599998474121</ele>
        <time>2021-05-10T14:03:05.000Z</time>
      </trkpt>
      <trkpt lat="49.07284" lon="1.6077">
        <ele>81.199996948242</ele>
        <time>2021-05-10T14:03:09.000Z</time>
      </trkpt>
      <trkpt lat="49.07279" lon="1.60762">
        <ele>81.599998474121</ele>
        <time>2021-05-10T14:03:11.000Z</time>
      </trkpt>
      <trkpt lat="49.07262" lon="1.60729">
        <ele>81.800003051758</ele>
        <time>2021-05-10T14:03:17.000Z</time>
      </trkpt>
      <trkpt lat="49.07238" lon="1.60691">
        <ele>81.599998474121</ele>
        <time>2021-05-10T14:03:25.000Z</time>
      </trkpt>
      <trkpt lat="49.07216" lon="1.60665">
        <ele>81.599998474121</ele>
        <time>2021-05-10T14:03:32.000Z</time>
      </trkpt>
      <trkpt lat="49.072" lon="1.60653">
        <ele>82.599998474121</ele>
        <time>2021-05-10T14:03:37.000Z</time>
      </trkpt>
      <trkpt lat="49.07197" lon="1.60651">
        <ele>82.800003051758</ele>
        <time>2021-05-10T14:03:38.000Z</time>
      </trkpt>
      <trkpt lat="49.07183" lon="1.60639">
        <ele>83.800003051758</ele>
        <time>2021-05-10T14:03:45.000Z</time>
      </trkpt>
      <trkpt lat="49.07176" lon="1.60633">
        <ele>85.400001525879</ele>
        <time>2021-05-10T14:03:49.000Z</time>
      </trkpt>
      <trkpt lat="49.07174" lon="1.60631">
        <ele>85.800003051758</ele>
        <time>2021-05-10T14:03:50.000Z</time>
      </trkpt>
      <trkpt lat="49.07172" lon="1.6063">
        <ele>86.400001525879</ele>
        <time>2021-05-10T14:03:52.000Z</time>
      </trkpt>
      <trkpt lat="49.07166" lon="1.6063">
        <ele>87.400001525879</ele>
        <time>2021-05-10T14:03:56.000Z</time>
      </trkpt>
      <trkpt lat="49.07164" lon="1.60631">
        <ele>87.599998474121</ele>
        <time>2021-05-10T14:03:57.000Z</time>
      </trkpt>
      <trkpt lat="49.07157" lon="1.60629">
        <ele>88.400001525879</ele>
        <time>2021-05-10T14:04:00.000Z</time>
      </trkpt>
      <trkpt lat="49.07154" lon="1.60624">
        <ele>88.800003051758</ele>
        <time>2021-05-10T14:04:02.000Z</time>
      </trkpt>
      <trkpt lat="49.07144" lon="1.60605">
        <ele>89</ele>
        <time>2021-05-10T14:04:07.000Z</time>
      </trkpt>
      <trkpt lat="49.07125" lon="1.60577">
        <ele>89</ele>
        <time>2021-05-10T14:04:12.000Z</time>
      </trkpt>
      <trkpt lat="49.0711" lon="1.60548">
        <ele>87.599998474121</ele>
        <time>2021-05-10T14:04:17.000Z</time>
      </trkpt>
      <trkpt lat="49.07108" lon="1.60535">
        <ele>87.400001525879</ele>
        <time>2021-05-10T14:04:19.000Z</time>
      </trkpt>
      <trkpt lat="49.0711" lon="1.60522">
        <ele>87.400001525879</ele>
        <time>2021-05-10T14:04:21.000Z</time>
      </trkpt>
      <trkpt lat="49.07112" lon="1.60515">
        <ele>87.400001525879</ele>
        <time>2021-05-10T14:04:22.000Z</time>
      </trkpt>
      <trkpt lat="49.07121" lon="1.60492">
        <ele>87.400001525879</ele>
        <time>2021-05-10T14:04:27.000Z</time>
      </trkpt>
      <trkpt lat="49.07137" lon="1.60472">
        <ele>88.599998474121</ele>
        <time>2021-05-10T14:04:33.000Z</time>
      </trkpt>
      <trkpt lat="49.07154" lon="1.60452">
        <ele>89.199996948242</ele>
        <time>2021-05-10T14:04:38.000Z</time>
      </trkpt>
      <trkpt lat="49.07157" lon="1.60446">
        <ele>89.199996948242</ele>
        <time>2021-05-10T14:04:39.000Z</time>
      </trkpt>
      <trkpt lat="49.07159" lon="1.60421">
        <ele>89.199996948242</ele>
        <time>2021-05-10T14:04:42.000Z</time>
      </trkpt>
      <trkpt lat="49.07153" lon="1.60409">
        <ele>89.199996948242</ele>
        <time>2021-05-10T14:04:44.000Z</time>
      </trkpt>
      <trkpt lat="49.07149" lon="1.60403">
        <ele>88.800003051758</ele>
        <time>2021-05-10T14:04:45.000Z</time>
      </trkpt>
      <trkpt lat="49.07142" lon="1.60392">
        <ele>87.800003051758</ele>
        <time>2021-05-10T14:04:47.000Z</time>
      </trkpt>
      <trkpt lat="49.07127" lon="1.60368">
        <ele>86.800003051758</ele>
        <time>2021-05-10T14:04:52.000Z</time>
      </trkpt>
      <trkpt lat="49.07124" lon="1.60364">
        <ele>86.599998474121</ele>
        <time>2021-05-10T14:04:53.000Z</time>
      </trkpt>
      <trkpt lat="49.07096" lon="1.60331">
        <ele>86.800003051758</ele>
        <time>2021-05-10T14:05:02.000Z</time>
      </trkpt>
      <trkpt lat="49.07078" lon="1.60314">
        <ele>87.800003051758</ele>
        <time>2021-05-10T14:05:08.000Z</time>
      </trkpt>
      <trkpt lat="49.07071" lon="1.60309">
        <ele>87.800003051758</ele>
        <time>2021-05-10T14:05:10.000Z</time>
      </trkpt>
      <trkpt lat="49.07052" lon="1.60291">
        <ele>88.199996948242</ele>
        <time>2021-05-10T14:05:17.000Z</time>
      </trkpt>
      <trkpt lat="49.07044" lon="1.60284">
        <ele>88.800003051758</ele>
        <time>2021-05-10T14:05:20.000Z</time>
      </trkpt>
      <trkpt lat="49.07031" lon="1.60271">
        <ele>89.800003051758</ele>
        <time>2021-05-10T14:05:25.000Z</time>
      </trkpt>
      <trkpt lat="49.07028" lon="1.60268">
        <ele>90</ele>
        <time>2021-05-10T14:05:26.000Z</time>
      </trkpt>
      <trkpt lat="49.0702" lon="1.6026">
        <ele>91.199996948242</ele>
        <time>2021-05-10T14:05:29.000Z</time>
      </trkpt>
      <trkpt lat="49.07004" lon="1.60246">
        <ele>92.199996948242</ele>
        <time>2021-05-10T14:05:35.000Z</time>
      </trkpt>
      <trkpt lat="49.06995" lon="1.60241">
        <ele>93</ele>
        <time>2021-05-10T14:05:39.000Z</time>
      </trkpt>
      <trkpt lat="49.06994" lon="1.60239">
        <ele>93.199996948242</ele>
        <time>2021-05-10T14:05:40.000Z</time>
      </trkpt>
      <trkpt lat="49.06992" lon="1.60235">
        <ele>93.400001525879</ele>
        <time>2021-05-10T14:05:41.000Z</time>
      </trkpt>
      <trkpt lat="49.06983" lon="1.60222">
        <ele>94.199996948242</ele>
        <time>2021-05-10T14:05:45.000Z</time>
      </trkpt>
      <trkpt lat="49.0698" lon="1.60219">
        <ele>94.400001525879</ele>
        <time>2021-05-10T14:05:46.000Z</time>
      </trkpt>
      <trkpt lat="49.06962" lon="1.602">
        <ele>95.199996948242</ele>
        <time>2021-05-10T14:05:53.000Z</time>
      </trkpt>
      <trkpt lat="49.06953" lon="1.60191">
        <ele>95.400001525879</ele>
        <time>2021-05-10T14:05:56.000Z</time>
      </trkpt>
      <trkpt lat="49.0694" lon="1.6018">
        <ele>95.599998474121</ele>
        <time>2021-05-10T14:06:00.000Z</time>
      </trkpt>
      <trkpt lat="49.06923" lon="1.60164">
        <ele>96</ele>
        <time>2021-05-10T14:06:06.000Z</time>
      </trkpt>
      <trkpt lat="49.069" lon="1.60144">
        <ele>96.400001525879</ele>
        <time>2021-05-10T14:06:14.000Z</time>
      </trkpt>
      <trkpt lat="49.06898" lon="1.6014">
        <ele>96.599998474121</ele>
        <time>2021-05-10T14:06:15.000Z</time>
      </trkpt>
      <trkpt lat="49.06881" lon="1.60125">
        <ele>96.800003051758</ele>
        <time>2021-05-10T14:06:21.000Z</time>
      </trkpt>
      <trkpt lat="49.0686" lon="1.60107">
        <ele>97.199996948242</ele>
        <time>2021-05-10T14:06:28.000Z</time>
      </trkpt>
      <trkpt lat="49.06858" lon="1.60104">
        <ele>97.400001525879</ele>
        <time>2021-05-10T14:06:29.000Z</time>
      </trkpt>
      <trkpt lat="49.06857" lon="1.60099">
        <ele>97.599998474121</ele>
        <time>2021-05-10T14:06:30.000Z</time>
      </trkpt>
      <trkpt lat="49.06857" lon="1.60094">
        <ele>97.599998474121</ele>
        <time>2021-05-10T14:06:31.000Z</time>
      </trkpt>
      <trkpt lat="49.06849" lon="1.60078">
        <ele>98</ele>
        <time>2021-05-10T14:06:35.000Z</time>
      </trkpt>
      <trkpt lat="49.06846" lon="1.60075">
        <ele>98.199996948242</ele>
        <time>2021-05-10T14:06:36.000Z</time>
      </trkpt>
      <trkpt lat="49.06838" lon="1.6006">
        <ele>98.599998474121</ele>
        <time>2021-05-10T14:06:40.000Z</time>
      </trkpt>
      <trkpt lat="49.06828" lon="1.60038">
        <ele>99.800003051758</ele>
        <time>2021-05-10T14:06:46.000Z</time>
      </trkpt>
      <trkpt lat="49.06822" lon="1.60027">
        <ele>100.80000305176</ele>
        <time>2021-05-10T14:06:49.000Z</time>
      </trkpt>
      <trkpt lat="49.06815" lon="1.60011">
        <ele>102</ele>
        <time>2021-05-10T14:06:54.000Z</time>
      </trkpt>
      <trkpt lat="49.06808" lon="1.59999">
        <ele>102.19999694824</ele>
        <time>2021-05-10T14:06:58.000Z</time>
      </trkpt>
      <trkpt lat="49.06795" lon="1.59976">
        <ele>103.19999694824</ele>
        <time>2021-05-10T14:07:05.000Z</time>
      </trkpt>
      <trkpt lat="49.06785" lon="1.5996">
        <ele>104.40000152588</ele>
        <time>2021-05-10T14:07:10.000Z</time>
      </trkpt>
      <trkpt lat="49.06776" lon="1.59949">
        <ele>105.19999694824</ele>
        <time>2021-05-10T14:07:14.000Z</time>
      </trkpt>
      <trkpt lat="49.06769" lon="1.59941">
        <ele>105.40000152588</ele>
        <time>2021-05-10T14:07:17.000Z</time>
      </trkpt>
      <trkpt lat="49.06758" lon="1.59927">
        <ele>105.80000305176</ele>
        <time>2021-05-10T14:07:22.000Z</time>
      </trkpt>
      <trkpt lat="49.06752" lon="1.5992">
        <ele>106.59999847412</ele>
        <time>2021-05-10T14:07:25.000Z</time>
      </trkpt>
      <trkpt lat="49.06739" lon="1.59905">
        <ele>107.59999847412</ele>
        <time>2021-05-10T14:07:31.000Z</time>
      </trkpt>
      <trkpt lat="49.06737" lon="1.59902">
        <ele>107.59999847412</ele>
        <time>2021-05-10T14:07:32.000Z</time>
      </trkpt>
      <trkpt lat="49.06721" lon="1.59883">
        <ele>108.19999694824</ele>
        <time>2021-05-10T14:07:40.000Z</time>
      </trkpt>
      <trkpt lat="49.06709" lon="1.59868">
        <ele>108.80000305176</ele>
        <time>2021-05-10T14:07:46.000Z</time>
      </trkpt>
      <trkpt lat="49.06704" lon="1.5986">
        <ele>109.59999847412</ele>
        <time>2021-05-10T14:07:49.000Z</time>
      </trkpt>
      <trkpt lat="49.06701" lon="1.59855">
        <ele>109.80000305176</ele>
        <time>2021-05-10T14:07:51.000Z</time>
      </trkpt>
      <trkpt lat="49.06694" lon="1.59843">
        <ele>110</ele>
        <time>2021-05-10T14:07:55.000Z</time>
      </trkpt>
      <trkpt lat="49.06682" lon="1.59834">
        <ele>111</ele>
        <time>2021-05-10T14:08:00.000Z</time>
      </trkpt>
      <trkpt lat="49.06674" lon="1.59824">
        <ele>111.59999847412</ele>
        <time>2021-05-10T14:08:04.000Z</time>
      </trkpt>
      <trkpt lat="49.0667" lon="1.5982">
        <ele>112</ele>
        <time>2021-05-10T14:08:06.000Z</time>
      </trkpt>
      <trkpt lat="49.0666" lon="1.59807">
        <ele>112.59999847412</ele>
        <time>2021-05-10T14:08:11.000Z</time>
      </trkpt>
      <trkpt lat="49.06656" lon="1.59802">
        <ele>113</ele>
        <time>2021-05-10T14:08:13.000Z</time>
      </trkpt>
      <trkpt lat="49.06644" lon="1.59784">
        <ele>113.59999847412</ele>
        <time>2021-05-10T14:08:19.000Z</time>
      </trkpt>
      <trkpt lat="49.06626" lon="1.59759">
        <ele>113.80000305176</ele>
        <time>2021-05-10T14:08:26.000Z</time>
      </trkpt>
      <trkpt lat="49.06606" lon="1.59733">
        <ele>114</ele>
        <time>2021-05-10T14:08:32.000Z</time>
      </trkpt>
      <trkpt lat="49.06603" lon="1.59728">
        <ele>114.19999694824</ele>
        <time>2021-05-10T14:08:33.000Z</time>
      </trkpt>
      <trkpt lat="49.06587" lon="1.59705">
        <ele>114.80000305176</ele>
        <time>2021-05-10T14:08:39.000Z</time>
      </trkpt>
      <trkpt lat="49.06575" lon="1.59687">
        <ele>115.19999694824</ele>
        <time>2021-05-10T14:08:44.000Z</time>
      </trkpt>
      <trkpt lat="49.0657" lon="1.59678">
        <ele>116.19999694824</ele>
        <time>2021-05-10T14:08:47.000Z</time>
      </trkpt>
      <trkpt lat="49.06563" lon="1.59667">
        <ele>116.80000305176</ele>
        <time>2021-05-10T14:08:51.000Z</time>
      </trkpt>
      <trkpt lat="49.06559" lon="1.59661">
        <ele>117.19999694824</ele>
        <time>2021-05-10T14:08:53.000Z</time>
      </trkpt>
      <trkpt lat="49.06552" lon="1.59651">
        <ele>118</ele>
        <time>2021-05-10T14:08:56.000Z</time>
      </trkpt>
      <trkpt lat="49.06546" lon="1.59643">
        <ele>118.40000152588</ele>
        <time>2021-05-10T14:08:58.000Z</time>
      </trkpt>
      <trkpt lat="49.06536" lon="1.59628">
        <ele>118.80000305176</ele>
        <time>2021-05-10T14:09:02.000Z</time>
      </trkpt>
      <trkpt lat="49.06514" lon="1.59596">
        <ele>119.19999694824</ele>
        <time>2021-05-10T14:09:09.000Z</time>
      </trkpt>
      <trkpt lat="49.06489" lon="1.5956">
        <ele>119.19999694824</ele>
        <time>2021-05-10T14:09:16.000Z</time>
      </trkpt>
      <trkpt lat="49.06468" lon="1.5953">
        <ele>119</ele>
        <time>2021-05-10T14:09:22.000Z</time>
      </trkpt>
      <trkpt lat="49.06443" lon="1.59494">
        <ele>118.59999847412</ele>
        <time>2021-05-10T14:09:28.000Z</time>
      </trkpt>
      <trkpt lat="49.06416" lon="1.59452">
        <ele>117.80000305176</ele>
        <time>2021-05-10T14:09:35.000Z</time>
      </trkpt>
      <trkpt lat="49.06408" lon="1.59437">
        <ele>117.19999694824</ele>
        <time>2021-05-10T14:09:37.000Z</time>
      </trkpt>
      <trkpt lat="49.06393" lon="1.59407">
        <ele>116.80000305176</ele>
        <time>2021-05-10T14:09:41.000Z</time>
      </trkpt>
      <trkpt lat="49.06371" lon="1.59361">
        <ele>116</ele>
        <time>2021-05-10T14:09:47.000Z</time>
      </trkpt>
      <trkpt lat="49.06367" lon="1.59353">
        <ele>116</ele>
        <time>2021-05-10T14:09:48.000Z</time>
      </trkpt>
      <trkpt lat="49.06343" lon="1.59308">
        <ele>114.80000305176</ele>
        <time>2021-05-10T14:09:54.000Z</time>
      </trkpt>
      <trkpt lat="49.06339" lon="1.59301">
        <ele>114.40000152588</ele>
        <time>2021-05-10T14:09:55.000Z</time>
      </trkpt>
      <trkpt lat="49.0633" lon="1.59286">
        <ele>113.59999847412</ele>
        <time>2021-05-10T14:09:57.000Z</time>
      </trkpt>
      <trkpt lat="49.06313" lon="1.59255">
        <ele>113</ele>
        <time>2021-05-10T14:10:01.000Z</time>
      </trkpt>
      <trkpt lat="49.06309" lon="1.59247">
        <ele>112.59999847412</ele>
        <time>2021-05-10T14:10:02.000Z</time>
      </trkpt>
      <trkpt lat="49.06293" lon="1.59217">
        <ele>111.59999847412</ele>
        <time>2021-05-10T14:10:06.000Z</time>
      </trkpt>
      <trkpt lat="49.06289" lon="1.59209">
        <ele>111.59999847412</ele>
        <time>2021-05-10T14:10:07.000Z</time>
      </trkpt>
      <trkpt lat="49.06278" lon="1.59183">
        <ele>111.59999847412</ele>
        <time>2021-05-10T14:10:11.000Z</time>
      </trkpt>
      <trkpt lat="49.06276" lon="1.59177">
        <ele>111.59999847412</ele>
        <time>2021-05-10T14:10:12.000Z</time>
      </trkpt>
      <trkpt lat="49.06267" lon="1.59163">
        <ele>111.59999847412</ele>
        <time>2021-05-10T14:10:16.000Z</time>
      </trkpt>
      <trkpt lat="49.06258" lon="1.5914">
        <ele>111.80000305176</ele>
        <time>2021-05-10T14:10:21.000Z</time>
      </trkpt>
      <trkpt lat="49.06246" lon="1.59114">
        <ele>112.40000152588</ele>
        <time>2021-05-10T14:10:26.000Z</time>
      </trkpt>
      <trkpt lat="49.0624" lon="1.59091">
        <ele>112.80000305176</ele>
        <time>2021-05-10T14:10:30.000Z</time>
      </trkpt>
      <trkpt lat="49.06225" lon="1.59049">
        <ele>112.59999847412</ele>
        <time>2021-05-10T14:10:36.000Z</time>
      </trkpt>
      <trkpt lat="49.06206" lon="1.58998">
        <ele>112.40000152588</ele>
        <time>2021-05-10T14:10:42.000Z</time>
      </trkpt>
      <trkpt lat="49.06197" lon="1.58976">
        <ele>111.19999694824</ele>
        <time>2021-05-10T14:10:45.000Z</time>
      </trkpt>
      <trkpt lat="49.06193" lon="1.58962">
        <ele>111</ele>
        <time>2021-05-10T14:10:47.000Z</time>
      </trkpt>
      <trkpt lat="49.0619" lon="1.58956">
        <ele>111</ele>
        <time>2021-05-10T14:10:48.000Z</time>
      </trkpt>
      <trkpt lat="49.06176" lon="1.5892">
        <ele>111</ele>
        <time>2021-05-10T14:10:54.000Z</time>
      </trkpt>
      <trkpt lat="49.06169" lon="1.58895">
        <ele>111.19999694824</ele>
        <time>2021-05-10T14:10:59.000Z</time>
      </trkpt>
      <trkpt lat="49.06166" lon="1.58887">
        <ele>111.80000305176</ele>
        <time>2021-05-10T14:11:03.000Z</time>
      </trkpt>
      <trkpt lat="49.06163" lon="1.58879">
        <ele>113</ele>
        <time>2021-05-10T14:12:22.000Z</time>
      </trkpt>
      <trkpt lat="49.06163" lon="1.58871">
        <ele>113</ele>
        <time>2021-05-10T14:12:25.000Z</time>
      </trkpt>
      <trkpt lat="49.06159" lon="1.58847">
        <ele>113</ele>
        <time>2021-05-10T14:12:31.000Z</time>
      </trkpt>
      <trkpt lat="49.06149" lon="1.58809">
        <ele>112.80000305176</ele>
        <time>2021-05-10T14:12:37.000Z</time>
      </trkpt>
      <trkpt lat="49.06137" lon="1.58773">
        <ele>112.80000305176</ele>
        <time>2021-05-10T14:12:42.000Z</time>
      </trkpt>
      <trkpt lat="49.06125" lon="1.58732">
        <ele>112.40000152588</ele>
        <time>2021-05-10T14:12:47.000Z</time>
      </trkpt>
      <trkpt lat="49.06114" lon="1.58685">
        <ele>111.59999847412</ele>
        <time>2021-05-10T14:12:52.000Z</time>
      </trkpt>
      <trkpt lat="49.0611" lon="1.58666">
        <ele>111.40000152588</ele>
        <time>2021-05-10T14:12:54.000Z</time>
      </trkpt>
      <trkpt lat="49.06105" lon="1.58638">
        <ele>110.80000305176</ele>
        <time>2021-05-10T14:12:58.000Z</time>
      </trkpt>
      <trkpt lat="49.06103" lon="1.58614">
        <ele>110.59999847412</ele>
        <time>2021-05-10T14:13:04.000Z</time>
      </trkpt>
      <trkpt lat="49.06104" lon="1.58594">
        <ele>110.40000152588</ele>
        <time>2021-05-10T14:13:09.000Z</time>
      </trkpt>
      <trkpt lat="49.06104" lon="1.58562">
        <ele>110.40000152588</ele>
        <time>2021-05-10T14:13:15.000Z</time>
      </trkpt>
      <trkpt lat="49.06102" lon="1.58549">
        <ele>110.19999694824</ele>
        <time>2021-05-10T14:13:19.000Z</time>
      </trkpt>
      <trkpt lat="49.06102" lon="1.58547">
        <ele>110</ele>
        <time>2021-05-10T14:13:20.000Z</time>
      </trkpt>
      <trkpt lat="49.06103" lon="1.58545">
        <ele>110</ele>
        <time>2021-05-10T14:13:22.000Z</time>
      </trkpt>
      <trkpt lat="49.06106" lon="1.58548">
        <ele>109.80000305176</ele>
        <time>2021-05-10T14:13:25.000Z</time>
      </trkpt>
      <trkpt lat="49.06108" lon="1.58553">
        <ele>109.80000305176</ele>
        <time>2021-05-10T14:13:27.000Z</time>
      </trkpt>
      <trkpt lat="49.06113" lon="1.58564">
        <ele>109.80000305176</ele>
        <time>2021-05-10T14:13:30.000Z</time>
      </trkpt>
      <trkpt lat="49.06124" lon="1.58587">
        <ele>110</ele>
        <time>2021-05-10T14:13:36.000Z</time>
      </trkpt>
      <trkpt lat="49.06141" lon="1.58614">
        <ele>110.80000305176</ele>
        <time>2021-05-10T14:13:43.000Z</time>
      </trkpt>
      <trkpt lat="49.0615" lon="1.58627">
        <ele>111.40000152588</ele>
        <time>2021-05-10T14:13:47.000Z</time>
      </trkpt>
      <trkpt lat="49.06163" lon="1.5864">
        <ele>112.40000152588</ele>
        <time>2021-05-10T14:13:51.000Z</time>
      </trkpt>
      <trkpt lat="49.06166" lon="1.58642">
        <ele>112.59999847412</ele>
        <time>2021-05-10T14:13:52.000Z</time>
      </trkpt>
      <trkpt lat="49.06181" lon="1.58653">
        <ele>112.80000305176</ele>
        <time>2021-05-10T14:13:57.000Z</time>
      </trkpt>
      <trkpt lat="49.06198" lon="1.58658">
        <ele>113</ele>
        <time>2021-05-10T14:14:03.000Z</time>
      </trkpt>
      <trkpt lat="49.06212" lon="1.58663">
        <ele>112.80000305176</ele>
        <time>2021-05-10T14:14:07.000Z</time>
      </trkpt>
      <trkpt lat="49.06224" lon="1.58662">
        <ele>112</ele>
        <time>2021-05-10T14:14:10.000Z</time>
      </trkpt>
      <trkpt lat="49.06227" lon="1.58658">
        <ele>112</ele>
        <time>2021-05-10T14:14:11.000Z</time>
      </trkpt>
      <trkpt lat="49.06232" lon="1.58641">
        <ele>111.40000152588</ele>
        <time>2021-05-10T14:14:14.000Z</time>
      </trkpt>
      <trkpt lat="49.06234" lon="1.58634">
        <ele>111.19999694824</ele>
        <time>2021-05-10T14:14:15.000Z</time>
      </trkpt>
      <trkpt lat="49.06239" lon="1.58614">
        <ele>110.19999694824</ele>
        <time>2021-05-10T14:14:18.000Z</time>
      </trkpt>
      <trkpt lat="49.06242" lon="1.58599">
        <ele>109.80000305176</ele>
        <time>2021-05-10T14:14:20.000Z</time>
      </trkpt>
      <trkpt lat="49.06253" lon="1.58553">
        <ele>109.19999694824</ele>
        <time>2021-05-10T14:14:26.000Z</time>
      </trkpt>
      <trkpt lat="49.06257" lon="1.58539">
        <ele>109.19999694824</ele>
        <time>2021-05-10T14:14:28.000Z</time>
      </trkpt>
      <trkpt lat="49.06258" lon="1.58533">
        <ele>109</ele>
        <time>2021-05-10T14:14:29.000Z</time>
      </trkpt>
      <trkpt lat="49.06261" lon="1.58519">
        <ele>108.59999847412</ele>
        <time>2021-05-10T14:14:31.000Z</time>
      </trkpt>
      <trkpt lat="49.06262" lon="1.58512">
        <ele>108.40000152588</ele>
        <time>2021-05-10T14:14:32.000Z</time>
      </trkpt>
      <trkpt lat="49.06264" lon="1.58505">
        <ele>108</ele>
        <time>2021-05-10T14:14:33.000Z</time>
      </trkpt>
      <trkpt lat="49.06268" lon="1.58489">
        <ele>107.80000305176</ele>
        <time>2021-05-10T14:14:35.000Z</time>
      </trkpt>
      <trkpt lat="49.06272" lon="1.58456">
        <ele>107.40000152588</ele>
        <time>2021-05-10T14:14:39.000Z</time>
      </trkpt>
      <trkpt lat="49.06273" lon="1.58449">
        <ele>107.19999694824</ele>
        <time>2021-05-10T14:14:40.000Z</time>
      </trkpt>
      <trkpt lat="49.06273" lon="1.58441">
        <ele>107</ele>
        <time>2021-05-10T14:14:41.000Z</time>
      </trkpt>
      <trkpt lat="49.06274" lon="1.58413">
        <ele>106.40000152588</ele>
        <time>2021-05-10T14:14:45.000Z</time>
      </trkpt>
      <trkpt lat="49.06275" lon="1.58397">
        <ele>106.40000152588</ele>
        <time>2021-05-10T14:14:47.000Z</time>
      </trkpt>
      <trkpt lat="49.06276" lon="1.58383">
        <ele>106.40000152588</ele>
        <time>2021-05-10T14:14:49.000Z</time>
      </trkpt>
      <trkpt lat="49.06276" lon="1.58353">
        <ele>106.40000152588</ele>
        <time>2021-05-10T14:14:53.000Z</time>
      </trkpt>
      <trkpt lat="49.06275" lon="1.58343">
        <ele>106.19999694824</ele>
        <time>2021-05-10T14:14:54.000Z</time>
      </trkpt>
      <trkpt lat="49.06274" lon="1.58334">
        <ele>106</ele>
        <time>2021-05-10T14:14:55.000Z</time>
      </trkpt>
      <trkpt lat="49.06271" lon="1.58316">
        <ele>105.80000305176</ele>
        <time>2021-05-10T14:14:57.000Z</time>
      </trkpt>
      <trkpt lat="49.0627" lon="1.58308">
        <ele>105.59999847412</ele>
        <time>2021-05-10T14:14:58.000Z</time>
      </trkpt>
      <trkpt lat="49.06267" lon="1.58291">
        <ele>105.59999847412</ele>
        <time>2021-05-10T14:15:00.000Z</time>
      </trkpt>
      <trkpt lat="49.06263" lon="1.58265">
        <ele>104.80000305176</ele>
        <time>2021-05-10T14:15:03.000Z</time>
      </trkpt>
      <trkpt lat="49.0626" lon="1.58256">
        <ele>104.59999847412</ele>
        <time>2021-05-10T14:15:04.000Z</time>
      </trkpt>
      <trkpt lat="49.06257" lon="1.58247">
        <ele>104.40000152588</ele>
        <time>2021-05-10T14:15:05.000Z</time>
      </trkpt>
      <trkpt lat="49.06248" lon="1.5822">
        <ele>103.80000305176</ele>
        <time>2021-05-10T14:15:08.000Z</time>
      </trkpt>
      <trkpt lat="49.06238" lon="1.58189">
        <ele>103.59999847412</ele>
        <time>2021-05-10T14:15:11.000Z</time>
      </trkpt>
      <trkpt lat="49.06233" lon="1.58169">
        <ele>102.80000305176</ele>
        <time>2021-05-10T14:15:13.000Z</time>
      </trkpt>
      <trkpt lat="49.0623" lon="1.58159">
        <ele>102.40000152588</ele>
        <time>2021-05-10T14:15:14.000Z</time>
      </trkpt>
      <trkpt lat="49.06222" lon="1.58128">
        <ele>101.19999694824</ele>
        <time>2021-05-10T14:15:17.000Z</time>
      </trkpt>
      <trkpt lat="49.06217" lon="1.58108">
        <ele>100.40000152588</ele>
        <time>2021-05-10T14:15:19.000Z</time>
      </trkpt>
      <trkpt lat="49.06214" lon="1.58098">
        <ele>100.19999694824</ele>
        <time>2021-05-10T14:15:20.000Z</time>
      </trkpt>
      <trkpt lat="49.0621" lon="1.58079">
        <ele>99.599998474121</ele>
        <time>2021-05-10T14:15:22.000Z</time>
      </trkpt>
      <trkpt lat="49.06204" lon="1.58059">
        <ele>99</ele>
        <time>2021-05-10T14:15:24.000Z</time>
      </trkpt>
      <trkpt lat="49.06185" lon="1.58">
        <ele>98.400001525879</ele>
        <time>2021-05-10T14:15:30.000Z</time>
      </trkpt>
      <trkpt lat="49.06179" lon="1.57981">
        <ele>98.400001525879</ele>
        <time>2021-05-10T14:15:32.000Z</time>
      </trkpt>
      <trkpt lat="49.06171" lon="1.57957">
        <ele>98.400001525879</ele>
        <time>2021-05-10T14:15:35.000Z</time>
      </trkpt>
      <trkpt lat="49.0617" lon="1.5795">
        <ele>98.400001525879</ele>
        <time>2021-05-10T14:15:36.000Z</time>
      </trkpt>
      <trkpt lat="49.06164" lon="1.57924">
        <ele>99</ele>
        <time>2021-05-10T14:15:40.000Z</time>
      </trkpt>
      <trkpt lat="49.06155" lon="1.5789">
        <ele>100.19999694824</ele>
        <time>2021-05-10T14:15:45.000Z</time>
      </trkpt>
      <trkpt lat="49.06142" lon="1.57859">
        <ele>100.80000305176</ele>
        <time>2021-05-10T14:15:51.000Z</time>
      </trkpt>
      <trkpt lat="49.06132" lon="1.57828">
        <ele>101.19999694824</ele>
        <time>2021-05-10T14:15:56.000Z</time>
      </trkpt>
      <trkpt lat="49.0613" lon="1.57821">
        <ele>101.40000152588</ele>
        <time>2021-05-10T14:15:57.000Z</time>
      </trkpt>
      <trkpt lat="49.0612" lon="1.57786">
        <ele>101.59999847412</ele>
        <time>2021-05-10T14:16:02.000Z</time>
      </trkpt>
      <trkpt lat="49.0611" lon="1.57755">
        <ele>101.59999847412</ele>
        <time>2021-05-10T14:16:07.000Z</time>
      </trkpt>
      <trkpt lat="49.061" lon="1.57723">
        <ele>101.59999847412</ele>
        <time>2021-05-10T14:16:12.000Z</time>
      </trkpt>
      <trkpt lat="49.06089" lon="1.57691">
        <ele>101.59999847412</ele>
        <time>2021-05-10T14:16:17.000Z</time>
      </trkpt>
      <trkpt lat="49.06082" lon="1.57659">
        <ele>101.40000152588</ele>
        <time>2021-05-10T14:16:22.000Z</time>
      </trkpt>
      <trkpt lat="49.0607" lon="1.57619">
        <ele>101.59999847412</ele>
        <time>2021-05-10T14:16:28.000Z</time>
      </trkpt>
      <trkpt lat="49.06055" lon="1.57583">
        <ele>101.59999847412</ele>
        <time>2021-05-10T14:16:33.000Z</time>
      </trkpt>
      <trkpt lat="49.06034" lon="1.57539">
        <ele>101.40000152588</ele>
        <time>2021-05-10T14:16:39.000Z</time>
      </trkpt>
      <trkpt lat="49.06011" lon="1.57494">
        <ele>101.40000152588</ele>
        <time>2021-05-10T14:16:46.000Z</time>
      </trkpt>
      <trkpt lat="49.05991" lon="1.57451">
        <ele>101</ele>
        <time>2021-05-10T14:16:53.000Z</time>
      </trkpt>
      <trkpt lat="49.05979" lon="1.57427">
        <ele>101</ele>
        <time>2021-05-10T14:16:57.000Z</time>
      </trkpt>
      <trkpt lat="49.05973" lon="1.57414">
        <ele>101</ele>
        <time>2021-05-10T14:16:59.000Z</time>
      </trkpt>
      <trkpt lat="49.05965" lon="1.57394">
        <ele>100.80000305176</ele>
        <time>2021-05-10T14:17:02.000Z</time>
      </trkpt>
      <trkpt lat="49.05953" lon="1.57364">
        <ele>100.80000305176</ele>
        <time>2021-05-10T14:17:07.000Z</time>
      </trkpt>
      <trkpt lat="49.05937" lon="1.57329">
        <ele>100.80000305176</ele>
        <time>2021-05-10T14:17:13.000Z</time>
      </trkpt>
      <trkpt lat="49.05927" lon="1.573">
        <ele>100.80000305176</ele>
        <time>2021-05-10T14:17:18.000Z</time>
      </trkpt>
      <trkpt lat="49.05921" lon="1.57285">
        <ele>100.80000305176</ele>
        <time>2021-05-10T14:17:20.000Z</time>
      </trkpt>
      <trkpt lat="49.05912" lon="1.57263">
        <ele>100.19999694824</ele>
        <time>2021-05-10T14:17:23.000Z</time>
      </trkpt>
      <trkpt lat="49.05909" lon="1.57257">
        <ele>100</ele>
        <time>2021-05-10T14:17:24.000Z</time>
      </trkpt>
      <trkpt lat="49.05902" lon="1.57247">
        <ele>99.800003051758</ele>
        <time>2021-05-10T14:17:26.000Z</time>
      </trkpt>
      <trkpt lat="49.05897" lon="1.57243">
        <ele>99.800003051758</ele>
        <time>2021-05-10T14:17:27.000Z</time>
      </trkpt>
      <trkpt lat="49.05884" lon="1.5723">
        <ele>99.800003051758</ele>
        <time>2021-05-10T14:17:30.000Z</time>
      </trkpt>
      <trkpt lat="49.0588" lon="1.57224">
        <ele>99.800003051758</ele>
        <time>2021-05-10T14:17:31.000Z</time>
      </trkpt>
      <trkpt lat="49.05875" lon="1.57219">
        <ele>99.599998474121</ele>
        <time>2021-05-10T14:17:32.000Z</time>
      </trkpt>
      <trkpt lat="49.05847" lon="1.57176">
        <ele>99.400001525879</ele>
        <time>2021-05-10T14:17:39.000Z</time>
      </trkpt>
      <trkpt lat="49.05818" lon="1.57129">
        <ele>99.400001525879</ele>
        <time>2021-05-10T14:17:47.000Z</time>
      </trkpt>
      <trkpt lat="49.05797" lon="1.57092">
        <ele>99.199996948242</ele>
        <time>2021-05-10T14:17:54.000Z</time>
      </trkpt>
      <trkpt lat="49.05777" lon="1.57063">
        <ele>99.199996948242</ele>
        <time>2021-05-10T14:17:59.000Z</time>
      </trkpt>
      <trkpt lat="49.0577" lon="1.57052">
        <ele>98.599998474121</ele>
        <time>2021-05-10T14:18:02.000Z</time>
      </trkpt>
      <trkpt lat="49.05768" lon="1.57049">
        <ele>98.400001525879</ele>
        <time>2021-05-10T14:18:03.000Z</time>
      </trkpt>
      <trkpt lat="49.05764" lon="1.57043">
        <ele>98.199996948242</ele>
        <time>2021-05-10T14:18:05.000Z</time>
      </trkpt>
      <trkpt lat="49.05763" lon="1.57031">
        <ele>97.599998474121</ele>
        <time>2021-05-10T14:18:08.000Z</time>
      </trkpt>
      <trkpt lat="49.05771" lon="1.57014">
        <ele>97.400001525879</ele>
        <time>2021-05-10T14:18:12.000Z</time>
      </trkpt>
      <trkpt lat="49.0577" lon="1.56998">
        <ele>97.199996948242</ele>
        <time>2021-05-10T14:18:15.000Z</time>
      </trkpt>
      <trkpt lat="49.05767" lon="1.56993">
        <ele>97.199996948242</ele>
        <time>2021-05-10T14:18:16.000Z</time>
      </trkpt>
      <trkpt lat="49.05764" lon="1.56988">
        <ele>97.199996948242</ele>
        <time>2021-05-10T14:18:17.000Z</time>
      </trkpt>
      <trkpt lat="49.05753" lon="1.56972">
        <ele>97</ele>
        <time>2021-05-10T14:18:20.000Z</time>
      </trkpt>
      <trkpt lat="49.0575" lon="1.56966">
        <ele>96.800003051758</ele>
        <time>2021-05-10T14:18:21.000Z</time>
      </trkpt>
      <trkpt lat="49.05743" lon="1.56952">
        <ele>96.599998474121</ele>
        <time>2021-05-10T14:18:23.000Z</time>
      </trkpt>
      <trkpt lat="49.05739" lon="1.56944">
        <ele>96.400001525879</ele>
        <time>2021-05-10T14:18:24.000Z</time>
      </trkpt>
      <trkpt lat="49.05722" lon="1.56908">
        <ele>95.199996948242</ele>
        <time>2021-05-10T14:18:28.000Z</time>
      </trkpt>
      <trkpt lat="49.05717" lon="1.56898">
        <ele>94.800003051758</ele>
        <time>2021-05-10T14:18:29.000Z</time>
      </trkpt>
      <trkpt lat="49.05713" lon="1.56889">
        <ele>93.800003051758</ele>
        <time>2021-05-10T14:18:30.000Z</time>
      </trkpt>
      <trkpt lat="49.05706" lon="1.56873">
        <ele>92.199996948242</ele>
        <time>2021-05-10T14:18:32.000Z</time>
      </trkpt>
      <trkpt lat="49.05705" lon="1.56853">
        <ele>90.599998474121</ele>
        <time>2021-05-10T14:18:34.000Z</time>
      </trkpt>
      <trkpt lat="49.05704" lon="1.56841">
        <ele>90.199996948242</ele>
        <time>2021-05-10T14:18:35.000Z</time>
      </trkpt>
      <trkpt lat="49.05704" lon="1.56815">
        <ele>89</ele>
        <time>2021-05-10T14:18:37.000Z</time>
      </trkpt>
      <trkpt lat="49.05702" lon="1.56786">
        <ele>87.800003051758</ele>
        <time>2021-05-10T14:18:39.000Z</time>
      </trkpt>
      <trkpt lat="49.05702" lon="1.5677">
        <ele>87.599998474121</ele>
        <time>2021-05-10T14:18:40.000Z</time>
      </trkpt>
      <trkpt lat="49.057" lon="1.56722">
        <ele>86.199996948242</ele>
        <time>2021-05-10T14:18:43.000Z</time>
      </trkpt>
      <trkpt lat="49.05698" lon="1.56691">
        <ele>84.800003051758</ele>
        <time>2021-05-10T14:18:45.000Z</time>
      </trkpt>
      <trkpt lat="49.05696" lon="1.5666">
        <ele>82.800003051758</ele>
        <time>2021-05-10T14:18:47.000Z</time>
      </trkpt>
      <trkpt lat="49.05696" lon="1.56645">
        <ele>81.800003051758</ele>
        <time>2021-05-10T14:18:48.000Z</time>
      </trkpt>
      <trkpt lat="49.05695" lon="1.56631">
        <ele>80.599998474121</ele>
        <time>2021-05-10T14:18:49.000Z</time>
      </trkpt>
      <trkpt lat="49.05695" lon="1.56618">
        <ele>79</ele>
        <time>2021-05-10T14:18:50.000Z</time>
      </trkpt>
      <trkpt lat="49.05694" lon="1.56606">
        <ele>77.599998474121</ele>
        <time>2021-05-10T14:18:51.000Z</time>
      </trkpt>
      <trkpt lat="49.05694" lon="1.56594">
        <ele>76.400001525879</ele>
        <time>2021-05-10T14:18:52.000Z</time>
      </trkpt>
      <trkpt lat="49.05693" lon="1.5657">
        <ele>75.400001525879</ele>
        <time>2021-05-10T14:18:54.000Z</time>
      </trkpt>
      <trkpt lat="49.05692" lon="1.56558">
        <ele>75.199996948242</ele>
        <time>2021-05-10T14:18:55.000Z</time>
      </trkpt>
      <trkpt lat="49.05688" lon="1.56514">
        <ele>74</ele>
        <time>2021-05-10T14:18:59.000Z</time>
      </trkpt>
      <trkpt lat="49.05685" lon="1.56493">
        <ele>73.800003051758</ele>
        <time>2021-05-10T14:19:01.000Z</time>
      </trkpt>
      <trkpt lat="49.05682" lon="1.56462">
        <ele>73.599998474121</ele>
        <time>2021-05-10T14:19:04.000Z</time>
      </trkpt>
      <trkpt lat="49.05683" lon="1.56443">
        <ele>73.599998474121</ele>
        <time>2021-05-10T14:19:06.000Z</time>
      </trkpt>
      <trkpt lat="49.05695" lon="1.56409">
        <ele>73.599998474121</ele>
        <time>2021-05-10T14:19:10.000Z</time>
      </trkpt>
      <trkpt lat="49.05699" lon="1.56399">
        <ele>73.599998474121</ele>
        <time>2021-05-10T14:19:11.000Z</time>
      </trkpt>
      <trkpt lat="49.05713" lon="1.56361">
        <ele>73.599998474121</ele>
        <time>2021-05-10T14:19:15.000Z</time>
      </trkpt>
      <trkpt lat="49.05719" lon="1.56352">
        <ele>73.599998474121</ele>
        <time>2021-05-10T14:19:16.000Z</time>
      </trkpt>
      <trkpt lat="49.05746" lon="1.56325">
        <ele>72.800003051758</ele>
        <time>2021-05-10T14:19:20.000Z</time>
      </trkpt>
      <trkpt lat="49.05767" lon="1.563">
        <ele>71.800003051758</ele>
        <time>2021-05-10T14:19:23.000Z</time>
      </trkpt>
      <trkpt lat="49.0578" lon="1.56281">
        <ele>71.199996948242</ele>
        <time>2021-05-10T14:19:25.000Z</time>
      </trkpt>
      <trkpt lat="49.05786" lon="1.5627">
        <ele>70.599998474121</ele>
        <time>2021-05-10T14:19:26.000Z</time>
      </trkpt>
      <trkpt lat="49.05791" lon="1.56258">
        <ele>70.199996948242</ele>
        <time>2021-05-10T14:19:27.000Z</time>
      </trkpt>
      <trkpt lat="49.05796" lon="1.56246">
        <ele>69.199996948242</ele>
        <time>2021-05-10T14:19:28.000Z</time>
      </trkpt>
      <trkpt lat="49.05801" lon="1.56233">
        <ele>68.400001525879</ele>
        <time>2021-05-10T14:19:29.000Z</time>
      </trkpt>
      <trkpt lat="49.05806" lon="1.56219">
        <ele>67.599998474121</ele>
        <time>2021-05-10T14:19:30.000Z</time>
      </trkpt>
      <trkpt lat="49.0581" lon="1.56206">
        <ele>66.199996948242</ele>
        <time>2021-05-10T14:19:31.000Z</time>
      </trkpt>
      <trkpt lat="49.05816" lon="1.56193">
        <ele>65.199996948242</ele>
        <time>2021-05-10T14:19:32.000Z</time>
      </trkpt>
      <trkpt lat="49.05822" lon="1.5618">
        <ele>64.199996948242</ele>
        <time>2021-05-10T14:19:33.000Z</time>
      </trkpt>
      <trkpt lat="49.05828" lon="1.56168">
        <ele>63.799999237061</ele>
        <time>2021-05-10T14:19:34.000Z</time>
      </trkpt>
      <trkpt lat="49.05841" lon="1.56143">
        <ele>62.200000762939</ele>
        <time>2021-05-10T14:19:36.000Z</time>
      </trkpt>
      <trkpt lat="49.05848" lon="1.56132">
        <ele>61</ele>
        <time>2021-05-10T14:19:37.000Z</time>
      </trkpt>
      <trkpt lat="49.05855" lon="1.56121">
        <ele>59.799999237061</ele>
        <time>2021-05-10T14:19:38.000Z</time>
      </trkpt>
      <trkpt lat="49.05862" lon="1.56109">
        <ele>59</ele>
        <time>2021-05-10T14:19:39.000Z</time>
      </trkpt>
      <trkpt lat="49.05868" lon="1.56097">
        <ele>58.200000762939</ele>
        <time>2021-05-10T14:19:40.000Z</time>
      </trkpt>
      <trkpt lat="49.05873" lon="1.56084">
        <ele>57.200000762939</ele>
        <time>2021-05-10T14:19:41.000Z</time>
      </trkpt>
      <trkpt lat="49.05877" lon="1.56071">
        <ele>56.599998474121</ele>
        <time>2021-05-10T14:19:42.000Z</time>
      </trkpt>
      <trkpt lat="49.0588" lon="1.56057">
        <ele>55.799999237061</ele>
        <time>2021-05-10T14:19:43.000Z</time>
      </trkpt>
      <trkpt lat="49.05883" lon="1.56042">
        <ele>55.400001525879</ele>
        <time>2021-05-10T14:19:44.000Z</time>
      </trkpt>
      <trkpt lat="49.05885" lon="1.56028">
        <ele>54.599998474121</ele>
        <time>2021-05-10T14:19:45.000Z</time>
      </trkpt>
      <trkpt lat="49.05887" lon="1.56013">
        <ele>54</ele>
        <time>2021-05-10T14:19:46.000Z</time>
      </trkpt>
      <trkpt lat="49.05892" lon="1.55984">
        <ele>52.799999237061</ele>
        <time>2021-05-10T14:19:48.000Z</time>
      </trkpt>
      <trkpt lat="49.05897" lon="1.55954">
        <ele>51.599998474121</ele>
        <time>2021-05-10T14:19:50.000Z</time>
      </trkpt>
      <trkpt lat="49.05902" lon="1.55923">
        <ele>49.599998474121</ele>
        <time>2021-05-10T14:19:52.000Z</time>
      </trkpt>
      <trkpt lat="49.05905" lon="1.55908">
        <ele>48.599998474121</ele>
        <time>2021-05-10T14:19:53.000Z</time>
      </trkpt>
      <trkpt lat="49.05908" lon="1.55893">
        <ele>48</ele>
        <time>2021-05-10T14:19:54.000Z</time>
      </trkpt>
      <trkpt lat="49.05917" lon="1.55864">
        <ele>46.200000762939</ele>
        <time>2021-05-10T14:19:56.000Z</time>
      </trkpt>
      <trkpt lat="49.05927" lon="1.55837">
        <ele>44</ele>
        <time>2021-05-10T14:19:58.000Z</time>
      </trkpt>
      <trkpt lat="49.05937" lon="1.5581">
        <ele>42.200000762939</ele>
        <time>2021-05-10T14:20:00.000Z</time>
      </trkpt>
      <trkpt lat="49.05943" lon="1.55797">
        <ele>41.400001525879</ele>
        <time>2021-05-10T14:20:01.000Z</time>
      </trkpt>
      <trkpt lat="49.05952" lon="1.55773">
        <ele>40.200000762939</ele>
        <time>2021-05-10T14:20:03.000Z</time>
      </trkpt>
      <trkpt lat="49.05956" lon="1.55764">
        <ele>39.599998474121</ele>
        <time>2021-05-10T14:20:04.000Z</time>
      </trkpt>
      <trkpt lat="49.05962" lon="1.55747">
        <ele>38.799999237061</ele>
        <time>2021-05-10T14:20:06.000Z</time>
      </trkpt>
      <trkpt lat="49.05967" lon="1.55731">
        <ele>38.200000762939</ele>
        <time>2021-05-10T14:20:08.000Z</time>
      </trkpt>
      <trkpt lat="49.05969" lon="1.55722">
        <ele>38.200000762939</ele>
        <time>2021-05-10T14:20:09.000Z</time>
      </trkpt>
      <trkpt lat="49.05972" lon="1.55703">
        <ele>37.799999237061</ele>
        <time>2021-05-10T14:20:11.000Z</time>
      </trkpt>
      <trkpt lat="49.05976" lon="1.5566">
        <ele>36.799999237061</ele>
        <time>2021-05-10T14:20:15.000Z</time>
      </trkpt>
      <trkpt lat="49.05977" lon="1.55649">
        <ele>36.599998474121</ele>
        <time>2021-05-10T14:20:16.000Z</time>
      </trkpt>
      <trkpt lat="49.05983" lon="1.55601">
        <ele>35.200000762939</ele>
        <time>2021-05-10T14:20:20.000Z</time>
      </trkpt>
      <trkpt lat="49.05984" lon="1.55589">
        <ele>34.599998474121</ele>
        <time>2021-05-10T14:20:21.000Z</time>
      </trkpt>
      <trkpt lat="49.05985" lon="1.55577">
        <ele>34.200000762939</ele>
        <time>2021-05-10T14:20:22.000Z</time>
      </trkpt>
      <trkpt lat="49.05988" lon="1.55542">
        <ele>32.400001525879</ele>
        <time>2021-05-10T14:20:25.000Z</time>
      </trkpt>
      <trkpt lat="49.05991" lon="1.55508">
        <ele>31</ele>
        <time>2021-05-10T14:20:28.000Z</time>
      </trkpt>
      <trkpt lat="49.05993" lon="1.55487">
        <ele>29.39999961853</ele>
        <time>2021-05-10T14:20:30.000Z</time>
      </trkpt>
      <trkpt lat="49.05994" lon="1.55466">
        <ele>28.200000762939</ele>
        <time>2021-05-10T14:20:32.000Z</time>
      </trkpt>
      <trkpt lat="49.05997" lon="1.55445">
        <ele>27.60000038147</ele>
        <time>2021-05-10T14:20:34.000Z</time>
      </trkpt>
      <trkpt lat="49.06001" lon="1.55423">
        <ele>27.39999961853</ele>
        <time>2021-05-10T14:20:36.000Z</time>
      </trkpt>
      <trkpt lat="49.06006" lon="1.55401">
        <ele>27</ele>
        <time>2021-05-10T14:20:38.000Z</time>
      </trkpt>
      <trkpt lat="49.06016" lon="1.55359">
        <ele>26</ele>
        <time>2021-05-10T14:20:42.000Z</time>
      </trkpt>
      <trkpt lat="49.06019" lon="1.5535">
        <ele>25.60000038147</ele>
        <time>2021-05-10T14:20:43.000Z</time>
      </trkpt>
      <trkpt lat="49.06025" lon="1.5532">
        <ele>24.60000038147</ele>
        <time>2021-05-10T14:20:46.000Z</time>
      </trkpt>
      <trkpt lat="49.06031" lon="1.55288">
        <ele>23.200000762939</ele>
        <time>2021-05-10T14:20:49.000Z</time>
      </trkpt>
      <trkpt lat="49.06033" lon="1.55278">
        <ele>22.799999237061</ele>
        <time>2021-05-10T14:20:50.000Z</time>
      </trkpt>
      <trkpt lat="49.06036" lon="1.55257">
        <ele>22.200000762939</ele>
        <time>2021-05-10T14:20:52.000Z</time>
      </trkpt>
      <trkpt lat="49.06042" lon="1.55224">
        <ele>21</ele>
        <time>2021-05-10T14:20:55.000Z</time>
      </trkpt>
      <trkpt lat="49.06047" lon="1.55192">
        <ele>19.799999237061</ele>
        <time>2021-05-10T14:20:58.000Z</time>
      </trkpt>
      <trkpt lat="49.06049" lon="1.55182">
        <ele>19.60000038147</ele>
        <time>2021-05-10T14:20:59.000Z</time>
      </trkpt>
      <trkpt lat="49.06058" lon="1.55135">
        <ele>18.799999237061</ele>
        <time>2021-05-10T14:21:04.000Z</time>
      </trkpt>
      <trkpt lat="49.0606" lon="1.55117">
        <ele>18.60000038147</ele>
        <time>2021-05-10T14:21:06.000Z</time>
      </trkpt>
      <trkpt lat="49.06065" lon="1.55085">
        <ele>17.799999237061</ele>
        <time>2021-05-10T14:21:10.000Z</time>
      </trkpt>
      <trkpt lat="49.06066" lon="1.55072">
        <ele>17.60000038147</ele>
        <time>2021-05-10T14:21:12.000Z</time>
      </trkpt>
      <trkpt lat="49.06069" lon="1.55059">
        <ele>17.60000038147</ele>
        <time>2021-05-10T14:21:16.000Z</time>
      </trkpt>
      <trkpt lat="49.06069" lon="1.55059">
        <ele>17.60000038147</ele>
        <time>2021-05-10T14:21:18.000Z</time>
      </trkpt>
      <trkpt lat="49.06069" lon="1.55056">
        <ele>18.200000762939</ele>
        <time>2021-05-10T14:21:21.000Z</time>
      </trkpt>
      <trkpt lat="49.06068" lon="1.55054">
        <ele>18.39999961853</ele>
        <time>2021-05-10T14:21:22.000Z</time>
      </trkpt>
      <trkpt lat="49.06065" lon="1.55038">
        <ele>18.60000038147</ele>
        <time>2021-05-10T14:21:26.000Z</time>
      </trkpt>
      <trkpt lat="49.06052" lon="1.54999">
        <ele>18.39999961853</ele>
        <time>2021-05-10T14:21:33.000Z</time>
      </trkpt>
      <trkpt lat="49.0604" lon="1.54958">
        <ele>17.799999237061</ele>
        <time>2021-05-10T14:21:41.000Z</time>
      </trkpt>
      <trkpt lat="49.06036" lon="1.54946">
        <ele>17.60000038147</ele>
        <time>2021-05-10T14:21:46.000Z</time>
      </trkpt>
      <trkpt lat="49.06031" lon="1.54921">
        <ele>17.60000038147</ele>
        <time>2021-05-10T14:21:53.000Z</time>
      </trkpt>
      <trkpt lat="49.06025" lon="1.54892">
        <ele>17.799999237061</ele>
        <time>2021-05-10T14:21:59.000Z</time>
      </trkpt>
      <trkpt lat="49.0602" lon="1.54867">
        <ele>18</ele>
        <time>2021-05-10T14:22:04.000Z</time>
      </trkpt>
      <trkpt lat="49.06011" lon="1.54822">
        <ele>18.200000762939</ele>
        <time>2021-05-10T14:22:11.000Z</time>
      </trkpt>
      <trkpt lat="49.06002" lon="1.5478">
        <ele>18.200000762939</ele>
        <time>2021-05-10T14:22:17.000Z</time>
      </trkpt>
      <trkpt lat="49.05995" lon="1.54747">
        <ele>18</ele>
        <time>2021-05-10T14:22:22.000Z</time>
      </trkpt>
      <trkpt lat="49.05992" lon="1.54732">
        <ele>17.799999237061</ele>
        <time>2021-05-10T14:22:24.000Z</time>
      </trkpt>
      <trkpt lat="49.05974" lon="1.54659">
        <ele>17</ele>
        <time>2021-05-10T14:22:34.000Z</time>
      </trkpt>
      <trkpt lat="49.05962" lon="1.54605">
        <ele>16.799999237061</ele>
        <time>2021-05-10T14:22:42.000Z</time>
      </trkpt>
      <trkpt lat="49.05949" lon="1.54548">
        <ele>17</ele>
        <time>2021-05-10T14:22:50.000Z</time>
      </trkpt>
      <trkpt lat="49.05937" lon="1.54497">
        <ele>17</ele>
        <time>2021-05-10T14:22:58.000Z</time>
      </trkpt>
      <trkpt lat="49.0593" lon="1.54466">
        <ele>17</ele>
        <time>2021-05-10T14:23:04.000Z</time>
      </trkpt>
      <trkpt lat="49.05922" lon="1.54431">
        <ele>17</ele>
        <time>2021-05-10T14:23:10.000Z</time>
      </trkpt>
      <trkpt lat="49.05907" lon="1.5437">
        <ele>17</ele>
        <time>2021-05-10T14:23:19.000Z</time>
      </trkpt>
      <trkpt lat="49.05892" lon="1.54321">
        <ele>17.200000762939</ele>
        <time>2021-05-10T14:23:27.000Z</time>
      </trkpt>
      <trkpt lat="49.05884" lon="1.54295">
        <ele>17.39999961853</ele>
        <time>2021-05-10T14:23:31.000Z</time>
      </trkpt>
      <trkpt lat="49.05879" lon="1.54279">
        <ele>17.60000038147</ele>
        <time>2021-05-10T14:23:34.000Z</time>
      </trkpt>
      <trkpt lat="49.05878" lon="1.54256">
        <ele>17.60000038147</ele>
        <time>2021-05-10T14:23:39.000Z</time>
      </trkpt>
      <trkpt lat="49.05888" lon="1.54237">
        <ele>17.799999237061</ele>
        <time>2021-05-10T14:23:44.000Z</time>
      </trkpt>
      <trkpt lat="49.05892" lon="1.54236">
        <ele>17.799999237061</ele>
        <time>2021-05-10T14:23:45.000Z</time>
      </trkpt>
      <trkpt lat="49.05906" lon="1.54247">
        <ele>17.60000038147</ele>
        <time>2021-05-10T14:23:49.000Z</time>
      </trkpt>
      <trkpt lat="49.0591" lon="1.54251">
        <ele>17.60000038147</ele>
        <time>2021-05-10T14:23:50.000Z</time>
      </trkpt>
      <trkpt lat="49.05924" lon="1.54266">
        <ele>17.60000038147</ele>
        <time>2021-05-10T14:23:54.000Z</time>
      </trkpt>
      <trkpt lat="49.05932" lon="1.54274">
        <ele>17.60000038147</ele>
        <time>2021-05-10T14:23:56.000Z</time>
      </trkpt>
      <trkpt lat="49.05961" lon="1.54302">
        <ele>17</ele>
        <time>2021-05-10T14:24:03.000Z</time>
      </trkpt>
      <trkpt lat="49.0597" lon="1.54312">
        <ele>17</ele>
        <time>2021-05-10T14:24:05.000Z</time>
      </trkpt>
      <trkpt lat="49.05982" lon="1.5433">
        <ele>17</ele>
        <time>2021-05-10T14:24:08.000Z</time>
      </trkpt>
      <trkpt lat="49.05996" lon="1.54344">
        <ele>16.799999237061</ele>
        <time>2021-05-10T14:24:11.000Z</time>
      </trkpt>
      <trkpt lat="49.06009" lon="1.54359">
        <ele>16</ele>
        <time>2021-05-10T14:24:14.000Z</time>
      </trkpt>
      <trkpt lat="49.06013" lon="1.54364">
        <ele>15.800000190735</ele>
        <time>2021-05-10T14:24:15.000Z</time>
      </trkpt>
      <trkpt lat="49.0602" lon="1.54375">
        <ele>15.60000038147</ele>
        <time>2021-05-10T14:24:17.000Z</time>
      </trkpt>
      <trkpt lat="49.06028" lon="1.54384">
        <ele>15.199999809265</ele>
        <time>2021-05-10T14:24:19.000Z</time>
      </trkpt>
      <trkpt lat="49.06039" lon="1.54398">
        <ele>15</ele>
        <time>2021-05-10T14:24:22.000Z</time>
      </trkpt>
      <trkpt lat="49.06044" lon="1.54408">
        <ele>15</ele>
        <time>2021-05-10T14:24:24.000Z</time>
      </trkpt>
      <trkpt lat="49.06058" lon="1.54428">
        <ele>14.800000190735</ele>
        <time>2021-05-10T14:24:29.000Z</time>
      </trkpt>
      <trkpt lat="49.06062" lon="1.5443">
        <ele>14.800000190735</ele>
        <time>2021-05-10T14:24:30.000Z</time>
      </trkpt>
      <trkpt lat="49.06074" lon="1.54443">
        <ele>14.60000038147</ele>
        <time>2021-05-10T14:24:34.000Z</time>
      </trkpt>
      <trkpt lat="49.06081" lon="1.54452">
        <ele>14.60000038147</ele>
        <time>2021-05-10T14:24:36.000Z</time>
      </trkpt>
      <trkpt lat="49.06093" lon="1.54474">
        <ele>14.39999961853</ele>
        <time>2021-05-10T14:24:40.000Z</time>
      </trkpt>
      <trkpt lat="49.06099" lon="1.54484">
        <ele>14.199999809265</ele>
        <time>2021-05-10T14:24:42.000Z</time>
      </trkpt>
      <trkpt lat="49.06109" lon="1.54504">
        <ele>14.199999809265</ele>
        <time>2021-05-10T14:24:46.000Z</time>
      </trkpt>
      <trkpt lat="49.06124" lon="1.54533">
        <ele>14.39999961853</ele>
        <time>2021-05-10T14:24:51.000Z</time>
      </trkpt>
      <trkpt lat="49.06127" lon="1.54539">
        <ele>14.39999961853</ele>
        <time>2021-05-10T14:24:52.000Z</time>
      </trkpt>
      <trkpt lat="49.06154" lon="1.54575">
        <ele>14.60000038147</ele>
        <time>2021-05-10T14:24:59.000Z</time>
      </trkpt>
      <trkpt lat="49.06157" lon="1.54581">
        <ele>14.60000038147</ele>
        <time>2021-05-10T14:25:00.000Z</time>
      </trkpt>
      <trkpt lat="49.06172" lon="1.54603">
        <ele>14.60000038147</ele>
        <time>2021-05-10T14:25:04.000Z</time>
      </trkpt>
      <trkpt lat="49.062" lon="1.54647">
        <ele>15</ele>
        <time>2021-05-10T14:25:12.000Z</time>
      </trkpt>
      <trkpt lat="49.06233" lon="1.54689">
        <ele>15</ele>
        <time>2021-05-10T14:25:21.000Z</time>
      </trkpt>
      <trkpt lat="49.06265" lon="1.54707">
        <ele>15</ele>
        <time>2021-05-10T14:25:27.000Z</time>
      </trkpt>
      <trkpt lat="49.06279" lon="1.54711">
        <ele>15</ele>
        <time>2021-05-10T14:25:30.000Z</time>
      </trkpt>
      <trkpt lat="49.06282" lon="1.54708">
        <ele>15</ele>
        <time>2021-05-10T14:25:31.000Z</time>
      </trkpt>
      <trkpt lat="49.06298" lon="1.54692">
        <ele>14.39999961853</ele>
        <time>2021-05-10T14:25:36.000Z</time>
      </trkpt>
      <trkpt lat="49.06329" lon="1.5467">
        <ele>14</ele>
        <time>2021-05-10T14:25:43.000Z</time>
      </trkpt>
      <trkpt lat="49.06334" lon="1.54666">
        <ele>13.800000190735</ele>
        <time>2021-05-10T14:25:44.000Z</time>
      </trkpt>
      <trkpt lat="49.06357" lon="1.54645">
        <ele>13.39999961853</ele>
        <time>2021-05-10T14:25:49.000Z</time>
      </trkpt>
      <trkpt lat="49.06368" lon="1.54641">
        <ele>13.199999809265</ele>
        <time>2021-05-10T14:25:52.000Z</time>
      </trkpt>
      <trkpt lat="49.0637" lon="1.54635">
        <ele>13</ele>
        <time>2021-05-10T14:25:55.000Z</time>
      </trkpt>
      <trkpt lat="49.06366" lon="1.54617">
        <ele>13</ele>
        <time>2021-05-10T14:25:59.000Z</time>
      </trkpt>
      <trkpt lat="49.06365" lon="1.54611">
        <ele>12.800000190735</ele>
        <time>2021-05-10T14:26:00.000Z</time>
      </trkpt>
      <trkpt lat="49.06363" lon="1.54599">
        <ele>12.800000190735</ele>
        <time>2021-05-10T14:26:02.000Z</time>
      </trkpt>
      <trkpt lat="49.0636" lon="1.54586">
        <ele>12.800000190735</ele>
        <time>2021-05-10T14:26:04.000Z</time>
      </trkpt>
      <trkpt lat="49.06358" lon="1.5458">
        <ele>12.60000038147</ele>
        <time>2021-05-10T14:26:05.000Z</time>
      </trkpt>
      <trkpt lat="49.06352" lon="1.54554">
        <ele>12.60000038147</ele>
        <time>2021-05-10T14:26:09.000Z</time>
      </trkpt>
      <trkpt lat="49.0635" lon="1.5454">
        <ele>12.39999961853</ele>
        <time>2021-05-10T14:26:11.000Z</time>
      </trkpt>
      <trkpt lat="49.06349" lon="1.54532">
        <ele>12.39999961853</ele>
        <time>2021-05-10T14:26:12.000Z</time>
      </trkpt>
      <trkpt lat="49.06346" lon="1.54492">
        <ele>12</ele>
        <time>2021-05-10T14:26:17.000Z</time>
      </trkpt>
      <trkpt lat="49.06344" lon="1.54468">
        <ele>12</ele>
        <time>2021-05-10T14:26:20.000Z</time>
      </trkpt>
      <trkpt lat="49.06344" lon="1.54448">
        <ele>12</ele>
        <time>2021-05-10T14:26:23.000Z</time>
      </trkpt>
      <trkpt lat="49.06346" lon="1.54392">
        <ele>12.39999961853</ele>
        <time>2021-05-10T14:26:31.000Z</time>
      </trkpt>
      <trkpt lat="49.06347" lon="1.54351">
        <ele>12.800000190735</ele>
        <time>2021-05-10T14:26:37.000Z</time>
      </trkpt>
      <trkpt lat="49.06348" lon="1.54331">
        <ele>13</ele>
        <time>2021-05-10T14:26:40.000Z</time>
      </trkpt>
      <trkpt lat="49.06351" lon="1.54318">
        <ele>13</ele>
        <time>2021-05-10T14:26:42.000Z</time>
      </trkpt>
      <trkpt lat="49.06365" lon="1.54279">
        <ele>13</ele>
        <time>2021-05-10T14:26:49.000Z</time>
      </trkpt>
      <trkpt lat="49.06378" lon="1.54239">
        <ele>13.199999809265</ele>
        <time>2021-05-10T14:26:56.000Z</time>
      </trkpt>
      <trkpt lat="49.06394" lon="1.54202">
        <ele>13.199999809265</ele>
        <time>2021-05-10T14:27:03.000Z</time>
      </trkpt>
      <trkpt lat="49.06398" lon="1.54191">
        <ele>13</ele>
        <time>2021-05-10T14:27:05.000Z</time>
      </trkpt>
      <trkpt lat="49.06399" lon="1.54171">
        <ele>12.800000190735</ele>
        <time>2021-05-10T14:27:08.000Z</time>
      </trkpt>
      <trkpt lat="49.06396" lon="1.54159">
        <ele>12.800000190735</ele>
        <time>2021-05-10T14:27:10.000Z</time>
      </trkpt>
      <trkpt lat="49.0639" lon="1.54134">
        <ele>12.800000190735</ele>
        <time>2021-05-10T14:27:14.000Z</time>
      </trkpt>
      <trkpt lat="49.06389" lon="1.54122">
        <ele>12.60000038147</ele>
        <time>2021-05-10T14:27:16.000Z</time>
      </trkpt>
      <trkpt lat="49.06388" lon="1.54109">
        <ele>12.60000038147</ele>
        <time>2021-05-10T14:27:18.000Z</time>
      </trkpt>
      <trkpt lat="49.06389" lon="1.54096">
        <ele>12.60000038147</ele>
        <time>2021-05-10T14:27:20.000Z</time>
      </trkpt>
      <trkpt lat="49.06389" lon="1.5406">
        <ele>12.199999809265</ele>
        <time>2021-05-10T14:27:26.000Z</time>
      </trkpt>
      <trkpt lat="49.06388" lon="1.54017">
        <ele>12.199999809265</ele>
        <time>2021-05-10T14:27:33.000Z</time>
      </trkpt>
      <trkpt lat="49.06385" lon="1.5397">
        <ele>12.199999809265</ele>
        <time>2021-05-10T14:27:41.000Z</time>
      </trkpt>
      <trkpt lat="49.06378" lon="1.53928">
        <ele>12.199999809265</ele>
        <time>2021-05-10T14:27:48.000Z</time>
      </trkpt>
      <trkpt lat="49.06377" lon="1.53922">
        <ele>12.199999809265</ele>
        <time>2021-05-10T14:27:49.000Z</time>
      </trkpt>
      <trkpt lat="49.06373" lon="1.53911">
        <ele>12.199999809265</ele>
        <time>2021-05-10T14:27:51.000Z</time>
      </trkpt>
      <trkpt lat="49.06364" lon="1.5389">
        <ele>12.199999809265</ele>
        <time>2021-05-10T14:27:55.000Z</time>
      </trkpt>
      <trkpt lat="49.06351" lon="1.53858">
        <ele>13.199999809265</ele>
        <time>2021-05-10T14:28:01.000Z</time>
      </trkpt>
      <trkpt lat="49.06349" lon="1.53846">
        <ele>13.39999961853</ele>
        <time>2021-05-10T14:28:03.000Z</time>
      </trkpt>
      <trkpt lat="49.0634" lon="1.53793">
        <ele>13.39999961853</ele>
        <time>2021-05-10T14:28:12.000Z</time>
      </trkpt>
      <trkpt lat="49.0633" lon="1.53745">
        <ele>13.39999961853</ele>
        <time>2021-05-10T14:28:20.000Z</time>
      </trkpt>
      <trkpt lat="49.06318" lon="1.5374">
        <ele>13.39999961853</ele>
        <time>2021-05-10T14:28:23.000Z</time>
      </trkpt>
      <trkpt lat="49.0631" lon="1.53744">
        <ele>13.39999961853</ele>
        <time>2021-05-10T14:28:25.000Z</time>
      </trkpt>
      <trkpt lat="49.06294" lon="1.53754">
        <ele>13.60000038147</ele>
        <time>2021-05-10T14:28:29.000Z</time>
      </trkpt>
      <trkpt lat="49.06257" lon="1.53775">
        <ele>13.39999961853</ele>
        <time>2021-05-10T14:28:38.000Z</time>
      </trkpt>
      <trkpt lat="49.06252" lon="1.53777">
        <ele>13.39999961853</ele>
        <time>2021-05-10T14:28:39.000Z</time>
      </trkpt>
      <trkpt lat="49.06243" lon="1.53776">
        <ele>13.39999961853</ele>
        <time>2021-05-10T14:28:41.000Z</time>
      </trkpt>
      <trkpt lat="49.06235" lon="1.53758">
        <ele>13.199999809265</ele>
        <time>2021-05-10T14:28:44.000Z</time>
      </trkpt>
      <trkpt lat="49.06233" lon="1.53752">
        <ele>13</ele>
        <time>2021-05-10T14:28:45.000Z</time>
      </trkpt>
      <trkpt lat="49.06222" lon="1.53707">
        <ele>12.60000038147</ele>
        <time>2021-05-10T14:28:52.000Z</time>
      </trkpt>
      <trkpt lat="49.0621" lon="1.5366">
        <ele>12.39999961853</ele>
        <time>2021-05-10T14:28:59.000Z</time>
      </trkpt>
      <trkpt lat="49.06207" lon="1.53647">
        <ele>12.199999809265</ele>
        <time>2021-05-10T14:29:01.000Z</time>
      </trkpt>
      <trkpt lat="49.06193" lon="1.5359">
        <ele>12.199999809265</ele>
        <time>2021-05-10T14:29:09.000Z</time>
      </trkpt>
      <trkpt lat="49.06183" lon="1.53557">
        <ele>12.60000038147</ele>
        <time>2021-05-10T14:29:15.000Z</time>
      </trkpt>
      <trkpt lat="49.0617" lon="1.53537">
        <ele>12.800000190735</ele>
        <time>2021-05-10T14:29:21.000Z</time>
      </trkpt>
      <trkpt lat="49.06156" lon="1.53514">
        <ele>13</ele>
        <time>2021-05-10T14:29:27.000Z</time>
      </trkpt>
      <trkpt lat="49.06151" lon="1.53499">
        <ele>13</ele>
        <time>2021-05-10T14:29:31.000Z</time>
      </trkpt>
      <trkpt lat="49.06152" lon="1.53494">
        <ele>13</ele>
        <time>2021-05-10T14:29:32.000Z</time>
      </trkpt>
      <trkpt lat="49.06168" lon="1.53479">
        <ele>13</ele>
        <time>2021-05-10T14:29:37.000Z</time>
      </trkpt>
      <trkpt lat="49.06174" lon="1.53475">
        <ele>12.800000190735</ele>
        <time>2021-05-10T14:29:41.000Z</time>
      </trkpt>
      <trkpt lat="49.06172" lon="1.53476">
        <ele>13</ele>
        <time>2021-05-10T14:29:46.000Z</time>
      </trkpt>
      <trkpt lat="49.0617" lon="1.53475">
        <ele>13</ele>
        <time>2021-05-10T14:29:49.000Z</time>
      </trkpt>
      <trkpt lat="49.06168" lon="1.53475">
        <ele>13.199999809265</ele>
        <time>2021-05-10T14:29:53.000Z</time>
      </trkpt>
      <trkpt lat="49.06169" lon="1.53475">
        <ele>13.60000038147</ele>
        <time>2021-05-10T14:31:08.000Z</time>
      </trkpt>
      <trkpt lat="49.0617" lon="1.53475">
        <ele>13.39999961853</ele>
        <time>2021-05-10T14:31:09.000Z</time>
      </trkpt>
      <trkpt lat="49.06179" lon="1.53473">
        <ele>13.60000038147</ele>
        <time>2021-05-10T14:31:13.000Z</time>
      </trkpt>
      <trkpt lat="49.06197" lon="1.53476">
        <ele>13.60000038147</ele>
        <time>2021-05-10T14:31:18.000Z</time>
      </trkpt>
      <trkpt lat="49.06223" lon="1.5348">
        <ele>13.60000038147</ele>
        <time>2021-05-10T14:31:24.000Z</time>
      </trkpt>
      <trkpt lat="49.06245" lon="1.53479">
        <ele>14</ele>
        <time>2021-05-10T14:31:29.000Z</time>
      </trkpt>
      <trkpt lat="49.0625" lon="1.53479">
        <ele>14.199999809265</ele>
        <time>2021-05-10T14:31:30.000Z</time>
      </trkpt>
      <trkpt lat="49.06265" lon="1.5348">
        <ele>14.39999961853</ele>
        <time>2021-05-10T14:31:33.000Z</time>
      </trkpt>
      <trkpt lat="49.06274" lon="1.53483">
        <ele>14.39999961853</ele>
        <time>2021-05-10T14:31:35.000Z</time>
      </trkpt>
      <trkpt lat="49.06287" lon="1.53486">
        <ele>14.800000190735</ele>
        <time>2021-05-10T14:31:38.000Z</time>
      </trkpt>
      <trkpt lat="49.06291" lon="1.53488">
        <ele>14.800000190735</ele>
        <time>2021-05-10T14:31:39.000Z</time>
      </trkpt>
      <trkpt lat="49.06305" lon="1.53491">
        <ele>15.199999809265</ele>
        <time>2021-05-10T14:31:42.000Z</time>
      </trkpt>
      <trkpt lat="49.0631" lon="1.53491">
        <ele>15.199999809265</ele>
        <time>2021-05-10T14:31:43.000Z</time>
      </trkpt>
      <trkpt lat="49.06315" lon="1.5349">
        <ele>15.199999809265</ele>
        <time>2021-05-10T14:31:44.000Z</time>
      </trkpt>
      <trkpt lat="49.0633" lon="1.53482">
        <ele>15.39999961853</ele>
        <time>2021-05-10T14:31:47.000Z</time>
      </trkpt>
      <trkpt lat="49.06358" lon="1.53465">
        <ele>15.199999809265</ele>
        <time>2021-05-10T14:31:53.000Z</time>
      </trkpt>
      <trkpt lat="49.06401" lon="1.53439">
        <ele>15</ele>
        <time>2021-05-10T14:32:02.000Z</time>
      </trkpt>
      <trkpt lat="49.06448" lon="1.5341">
        <ele>14.800000190735</ele>
        <time>2021-05-10T14:32:12.000Z</time>
      </trkpt>
      <trkpt lat="49.06483" lon="1.53388">
        <ele>15</ele>
        <time>2021-05-10T14:32:20.000Z</time>
      </trkpt>
      <trkpt lat="49.06525" lon="1.53362">
        <ele>15.39999961853</ele>
        <time>2021-05-10T14:32:29.000Z</time>
      </trkpt>
      <trkpt lat="49.06562" lon="1.53339">
        <ele>15.39999961853</ele>
        <time>2021-05-10T14:32:37.000Z</time>
      </trkpt>
      <trkpt lat="49.0661" lon="1.53311">
        <ele>15.39999961853</ele>
        <time>2021-05-10T14:32:47.000Z</time>
      </trkpt>
      <trkpt lat="49.06657" lon="1.53285">
        <ele>14.800000190735</ele>
        <time>2021-05-10T14:32:57.000Z</time>
      </trkpt>
      <trkpt lat="49.06671" lon="1.53279">
        <ele>14.800000190735</ele>
        <time>2021-05-10T14:33:00.000Z</time>
      </trkpt>
      <trkpt lat="49.0668" lon="1.53275">
        <ele>14.800000190735</ele>
        <time>2021-05-10T14:33:02.000Z</time>
      </trkpt>
      <trkpt lat="49.06693" lon="1.53269">
        <ele>14.800000190735</ele>
        <time>2021-05-10T14:33:05.000Z</time>
      </trkpt>
      <trkpt lat="49.06706" lon="1.53263">
        <ele>14.800000190735</ele>
        <time>2021-05-10T14:33:08.000Z</time>
      </trkpt>
      <trkpt lat="49.06715" lon="1.53259">
        <ele>14.800000190735</ele>
        <time>2021-05-10T14:33:10.000Z</time>
      </trkpt>
      <trkpt lat="49.06734" lon="1.53251">
        <ele>14.800000190735</ele>
        <time>2021-05-10T14:33:14.000Z</time>
      </trkpt>
      <trkpt lat="49.06749" lon="1.53244">
        <ele>14.800000190735</ele>
        <time>2021-05-10T14:33:17.000Z</time>
      </trkpt>
      <trkpt lat="49.06795" lon="1.53222">
        <ele>14</ele>
        <time>2021-05-10T14:33:26.000Z</time>
      </trkpt>
      <trkpt lat="49.0682" lon="1.53208">
        <ele>14</ele>
        <time>2021-05-10T14:33:32.000Z</time>
      </trkpt>
      <trkpt lat="49.06848" lon="1.53193">
        <ele>13.800000190735</ele>
        <time>2021-05-10T14:33:39.000Z</time>
      </trkpt>
      <trkpt lat="49.0686" lon="1.53188">
        <ele>13.800000190735</ele>
        <time>2021-05-10T14:33:43.000Z</time>
      </trkpt>
      <trkpt lat="49.06862" lon="1.53188">
        <ele>13.800000190735</ele>
        <time>2021-05-10T14:33:44.000Z</time>
      </trkpt>
      <trkpt lat="49.06868" lon="1.53204">
        <ele>14</ele>
        <time>2021-05-10T14:33:49.000Z</time>
      </trkpt>
      <trkpt lat="49.06874" lon="1.53236">
        <ele>15</ele>
        <time>2021-05-10T14:33:55.000Z</time>
      </trkpt>
      <trkpt lat="49.06881" lon="1.53284">
        <ele>15.199999809265</ele>
        <time>2021-05-10T14:34:02.000Z</time>
      </trkpt>
      <trkpt lat="49.06891" lon="1.53346">
        <ele>15.199999809265</ele>
        <time>2021-05-10T14:34:11.000Z</time>
      </trkpt>
      <trkpt lat="49.069" lon="1.53409">
        <ele>15.39999961853</ele>
        <time>2021-05-10T14:34:20.000Z</time>
      </trkpt>
      <trkpt lat="49.06909" lon="1.53458">
        <ele>15.39999961853</ele>
        <time>2021-05-10T14:34:27.000Z</time>
      </trkpt>
      <trkpt lat="49.06919" lon="1.53522">
        <ele>15.39999961853</ele>
        <time>2021-05-10T14:34:36.000Z</time>
      </trkpt>
      <trkpt lat="49.06926" lon="1.53557">
        <ele>15.199999809265</ele>
        <time>2021-05-10T14:34:41.000Z</time>
      </trkpt>
      <trkpt lat="49.06931" lon="1.5357">
        <ele>15.199999809265</ele>
        <time>2021-05-10T14:34:43.000Z</time>
      </trkpt>
      <trkpt lat="49.06942" lon="1.53599">
        <ele>15.199999809265</ele>
        <time>2021-05-10T14:34:48.000Z</time>
      </trkpt>
      <trkpt lat="49.0695" lon="1.53645">
        <ele>15</ele>
        <time>2021-05-10T14:34:55.000Z</time>
      </trkpt>
      <trkpt lat="49.06959" lon="1.537">
        <ele>15</ele>
        <time>2021-05-10T14:35:03.000Z</time>
      </trkpt>
      <trkpt lat="49.06967" lon="1.53755">
        <ele>15</ele>
        <time>2021-05-10T14:35:11.000Z</time>
      </trkpt>
      <trkpt lat="49.06965" lon="1.53779">
        <ele>15</ele>
        <time>2021-05-10T14:35:15.000Z</time>
      </trkpt>
      <trkpt lat="49.06966" lon="1.53784">
        <ele>15</ele>
        <time>2021-05-10T14:35:16.000Z</time>
      </trkpt>
      <trkpt lat="49.06971" lon="1.53791">
        <ele>15</ele>
        <time>2021-05-10T14:35:18.000Z</time>
      </trkpt>
      <trkpt lat="49.06977" lon="1.53795">
        <ele>15</ele>
        <time>2021-05-10T14:35:20.000Z</time>
      </trkpt>
      <trkpt lat="49.06985" lon="1.53799">
        <ele>15</ele>
        <time>2021-05-10T14:35:22.000Z</time>
      </trkpt>
      <trkpt lat="49.07014" lon="1.53813">
        <ele>15.39999961853</ele>
        <time>2021-05-10T14:35:29.000Z</time>
      </trkpt>
      <trkpt lat="49.07045" lon="1.53829">
        <ele>15.39999961853</ele>
        <time>2021-05-10T14:35:36.000Z</time>
      </trkpt>
      <trkpt lat="49.07073" lon="1.53842">
        <ele>15.39999961853</ele>
        <time>2021-05-10T14:35:42.000Z</time>
      </trkpt>
      <trkpt lat="49.07101" lon="1.53858">
        <ele>15.199999809265</ele>
        <time>2021-05-10T14:35:48.000Z</time>
      </trkpt>
      <trkpt lat="49.07134" lon="1.53872">
        <ele>15</ele>
        <time>2021-05-10T14:35:55.000Z</time>
      </trkpt>
      <trkpt lat="49.07153" lon="1.53876">
        <ele>14.800000190735</ele>
        <time>2021-05-10T14:35:59.000Z</time>
      </trkpt>
      <trkpt lat="49.07163" lon="1.5388">
        <ele>14.60000038147</ele>
        <time>2021-05-10T14:36:01.000Z</time>
      </trkpt>
      <trkpt lat="49.07177" lon="1.53886">
        <ele>14.39999961853</ele>
        <time>2021-05-10T14:36:04.000Z</time>
      </trkpt>
      <trkpt lat="49.07181" lon="1.53889">
        <ele>14.39999961853</ele>
        <time>2021-05-10T14:36:05.000Z</time>
      </trkpt>
      <trkpt lat="49.07184" lon="1.53891">
        <ele>14.39999961853</ele>
        <time>2021-05-10T14:36:07.000Z</time>
      </trkpt>
      <trkpt lat="49.07185" lon="1.53891">
        <ele>14.39999961853</ele>
        <time>2021-05-10T14:36:08.000Z</time>
      </trkpt>
      <trkpt lat="49.07185" lon="1.53891">
        <ele>14.60000038147</ele>
        <time>2021-05-10T14:36:10.000Z</time>
      </trkpt>
      <trkpt lat="49.07185" lon="1.53893">
        <ele>14.800000190735</ele>
        <time>2021-05-10T14:36:13.000Z</time>
      </trkpt>
      <trkpt lat="49.07185" lon="1.53895">
        <ele>14.800000190735</ele>
        <time>2021-05-10T14:36:14.000Z</time>
      </trkpt>
      <trkpt lat="49.07187" lon="1.53911">
        <ele>14.800000190735</ele>
        <time>2021-05-10T14:36:18.000Z</time>
      </trkpt>
      <trkpt lat="49.07188" lon="1.53917">
        <ele>14.800000190735</ele>
        <time>2021-05-10T14:36:19.000Z</time>
      </trkpt>
      <trkpt lat="49.07198" lon="1.53949">
        <ele>14.800000190735</ele>
        <time>2021-05-10T14:36:24.000Z</time>
      </trkpt>
      <trkpt lat="49.07213" lon="1.53993">
        <ele>14.800000190735</ele>
        <time>2021-05-10T14:36:30.000Z</time>
      </trkpt>
      <trkpt lat="49.07231" lon="1.54048">
        <ele>14.60000038147</ele>
        <time>2021-05-10T14:36:38.000Z</time>
      </trkpt>
      <trkpt lat="49.0725" lon="1.5411">
        <ele>14.39999961853</ele>
        <time>2021-05-10T14:36:47.000Z</time>
      </trkpt>
      <trkpt lat="49.07266" lon="1.5416">
        <ele>14.39999961853</ele>
        <time>2021-05-10T14:36:55.000Z</time>
      </trkpt>
      <trkpt lat="49.07272" lon="1.5418">
        <ele>14.39999961853</ele>
        <time>2021-05-10T14:36:59.000Z</time>
      </trkpt>
      <trkpt lat="49.07275" lon="1.54182">
        <ele>14.60000038147</ele>
        <time>2021-05-10T14:37:00.000Z</time>
      </trkpt>
      <trkpt lat="49.07282" lon="1.54182">
        <ele>14.800000190735</ele>
        <time>2021-05-10T14:37:03.000Z</time>
      </trkpt>
      <trkpt lat="49.07286" lon="1.54181">
        <ele>15</ele>
        <time>2021-05-10T14:37:04.000Z</time>
      </trkpt>
      <trkpt lat="49.07303" lon="1.54174">
        <ele>15.39999961853</ele>
        <time>2021-05-10T14:37:08.000Z</time>
      </trkpt>
      <trkpt lat="49.07307" lon="1.54171">
        <ele>15.39999961853</ele>
        <time>2021-05-10T14:37:09.000Z</time>
      </trkpt>
      <trkpt lat="49.07341" lon="1.54151">
        <ele>15.60000038147</ele>
        <time>2021-05-10T14:37:17.000Z</time>
      </trkpt>
      <trkpt lat="49.07345" lon="1.54149">
        <ele>15.60000038147</ele>
        <time>2021-05-10T14:37:18.000Z</time>
      </trkpt>
      <trkpt lat="49.07363" lon="1.54146">
        <ele>15.800000190735</ele>
        <time>2021-05-10T14:37:22.000Z</time>
      </trkpt>
      <trkpt lat="49.07388" lon="1.54149">
        <ele>16.200000762939</ele>
        <time>2021-05-10T14:37:28.000Z</time>
      </trkpt>
      <trkpt lat="49.07399" lon="1.54148">
        <ele>16.60000038147</ele>
        <time>2021-05-10T14:37:31.000Z</time>
      </trkpt>
      <trkpt lat="49.07401" lon="1.54145">
        <ele>16.799999237061</ele>
        <time>2021-05-10T14:37:32.000Z</time>
      </trkpt>
      <trkpt lat="49.07407" lon="1.54121">
        <ele>16.799999237061</ele>
        <time>2021-05-10T14:37:36.000Z</time>
      </trkpt>
      <trkpt lat="49.07407" lon="1.54115">
        <ele>16.799999237061</ele>
        <time>2021-05-10T14:37:37.000Z</time>
      </trkpt>
      <trkpt lat="49.07407" lon="1.54085">
        <ele>16.39999961853</ele>
        <time>2021-05-10T14:37:42.000Z</time>
      </trkpt>
      <trkpt lat="49.07408" lon="1.54058">
        <ele>16.200000762939</ele>
        <time>2021-05-10T14:37:47.000Z</time>
      </trkpt>
      <trkpt lat="49.07408" lon="1.54006">
        <ele>15.39999961853</ele>
        <time>2021-05-10T14:37:55.000Z</time>
      </trkpt>
      <trkpt lat="49.07408" lon="1.53999">
        <ele>15.39999961853</ele>
        <time>2021-05-10T14:37:56.000Z</time>
      </trkpt>
      <trkpt lat="49.07412" lon="1.53989">
        <ele>15.39999961853</ele>
        <time>2021-05-10T14:37:58.000Z</time>
      </trkpt>
      <trkpt lat="49.07413" lon="1.53981">
        <ele>15.39999961853</ele>
        <time>2021-05-10T14:38:00.000Z</time>
      </trkpt>
      <trkpt lat="49.07412" lon="1.53977">
        <ele>15.39999961853</ele>
        <time>2021-05-10T14:38:01.000Z</time>
      </trkpt>
      <trkpt lat="49.0741" lon="1.53956">
        <ele>15.199999809265</ele>
        <time>2021-05-10T14:38:05.000Z</time>
      </trkpt>
      <trkpt lat="49.07411" lon="1.5395">
        <ele>15.199999809265</ele>
        <time>2021-05-10T14:38:06.000Z</time>
      </trkpt>
      <trkpt lat="49.07413" lon="1.5391">
        <ele>15</ele>
        <time>2021-05-10T14:38:13.000Z</time>
      </trkpt>
      <trkpt lat="49.0742" lon="1.53872">
        <ele>15</ele>
        <time>2021-05-10T14:38:20.000Z</time>
      </trkpt>
      <trkpt lat="49.07421" lon="1.53868">
        <ele>15</ele>
        <time>2021-05-10T14:38:21.000Z</time>
      </trkpt>
      <trkpt lat="49.07422" lon="1.53866">
        <ele>14.800000190735</ele>
        <time>2021-05-10T14:38:23.000Z</time>
      </trkpt>
      <trkpt lat="49.07422" lon="1.53866">
        <ele>14.800000190735</ele>
        <time>2021-05-10T14:38:24.000Z</time>
      </trkpt>
      <trkpt lat="49.07422" lon="1.53861">
        <ele>14.800000190735</ele>
        <time>2021-05-10T14:38:27.000Z</time>
      </trkpt>
      <trkpt lat="49.07421" lon="1.53857">
        <ele>15</ele>
        <time>2021-05-10T14:38:28.000Z</time>
      </trkpt>
      <trkpt lat="49.07425" lon="1.53829">
        <ele>15</ele>
        <time>2021-05-10T14:38:33.000Z</time>
      </trkpt>
      <trkpt lat="49.07427" lon="1.53815">
        <ele>14.800000190735</ele>
        <time>2021-05-10T14:38:35.000Z</time>
      </trkpt>
      <trkpt lat="49.0743" lon="1.53801">
        <ele>14.800000190735</ele>
        <time>2021-05-10T14:38:37.000Z</time>
      </trkpt>
      <trkpt lat="49.07431" lon="1.53786">
        <ele>14.800000190735</ele>
        <time>2021-05-10T14:38:39.000Z</time>
      </trkpt>
      <trkpt lat="49.07433" lon="1.53771">
        <ele>14.800000190735</ele>
        <time>2021-05-10T14:38:41.000Z</time>
      </trkpt>
      <trkpt lat="49.07438" lon="1.53751">
        <ele>14.60000038147</ele>
        <time>2021-05-10T14:38:44.000Z</time>
      </trkpt>
      <trkpt lat="49.07451" lon="1.53713">
        <ele>14.39999961853</ele>
        <time>2021-05-10T14:38:51.000Z</time>
      </trkpt>
      <trkpt lat="49.07463" lon="1.53695">
        <ele>14.60000038147</ele>
        <time>2021-05-10T14:38:55.000Z</time>
      </trkpt>
      <trkpt lat="49.07466" lon="1.53691">
        <ele>14.800000190735</ele>
        <time>2021-05-10T14:38:56.000Z</time>
      </trkpt>
      <trkpt lat="49.07481" lon="1.53672">
        <ele>15.199999809265</ele>
        <time>2021-05-10T14:39:01.000Z</time>
      </trkpt>
      <trkpt lat="49.07484" lon="1.53669">
        <ele>15.199999809265</ele>
        <time>2021-05-10T14:39:02.000Z</time>
      </trkpt>
      <trkpt lat="49.07499" lon="1.53648">
        <ele>16.39999961853</ele>
        <time>2021-05-10T14:39:08.000Z</time>
      </trkpt>
      <trkpt lat="49.07502" lon="1.53644">
        <ele>16.60000038147</ele>
        <time>2021-05-10T14:39:09.000Z</time>
      </trkpt>
      <trkpt lat="49.0751" lon="1.53626">
        <ele>17.39999961853</ele>
        <time>2021-05-10T14:39:13.000Z</time>
      </trkpt>
      <trkpt lat="49.07514" lon="1.53611">
        <ele>17.799999237061</ele>
        <time>2021-05-10T14:39:16.000Z</time>
      </trkpt>
      <trkpt lat="49.07517" lon="1.53601">
        <ele>18.39999961853</ele>
        <time>2021-05-10T14:39:18.000Z</time>
      </trkpt>
      <trkpt lat="49.07522" lon="1.53568">
        <ele>19.200000762939</ele>
        <time>2021-05-10T14:39:24.000Z</time>
      </trkpt>
      <trkpt lat="49.07523" lon="1.53558">
        <ele>19.60000038147</ele>
        <time>2021-05-10T14:39:26.000Z</time>
      </trkpt>
      <trkpt lat="49.07526" lon="1.53528">
        <ele>20.60000038147</ele>
        <time>2021-05-10T14:39:31.000Z</time>
      </trkpt>
      <trkpt lat="49.07534" lon="1.53466">
        <ele>21.60000038147</ele>
        <time>2021-05-10T14:39:41.000Z</time>
      </trkpt>
      <trkpt lat="49.07534" lon="1.5346">
        <ele>21.60000038147</ele>
        <time>2021-05-10T14:39:42.000Z</time>
      </trkpt>
      <trkpt lat="49.07539" lon="1.53428">
        <ele>21.39999961853</ele>
        <time>2021-05-10T14:39:47.000Z</time>
      </trkpt>
      <trkpt lat="49.07541" lon="1.53409">
        <ele>21.60000038147</ele>
        <time>2021-05-10T14:39:50.000Z</time>
      </trkpt>
      <trkpt lat="49.07545" lon="1.53371">
        <ele>21.60000038147</ele>
        <time>2021-05-10T14:39:56.000Z</time>
      </trkpt>
      <trkpt lat="49.07549" lon="1.53318">
        <ele>20.60000038147</ele>
        <time>2021-05-10T14:40:03.000Z</time>
      </trkpt>
      <trkpt lat="49.07557" lon="1.53263">
        <ele>19.799999237061</ele>
        <time>2021-05-10T14:40:10.000Z</time>
      </trkpt>
      <trkpt lat="49.07559" lon="1.53256">
        <ele>19.799999237061</ele>
        <time>2021-05-10T14:40:11.000Z</time>
      </trkpt>
      <trkpt lat="49.0757" lon="1.53212">
        <ele>19.60000038147</ele>
        <time>2021-05-10T14:40:18.000Z</time>
      </trkpt>
      <trkpt lat="49.0758" lon="1.53176">
        <ele>19.799999237061</ele>
        <time>2021-05-10T14:40:24.000Z</time>
      </trkpt>
      <trkpt lat="49.07594" lon="1.53131">
        <ele>19.799999237061</ele>
        <time>2021-05-10T14:40:31.000Z</time>
      </trkpt>
      <trkpt lat="49.07612" lon="1.53068">
        <ele>20</ele>
        <time>2021-05-10T14:40:40.000Z</time>
      </trkpt>
      <trkpt lat="49.07622" lon="1.53034">
        <ele>20.60000038147</ele>
        <time>2021-05-10T14:40:45.000Z</time>
      </trkpt>
      <trkpt lat="49.07625" lon="1.53028">
        <ele>20.60000038147</ele>
        <time>2021-05-10T14:40:46.000Z</time>
      </trkpt>
      <trkpt lat="49.0763" lon="1.53008">
        <ele>20.799999237061</ele>
        <time>2021-05-10T14:40:49.000Z</time>
      </trkpt>
      <trkpt lat="49.07637" lon="1.52987">
        <ele>21.200000762939</ele>
        <time>2021-05-10T14:40:52.000Z</time>
      </trkpt>
      <trkpt lat="49.07643" lon="1.52967">
        <ele>21.799999237061</ele>
        <time>2021-05-10T14:40:55.000Z</time>
      </trkpt>
      <trkpt lat="49.07653" lon="1.52928">
        <ele>22.799999237061</ele>
        <time>2021-05-10T14:41:01.000Z</time>
      </trkpt>
      <trkpt lat="49.07664" lon="1.52887">
        <ele>24</ele>
        <time>2021-05-10T14:41:07.000Z</time>
      </trkpt>
      <trkpt lat="49.07668" lon="1.52866">
        <ele>24.799999237061</ele>
        <time>2021-05-10T14:41:10.000Z</time>
      </trkpt>
      <trkpt lat="49.07669" lon="1.5286">
        <ele>25</ele>
        <time>2021-05-10T14:41:11.000Z</time>
      </trkpt>
      <trkpt lat="49.07678" lon="1.52807">
        <ele>25.200000762939</ele>
        <time>2021-05-10T14:41:18.000Z</time>
      </trkpt>
      <trkpt lat="49.07679" lon="1.528">
        <ele>25.200000762939</ele>
        <time>2021-05-10T14:41:19.000Z</time>
      </trkpt>
      <trkpt lat="49.0768" lon="1.52784">
        <ele>25.200000762939</ele>
        <time>2021-05-10T14:41:21.000Z</time>
      </trkpt>
      <trkpt lat="49.07681" lon="1.52777">
        <ele>25.200000762939</ele>
        <time>2021-05-10T14:41:22.000Z</time>
      </trkpt>
      <trkpt lat="49.07685" lon="1.52755">
        <ele>24.60000038147</ele>
        <time>2021-05-10T14:41:25.000Z</time>
      </trkpt>
      <trkpt lat="49.07689" lon="1.52732">
        <ele>24.39999961853</ele>
        <time>2021-05-10T14:41:28.000Z</time>
      </trkpt>
      <trkpt lat="49.07696" lon="1.52677">
        <ele>24.200000762939</ele>
        <time>2021-05-10T14:41:35.000Z</time>
      </trkpt>
      <trkpt lat="49.07707" lon="1.52605">
        <ele>24.200000762939</ele>
        <time>2021-05-10T14:41:45.000Z</time>
      </trkpt>
      <trkpt lat="49.07713" lon="1.52565">
        <ele>24.60000038147</ele>
        <time>2021-05-10T14:41:51.000Z</time>
      </trkpt>
      <trkpt lat="49.07716" lon="1.52547">
        <ele>25</ele>
        <time>2021-05-10T14:41:54.000Z</time>
      </trkpt>
      <trkpt lat="49.07724" lon="1.52511">
        <ele>25.799999237061</ele>
        <time>2021-05-10T14:42:00.000Z</time>
      </trkpt>
      <trkpt lat="49.07726" lon="1.52499">
        <ele>26.200000762939</ele>
        <time>2021-05-10T14:42:02.000Z</time>
      </trkpt>
      <trkpt lat="49.07731" lon="1.52462">
        <ele>27</ele>
        <time>2021-05-10T14:42:08.000Z</time>
      </trkpt>
      <trkpt lat="49.07731" lon="1.52449">
        <ele>27.799999237061</ele>
        <time>2021-05-10T14:42:10.000Z</time>
      </trkpt>
      <trkpt lat="49.07732" lon="1.52442">
        <ele>28.200000762939</ele>
        <time>2021-05-10T14:42:11.000Z</time>
      </trkpt>
      <trkpt lat="49.07735" lon="1.52416">
        <ele>28.60000038147</ele>
        <time>2021-05-10T14:42:15.000Z</time>
      </trkpt>
      <trkpt lat="49.0774" lon="1.52376">
        <ele>28.799999237061</ele>
        <time>2021-05-10T14:42:21.000Z</time>
      </trkpt>
      <trkpt lat="49.07742" lon="1.5237">
        <ele>28.799999237061</ele>
        <time>2021-05-10T14:42:22.000Z</time>
      </trkpt>
      <trkpt lat="49.07753" lon="1.52323">
        <ele>28.799999237061</ele>
        <time>2021-05-10T14:42:29.000Z</time>
      </trkpt>
      <trkpt lat="49.07769" lon="1.52281">
        <ele>28.200000762939</ele>
        <time>2021-05-10T14:42:36.000Z</time>
      </trkpt>
      <trkpt lat="49.07773" lon="1.5227">
        <ele>28.200000762939</ele>
        <time>2021-05-10T14:42:38.000Z</time>
      </trkpt>
      <trkpt lat="49.07783" lon="1.52239">
        <ele>27.39999961853</ele>
        <time>2021-05-10T14:42:43.000Z</time>
      </trkpt>
      <trkpt lat="49.07791" lon="1.52213">
        <ele>27</ele>
        <time>2021-05-10T14:42:47.000Z</time>
      </trkpt>
      <trkpt lat="49.07802" lon="1.52182">
        <ele>26.200000762939</ele>
        <time>2021-05-10T14:42:52.000Z</time>
      </trkpt>
      <trkpt lat="49.07805" lon="1.52177">
        <ele>26</ele>
        <time>2021-05-10T14:42:53.000Z</time>
      </trkpt>
      <trkpt lat="49.0782" lon="1.52156">
        <ele>25.799999237061</ele>
        <time>2021-05-10T14:42:57.000Z</time>
      </trkpt>
      <trkpt lat="49.07844" lon="1.52123">
        <ele>25.200000762939</ele>
        <time>2021-05-10T14:43:03.000Z</time>
      </trkpt>
      <trkpt lat="49.07851" lon="1.52111">
        <ele>25</ele>
        <time>2021-05-10T14:43:05.000Z</time>
      </trkpt>
      <trkpt lat="49.07868" lon="1.52079">
        <ele>24.200000762939</ele>
        <time>2021-05-10T14:43:10.000Z</time>
      </trkpt>
      <trkpt lat="49.07871" lon="1.52072">
        <ele>24</ele>
        <time>2021-05-10T14:43:11.000Z</time>
      </trkpt>
      <trkpt lat="49.07895" lon="1.52034">
        <ele>23.799999237061</ele>
        <time>2021-05-10T14:43:17.000Z</time>
      </trkpt>
      <trkpt lat="49.07903" lon="1.52023">
        <ele>23.799999237061</ele>
        <time>2021-05-10T14:43:19.000Z</time>
      </trkpt>
      <trkpt lat="49.07912" lon="1.52013">
        <ele>23.799999237061</ele>
        <time>2021-05-10T14:43:21.000Z</time>
      </trkpt>
      <trkpt lat="49.0792" lon="1.52002">
        <ele>23.60000038147</ele>
        <time>2021-05-10T14:43:23.000Z</time>
      </trkpt>
      <trkpt lat="49.07923" lon="1.51997">
        <ele>23.200000762939</ele>
        <time>2021-05-10T14:43:24.000Z</time>
      </trkpt>
      <trkpt lat="49.07932" lon="1.51988">
        <ele>22.799999237061</ele>
        <time>2021-05-10T14:43:26.000Z</time>
      </trkpt>
      <trkpt lat="49.07936" lon="1.51985">
        <ele>22.60000038147</ele>
        <time>2021-05-10T14:43:27.000Z</time>
      </trkpt>
      <trkpt lat="49.07967" lon="1.51964">
        <ele>22.200000762939</ele>
        <time>2021-05-10T14:43:34.000Z</time>
      </trkpt>
      <trkpt lat="49.07971" lon="1.5196">
        <ele>22.200000762939</ele>
        <time>2021-05-10T14:43:35.000Z</time>
      </trkpt>
      <trkpt lat="49.07984" lon="1.51949">
        <ele>22.60000038147</ele>
        <time>2021-05-10T14:43:38.000Z</time>
      </trkpt>
      <trkpt lat="49.07988" lon="1.51945">
        <ele>22.799999237061</ele>
        <time>2021-05-10T14:43:39.000Z</time>
      </trkpt>
      <trkpt lat="49.07992" lon="1.51942">
        <ele>23</ele>
        <time>2021-05-10T14:43:40.000Z</time>
      </trkpt>
      <trkpt lat="49.08009" lon="1.51922">
        <ele>23.39999961853</ele>
        <time>2021-05-10T14:43:46.000Z</time>
      </trkpt>
      <trkpt lat="49.08018" lon="1.51913">
        <ele>24.200000762939</ele>
        <time>2021-05-10T14:43:49.000Z</time>
      </trkpt>
      <trkpt lat="49.08029" lon="1.51901">
        <ele>25.60000038147</ele>
        <time>2021-05-10T14:43:53.000Z</time>
      </trkpt>
      <trkpt lat="49.08032" lon="1.51899">
        <ele>26</ele>
        <time>2021-05-10T14:43:54.000Z</time>
      </trkpt>
      <trkpt lat="49.08046" lon="1.51884">
        <ele>26.39999961853</ele>
        <time>2021-05-10T14:43:59.000Z</time>
      </trkpt>
      <trkpt lat="49.08073" lon="1.51854">
        <ele>26.39999961853</ele>
        <time>2021-05-10T14:44:06.000Z</time>
      </trkpt>
      <trkpt lat="49.08109" lon="1.51806">
        <ele>25.200000762939</ele>
        <time>2021-05-10T14:44:15.000Z</time>
      </trkpt>
      <trkpt lat="49.08153" lon="1.51746">
        <ele>24.799999237061</ele>
        <time>2021-05-10T14:44:26.000Z</time>
      </trkpt>
      <trkpt lat="49.08167" lon="1.51728">
        <ele>24.799999237061</ele>
        <time>2021-05-10T14:44:29.000Z</time>
      </trkpt>
      <trkpt lat="49.08191" lon="1.51699">
        <ele>24.60000038147</ele>
        <time>2021-05-10T14:44:34.000Z</time>
      </trkpt>
      <trkpt lat="49.08228" lon="1.51654">
        <ele>23.60000038147</ele>
        <time>2021-05-10T14:44:42.000Z</time>
      </trkpt>
      <trkpt lat="49.08233" lon="1.51648">
        <ele>23.39999961853</ele>
        <time>2021-05-10T14:44:43.000Z</time>
      </trkpt>
      <trkpt lat="49.08277" lon="1.5159">
        <ele>22.39999961853</ele>
        <time>2021-05-10T14:44:52.000Z</time>
      </trkpt>
      <trkpt lat="49.08282" lon="1.51583">
        <ele>22.200000762939</ele>
        <time>2021-05-10T14:44:53.000Z</time>
      </trkpt>
      <trkpt lat="49.08313" lon="1.51545">
        <ele>21.200000762939</ele>
        <time>2021-05-10T14:44:59.000Z</time>
      </trkpt>
      <trkpt lat="49.08319" lon="1.51541">
        <ele>21</ele>
        <time>2021-05-10T14:45:00.000Z</time>
      </trkpt>
      <trkpt lat="49.08339" lon="1.51516">
        <ele>20.200000762939</ele>
        <time>2021-05-10T14:45:04.000Z</time>
      </trkpt>
      <trkpt lat="49.08343" lon="1.51508">
        <ele>20.200000762939</ele>
        <time>2021-05-10T14:45:05.000Z</time>
      </trkpt>
      <trkpt lat="49.08347" lon="1.51498">
        <ele>20.200000762939</ele>
        <time>2021-05-10T14:45:06.000Z</time>
      </trkpt>
      <trkpt lat="49.08351" lon="1.51488">
        <ele>20.200000762939</ele>
        <time>2021-05-10T14:45:07.000Z</time>
      </trkpt>
      <trkpt lat="49.08356" lon="1.5148">
        <ele>20</ele>
        <time>2021-05-10T14:45:08.000Z</time>
      </trkpt>
      <trkpt lat="49.08385" lon="1.51435">
        <ele>19.39999961853</ele>
        <time>2021-05-10T14:45:14.000Z</time>
      </trkpt>
      <trkpt lat="49.08387" lon="1.51429">
        <ele>18.39999961853</ele>
        <time>2021-05-10T14:45:15.000Z</time>
      </trkpt>
      <trkpt lat="49.08388" lon="1.51419">
        <ele>17.200000762939</ele>
        <time>2021-05-10T14:45:17.000Z</time>
      </trkpt>
      <trkpt lat="49.08399" lon="1.51407">
        <ele>16.39999961853</ele>
        <time>2021-05-10T14:45:21.000Z</time>
      </trkpt>
      <trkpt lat="49.08403" lon="1.51404">
        <ele>16.39999961853</ele>
        <time>2021-05-10T14:45:22.000Z</time>
      </trkpt>
      <trkpt lat="49.08413" lon="1.51392">
        <ele>16</ele>
        <time>2021-05-10T14:45:25.000Z</time>
      </trkpt>
      <trkpt lat="49.08433" lon="1.51371">
        <ele>15.60000038147</ele>
        <time>2021-05-10T14:45:31.000Z</time>
      </trkpt>
      <trkpt lat="49.08443" lon="1.51359">
        <ele>15</ele>
        <time>2021-05-10T14:45:34.000Z</time>
      </trkpt>
      <trkpt lat="49.0846" lon="1.51338">
        <ele>14.800000190735</ele>
        <time>2021-05-10T14:45:39.000Z</time>
      </trkpt>
      <trkpt lat="49.08481" lon="1.51312">
        <ele>14.60000038147</ele>
        <time>2021-05-10T14:45:45.000Z</time>
      </trkpt>
      <trkpt lat="49.08485" lon="1.51307">
        <ele>14.60000038147</ele>
        <time>2021-05-10T14:45:46.000Z</time>
      </trkpt>
      <trkpt lat="49.08527" lon="1.51256">
        <ele>14.39999961853</ele>
        <time>2021-05-10T14:45:57.000Z</time>
      </trkpt>
      <trkpt lat="49.08551" lon="1.51221">
        <ele>14.60000038147</ele>
        <time>2021-05-10T14:46:04.000Z</time>
      </trkpt>
      <trkpt lat="49.08574" lon="1.51189">
        <ele>14.800000190735</ele>
        <time>2021-05-10T14:46:10.000Z</time>
      </trkpt>
      <trkpt lat="49.08613" lon="1.51142">
        <ele>15.60000038147</ele>
        <time>2021-05-10T14:46:19.000Z</time>
      </trkpt>
      <trkpt lat="49.08639" lon="1.51109">
        <ele>15.800000190735</ele>
        <time>2021-05-10T14:46:25.000Z</time>
      </trkpt>
      <trkpt lat="49.08647" lon="1.51099">
        <ele>15.800000190735</ele>
        <time>2021-05-10T14:46:27.000Z</time>
      </trkpt>
      <trkpt lat="49.08662" lon="1.51081">
        <ele>16</ele>
        <time>2021-05-10T14:46:31.000Z</time>
      </trkpt>
      <trkpt lat="49.08694" lon="1.51042">
        <ele>16.200000762939</ele>
        <time>2021-05-10T14:46:39.000Z</time>
      </trkpt>
      <trkpt lat="49.08705" lon="1.51027">
        <ele>16.200000762939</ele>
        <time>2021-05-10T14:46:42.000Z</time>
      </trkpt>
      <trkpt lat="49.08715" lon="1.51014">
        <ele>16.200000762939</ele>
        <time>2021-05-10T14:46:45.000Z</time>
      </trkpt>
      <trkpt lat="49.08735" lon="1.50986">
        <ele>16.200000762939</ele>
        <time>2021-05-10T14:46:52.000Z</time>
      </trkpt>
      <trkpt lat="49.08742" lon="1.50978">
        <ele>16.200000762939</ele>
        <time>2021-05-10T14:46:56.000Z</time>
      </trkpt>
      <trkpt lat="49.08746" lon="1.50976">
        <ele>16.200000762939</ele>
        <time>2021-05-10T14:46:59.000Z</time>
      </trkpt>
      <trkpt lat="49.0875" lon="1.50978">
        <ele>16.200000762939</ele>
        <time>2021-05-10T14:47:01.000Z</time>
      </trkpt>
      <trkpt lat="49.0876" lon="1.50987">
        <ele>16.60000038147</ele>
        <time>2021-05-10T14:47:06.000Z</time>
      </trkpt>
      <trkpt lat="49.08768" lon="1.50993">
        <ele>17.200000762939</ele>
        <time>2021-05-10T14:47:10.000Z</time>
      </trkpt>
      <trkpt lat="49.08774" lon="1.50998">
        <ele>17.799999237061</ele>
        <time>2021-05-10T14:47:13.000Z</time>
      </trkpt>
      <trkpt lat="49.08784" lon="1.51005">
        <ele>19</ele>
        <time>2021-05-10T14:47:18.000Z</time>
      </trkpt>
      <trkpt lat="49.08789" lon="1.51004">
        <ele>19.799999237061</ele>
        <time>2021-05-10T14:47:21.000Z</time>
      </trkpt>
      <trkpt lat="49.0879" lon="1.51002">
        <ele>20</ele>
        <time>2021-05-10T14:47:22.000Z</time>
      </trkpt>
      <trkpt lat="49.08795" lon="1.50993">
        <ele>21.200000762939</ele>
        <time>2021-05-10T14:47:26.000Z</time>
      </trkpt>
      <trkpt lat="49.08797" lon="1.5099">
        <ele>21.39999961853</ele>
        <time>2021-05-10T14:47:27.000Z</time>
      </trkpt>
      <trkpt lat="49.08802" lon="1.50981">
        <ele>22.39999961853</ele>
        <time>2021-05-10T14:47:31.000Z</time>
      </trkpt>
      <trkpt lat="49.08807" lon="1.50969">
        <ele>23.39999961853</ele>
        <time>2021-05-10T14:47:36.000Z</time>
      </trkpt>
      <trkpt lat="49.08811" lon="1.50962">
        <ele>24</ele>
        <time>2021-05-10T14:47:39.000Z</time>
      </trkpt>
      <trkpt lat="49.08816" lon="1.50956">
        <ele>24.60000038147</ele>
        <time>2021-05-10T14:47:43.000Z</time>
      </trkpt>
      <trkpt lat="49.08819" lon="1.50956">
        <ele>24.799999237061</ele>
        <time>2021-05-10T14:47:45.000Z</time>
      </trkpt>
      <trkpt lat="49.0882" lon="1.50956">
        <ele>24.799999237061</ele>
        <time>2021-05-10T14:47:46.000Z</time>
      </trkpt>
      <trkpt lat="49.08822" lon="1.50962">
        <ele>25.60000038147</ele>
        <time>2021-05-10T14:47:50.000Z</time>
      </trkpt>
      <trkpt lat="49.08822" lon="1.50964">
        <ele>25.60000038147</ele>
        <time>2021-05-10T14:47:51.000Z</time>
      </trkpt>
      <trkpt lat="49.08822" lon="1.50966">
        <ele>25.799999237061</ele>
        <time>2021-05-10T14:47:52.000Z</time>
      </trkpt>
      <trkpt lat="49.08823" lon="1.5097">
        <ele>26.799999237061</ele>
        <time>2021-05-10T14:47:55.000Z</time>
      </trkpt>
      <trkpt lat="49.08823" lon="1.50972">
        <ele>27.200000762939</ele>
        <time>2021-05-10T14:47:56.000Z</time>
      </trkpt>
      <trkpt lat="49.08822" lon="1.50978">
        <ele>27.799999237061</ele>
        <time>2021-05-10T14:47:59.000Z</time>
      </trkpt>
      <trkpt lat="49.08823" lon="1.5098">
        <ele>28</ele>
        <time>2021-05-10T14:48:00.000Z</time>
      </trkpt>
      <trkpt lat="49.08823" lon="1.50987">
        <ele>28.60000038147</ele>
        <time>2021-05-10T14:48:03.000Z</time>
      </trkpt>
      <trkpt lat="49.08824" lon="1.50995">
        <ele>28.799999237061</ele>
        <time>2021-05-10T14:48:06.000Z</time>
      </trkpt>
      <trkpt lat="49.08825" lon="1.51">
        <ele>29.39999961853</ele>
        <time>2021-05-10T14:48:08.000Z</time>
      </trkpt>
      <trkpt lat="49.08825" lon="1.51003">
        <ele>29.799999237061</ele>
        <time>2021-05-10T14:48:09.000Z</time>
      </trkpt>
      <trkpt lat="49.08825" lon="1.51006">
        <ele>29.799999237061</ele>
        <time>2021-05-10T14:48:10.000Z</time>
      </trkpt>
      <trkpt lat="49.08826" lon="1.51017">
        <ele>30.60000038147</ele>
        <time>2021-05-10T14:48:14.000Z</time>
      </trkpt>
      <trkpt lat="49.08826" lon="1.51023">
        <ele>31</ele>
        <time>2021-05-10T14:48:16.000Z</time>
      </trkpt>
      <trkpt lat="49.08827" lon="1.5104">
        <ele>32</ele>
        <time>2021-05-10T14:48:23.000Z</time>
      </trkpt>
      <trkpt lat="49.08827" lon="1.51042">
        <ele>32.200000762939</ele>
        <time>2021-05-10T14:48:24.000Z</time>
      </trkpt>
      <trkpt lat="49.08826" lon="1.51052">
        <ele>33</ele>
        <time>2021-05-10T14:48:29.000Z</time>
      </trkpt>
      <trkpt lat="49.08827" lon="1.51062">
        <ele>34</ele>
        <time>2021-05-10T14:48:34.000Z</time>
      </trkpt>
      <trkpt lat="49.08827" lon="1.51064">
        <ele>34.200000762939</ele>
        <time>2021-05-10T14:48:35.000Z</time>
      </trkpt>
      <trkpt lat="49.08827" lon="1.51072">
        <ele>35</ele>
        <time>2021-05-10T14:48:39.000Z</time>
      </trkpt>
      <trkpt lat="49.08827" lon="1.51074">
        <ele>35.400001525879</ele>
        <time>2021-05-10T14:48:40.000Z</time>
      </trkpt>
      <trkpt lat="49.08824" lon="1.51081">
        <ele>36.599998474121</ele>
        <time>2021-05-10T14:48:45.000Z</time>
      </trkpt>
      <trkpt lat="49.08823" lon="1.51084">
        <ele>37</ele>
        <time>2021-05-10T14:48:47.000Z</time>
      </trkpt>
      <trkpt lat="49.0882" lon="1.51086">
        <ele>37.400001525879</ele>
        <time>2021-05-10T14:48:50.000Z</time>
      </trkpt>
      <trkpt lat="49.08818" lon="1.51087">
        <ele>38</ele>
        <time>2021-05-10T14:48:52.000Z</time>
      </trkpt>
      <trkpt lat="49.08815" lon="1.51088">
        <ele>38.400001525879</ele>
        <time>2021-05-10T14:48:54.000Z</time>
      </trkpt>
      <trkpt lat="49.08814" lon="1.51089">
        <ele>39</ele>
        <time>2021-05-10T14:48:56.000Z</time>
      </trkpt>
      <trkpt lat="49.08812" lon="1.5109">
        <ele>39.599998474121</ele>
        <time>2021-05-10T14:48:58.000Z</time>
      </trkpt>
      <trkpt lat="49.08808" lon="1.51092">
        <ele>40.599998474121</ele>
        <time>2021-05-10T14:49:02.000Z</time>
      </trkpt>
      <trkpt lat="49.08805" lon="1.51092">
        <ele>41.400001525879</ele>
        <time>2021-05-10T14:49:05.000Z</time>
      </trkpt>
      <trkpt lat="49.08804" lon="1.51092">
        <ele>41.799999237061</ele>
        <time>2021-05-10T14:49:06.000Z</time>
      </trkpt>
      <trkpt lat="49.08799" lon="1.51094">
        <ele>42.799999237061</ele>
        <time>2021-05-10T14:49:11.000Z</time>
      </trkpt>
      <trkpt lat="49.08798" lon="1.51094">
        <ele>43.200000762939</ele>
        <time>2021-05-10T14:49:12.000Z</time>
      </trkpt>
      <trkpt lat="49.08794" lon="1.51095">
        <ele>44</ele>
        <time>2021-05-10T14:49:16.000Z</time>
      </trkpt>
      <trkpt lat="49.0879" lon="1.51096">
        <ele>44.799999237061</ele>
        <time>2021-05-10T14:49:20.000Z</time>
      </trkpt>
      <trkpt lat="49.08787" lon="1.51096">
        <ele>45.200000762939</ele>
        <time>2021-05-10T14:49:22.000Z</time>
      </trkpt>
      <trkpt lat="49.08783" lon="1.51097">
        <ele>46.200000762939</ele>
        <time>2021-05-10T14:49:27.000Z</time>
      </trkpt>
      <trkpt lat="49.08784" lon="1.511">
        <ele>46.599998474121</ele>
        <time>2021-05-10T14:49:29.000Z</time>
      </trkpt>
      <trkpt lat="49.08785" lon="1.51103">
        <ele>47.200000762939</ele>
        <time>2021-05-10T14:49:32.000Z</time>
      </trkpt>
      <trkpt lat="49.08786" lon="1.51108">
        <ele>48.400001525879</ele>
        <time>2021-05-10T14:49:36.000Z</time>
      </trkpt>
      <trkpt lat="49.08787" lon="1.51111">
        <ele>48.799999237061</ele>
        <time>2021-05-10T14:49:39.000Z</time>
      </trkpt>
      <trkpt lat="49.08789" lon="1.51117">
        <ele>49.599998474121</ele>
        <time>2021-05-10T14:49:43.000Z</time>
      </trkpt>
      <trkpt lat="49.08789" lon="1.51118">
        <ele>49.799999237061</ele>
        <time>2021-05-10T14:49:44.000Z</time>
      </trkpt>
      <trkpt lat="49.08791" lon="1.51122">
        <ele>50.599998474121</ele>
        <time>2021-05-10T14:49:47.000Z</time>
      </trkpt>
      <trkpt lat="49.08792" lon="1.51125">
        <ele>51.400001525879</ele>
        <time>2021-05-10T14:49:50.000Z</time>
      </trkpt>
      <trkpt lat="49.08793" lon="1.51126">
        <ele>51.799999237061</ele>
        <time>2021-05-10T14:49:51.000Z</time>
      </trkpt>
      <trkpt lat="49.08795" lon="1.5113">
        <ele>52.799999237061</ele>
        <time>2021-05-10T14:49:55.000Z</time>
      </trkpt>
      <trkpt lat="49.08799" lon="1.51136">
        <ele>53.799999237061</ele>
        <time>2021-05-10T14:50:00.000Z</time>
      </trkpt>
      <trkpt lat="49.08802" lon="1.5114">
        <ele>55.200000762939</ele>
        <time>2021-05-10T14:50:04.000Z</time>
      </trkpt>
      <trkpt lat="49.08803" lon="1.51143">
        <ele>55.400001525879</ele>
        <time>2021-05-10T14:50:06.000Z</time>
      </trkpt>
      <trkpt lat="49.08805" lon="1.51145">
        <ele>56</ele>
        <time>2021-05-10T14:50:08.000Z</time>
      </trkpt>
      <trkpt lat="49.08806" lon="1.5115">
        <ele>57</ele>
        <time>2021-05-10T14:50:12.000Z</time>
      </trkpt>
      <trkpt lat="49.08807" lon="1.51151">
        <ele>57.200000762939</ele>
        <time>2021-05-10T14:50:13.000Z</time>
      </trkpt>
      <trkpt lat="49.08809" lon="1.51157">
        <ele>58.400001525879</ele>
        <time>2021-05-10T14:50:18.000Z</time>
      </trkpt>
      <trkpt lat="49.0881" lon="1.5116">
        <ele>58.799999237061</ele>
        <time>2021-05-10T14:50:21.000Z</time>
      </trkpt>
      <trkpt lat="49.08811" lon="1.51164">
        <ele>59.599998474121</ele>
        <time>2021-05-10T14:50:24.000Z</time>
      </trkpt>
      <trkpt lat="49.08812" lon="1.51171">
        <ele>60.599998474121</ele>
        <time>2021-05-10T14:50:28.000Z</time>
      </trkpt>
      <trkpt lat="49.08813" lon="1.51179">
        <ele>61.799999237061</ele>
        <time>2021-05-10T14:50:32.000Z</time>
      </trkpt>
      <trkpt lat="49.08816" lon="1.51184">
        <ele>62.200000762939</ele>
        <time>2021-05-10T14:50:34.000Z</time>
      </trkpt>
      <trkpt lat="49.08819" lon="1.51185">
        <ele>62.799999237061</ele>
        <time>2021-05-10T14:50:37.000Z</time>
      </trkpt>
      <trkpt lat="49.0882" lon="1.51185">
        <ele>63</ele>
        <time>2021-05-10T14:50:38.000Z</time>
      </trkpt>
      <trkpt lat="49.08824" lon="1.51185">
        <ele>63.400001525879</ele>
        <time>2021-05-10T14:50:42.000Z</time>
      </trkpt>
      <trkpt lat="49.08831" lon="1.51184">
        <ele>63.799999237061</ele>
        <time>2021-05-10T14:50:47.000Z</time>
      </trkpt>
      <trkpt lat="49.08832" lon="1.51184">
        <ele>64</ele>
        <time>2021-05-10T14:50:48.000Z</time>
      </trkpt>
      <trkpt lat="49.08842" lon="1.51184">
        <ele>64.800003051758</ele>
        <time>2021-05-10T14:50:55.000Z</time>
      </trkpt>
      <trkpt lat="49.08846" lon="1.51186">
        <ele>65</ele>
        <time>2021-05-10T14:50:58.000Z</time>
      </trkpt>
      <trkpt lat="49.08847" lon="1.51191">
        <ele>65.599998474121</ele>
        <time>2021-05-10T14:51:01.000Z</time>
      </trkpt>
      <trkpt lat="49.08848" lon="1.51194">
        <ele>66.199996948242</ele>
        <time>2021-05-10T14:51:04.000Z</time>
      </trkpt>
      <trkpt lat="49.08848" lon="1.51198">
        <ele>66.800003051758</ele>
        <time>2021-05-10T14:51:06.000Z</time>
      </trkpt>
      <trkpt lat="49.08848" lon="1.512">
        <ele>67.199996948242</ele>
        <time>2021-05-10T14:51:08.000Z</time>
      </trkpt>
      <trkpt lat="49.08848" lon="1.51201">
        <ele>67.400001525879</ele>
        <time>2021-05-10T14:51:09.000Z</time>
      </trkpt>
      <trkpt lat="49.08847" lon="1.51209">
        <ele>68.400001525879</ele>
        <time>2021-05-10T14:51:14.000Z</time>
      </trkpt>
      <trkpt lat="49.08847" lon="1.51215">
        <ele>69.199996948242</ele>
        <time>2021-05-10T14:51:18.000Z</time>
      </trkpt>
      <trkpt lat="49.08847" lon="1.51216">
        <ele>69.199996948242</ele>
        <time>2021-05-10T14:51:19.000Z</time>
      </trkpt>
      <trkpt lat="49.08847" lon="1.51222">
        <ele>70.199996948242</ele>
        <time>2021-05-10T14:51:23.000Z</time>
      </trkpt>
      <trkpt lat="49.08846" lon="1.51229">
        <ele>71.800003051758</ele>
        <time>2021-05-10T14:51:27.000Z</time>
      </trkpt>
      <trkpt lat="49.08846" lon="1.51231">
        <ele>72</ele>
        <time>2021-05-10T14:51:28.000Z</time>
      </trkpt>
      <trkpt lat="49.08846" lon="1.51236">
        <ele>72.800003051758</ele>
        <time>2021-05-10T14:51:31.000Z</time>
      </trkpt>
      <trkpt lat="49.08845" lon="1.51246">
        <ele>74</ele>
        <time>2021-05-10T14:51:36.000Z</time>
      </trkpt>
      <trkpt lat="49.08845" lon="1.5125">
        <ele>74.599998474121</ele>
        <time>2021-05-10T14:51:38.000Z</time>
      </trkpt>
      <trkpt lat="49.08845" lon="1.51253">
        <ele>75.199996948242</ele>
        <time>2021-05-10T14:51:40.000Z</time>
      </trkpt>
      <trkpt lat="49.08846" lon="1.51261">
        <ele>76.599998474121</ele>
        <time>2021-05-10T14:51:44.000Z</time>
      </trkpt>
      <trkpt lat="49.08845" lon="1.51267">
        <ele>77.400001525879</ele>
        <time>2021-05-10T14:51:48.000Z</time>
      </trkpt>
      <trkpt lat="49.08846" lon="1.51277">
        <ele>78.400001525879</ele>
        <time>2021-05-10T14:51:54.000Z</time>
      </trkpt>
      <trkpt lat="49.08847" lon="1.51285">
        <ele>79.199996948242</ele>
        <time>2021-05-10T14:51:58.000Z</time>
      </trkpt>
      <trkpt lat="49.08847" lon="1.51289">
        <ele>79.599998474121</ele>
        <time>2021-05-10T14:52:00.000Z</time>
      </trkpt>
      <trkpt lat="49.08848" lon="1.51304">
        <ele>80.599998474121</ele>
        <time>2021-05-10T14:52:06.000Z</time>
      </trkpt>
      <trkpt lat="49.08848" lon="1.51307">
        <ele>80.800003051758</ele>
        <time>2021-05-10T14:52:07.000Z</time>
      </trkpt>
      <trkpt lat="49.08851" lon="1.51323">
        <ele>81.800003051758</ele>
        <time>2021-05-10T14:52:12.000Z</time>
      </trkpt>
      <trkpt lat="49.08852" lon="1.51326">
        <ele>82</ele>
        <time>2021-05-10T14:52:13.000Z</time>
      </trkpt>
      <trkpt lat="49.08855" lon="1.51343">
        <ele>82.599998474121</ele>
        <time>2021-05-10T14:52:19.000Z</time>
      </trkpt>
      <trkpt lat="49.08856" lon="1.51348">
        <ele>83</ele>
        <time>2021-05-10T14:52:21.000Z</time>
      </trkpt>
      <trkpt lat="49.08856" lon="1.51352">
        <ele>83</ele>
        <time>2021-05-10T14:52:23.000Z</time>
      </trkpt>
      <trkpt lat="49.08857" lon="1.51355">
        <ele>83.199996948242</ele>
        <time>2021-05-10T14:52:24.000Z</time>
      </trkpt>
      <trkpt lat="49.08859" lon="1.51365">
        <ele>83.800003051758</ele>
        <time>2021-05-10T14:52:27.000Z</time>
      </trkpt>
      <trkpt lat="49.08861" lon="1.51379">
        <ele>84.800003051758</ele>
        <time>2021-05-10T14:52:31.000Z</time>
      </trkpt>
      <trkpt lat="49.08861" lon="1.51384">
        <ele>85</ele>
        <time>2021-05-10T14:52:32.000Z</time>
      </trkpt>
      <trkpt lat="49.08863" lon="1.51397">
        <ele>85.599998474121</ele>
        <time>2021-05-10T14:52:36.000Z</time>
      </trkpt>
      <trkpt lat="49.08864" lon="1.51404">
        <ele>86</ele>
        <time>2021-05-10T14:52:39.000Z</time>
      </trkpt>
      <trkpt lat="49.08864" lon="1.51406">
        <ele>86</ele>
        <time>2021-05-10T14:52:40.000Z</time>
      </trkpt>
      <trkpt lat="49.08863" lon="1.5141">
        <ele>86.400001525879</ele>
        <time>2021-05-10T14:52:42.000Z</time>
      </trkpt>
      <trkpt lat="49.08863" lon="1.5142">
        <ele>87.199996948242</ele>
        <time>2021-05-10T14:52:45.000Z</time>
      </trkpt>
      <trkpt lat="49.08864" lon="1.51431">
        <ele>87.800003051758</ele>
        <time>2021-05-10T14:52:48.000Z</time>
      </trkpt>
      <trkpt lat="49.08865" lon="1.51439">
        <ele>88.199996948242</ele>
        <time>2021-05-10T14:52:51.000Z</time>
      </trkpt>
      <trkpt lat="49.08867" lon="1.51446">
        <ele>88.599998474121</ele>
        <time>2021-05-10T14:52:53.000Z</time>
      </trkpt>
      <trkpt lat="49.08868" lon="1.51457">
        <ele>88.800003051758</ele>
        <time>2021-05-10T14:52:56.000Z</time>
      </trkpt>
      <trkpt lat="49.08869" lon="1.51464">
        <ele>89</ele>
        <time>2021-05-10T14:52:58.000Z</time>
      </trkpt>
      <trkpt lat="49.08869" lon="1.51467">
        <ele>89.199996948242</ele>
        <time>2021-05-10T14:52:59.000Z</time>
      </trkpt>
      <trkpt lat="49.08872" lon="1.51487">
        <ele>90</ele>
        <time>2021-05-10T14:53:05.000Z</time>
      </trkpt>
      <trkpt lat="49.08873" lon="1.5149">
        <ele>90.199996948242</ele>
        <time>2021-05-10T14:53:06.000Z</time>
      </trkpt>
      <trkpt lat="49.08873" lon="1.51501">
        <ele>90.800003051758</ele>
        <time>2021-05-10T14:53:10.000Z</time>
      </trkpt>
      <trkpt lat="49.08874" lon="1.51507">
        <ele>91.199996948242</ele>
        <time>2021-05-10T14:53:12.000Z</time>
      </trkpt>
      <trkpt lat="49.08872" lon="1.51519">
        <ele>91.800003051758</ele>
        <time>2021-05-10T14:53:16.000Z</time>
      </trkpt>
      <trkpt lat="49.08873" lon="1.51523">
        <ele>92</ele>
        <time>2021-05-10T14:53:17.000Z</time>
      </trkpt>
      <trkpt lat="49.08873" lon="1.51526">
        <ele>92.199996948242</ele>
        <time>2021-05-10T14:53:18.000Z</time>
      </trkpt>
      <trkpt lat="49.08874" lon="1.51536">
        <ele>92.800003051758</ele>
        <time>2021-05-10T14:53:21.000Z</time>
      </trkpt>
      <trkpt lat="49.08874" lon="1.51539">
        <ele>93.199996948242</ele>
        <time>2021-05-10T14:53:22.000Z</time>
      </trkpt>
      <trkpt lat="49.08875" lon="1.51545">
        <ele>93.599998474121</ele>
        <time>2021-05-10T14:53:24.000Z</time>
      </trkpt>
      <trkpt lat="49.08878" lon="1.51551">
        <ele>93.800003051758</ele>
        <time>2021-05-10T14:53:26.000Z</time>
      </trkpt>
      <trkpt lat="49.0888" lon="1.51559">
        <ele>94.199996948242</ele>
        <time>2021-05-10T14:53:28.000Z</time>
      </trkpt>
      <trkpt lat="49.08883" lon="1.51567">
        <ele>94.400001525879</ele>
        <time>2021-05-10T14:53:30.000Z</time>
      </trkpt>
      <trkpt lat="49.08884" lon="1.51572">
        <ele>94.599998474121</ele>
        <time>2021-05-10T14:53:31.000Z</time>
      </trkpt>
      <trkpt lat="49.08889" lon="1.5159">
        <ele>95</ele>
        <time>2021-05-10T14:53:36.000Z</time>
      </trkpt>
      <trkpt lat="49.0889" lon="1.51594">
        <ele>95</ele>
        <time>2021-05-10T14:53:37.000Z</time>
      </trkpt>
      <trkpt lat="49.08895" lon="1.51614">
        <ele>95.599998474121</ele>
        <time>2021-05-10T14:53:41.000Z</time>
      </trkpt>
      <trkpt lat="49.08907" lon="1.51628">
        <ele>95.800003051758</ele>
        <time>2021-05-10T14:53:46.000Z</time>
      </trkpt>
      <trkpt lat="49.08908" lon="1.51631">
        <ele>96</ele>
        <time>2021-05-10T14:53:48.000Z</time>
      </trkpt>
      <trkpt lat="49.08908" lon="1.51634">
        <ele>96.400001525879</ele>
        <time>2021-05-10T14:53:50.000Z</time>
      </trkpt>
      <trkpt lat="49.08907" lon="1.51636">
        <ele>96.599998474121</ele>
        <time>2021-05-10T14:53:51.000Z</time>
      </trkpt>
      <trkpt lat="49.0891" lon="1.51649">
        <ele>97</ele>
        <time>2021-05-10T14:53:56.000Z</time>
      </trkpt>
      <trkpt lat="49.08912" lon="1.51651">
        <ele>97.199996948242</ele>
        <time>2021-05-10T14:53:57.000Z</time>
      </trkpt>
      <trkpt lat="49.08915" lon="1.51654">
        <ele>97.199996948242</ele>
        <time>2021-05-10T14:53:58.000Z</time>
      </trkpt>
      <trkpt lat="49.08921" lon="1.51662">
        <ele>97.400001525879</ele>
        <time>2021-05-10T14:54:01.000Z</time>
      </trkpt>
      <trkpt lat="49.08936" lon="1.51677">
        <ele>97.400001525879</ele>
        <time>2021-05-10T14:54:07.000Z</time>
      </trkpt>
      <trkpt lat="49.08937" lon="1.5168">
        <ele>97.400001525879</ele>
        <time>2021-05-10T14:54:08.000Z</time>
      </trkpt>
      <trkpt lat="49.08937" lon="1.5169">
        <ele>97.599998474121</ele>
        <time>2021-05-10T14:54:11.000Z</time>
      </trkpt>
      <trkpt lat="49.08938" lon="1.51699">
        <ele>97.599998474121</ele>
        <time>2021-05-10T14:54:13.000Z</time>
      </trkpt>
      <trkpt lat="49.08942" lon="1.51706">
        <ele>97.800003051758</ele>
        <time>2021-05-10T14:54:15.000Z</time>
      </trkpt>
      <trkpt lat="49.08945" lon="1.51707">
        <ele>98</ele>
        <time>2021-05-10T14:54:16.000Z</time>
      </trkpt>
      <trkpt lat="49.08948" lon="1.51713">
        <ele>98.199996948242</ele>
        <time>2021-05-10T14:54:18.000Z</time>
      </trkpt>
      <trkpt lat="49.08951" lon="1.51715">
        <ele>98.199996948242</ele>
        <time>2021-05-10T14:54:19.000Z</time>
      </trkpt>
      <trkpt lat="49.08957" lon="1.51723">
        <ele>98.400001525879</ele>
        <time>2021-05-10T14:54:22.000Z</time>
      </trkpt>
      <trkpt lat="49.08958" lon="1.51729">
        <ele>98.800003051758</ele>
        <time>2021-05-10T14:54:24.000Z</time>
      </trkpt>
      <trkpt lat="49.08956" lon="1.51739">
        <ele>99</ele>
        <time>2021-05-10T14:54:27.000Z</time>
      </trkpt>
      <trkpt lat="49.08954" lon="1.51747">
        <ele>99</ele>
        <time>2021-05-10T14:54:29.000Z</time>
      </trkpt>
      <trkpt lat="49.08953" lon="1.51762">
        <ele>99.199996948242</ele>
        <time>2021-05-10T14:54:33.000Z</time>
      </trkpt>
      <trkpt lat="49.08953" lon="1.51765">
        <ele>99.199996948242</ele>
        <time>2021-05-10T14:54:34.000Z</time>
      </trkpt>
      <trkpt lat="49.08956" lon="1.51779">
        <ele>99.199996948242</ele>
        <time>2021-05-10T14:54:37.000Z</time>
      </trkpt>
      <trkpt lat="49.08958" lon="1.51783">
        <ele>99.199996948242</ele>
        <time>2021-05-10T14:54:38.000Z</time>
      </trkpt>
      <trkpt lat="49.08967" lon="1.51794">
        <ele>99.599998474121</ele>
        <time>2021-05-10T14:54:43.000Z</time>
      </trkpt>
      <trkpt lat="49.08973" lon="1.518">
        <ele>99.800003051758</ele>
        <time>2021-05-10T14:54:46.000Z</time>
      </trkpt>
      <trkpt lat="49.08979" lon="1.51805">
        <ele>100.40000152588</ele>
        <time>2021-05-10T14:54:49.000Z</time>
      </trkpt>
      <trkpt lat="49.08983" lon="1.51809">
        <ele>101</ele>
        <time>2021-05-10T14:54:52.000Z</time>
      </trkpt>
      <trkpt lat="49.08991" lon="1.51812">
        <ele>101.80000305176</ele>
        <time>2021-05-10T14:54:56.000Z</time>
      </trkpt>
      <trkpt lat="49.08994" lon="1.51815">
        <ele>102</ele>
        <time>2021-05-10T14:54:58.000Z</time>
      </trkpt>
      <trkpt lat="49.08995" lon="1.51817">
        <ele>102.19999694824</ele>
        <time>2021-05-10T14:54:59.000Z</time>
      </trkpt>
      <trkpt lat="49.09" lon="1.51824">
        <ele>102.80000305176</ele>
        <time>2021-05-10T14:55:02.000Z</time>
      </trkpt>
      <trkpt lat="49.09003" lon="1.51828">
        <ele>103.19999694824</ele>
        <time>2021-05-10T14:55:04.000Z</time>
      </trkpt>
      <trkpt lat="49.09009" lon="1.51831">
        <ele>103.80000305176</ele>
        <time>2021-05-10T14:55:07.000Z</time>
      </trkpt>
      <trkpt lat="49.09011" lon="1.51832">
        <ele>104.19999694824</ele>
        <time>2021-05-10T14:55:09.000Z</time>
      </trkpt>
      <trkpt lat="49.0902" lon="1.51836">
        <ele>104.80000305176</ele>
        <time>2021-05-10T14:55:13.000Z</time>
      </trkpt>
      <trkpt lat="49.09025" lon="1.51837">
        <ele>105.19999694824</ele>
        <time>2021-05-10T14:55:15.000Z</time>
      </trkpt>
      <trkpt lat="49.09028" lon="1.51839">
        <ele>105.59999847412</ele>
        <time>2021-05-10T14:55:17.000Z</time>
      </trkpt>
      <trkpt lat="49.0903" lon="1.5184">
        <ele>105.80000305176</ele>
        <time>2021-05-10T14:55:18.000Z</time>
      </trkpt>
      <trkpt lat="49.09034" lon="1.51844">
        <ele>106.19999694824</ele>
        <time>2021-05-10T14:55:21.000Z</time>
      </trkpt>
      <trkpt lat="49.09036" lon="1.51845">
        <ele>106.40000152588</ele>
        <time>2021-05-10T14:55:22.000Z</time>
      </trkpt>
      <trkpt lat="49.0904" lon="1.51848">
        <ele>106.40000152588</ele>
        <time>2021-05-10T14:55:24.000Z</time>
      </trkpt>
      <trkpt lat="49.09042" lon="1.51849">
        <ele>106.59999847412</ele>
        <time>2021-05-10T14:55:25.000Z</time>
      </trkpt>
      <trkpt lat="49.09046" lon="1.51856">
        <ele>106.80000305176</ele>
        <time>2021-05-10T14:55:28.000Z</time>
      </trkpt>
      <trkpt lat="49.09051" lon="1.51867">
        <ele>107.19999694824</ele>
        <time>2021-05-10T14:55:31.000Z</time>
      </trkpt>
      <trkpt lat="49.09058" lon="1.5188">
        <ele>108</ele>
        <time>2021-05-10T14:55:35.000Z</time>
      </trkpt>
      <trkpt lat="49.09064" lon="1.51891">
        <ele>108.19999694824</ele>
        <time>2021-05-10T14:55:38.000Z</time>
      </trkpt>
      <trkpt lat="49.09067" lon="1.51902">
        <ele>108.59999847412</ele>
        <time>2021-05-10T14:55:41.000Z</time>
      </trkpt>
      <trkpt lat="49.09069" lon="1.51904">
        <ele>108.59999847412</ele>
        <time>2021-05-10T14:55:42.000Z</time>
      </trkpt>
      <trkpt lat="49.09073" lon="1.51904">
        <ele>108.80000305176</ele>
        <time>2021-05-10T14:55:44.000Z</time>
      </trkpt>
      <trkpt lat="49.09077" lon="1.51903">
        <ele>109.19999694824</ele>
        <time>2021-05-10T14:55:46.000Z</time>
      </trkpt>
      <trkpt lat="49.0908" lon="1.51902">
        <ele>109.19999694824</ele>
        <time>2021-05-10T14:55:47.000Z</time>
      </trkpt>
      <trkpt lat="49.09086" lon="1.519">
        <ele>109.40000152588</ele>
        <time>2021-05-10T14:55:49.000Z</time>
      </trkpt>
      <trkpt lat="49.09103" lon="1.51891">
        <ele>109.59999847412</ele>
        <time>2021-05-10T14:55:54.000Z</time>
      </trkpt>
      <trkpt lat="49.09106" lon="1.51889">
        <ele>109.59999847412</ele>
        <time>2021-05-10T14:55:55.000Z</time>
      </trkpt>
      <trkpt lat="49.09124" lon="1.51879">
        <ele>109.80000305176</ele>
        <time>2021-05-10T14:56:01.000Z</time>
      </trkpt>
      <trkpt lat="49.09141" lon="1.51868">
        <ele>110</ele>
        <time>2021-05-10T14:56:07.000Z</time>
      </trkpt>
      <trkpt lat="49.0916" lon="1.51854">
        <ele>110</ele>
        <time>2021-05-10T14:56:12.000Z</time>
      </trkpt>
      <trkpt lat="49.09179" lon="1.51841">
        <ele>109.80000305176</ele>
        <time>2021-05-10T14:56:17.000Z</time>
      </trkpt>
      <trkpt lat="49.09197" lon="1.51827">
        <ele>109.80000305176</ele>
        <time>2021-05-10T14:56:21.000Z</time>
      </trkpt>
      <trkpt lat="49.09224" lon="1.5181">
        <ele>109.40000152588</ele>
        <time>2021-05-10T14:56:26.000Z</time>
      </trkpt>
      <trkpt lat="49.09241" lon="1.51799">
        <ele>108</ele>
        <time>2021-05-10T14:56:30.000Z</time>
      </trkpt>
      <trkpt lat="49.09249" lon="1.51793">
        <ele>107.80000305176</ele>
        <time>2021-05-10T14:56:32.000Z</time>
      </trkpt>
      <trkpt lat="49.09265" lon="1.51781">
        <ele>107.40000152588</ele>
        <time>2021-05-10T14:56:37.000Z</time>
      </trkpt>
      <trkpt lat="49.09291" lon="1.51762">
        <ele>108.40000152588</ele>
        <time>2021-05-10T14:56:45.000Z</time>
      </trkpt>
      <trkpt lat="49.09304" lon="1.51751">
        <ele>109</ele>
        <time>2021-05-10T14:56:49.000Z</time>
      </trkpt>
      <trkpt lat="49.09315" lon="1.51742">
        <ele>109.19999694824</ele>
        <time>2021-05-10T14:56:52.000Z</time>
      </trkpt>
      <trkpt lat="49.09339" lon="1.51722">
        <ele>110</ele>
        <time>2021-05-10T14:56:59.000Z</time>
      </trkpt>
      <trkpt lat="49.09346" lon="1.51716">
        <ele>110.40000152588</ele>
        <time>2021-05-10T14:57:01.000Z</time>
      </trkpt>
      <trkpt lat="49.09364" lon="1.51701">
        <ele>111</ele>
        <time>2021-05-10T14:57:06.000Z</time>
      </trkpt>
      <trkpt lat="49.09373" lon="1.51693">
        <ele>111.19999694824</ele>
        <time>2021-05-10T14:57:09.000Z</time>
      </trkpt>
      <trkpt lat="49.09396" lon="1.51676">
        <ele>111.80000305176</ele>
        <time>2021-05-10T14:57:16.000Z</time>
      </trkpt>
      <trkpt lat="49.09402" lon="1.51671">
        <ele>112</ele>
        <time>2021-05-10T14:57:18.000Z</time>
      </trkpt>
      <trkpt lat="49.09419" lon="1.51657">
        <ele>112.80000305176</ele>
        <time>2021-05-10T14:57:23.000Z</time>
      </trkpt>
      <trkpt lat="49.09435" lon="1.51643">
        <ele>113.19999694824</ele>
        <time>2021-05-10T14:57:28.000Z</time>
      </trkpt>
      <trkpt lat="49.09457" lon="1.51624">
        <ele>113.40000152588</ele>
        <time>2021-05-10T14:57:34.000Z</time>
      </trkpt>
      <trkpt lat="49.09478" lon="1.51608">
        <ele>113.59999847412</ele>
        <time>2021-05-10T14:57:40.000Z</time>
      </trkpt>
      <trkpt lat="49.09492" lon="1.51596">
        <ele>114.40000152588</ele>
        <time>2021-05-10T14:57:44.000Z</time>
      </trkpt>
      <trkpt lat="49.0951" lon="1.51581">
        <ele>114.59999847412</ele>
        <time>2021-05-10T14:57:49.000Z</time>
      </trkpt>
      <trkpt lat="49.09526" lon="1.51569">
        <ele>114.59999847412</ele>
        <time>2021-05-10T14:57:53.000Z</time>
      </trkpt>
      <trkpt lat="49.0954" lon="1.51556">
        <ele>114.59999847412</ele>
        <time>2021-05-10T14:57:57.000Z</time>
      </trkpt>
      <trkpt lat="49.09544" lon="1.51553">
        <ele>114.59999847412</ele>
        <time>2021-05-10T14:57:58.000Z</time>
      </trkpt>
      <trkpt lat="49.09563" lon="1.5154">
        <ele>114.59999847412</ele>
        <time>2021-05-10T14:58:03.000Z</time>
      </trkpt>
      <trkpt lat="49.09584" lon="1.51524">
        <ele>114.59999847412</ele>
        <time>2021-05-10T14:58:09.000Z</time>
      </trkpt>
      <trkpt lat="49.09609" lon="1.51502">
        <ele>114.80000305176</ele>
        <time>2021-05-10T14:58:16.000Z</time>
      </trkpt>
      <trkpt lat="49.09631" lon="1.51485">
        <ele>115</ele>
        <time>2021-05-10T14:58:22.000Z</time>
      </trkpt>
      <trkpt lat="49.09634" lon="1.51483">
        <ele>115.19999694824</ele>
        <time>2021-05-10T14:58:23.000Z</time>
      </trkpt>
      <trkpt lat="49.09656" lon="1.51465">
        <ele>116.19999694824</ele>
        <time>2021-05-10T14:58:29.000Z</time>
      </trkpt>
      <trkpt lat="49.09664" lon="1.51459">
        <ele>116.40000152588</ele>
        <time>2021-05-10T14:58:31.000Z</time>
      </trkpt>
      <trkpt lat="49.09677" lon="1.51449">
        <ele>116.59999847412</ele>
        <time>2021-05-10T14:58:35.000Z</time>
      </trkpt>
      <trkpt lat="49.09693" lon="1.51438">
        <ele>116.80000305176</ele>
        <time>2021-05-10T14:58:41.000Z</time>
      </trkpt>
      <trkpt lat="49.09695" lon="1.51435">
        <ele>117.40000152588</ele>
        <time>2021-05-10T14:58:44.000Z</time>
      </trkpt>
      <trkpt lat="49.09695" lon="1.51435">
        <ele>117.59999847412</ele>
        <time>2021-05-10T14:58:45.000Z</time>
      </trkpt>
      <trkpt lat="49.09696" lon="1.51435">
        <ele>118.59999847412</ele>
        <time>2021-05-10T14:58:57.000Z</time>
      </trkpt>
      <trkpt lat="49.09696" lon="1.51435">
        <ele>118.59999847412</ele>
        <time>2021-05-10T14:58:58.000Z</time>
      </trkpt>
      <trkpt lat="49.09697" lon="1.51434">
        <ele>118.59999847412</ele>
        <time>2021-05-10T14:59:02.000Z</time>
      </trkpt>
      <trkpt lat="49.097" lon="1.51431">
        <ele>118.40000152588</ele>
        <time>2021-05-10T14:59:05.000Z</time>
      </trkpt>
      <trkpt lat="49.09706" lon="1.51429">
        <ele>118.19999694824</ele>
        <time>2021-05-10T14:59:11.000Z</time>
      </trkpt>
      <trkpt lat="49.09706" lon="1.51429">
        <ele>118.19999694824</ele>
        <time>2021-05-10T14:59:13.000Z</time>
      </trkpt>
      <trkpt lat="49.09708" lon="1.5143">
        <ele>118.19999694824</ele>
        <time>2021-05-10T14:59:16.000Z</time>
      </trkpt>
      <trkpt lat="49.09709" lon="1.51431">
        <ele>118</ele>
        <time>2021-05-10T14:59:17.000Z</time>
      </trkpt>
      <trkpt lat="49.09712" lon="1.51428">
        <ele>118</ele>
        <time>2021-05-10T14:59:19.000Z</time>
      </trkpt>
      <trkpt lat="49.09716" lon="1.51409">
        <ele>117.80000305176</ele>
        <time>2021-05-10T14:59:24.000Z</time>
      </trkpt>
      <trkpt lat="49.09717" lon="1.51404">
        <ele>117.80000305176</ele>
        <time>2021-05-10T14:59:25.000Z</time>
      </trkpt>
      <trkpt lat="49.0972" lon="1.51381">
        <ele>117.59999847412</ele>
        <time>2021-05-10T14:59:29.000Z</time>
      </trkpt>
      <trkpt lat="49.0972" lon="1.51375">
        <ele>117.40000152588</ele>
        <time>2021-05-10T14:59:30.000Z</time>
      </trkpt>
      <trkpt lat="49.09727" lon="1.51327">
        <ele>117.40000152588</ele>
        <time>2021-05-10T14:59:39.000Z</time>
      </trkpt>
      <trkpt lat="49.09732" lon="1.51286">
        <ele>117.59999847412</ele>
        <time>2021-05-10T14:59:46.000Z</time>
      </trkpt>
      <trkpt lat="49.09738" lon="1.51234">
        <ele>116.80000305176</ele>
        <time>2021-05-10T14:59:54.000Z</time>
      </trkpt>
      <trkpt lat="49.0974" lon="1.51219">
        <ele>116.19999694824</ele>
        <time>2021-05-10T14:59:56.000Z</time>
      </trkpt>
      <trkpt lat="49.09744" lon="1.51185">
        <ele>115.40000152588</ele>
        <time>2021-05-10T15:00:01.000Z</time>
      </trkpt>
      <trkpt lat="49.09744" lon="1.51177">
        <ele>115.19999694824</ele>
        <time>2021-05-10T15:00:02.000Z</time>
      </trkpt>
      <trkpt lat="49.09747" lon="1.51142">
        <ele>114.40000152588</ele>
        <time>2021-05-10T15:00:06.000Z</time>
      </trkpt>
      <trkpt lat="49.09747" lon="1.51133">
        <ele>114.19999694824</ele>
        <time>2021-05-10T15:00:07.000Z</time>
      </trkpt>
      <trkpt lat="49.09743" lon="1.51099">
        <ele>114</ele>
        <time>2021-05-10T15:00:10.000Z</time>
      </trkpt>
      <trkpt lat="49.09738" lon="1.51047">
        <ele>112.80000305176</ele>
        <time>2021-05-10T15:00:14.000Z</time>
      </trkpt>
      <trkpt lat="49.09738" lon="1.51032">
        <ele>112</ele>
        <time>2021-05-10T15:00:15.000Z</time>
      </trkpt>
      <trkpt lat="49.09739" lon="1.51017">
        <ele>111.40000152588</ele>
        <time>2021-05-10T15:00:16.000Z</time>
      </trkpt>
      <trkpt lat="49.09743" lon="1.50987">
        <ele>109.59999847412</ele>
        <time>2021-05-10T15:00:18.000Z</time>
      </trkpt>
      <trkpt lat="49.09745" lon="1.50972">
        <ele>108.80000305176</ele>
        <time>2021-05-10T15:00:19.000Z</time>
      </trkpt>
      <trkpt lat="49.09748" lon="1.50957">
        <ele>108</ele>
        <time>2021-05-10T15:00:20.000Z</time>
      </trkpt>
      <trkpt lat="49.09753" lon="1.50927">
        <ele>106.59999847412</ele>
        <time>2021-05-10T15:00:22.000Z</time>
      </trkpt>
      <trkpt lat="49.09757" lon="1.50895">
        <ele>105.19999694824</ele>
        <time>2021-05-10T15:00:24.000Z</time>
      </trkpt>
      <trkpt lat="49.09762" lon="1.50864">
        <ele>103.40000152588</ele>
        <time>2021-05-10T15:00:26.000Z</time>
      </trkpt>
      <trkpt lat="49.09769" lon="1.50833">
        <ele>101.80000305176</ele>
        <time>2021-05-10T15:00:28.000Z</time>
      </trkpt>
      <trkpt lat="49.09776" lon="1.50801">
        <ele>100.19999694824</ele>
        <time>2021-05-10T15:00:30.000Z</time>
      </trkpt>
      <trkpt lat="49.09783" lon="1.50768">
        <ele>98</ele>
        <time>2021-05-10T15:00:32.000Z</time>
      </trkpt>
      <trkpt lat="49.0979" lon="1.50735">
        <ele>96.400001525879</ele>
        <time>2021-05-10T15:00:34.000Z</time>
      </trkpt>
      <trkpt lat="49.09798" lon="1.50702">
        <ele>94.599998474121</ele>
        <time>2021-05-10T15:00:36.000Z</time>
      </trkpt>
      <trkpt lat="49.09806" lon="1.50669">
        <ele>93.599998474121</ele>
        <time>2021-05-10T15:00:38.000Z</time>
      </trkpt>
      <trkpt lat="49.09815" lon="1.50637">
        <ele>92.400001525879</ele>
        <time>2021-05-10T15:00:40.000Z</time>
      </trkpt>
      <trkpt lat="49.09827" lon="1.50607">
        <ele>91</ele>
        <time>2021-05-10T15:00:42.000Z</time>
      </trkpt>
      <trkpt lat="49.09834" lon="1.50593">
        <ele>90</ele>
        <time>2021-05-10T15:00:43.000Z</time>
      </trkpt>
      <trkpt lat="49.09842" lon="1.50579">
        <ele>88.599998474121</ele>
        <time>2021-05-10T15:00:44.000Z</time>
      </trkpt>
      <trkpt lat="49.0985" lon="1.50566">
        <ele>87.599998474121</ele>
        <time>2021-05-10T15:00:45.000Z</time>
      </trkpt>
      <trkpt lat="49.0986" lon="1.50554">
        <ele>86.800003051758</ele>
        <time>2021-05-10T15:00:46.000Z</time>
      </trkpt>
      <trkpt lat="49.0987" lon="1.50542">
        <ele>86</ele>
        <time>2021-05-10T15:00:47.000Z</time>
      </trkpt>
      <trkpt lat="49.0988" lon="1.50532">
        <ele>85.199996948242</ele>
        <time>2021-05-10T15:00:48.000Z</time>
      </trkpt>
      <trkpt lat="49.09891" lon="1.50522">
        <ele>84.599998474121</ele>
        <time>2021-05-10T15:00:49.000Z</time>
      </trkpt>
      <trkpt lat="49.09903" lon="1.50511">
        <ele>84.199996948242</ele>
        <time>2021-05-10T15:00:50.000Z</time>
      </trkpt>
      <trkpt lat="49.09925" lon="1.50489">
        <ele>83.400001525879</ele>
        <time>2021-05-10T15:00:52.000Z</time>
      </trkpt>
      <trkpt lat="49.09945" lon="1.50466">
        <ele>81.599998474121</ele>
        <time>2021-05-10T15:00:54.000Z</time>
      </trkpt>
      <trkpt lat="49.09952" lon="1.50458">
        <ele>80.400001525879</ele>
        <time>2021-05-10T15:00:55.000Z</time>
      </trkpt>
      <trkpt lat="49.09957" lon="1.50451">
        <ele>79.199996948242</ele>
        <time>2021-05-10T15:00:56.000Z</time>
      </trkpt>
      <trkpt lat="49.0996" lon="1.50444">
        <ele>78</ele>
        <time>2021-05-10T15:00:57.000Z</time>
      </trkpt>
      <trkpt lat="49.09963" lon="1.50439">
        <ele>77</ele>
        <time>2021-05-10T15:00:58.000Z</time>
      </trkpt>
      <trkpt lat="49.09965" lon="1.50434">
        <ele>75.599998474121</ele>
        <time>2021-05-10T15:00:59.000Z</time>
      </trkpt>
      <trkpt lat="49.09966" lon="1.50428">
        <ele>73.800003051758</ele>
        <time>2021-05-10T15:01:00.000Z</time>
      </trkpt>
      <trkpt lat="49.09971" lon="1.50411">
        <ele>73</ele>
        <time>2021-05-10T15:01:03.000Z</time>
      </trkpt>
      <trkpt lat="49.09973" lon="1.50404">
        <ele>73</ele>
        <time>2021-05-10T15:01:04.000Z</time>
      </trkpt>
      <trkpt lat="49.09974" lon="1.50397">
        <ele>72.800003051758</ele>
        <time>2021-05-10T15:01:05.000Z</time>
      </trkpt>
      <trkpt lat="49.09976" lon="1.50382">
        <ele>72.599998474121</ele>
        <time>2021-05-10T15:01:07.000Z</time>
      </trkpt>
      <trkpt lat="49.09976" lon="1.50374">
        <ele>72.400001525879</ele>
        <time>2021-05-10T15:01:08.000Z</time>
      </trkpt>
      <trkpt lat="49.09973" lon="1.50353">
        <ele>71.599998474121</ele>
        <time>2021-05-10T15:01:11.000Z</time>
      </trkpt>
      <trkpt lat="49.09974" lon="1.50349">
        <ele>71.599998474121</ele>
        <time>2021-05-10T15:01:12.000Z</time>
      </trkpt>
      <trkpt lat="49.09985" lon="1.50344">
        <ele>71</ele>
        <time>2021-05-10T15:01:15.000Z</time>
      </trkpt>
      <trkpt lat="49.09997" lon="1.50347">
        <ele>70.599998474121</ele>
        <time>2021-05-10T15:01:17.000Z</time>
      </trkpt>
      <trkpt lat="49.10008" lon="1.5035">
        <ele>70.199996948242</ele>
        <time>2021-05-10T15:01:19.000Z</time>
      </trkpt>
      <trkpt lat="49.10019" lon="1.50357">
        <ele>69.599998474121</ele>
        <time>2021-05-10T15:01:22.000Z</time>
      </trkpt>
      <trkpt lat="49.10022" lon="1.50359">
        <ele>69</ele>
        <time>2021-05-10T15:01:23.000Z</time>
      </trkpt>
      <trkpt lat="49.10025" lon="1.5036">
        <ele>68.199996948242</ele>
        <time>2021-05-10T15:01:24.000Z</time>
      </trkpt>
      <trkpt lat="49.10038" lon="1.50362">
        <ele>67.400001525879</ele>
        <time>2021-05-10T15:01:28.000Z</time>
      </trkpt>
      <trkpt lat="49.10065" lon="1.50362">
        <ele>67.800003051758</ele>
        <time>2021-05-10T15:01:36.000Z</time>
      </trkpt>
      <trkpt lat="49.10093" lon="1.50354">
        <ele>68.400001525879</ele>
        <time>2021-05-10T15:01:44.000Z</time>
      </trkpt>
      <trkpt lat="49.10112" lon="1.50344">
        <ele>69.400001525879</ele>
        <time>2021-05-10T15:01:50.000Z</time>
      </trkpt>
      <trkpt lat="49.10115" lon="1.50343">
        <ele>69.800003051758</ele>
        <time>2021-05-10T15:01:51.000Z</time>
      </trkpt>
      <trkpt lat="49.10125" lon="1.50338">
        <ele>70.400001525879</ele>
        <time>2021-05-10T15:01:54.000Z</time>
      </trkpt>
      <trkpt lat="49.10129" lon="1.50337">
        <ele>70.599998474121</ele>
        <time>2021-05-10T15:01:55.000Z</time>
      </trkpt>
      <trkpt lat="49.10132" lon="1.50336">
        <ele>70.599998474121</ele>
        <time>2021-05-10T15:01:56.000Z</time>
      </trkpt>
      <trkpt lat="49.10135" lon="1.50322">
        <ele>70.800003051758</ele>
        <time>2021-05-10T15:01:59.000Z</time>
      </trkpt>
      <trkpt lat="49.10134" lon="1.50311">
        <ele>71</ele>
        <time>2021-05-10T15:02:01.000Z</time>
      </trkpt>
      <trkpt lat="49.10132" lon="1.50301">
        <ele>71.199996948242</ele>
        <time>2021-05-10T15:02:03.000Z</time>
      </trkpt>
      <trkpt lat="49.1013" lon="1.50292">
        <ele>71.400001525879</ele>
        <time>2021-05-10T15:02:05.000Z</time>
      </trkpt>
      <trkpt lat="49.10129" lon="1.50281">
        <ele>72</ele>
        <time>2021-05-10T15:02:08.000Z</time>
      </trkpt>
      <trkpt lat="49.10128" lon="1.50252">
        <ele>72.199996948242</ele>
        <time>2021-05-10T15:02:14.000Z</time>
      </trkpt>
      <trkpt lat="49.10124" lon="1.50214">
        <ele>72.199996948242</ele>
        <time>2021-05-10T15:02:20.000Z</time>
      </trkpt>
      <trkpt lat="49.10117" lon="1.50178">
        <ele>72.199996948242</ele>
        <time>2021-05-10T15:02:26.000Z</time>
      </trkpt>
      <trkpt lat="49.10116" lon="1.50171">
        <ele>72</ele>
        <time>2021-05-10T15:02:27.000Z</time>
      </trkpt>
      <trkpt lat="49.10111" lon="1.50148">
        <ele>71.599998474121</ele>
        <time>2021-05-10T15:02:31.000Z</time>
      </trkpt>
      <trkpt lat="49.10105" lon="1.50107">
        <ele>71.599998474121</ele>
        <time>2021-05-10T15:02:38.000Z</time>
      </trkpt>
      <trkpt lat="49.101" lon="1.50073">
        <ele>72.599998474121</ele>
        <time>2021-05-10T15:02:44.000Z</time>
      </trkpt>
      <trkpt lat="49.10099" lon="1.50068">
        <ele>72.599998474121</ele>
        <time>2021-05-10T15:02:45.000Z</time>
      </trkpt>
      <trkpt lat="49.10091" lon="1.50046">
        <ele>72.800003051758</ele>
        <time>2021-05-10T15:02:51.000Z</time>
      </trkpt>
      <trkpt lat="49.10085" lon="1.50034">
        <ele>73.800003051758</ele>
        <time>2021-05-10T15:02:55.000Z</time>
      </trkpt>
      <trkpt lat="49.10077" lon="1.5002">
        <ele>75</ele>
        <time>2021-05-10T15:03:00.000Z</time>
      </trkpt>
      <trkpt lat="49.10075" lon="1.50017">
        <ele>75.199996948242</ele>
        <time>2021-05-10T15:03:01.000Z</time>
      </trkpt>
      <trkpt lat="49.10065" lon="1.50001">
        <ele>76</ele>
        <time>2021-05-10T15:03:06.000Z</time>
      </trkpt>
      <trkpt lat="49.10061" lon="1.49994">
        <ele>76</ele>
        <time>2021-05-10T15:03:08.000Z</time>
      </trkpt>
      <trkpt lat="49.10051" lon="1.49978">
        <ele>77</ele>
        <time>2021-05-10T15:03:13.000Z</time>
      </trkpt>
      <trkpt lat="49.10049" lon="1.49971">
        <ele>77.199996948242</ele>
        <time>2021-05-10T15:03:15.000Z</time>
      </trkpt>
      <trkpt lat="49.10039" lon="1.4995">
        <ele>77.400001525879</ele>
        <time>2021-05-10T15:03:20.000Z</time>
      </trkpt>
      <trkpt lat="49.10028" lon="1.49916">
        <ele>77.599998474121</ele>
        <time>2021-05-10T15:03:27.000Z</time>
      </trkpt>
      <trkpt lat="49.10018" lon="1.49885">
        <ele>77.800003051758</ele>
        <time>2021-05-10T15:03:34.000Z</time>
      </trkpt>
      <trkpt lat="49.10014" lon="1.49863">
        <ele>78</ele>
        <time>2021-05-10T15:03:39.000Z</time>
      </trkpt>
      <trkpt lat="49.10014" lon="1.49859">
        <ele>78</ele>
        <time>2021-05-10T15:03:40.000Z</time>
      </trkpt>
      <trkpt lat="49.10012" lon="1.49837">
        <ele>79</ele>
        <time>2021-05-10T15:03:45.000Z</time>
      </trkpt>
      <trkpt lat="49.10012" lon="1.49802">
        <ele>79.599998474121</ele>
        <time>2021-05-10T15:03:52.000Z</time>
      </trkpt>
      <trkpt lat="49.10016" lon="1.49775">
        <ele>80</ele>
        <time>2021-05-10T15:03:57.000Z</time>
      </trkpt>
      <trkpt lat="49.10025" lon="1.49739">
        <ele>80</ele>
        <time>2021-05-10T15:04:04.000Z</time>
      </trkpt>
      <trkpt lat="49.10028" lon="1.49724">
        <ele>80.400001525879</ele>
        <time>2021-05-10T15:04:07.000Z</time>
      </trkpt>
      <trkpt lat="49.1003" lon="1.49713">
        <ele>80.400001525879</ele>
        <time>2021-05-10T15:04:09.000Z</time>
      </trkpt>
      <trkpt lat="49.10032" lon="1.49688">
        <ele>80.599998474121</ele>
        <time>2021-05-10T15:04:14.000Z</time>
      </trkpt>
      <trkpt lat="49.10037" lon="1.49668">
        <ele>80.800003051758</ele>
        <time>2021-05-10T15:04:19.000Z</time>
      </trkpt>
      <trkpt lat="49.1004" lon="1.49653">
        <ele>81</ele>
        <time>2021-05-10T15:04:22.000Z</time>
      </trkpt>
      <trkpt lat="49.10045" lon="1.49632">
        <ele>81.400001525879</ele>
        <time>2021-05-10T15:04:26.000Z</time>
      </trkpt>
      <trkpt lat="49.10047" lon="1.49625">
        <ele>81.400001525879</ele>
        <time>2021-05-10T15:04:27.000Z</time>
      </trkpt>
      <trkpt lat="49.10052" lon="1.49602">
        <ele>81.800003051758</ele>
        <time>2021-05-10T15:04:31.000Z</time>
      </trkpt>
      <trkpt lat="49.10065" lon="1.49563">
        <ele>82.199996948242</ele>
        <time>2021-05-10T15:04:38.000Z</time>
      </trkpt>
      <trkpt lat="49.10074" lon="1.49532">
        <ele>82.400001525879</ele>
        <time>2021-05-10T15:04:44.000Z</time>
      </trkpt>
      <trkpt lat="49.10083" lon="1.49498">
        <ele>83.199996948242</ele>
        <time>2021-05-10T15:04:51.000Z</time>
      </trkpt>
      <trkpt lat="49.10084" lon="1.49493">
        <ele>83.400001525879</ele>
        <time>2021-05-10T15:04:52.000Z</time>
      </trkpt>
      <trkpt lat="49.10088" lon="1.49468">
        <ele>84.199996948242</ele>
        <time>2021-05-10T15:04:58.000Z</time>
      </trkpt>
      <trkpt lat="49.1009" lon="1.49461">
        <ele>84.599998474121</ele>
        <time>2021-05-10T15:05:00.000Z</time>
      </trkpt>
      <trkpt lat="49.10094" lon="1.4944">
        <ele>85.800003051758</ele>
        <time>2021-05-10T15:05:05.000Z</time>
      </trkpt>
      <trkpt lat="49.10094" lon="1.49435">
        <ele>86</ele>
        <time>2021-05-10T15:05:06.000Z</time>
      </trkpt>
      <trkpt lat="49.10099" lon="1.49414">
        <ele>86.199996948242</ele>
        <time>2021-05-10T15:05:11.000Z</time>
      </trkpt>
      <trkpt lat="49.10109" lon="1.49387">
        <ele>87</ele>
        <time>2021-05-10T15:05:18.000Z</time>
      </trkpt>
      <trkpt lat="49.10123" lon="1.49339">
        <ele>87.800003051758</ele>
        <time>2021-05-10T15:05:27.000Z</time>
      </trkpt>
      <trkpt lat="49.10133" lon="1.49296">
        <ele>87.800003051758</ele>
        <time>2021-05-10T15:05:34.000Z</time>
      </trkpt>
      <trkpt lat="49.10143" lon="1.4927">
        <ele>87.599998474121</ele>
        <time>2021-05-10T15:05:39.000Z</time>
      </trkpt>
      <trkpt lat="49.10154" lon="1.49244">
        <ele>87.599998474121</ele>
        <time>2021-05-10T15:05:44.000Z</time>
      </trkpt>
      <trkpt lat="49.10159" lon="1.49231">
        <ele>88.199996948242</ele>
        <time>2021-05-10T15:05:47.000Z</time>
      </trkpt>
      <trkpt lat="49.10165" lon="1.49217">
        <ele>88.800003051758</ele>
        <time>2021-05-10T15:05:50.000Z</time>
      </trkpt>
      <trkpt lat="49.10172" lon="1.49202">
        <ele>89.400001525879</ele>
        <time>2021-05-10T15:05:53.000Z</time>
      </trkpt>
      <trkpt lat="49.10178" lon="1.49184">
        <ele>90</ele>
        <time>2021-05-10T15:05:57.000Z</time>
      </trkpt>
      <trkpt lat="49.10182" lon="1.49169">
        <ele>90.400001525879</ele>
        <time>2021-05-10T15:06:00.000Z</time>
      </trkpt>
      <trkpt lat="49.10186" lon="1.49157">
        <ele>90.599998474121</ele>
        <time>2021-05-10T15:06:03.000Z</time>
      </trkpt>
      <trkpt lat="49.10197" lon="1.4914">
        <ele>91.400001525879</ele>
        <time>2021-05-10T15:06:08.000Z</time>
      </trkpt>
      <trkpt lat="49.10202" lon="1.49134">
        <ele>91.199996948242</ele>
        <time>2021-05-10T15:06:10.000Z</time>
      </trkpt>
      <trkpt lat="49.10209" lon="1.49123">
        <ele>91.599998474121</ele>
        <time>2021-05-10T15:06:14.000Z</time>
      </trkpt>
      <trkpt lat="49.10224" lon="1.49108">
        <ele>92</ele>
        <time>2021-05-10T15:06:19.000Z</time>
      </trkpt>
      <trkpt lat="49.10243" lon="1.49099">
        <ele>92.199996948242</ele>
        <time>2021-05-10T15:06:24.000Z</time>
      </trkpt>
      <trkpt lat="49.10266" lon="1.49089">
        <ele>92.599998474121</ele>
        <time>2021-05-10T15:06:30.000Z</time>
      </trkpt>
      <trkpt lat="49.1027" lon="1.49088">
        <ele>92.599998474121</ele>
        <time>2021-05-10T15:06:31.000Z</time>
      </trkpt>
      <trkpt lat="49.10302" lon="1.49077">
        <ele>92.599998474121</ele>
        <time>2021-05-10T15:06:38.000Z</time>
      </trkpt>
      <trkpt lat="49.10325" lon="1.49069">
        <ele>92.800003051758</ele>
        <time>2021-05-10T15:06:43.000Z</time>
      </trkpt>
      <trkpt lat="49.1033" lon="1.49068">
        <ele>92.800003051758</ele>
        <time>2021-05-10T15:06:44.000Z</time>
      </trkpt>
      <trkpt lat="49.10353" lon="1.49068">
        <ele>93.199996948242</ele>
        <time>2021-05-10T15:06:50.000Z</time>
      </trkpt>
      <trkpt lat="49.10367" lon="1.49066">
        <ele>93.199996948242</ele>
        <time>2021-05-10T15:06:54.000Z</time>
      </trkpt>
      <trkpt lat="49.10382" lon="1.49057">
        <ele>93</ele>
        <time>2021-05-10T15:07:00.000Z</time>
      </trkpt>
      <trkpt lat="49.10382" lon="1.49057">
        <ele>93</ele>
        <time>2021-05-10T15:07:01.000Z</time>
      </trkpt>
      <trkpt lat="49.10397" lon="1.49051">
        <ele>90.599998474121</ele>
        <time>2021-05-10T15:15:22.000Z</time>
      </trkpt>
      <trkpt lat="49.10404" lon="1.4905">
        <ele>90.599998474121</ele>
        <time>2021-05-10T15:15:25.000Z</time>
      </trkpt>
      <trkpt lat="49.10418" lon="1.49049">
        <ele>90.599998474121</ele>
        <time>2021-05-10T15:15:28.000Z</time>
      </trkpt>
      <trkpt lat="49.10424" lon="1.49047">
        <ele>90.599998474121</ele>
        <time>2021-05-10T15:15:29.000Z</time>
      </trkpt>
      <trkpt lat="49.10462" lon="1.49031">
        <ele>89.400001525879</ele>
        <time>2021-05-10T15:15:34.000Z</time>
      </trkpt>
      <trkpt lat="49.10478" lon="1.49025">
        <ele>88.199996948242</ele>
        <time>2021-05-10T15:15:36.000Z</time>
      </trkpt>
      <trkpt lat="49.10496" lon="1.49018">
        <ele>86.800003051758</ele>
        <time>2021-05-10T15:15:38.000Z</time>
      </trkpt>
      <trkpt lat="49.10505" lon="1.49015">
        <ele>85.800003051758</ele>
        <time>2021-05-10T15:15:39.000Z</time>
      </trkpt>
      <trkpt lat="49.10515" lon="1.49014">
        <ele>85</ele>
        <time>2021-05-10T15:15:40.000Z</time>
      </trkpt>
      <trkpt lat="49.10525" lon="1.49012">
        <ele>83.800003051758</ele>
        <time>2021-05-10T15:15:41.000Z</time>
      </trkpt>
      <trkpt lat="49.10545" lon="1.49008">
        <ele>82</ele>
        <time>2021-05-10T15:15:43.000Z</time>
      </trkpt>
      <trkpt lat="49.10555" lon="1.49006">
        <ele>81</ele>
        <time>2021-05-10T15:15:44.000Z</time>
      </trkpt>
      <trkpt lat="49.10565" lon="1.49003">
        <ele>80.199996948242</ele>
        <time>2021-05-10T15:15:45.000Z</time>
      </trkpt>
      <trkpt lat="49.10574" lon="1.49001">
        <ele>79.400001525879</ele>
        <time>2021-05-10T15:15:46.000Z</time>
      </trkpt>
      <trkpt lat="49.10581" lon="1.48999">
        <ele>77</ele>
        <time>2021-05-10T15:15:47.000Z</time>
      </trkpt>
      <trkpt lat="49.10585" lon="1.48997">
        <ele>76.199996948242</ele>
        <time>2021-05-10T15:15:48.000Z</time>
      </trkpt>
      <trkpt lat="49.10587" lon="1.48996">
        <ele>75.599998474121</ele>
        <time>2021-05-10T15:15:49.000Z</time>
      </trkpt>
      <trkpt lat="49.1059" lon="1.48997">
        <ele>73.400001525879</ele>
        <time>2021-05-10T15:15:51.000Z</time>
      </trkpt>
      <trkpt lat="49.10591" lon="1.48997">
        <ele>72</ele>
        <time>2021-05-10T15:15:53.000Z</time>
      </trkpt>
      <trkpt lat="49.10591" lon="1.48996">
        <ele>71.800003051758</ele>
        <time>2021-05-10T15:15:55.000Z</time>
      </trkpt>
      <trkpt lat="49.10594" lon="1.48998">
        <ele>71.599998474121</ele>
        <time>2021-05-10T15:16:04.000Z</time>
      </trkpt>
      <trkpt lat="49.10596" lon="1.49">
        <ele>71.800003051758</ele>
        <time>2021-05-10T15:16:06.000Z</time>
      </trkpt>
      <trkpt lat="49.10603" lon="1.49004">
        <ele>71.800003051758</ele>
        <time>2021-05-10T15:16:12.000Z</time>
      </trkpt>
      <trkpt lat="49.10604" lon="1.49004">
        <ele>71.800003051758</ele>
        <time>2021-05-10T15:16:13.000Z</time>
      </trkpt>
      <trkpt lat="49.10609" lon="1.49004">
        <ele>72.800003051758</ele>
        <time>2021-05-10T15:16:17.000Z</time>
      </trkpt>
      <trkpt lat="49.10611" lon="1.49005">
        <ele>73.199996948242</ele>
        <time>2021-05-10T15:16:18.000Z</time>
      </trkpt>
      <trkpt lat="49.10617" lon="1.49005">
        <ele>74.199996948242</ele>
        <time>2021-05-10T15:16:21.000Z</time>
      </trkpt>
      <trkpt lat="49.10621" lon="1.49005">
        <ele>74.599998474121</ele>
        <time>2021-05-10T15:16:23.000Z</time>
      </trkpt>
      <trkpt lat="49.10629" lon="1.49006">
        <ele>74.599998474121</ele>
        <time>2021-05-10T15:16:28.000Z</time>
      </trkpt>
      <trkpt lat="49.10641" lon="1.49009">
        <ele>74.400001525879</ele>
        <time>2021-05-10T15:16:34.000Z</time>
      </trkpt>
      <trkpt lat="49.10657" lon="1.49011">
        <ele>74.400001525879</ele>
        <time>2021-05-10T15:16:40.000Z</time>
      </trkpt>
      <trkpt lat="49.10675" lon="1.49011">
        <ele>74</ele>
        <time>2021-05-10T15:16:44.000Z</time>
      </trkpt>
      <trkpt lat="49.10703" lon="1.49008">
        <ele>73.199996948242</ele>
        <time>2021-05-10T15:16:48.000Z</time>
      </trkpt>
      <trkpt lat="49.10712" lon="1.49009">
        <ele>73</ele>
        <time>2021-05-10T15:16:49.000Z</time>
      </trkpt>
      <trkpt lat="49.1074" lon="1.49011">
        <ele>71.599998474121</ele>
        <time>2021-05-10T15:16:52.000Z</time>
      </trkpt>
      <trkpt lat="49.10759" lon="1.49013">
        <ele>70</ele>
        <time>2021-05-10T15:16:54.000Z</time>
      </trkpt>
      <trkpt lat="49.10769" lon="1.49013">
        <ele>69</ele>
        <time>2021-05-10T15:16:55.000Z</time>
      </trkpt>
      <trkpt lat="49.10779" lon="1.49013">
        <ele>67.800003051758</ele>
        <time>2021-05-10T15:16:56.000Z</time>
      </trkpt>
      <trkpt lat="49.1079" lon="1.49012">
        <ele>66.599998474121</ele>
        <time>2021-05-10T15:16:57.000Z</time>
      </trkpt>
      <trkpt lat="49.10812" lon="1.49009">
        <ele>64.599998474121</ele>
        <time>2021-05-10T15:16:59.000Z</time>
      </trkpt>
      <trkpt lat="49.10824" lon="1.49008">
        <ele>63.799999237061</ele>
        <time>2021-05-10T15:17:00.000Z</time>
      </trkpt>
      <trkpt lat="49.10834" lon="1.49008">
        <ele>63.200000762939</ele>
        <time>2021-05-10T15:17:01.000Z</time>
      </trkpt>
      <trkpt lat="49.10855" lon="1.49008">
        <ele>62</ele>
        <time>2021-05-10T15:17:03.000Z</time>
      </trkpt>
      <trkpt lat="49.10865" lon="1.49007">
        <ele>61.400001525879</ele>
        <time>2021-05-10T15:17:04.000Z</time>
      </trkpt>
      <trkpt lat="49.10874" lon="1.49006">
        <ele>60.400001525879</ele>
        <time>2021-05-10T15:17:05.000Z</time>
      </trkpt>
      <trkpt lat="49.10884" lon="1.49005">
        <ele>59.400001525879</ele>
        <time>2021-05-10T15:17:06.000Z</time>
      </trkpt>
      <trkpt lat="49.10892" lon="1.49005">
        <ele>58.200000762939</ele>
        <time>2021-05-10T15:17:07.000Z</time>
      </trkpt>
      <trkpt lat="49.109" lon="1.49007">
        <ele>56.599998474121</ele>
        <time>2021-05-10T15:17:08.000Z</time>
      </trkpt>
      <trkpt lat="49.10908" lon="1.49011">
        <ele>55.200000762939</ele>
        <time>2021-05-10T15:17:09.000Z</time>
      </trkpt>
      <trkpt lat="49.10917" lon="1.49017">
        <ele>53.799999237061</ele>
        <time>2021-05-10T15:17:10.000Z</time>
      </trkpt>
      <trkpt lat="49.10925" lon="1.49022">
        <ele>52.599998474121</ele>
        <time>2021-05-10T15:17:11.000Z</time>
      </trkpt>
      <trkpt lat="49.10933" lon="1.49028">
        <ele>51.200000762939</ele>
        <time>2021-05-10T15:17:12.000Z</time>
      </trkpt>
      <trkpt lat="49.10942" lon="1.49034">
        <ele>49.799999237061</ele>
        <time>2021-05-10T15:17:13.000Z</time>
      </trkpt>
      <trkpt lat="49.10951" lon="1.49041">
        <ele>47</ele>
        <time>2021-05-10T15:17:14.000Z</time>
      </trkpt>
      <trkpt lat="49.1096" lon="1.49049">
        <ele>45.599998474121</ele>
        <time>2021-05-10T15:17:15.000Z</time>
      </trkpt>
      <trkpt lat="49.10969" lon="1.49056">
        <ele>44.400001525879</ele>
        <time>2021-05-10T15:17:16.000Z</time>
      </trkpt>
      <trkpt lat="49.10977" lon="1.49064">
        <ele>43.200000762939</ele>
        <time>2021-05-10T15:17:17.000Z</time>
      </trkpt>
      <trkpt lat="49.10987" lon="1.49073">
        <ele>41.799999237061</ele>
        <time>2021-05-10T15:17:18.000Z</time>
      </trkpt>
      <trkpt lat="49.10996" lon="1.49081">
        <ele>40.400001525879</ele>
        <time>2021-05-10T15:17:19.000Z</time>
      </trkpt>
      <trkpt lat="49.11005" lon="1.49089">
        <ele>38.599998474121</ele>
        <time>2021-05-10T15:17:20.000Z</time>
      </trkpt>
      <trkpt lat="49.11014" lon="1.49096">
        <ele>37.200000762939</ele>
        <time>2021-05-10T15:17:21.000Z</time>
      </trkpt>
      <trkpt lat="49.11022" lon="1.49103">
        <ele>35.799999237061</ele>
        <time>2021-05-10T15:17:22.000Z</time>
      </trkpt>
      <trkpt lat="49.1103" lon="1.4911">
        <ele>34.599998474121</ele>
        <time>2021-05-10T15:17:23.000Z</time>
      </trkpt>
      <trkpt lat="49.11038" lon="1.49116">
        <ele>33.599998474121</ele>
        <time>2021-05-10T15:17:24.000Z</time>
      </trkpt>
      <trkpt lat="49.11046" lon="1.49121">
        <ele>32.599998474121</ele>
        <time>2021-05-10T15:17:25.000Z</time>
      </trkpt>
      <trkpt lat="49.1106" lon="1.4913">
        <ele>31.39999961853</ele>
        <time>2021-05-10T15:17:27.000Z</time>
      </trkpt>
      <trkpt lat="49.11073" lon="1.49139">
        <ele>31</ele>
        <time>2021-05-10T15:17:29.000Z</time>
      </trkpt>
      <trkpt lat="49.11092" lon="1.49154">
        <ele>30.799999237061</ele>
        <time>2021-05-10T15:17:32.000Z</time>
      </trkpt>
      <trkpt lat="49.11099" lon="1.49164">
        <ele>30.799999237061</ele>
        <time>2021-05-10T15:17:34.000Z</time>
      </trkpt>
      <trkpt lat="49.11112" lon="1.4918">
        <ele>31.200000762939</ele>
        <time>2021-05-10T15:17:39.000Z</time>
      </trkpt>
      <trkpt lat="49.11121" lon="1.49192">
        <ele>32.599998474121</ele>
        <time>2021-05-10T15:17:42.000Z</time>
      </trkpt>
      <trkpt lat="49.11129" lon="1.49201">
        <ele>33.599998474121</ele>
        <time>2021-05-10T15:17:44.000Z</time>
      </trkpt>
      <trkpt lat="49.11132" lon="1.49206">
        <ele>33.799999237061</ele>
        <time>2021-05-10T15:17:45.000Z</time>
      </trkpt>
      <trkpt lat="49.11145" lon="1.49222">
        <ele>34</ele>
        <time>2021-05-10T15:17:49.000Z</time>
      </trkpt>
      <trkpt lat="49.11161" lon="1.4924">
        <ele>34</ele>
        <time>2021-05-10T15:17:55.000Z</time>
      </trkpt>
      <trkpt lat="49.11176" lon="1.49256">
        <ele>34</ele>
        <time>2021-05-10T15:18:01.000Z</time>
      </trkpt>
      <trkpt lat="49.11195" lon="1.49276">
        <ele>34.200000762939</ele>
        <time>2021-05-10T15:18:08.000Z</time>
      </trkpt>
      <trkpt lat="49.11203" lon="1.49285">
        <ele>34.799999237061</ele>
        <time>2021-05-10T15:18:11.000Z</time>
      </trkpt>
      <trkpt lat="49.11211" lon="1.49291">
        <ele>34.799999237061</ele>
        <time>2021-05-10T15:18:14.000Z</time>
      </trkpt>
      <trkpt lat="49.11231" lon="1.49311">
        <ele>35</ele>
        <time>2021-05-10T15:18:20.000Z</time>
      </trkpt>
      <trkpt lat="49.1125" lon="1.49328">
        <ele>35</ele>
        <time>2021-05-10T15:18:26.000Z</time>
      </trkpt>
      <trkpt lat="49.11265" lon="1.49342">
        <ele>35.200000762939</ele>
        <time>2021-05-10T15:18:31.000Z</time>
      </trkpt>
      <trkpt lat="49.11282" lon="1.49357">
        <ele>35.200000762939</ele>
        <time>2021-05-10T15:18:36.000Z</time>
      </trkpt>
      <trkpt lat="49.11301" lon="1.4937">
        <ele>35.400001525879</ele>
        <time>2021-05-10T15:18:41.000Z</time>
      </trkpt>
      <trkpt lat="49.11317" lon="1.49376">
        <ele>35.599998474121</ele>
        <time>2021-05-10T15:18:46.000Z</time>
      </trkpt>
      <trkpt lat="49.11337" lon="1.49382">
        <ele>36.599998474121</ele>
        <time>2021-05-10T15:18:52.000Z</time>
      </trkpt>
      <trkpt lat="49.1134" lon="1.49383">
        <ele>36.599998474121</ele>
        <time>2021-05-10T15:18:53.000Z</time>
      </trkpt>
      <trkpt lat="49.1136" lon="1.49389">
        <ele>37.400001525879</ele>
        <time>2021-05-10T15:18:59.000Z</time>
      </trkpt>
      <trkpt lat="49.11363" lon="1.49392">
        <ele>37.599998474121</ele>
        <time>2021-05-10T15:19:00.000Z</time>
      </trkpt>
      <trkpt lat="49.11374" lon="1.49398">
        <ele>38</ele>
        <time>2021-05-10T15:19:04.000Z</time>
      </trkpt>
      <trkpt lat="49.11387" lon="1.49404">
        <ele>38.799999237061</ele>
        <time>2021-05-10T15:19:08.000Z</time>
      </trkpt>
      <trkpt lat="49.1139" lon="1.49405">
        <ele>39.200000762939</ele>
        <time>2021-05-10T15:19:09.000Z</time>
      </trkpt>
      <trkpt lat="49.11405" lon="1.49412">
        <ele>39.799999237061</ele>
        <time>2021-05-10T15:19:14.000Z</time>
      </trkpt>
      <trkpt lat="49.11409" lon="1.49413">
        <ele>39.799999237061</ele>
        <time>2021-05-10T15:19:15.000Z</time>
      </trkpt>
      <trkpt lat="49.11423" lon="1.49422">
        <ele>40.400001525879</ele>
        <time>2021-05-10T15:19:20.000Z</time>
      </trkpt>
      <trkpt lat="49.11431" lon="1.49428">
        <ele>40.799999237061</ele>
        <time>2021-05-10T15:19:23.000Z</time>
      </trkpt>
      <trkpt lat="49.11445" lon="1.49438">
        <ele>41.799999237061</ele>
        <time>2021-05-10T15:19:28.000Z</time>
      </trkpt>
      <trkpt lat="49.11448" lon="1.4944">
        <ele>41.799999237061</ele>
        <time>2021-05-10T15:19:29.000Z</time>
      </trkpt>
      <trkpt lat="49.11461" lon="1.49453">
        <ele>41.799999237061</ele>
        <time>2021-05-10T15:19:33.000Z</time>
      </trkpt>
      <trkpt lat="49.11479" lon="1.49468">
        <ele>42</ele>
        <time>2021-05-10T15:19:39.000Z</time>
      </trkpt>
      <trkpt lat="49.11502" lon="1.49485">
        <ele>42.200000762939</ele>
        <time>2021-05-10T15:19:45.000Z</time>
      </trkpt>
      <trkpt lat="49.11523" lon="1.49501">
        <ele>42.400001525879</ele>
        <time>2021-05-10T15:19:50.000Z</time>
      </trkpt>
      <trkpt lat="49.11542" lon="1.49514">
        <ele>42.400001525879</ele>
        <time>2021-05-10T15:19:55.000Z</time>
      </trkpt>
      <trkpt lat="49.1156" lon="1.49528">
        <ele>42.200000762939</ele>
        <time>2021-05-10T15:20:00.000Z</time>
      </trkpt>
      <trkpt lat="49.11582" lon="1.49545">
        <ele>42.400001525879</ele>
        <time>2021-05-10T15:20:06.000Z</time>
      </trkpt>
      <trkpt lat="49.11589" lon="1.49551">
        <ele>42.599998474121</ele>
        <time>2021-05-10T15:20:08.000Z</time>
      </trkpt>
      <trkpt lat="49.11598" lon="1.49563">
        <ele>42.799999237061</ele>
        <time>2021-05-10T15:20:11.000Z</time>
      </trkpt>
      <trkpt lat="49.11613" lon="1.49588">
        <ele>43.400001525879</ele>
        <time>2021-05-10T15:20:17.000Z</time>
      </trkpt>
      <trkpt lat="49.11616" lon="1.49592">
        <ele>43.400001525879</ele>
        <time>2021-05-10T15:20:18.000Z</time>
      </trkpt>
      <trkpt lat="49.11626" lon="1.49613">
        <ele>44</ele>
        <time>2021-05-10T15:20:23.000Z</time>
      </trkpt>
      <trkpt lat="49.11631" lon="1.49625">
        <ele>44.599998474121</ele>
        <time>2021-05-10T15:20:26.000Z</time>
      </trkpt>
      <trkpt lat="49.11636" lon="1.49637">
        <ele>45</ele>
        <time>2021-05-10T15:20:29.000Z</time>
      </trkpt>
      <trkpt lat="49.11649" lon="1.49661">
        <ele>45.599998474121</ele>
        <time>2021-05-10T15:20:35.000Z</time>
      </trkpt>
      <trkpt lat="49.11654" lon="1.49671">
        <ele>45.799999237061</ele>
        <time>2021-05-10T15:20:38.000Z</time>
      </trkpt>
      <trkpt lat="49.11657" lon="1.49677">
        <ele>46</ele>
        <time>2021-05-10T15:20:40.000Z</time>
      </trkpt>
      <trkpt lat="49.11666" lon="1.49686">
        <ele>46.200000762939</ele>
        <time>2021-05-10T15:20:44.000Z</time>
      </trkpt>
      <trkpt lat="49.1167" lon="1.49688">
        <ele>46.400001525879</ele>
        <time>2021-05-10T15:20:45.000Z</time>
      </trkpt>
      <trkpt lat="49.11676" lon="1.49691">
        <ele>46.400001525879</ele>
        <time>2021-05-10T15:20:47.000Z</time>
      </trkpt>
      <trkpt lat="49.11681" lon="1.49695">
        <ele>46.599998474121</ele>
        <time>2021-05-10T15:20:50.000Z</time>
      </trkpt>
      <trkpt lat="49.11688" lon="1.49703">
        <ele>46.799999237061</ele>
        <time>2021-05-10T15:20:55.000Z</time>
      </trkpt>
      <trkpt lat="49.11697" lon="1.49711">
        <ele>47.599998474121</ele>
        <time>2021-05-10T15:20:59.000Z</time>
      </trkpt>
      <trkpt lat="49.11699" lon="1.49714">
        <ele>48</ele>
        <time>2021-05-10T15:21:01.000Z</time>
      </trkpt>
      <trkpt lat="49.11703" lon="1.49719">
        <ele>48.599998474121</ele>
        <time>2021-05-10T15:21:05.000Z</time>
      </trkpt>
      <trkpt lat="49.11706" lon="1.49724">
        <ele>49</ele>
        <time>2021-05-10T15:21:09.000Z</time>
      </trkpt>
      <trkpt lat="49.11709" lon="1.49732">
        <ele>49.799999237061</ele>
        <time>2021-05-10T15:21:15.000Z</time>
      </trkpt>
      <trkpt lat="49.11712" lon="1.49737">
        <ele>50</ele>
        <time>2021-05-10T15:21:18.000Z</time>
      </trkpt>
      <trkpt lat="49.11713" lon="1.49739">
        <ele>50.200000762939</ele>
        <time>2021-05-10T15:21:19.000Z</time>
      </trkpt>
      <trkpt lat="49.11715" lon="1.49743">
        <ele>50.599998474121</ele>
        <time>2021-05-10T15:21:21.000Z</time>
      </trkpt>
      <trkpt lat="49.11718" lon="1.49751">
        <ele>51.599998474121</ele>
        <time>2021-05-10T15:21:25.000Z</time>
      </trkpt>
      <trkpt lat="49.1172" lon="1.49756">
        <ele>52.200000762939</ele>
        <time>2021-05-10T15:21:27.000Z</time>
      </trkpt>
      <trkpt lat="49.11721" lon="1.49764">
        <ele>52.799999237061</ele>
        <time>2021-05-10T15:21:30.000Z</time>
      </trkpt>
      <trkpt lat="49.11723" lon="1.49772">
        <ele>53.799999237061</ele>
        <time>2021-05-10T15:21:34.000Z</time>
      </trkpt>
      <trkpt lat="49.11723" lon="1.49774">
        <ele>54</ele>
        <time>2021-05-10T15:21:35.000Z</time>
      </trkpt>
      <trkpt lat="49.11723" lon="1.49785">
        <ele>55</ele>
        <time>2021-05-10T15:21:40.000Z</time>
      </trkpt>
      <trkpt lat="49.11723" lon="1.49787">
        <ele>55.200000762939</ele>
        <time>2021-05-10T15:21:41.000Z</time>
      </trkpt>
      <trkpt lat="49.11726" lon="1.49795">
        <ele>56.200000762939</ele>
        <time>2021-05-10T15:21:46.000Z</time>
      </trkpt>
      <trkpt lat="49.11727" lon="1.49798">
        <ele>56.599998474121</ele>
        <time>2021-05-10T15:21:48.000Z</time>
      </trkpt>
      <trkpt lat="49.11727" lon="1.49803">
        <ele>57.400001525879</ele>
        <time>2021-05-10T15:21:51.000Z</time>
      </trkpt>
      <trkpt lat="49.11728" lon="1.49815">
        <ele>58.400001525879</ele>
        <time>2021-05-10T15:21:56.000Z</time>
      </trkpt>
      <trkpt lat="49.11729" lon="1.49816">
        <ele>58.599998474121</ele>
        <time>2021-05-10T15:21:57.000Z</time>
      </trkpt>
      <trkpt lat="49.11731" lon="1.49826">
        <ele>59.599998474121</ele>
        <time>2021-05-10T15:22:01.000Z</time>
      </trkpt>
      <trkpt lat="49.11733" lon="1.49834">
        <ele>60.599998474121</ele>
        <time>2021-05-10T15:22:04.000Z</time>
      </trkpt>
      <trkpt lat="49.11735" lon="1.49839">
        <ele>61</ele>
        <time>2021-05-10T15:22:06.000Z</time>
      </trkpt>
      <trkpt lat="49.11737" lon="1.49846">
        <ele>61.599998474121</ele>
        <time>2021-05-10T15:22:10.000Z</time>
      </trkpt>
      <trkpt lat="49.1174" lon="1.49857">
        <ele>62.400001525879</ele>
        <time>2021-05-10T15:22:15.000Z</time>
      </trkpt>
      <trkpt lat="49.11741" lon="1.49861">
        <ele>62.799999237061</ele>
        <time>2021-05-10T15:22:17.000Z</time>
      </trkpt>
      <trkpt lat="49.11741" lon="1.49868">
        <ele>63.799999237061</ele>
        <time>2021-05-10T15:22:21.000Z</time>
      </trkpt>
      <trkpt lat="49.11741" lon="1.4987">
        <ele>64</ele>
        <time>2021-05-10T15:22:22.000Z</time>
      </trkpt>
      <trkpt lat="49.11741" lon="1.49871">
        <ele>64.199996948242</ele>
        <time>2021-05-10T15:22:23.000Z</time>
      </trkpt>
      <trkpt lat="49.11743" lon="1.49879">
        <ele>65.199996948242</ele>
        <time>2021-05-10T15:22:27.000Z</time>
      </trkpt>
      <trkpt lat="49.11744" lon="1.49884">
        <ele>65.800003051758</ele>
        <time>2021-05-10T15:22:29.000Z</time>
      </trkpt>
      <trkpt lat="49.11745" lon="1.49885">
        <ele>66.199996948242</ele>
        <time>2021-05-10T15:22:30.000Z</time>
      </trkpt>
      <trkpt lat="49.11746" lon="1.49893">
        <ele>67.199996948242</ele>
        <time>2021-05-10T15:22:35.000Z</time>
      </trkpt>
      <trkpt lat="49.11746" lon="1.49897">
        <ele>67.599998474121</ele>
        <time>2021-05-10T15:22:37.000Z</time>
      </trkpt>
      <trkpt lat="49.11748" lon="1.49903">
        <ele>68.400001525879</ele>
        <time>2021-05-10T15:22:41.000Z</time>
      </trkpt>
      <trkpt lat="49.11748" lon="1.49908">
        <ele>69.199996948242</ele>
        <time>2021-05-10T15:22:44.000Z</time>
      </trkpt>
      <trkpt lat="49.11749" lon="1.4991">
        <ele>69.599998474121</ele>
        <time>2021-05-10T15:22:46.000Z</time>
      </trkpt>
      <trkpt lat="49.11753" lon="1.49916">
        <ele>70.800003051758</ele>
        <time>2021-05-10T15:22:51.000Z</time>
      </trkpt>
      <trkpt lat="49.11754" lon="1.49919">
        <ele>71.400001525879</ele>
        <time>2021-05-10T15:22:54.000Z</time>
      </trkpt>
      <trkpt lat="49.11756" lon="1.49922">
        <ele>71.800003051758</ele>
        <time>2021-05-10T15:22:56.000Z</time>
      </trkpt>
      <trkpt lat="49.11758" lon="1.49927">
        <ele>72.800003051758</ele>
        <time>2021-05-10T15:23:00.000Z</time>
      </trkpt>
      <trkpt lat="49.11762" lon="1.49933">
        <ele>73.800003051758</ele>
        <time>2021-05-10T15:23:04.000Z</time>
      </trkpt>
      <trkpt lat="49.11763" lon="1.49934">
        <ele>74.199996948242</ele>
        <time>2021-05-10T15:23:05.000Z</time>
      </trkpt>
      <trkpt lat="49.11765" lon="1.49937">
        <ele>74.599998474121</ele>
        <time>2021-05-10T15:23:07.000Z</time>
      </trkpt>
      <trkpt lat="49.11766" lon="1.49938">
        <ele>74.800003051758</ele>
        <time>2021-05-10T15:23:08.000Z</time>
      </trkpt>
      <trkpt lat="49.11771" lon="1.49942">
        <ele>76</ele>
        <time>2021-05-10T15:23:14.000Z</time>
      </trkpt>
      <trkpt lat="49.11775" lon="1.49946">
        <ele>77.199996948242</ele>
        <time>2021-05-10T15:23:18.000Z</time>
      </trkpt>
      <trkpt lat="49.11779" lon="1.49948">
        <ele>78.400001525879</ele>
        <time>2021-05-10T15:23:21.000Z</time>
      </trkpt>
      <trkpt lat="49.11782" lon="1.4995">
        <ele>79</ele>
        <time>2021-05-10T15:23:24.000Z</time>
      </trkpt>
      <trkpt lat="49.11785" lon="1.49951">
        <ele>79.400001525879</ele>
        <time>2021-05-10T15:23:26.000Z</time>
      </trkpt>
      <trkpt lat="49.11789" lon="1.49954">
        <ele>80.400001525879</ele>
        <time>2021-05-10T15:23:31.000Z</time>
      </trkpt>
      <trkpt lat="49.11791" lon="1.49955">
        <ele>81</ele>
        <time>2021-05-10T15:23:33.000Z</time>
      </trkpt>
      <trkpt lat="49.11794" lon="1.49956">
        <ele>81.599998474121</ele>
        <time>2021-05-10T15:23:36.000Z</time>
      </trkpt>
      <trkpt lat="49.11799" lon="1.49958">
        <ele>82.599998474121</ele>
        <time>2021-05-10T15:23:40.000Z</time>
      </trkpt>
      <trkpt lat="49.11801" lon="1.49959">
        <ele>83.199996948242</ele>
        <time>2021-05-10T15:23:42.000Z</time>
      </trkpt>
      <trkpt lat="49.11803" lon="1.4996">
        <ele>83.599998474121</ele>
        <time>2021-05-10T15:23:44.000Z</time>
      </trkpt>
      <trkpt lat="49.11809" lon="1.49964">
        <ele>84.800003051758</ele>
        <time>2021-05-10T15:23:50.000Z</time>
      </trkpt>
      <trkpt lat="49.11811" lon="1.49966">
        <ele>85.400001525879</ele>
        <time>2021-05-10T15:23:53.000Z</time>
      </trkpt>
      <trkpt lat="49.11814" lon="1.49967">
        <ele>86</ele>
        <time>2021-05-10T15:23:55.000Z</time>
      </trkpt>
      <trkpt lat="49.11821" lon="1.49971">
        <ele>87.199996948242</ele>
        <time>2021-05-10T15:24:01.000Z</time>
      </trkpt>
      <trkpt lat="49.11824" lon="1.49974">
        <ele>87.599998474121</ele>
        <time>2021-05-10T15:24:04.000Z</time>
      </trkpt>
      <trkpt lat="49.1183" lon="1.49978">
        <ele>88.400001525879</ele>
        <time>2021-05-10T15:24:09.000Z</time>
      </trkpt>
      <trkpt lat="49.11834" lon="1.49981">
        <ele>89.400001525879</ele>
        <time>2021-05-10T15:24:13.000Z</time>
      </trkpt>
      <trkpt lat="49.11838" lon="1.49981">
        <ele>90.199996948242</ele>
        <time>2021-05-10T15:24:16.000Z</time>
      </trkpt>
      <trkpt lat="49.1184" lon="1.49983">
        <ele>90.599998474121</ele>
        <time>2021-05-10T15:24:18.000Z</time>
      </trkpt>
      <trkpt lat="49.11845" lon="1.49985">
        <ele>91.800003051758</ele>
        <time>2021-05-10T15:24:22.000Z</time>
      </trkpt>
      <trkpt lat="49.11846" lon="1.49986">
        <ele>92</ele>
        <time>2021-05-10T15:24:23.000Z</time>
      </trkpt>
      <trkpt lat="49.11849" lon="1.49987">
        <ele>92.800003051758</ele>
        <time>2021-05-10T15:24:26.000Z</time>
      </trkpt>
      <trkpt lat="49.11856" lon="1.49993">
        <ele>94</ele>
        <time>2021-05-10T15:24:31.000Z</time>
      </trkpt>
      <trkpt lat="49.11857" lon="1.49994">
        <ele>94.199996948242</ele>
        <time>2021-05-10T15:24:32.000Z</time>
      </trkpt>
      <trkpt lat="49.11865" lon="1.49999">
        <ele>95</ele>
        <time>2021-05-10T15:24:37.000Z</time>
      </trkpt>
      <trkpt lat="49.11868" lon="1.50001">
        <ele>95.400001525879</ele>
        <time>2021-05-10T15:24:39.000Z</time>
      </trkpt>
      <trkpt lat="49.11874" lon="1.50006">
        <ele>96.199996948242</ele>
        <time>2021-05-10T15:24:43.000Z</time>
      </trkpt>
      <trkpt lat="49.11875" lon="1.50007">
        <ele>96.599998474121</ele>
        <time>2021-05-10T15:24:44.000Z</time>
      </trkpt>
      <trkpt lat="49.11881" lon="1.50013">
        <ele>97.599998474121</ele>
        <time>2021-05-10T15:24:50.000Z</time>
      </trkpt>
      <trkpt lat="49.11883" lon="1.50014">
        <ele>97.800003051758</ele>
        <time>2021-05-10T15:24:52.000Z</time>
      </trkpt>
      <trkpt lat="49.11888" lon="1.50018">
        <ele>98.599998474121</ele>
        <time>2021-05-10T15:24:56.000Z</time>
      </trkpt>
      <trkpt lat="49.11894" lon="1.50024">
        <ele>99.599998474121</ele>
        <time>2021-05-10T15:25:02.000Z</time>
      </trkpt>
      <trkpt lat="49.11901" lon="1.50031">
        <ele>100.80000305176</ele>
        <time>2021-05-10T15:25:08.000Z</time>
      </trkpt>
      <trkpt lat="49.11903" lon="1.50033">
        <ele>101.40000152588</ele>
        <time>2021-05-10T15:25:10.000Z</time>
      </trkpt>
      <trkpt lat="49.11907" lon="1.50036">
        <ele>102</ele>
        <time>2021-05-10T15:25:13.000Z</time>
      </trkpt>
      <trkpt lat="49.11913" lon="1.50041">
        <ele>103</ele>
        <time>2021-05-10T15:25:18.000Z</time>
      </trkpt>
      <trkpt lat="49.11914" lon="1.50043">
        <ele>103.40000152588</ele>
        <time>2021-05-10T15:25:19.000Z</time>
      </trkpt>
      <trkpt lat="49.11919" lon="1.50046">
        <ele>104.19999694824</ele>
        <time>2021-05-10T15:25:22.000Z</time>
      </trkpt>
      <trkpt lat="49.11926" lon="1.50051">
        <ele>105.19999694824</ele>
        <time>2021-05-10T15:25:27.000Z</time>
      </trkpt>
      <trkpt lat="49.11927" lon="1.50052">
        <ele>105.40000152588</ele>
        <time>2021-05-10T15:25:28.000Z</time>
      </trkpt>
      <trkpt lat="49.11935" lon="1.50058">
        <ele>106.59999847412</ele>
        <time>2021-05-10T15:25:34.000Z</time>
      </trkpt>
      <trkpt lat="49.11942" lon="1.50067">
        <ele>107.80000305176</ele>
        <time>2021-05-10T15:25:40.000Z</time>
      </trkpt>
      <trkpt lat="49.11945" lon="1.5007">
        <ele>108.19999694824</ele>
        <time>2021-05-10T15:25:42.000Z</time>
      </trkpt>
      <trkpt lat="49.11948" lon="1.50074">
        <ele>108.80000305176</ele>
        <time>2021-05-10T15:25:45.000Z</time>
      </trkpt>
      <trkpt lat="49.11951" lon="1.50078">
        <ele>109.59999847412</ele>
        <time>2021-05-10T15:25:48.000Z</time>
      </trkpt>
      <trkpt lat="49.11953" lon="1.5008">
        <ele>110</ele>
        <time>2021-05-10T15:25:50.000Z</time>
      </trkpt>
      <trkpt lat="49.11956" lon="1.50083">
        <ele>111.19999694824</ele>
        <time>2021-05-10T15:25:54.000Z</time>
      </trkpt>
      <trkpt lat="49.11957" lon="1.50085">
        <ele>111.40000152588</ele>
        <time>2021-05-10T15:25:55.000Z</time>
      </trkpt>
      <trkpt lat="49.11963" lon="1.50089">
        <ele>112.40000152588</ele>
        <time>2021-05-10T15:26:00.000Z</time>
      </trkpt>
      <trkpt lat="49.11966" lon="1.50092">
        <ele>113</ele>
        <time>2021-05-10T15:26:03.000Z</time>
      </trkpt>
      <trkpt lat="49.11968" lon="1.50094">
        <ele>113.40000152588</ele>
        <time>2021-05-10T15:26:05.000Z</time>
      </trkpt>
      <trkpt lat="49.11971" lon="1.50096">
        <ele>113.80000305176</ele>
        <time>2021-05-10T15:26:07.000Z</time>
      </trkpt>
      <trkpt lat="49.11973" lon="1.50097">
        <ele>114</ele>
        <time>2021-05-10T15:26:09.000Z</time>
      </trkpt>
      <trkpt lat="49.11976" lon="1.50099">
        <ele>114.40000152588</ele>
        <time>2021-05-10T15:26:11.000Z</time>
      </trkpt>
      <trkpt lat="49.11977" lon="1.501">
        <ele>114.59999847412</ele>
        <time>2021-05-10T15:26:12.000Z</time>
      </trkpt>
      <trkpt lat="49.11982" lon="1.50105">
        <ele>115.80000305176</ele>
        <time>2021-05-10T15:26:17.000Z</time>
      </trkpt>
      <trkpt lat="49.11984" lon="1.50107">
        <ele>116</ele>
        <time>2021-05-10T15:26:18.000Z</time>
      </trkpt>
      <trkpt lat="49.11988" lon="1.5011">
        <ele>117</ele>
        <time>2021-05-10T15:26:21.000Z</time>
      </trkpt>
      <trkpt lat="49.1199" lon="1.50113">
        <ele>117.40000152588</ele>
        <time>2021-05-10T15:26:23.000Z</time>
      </trkpt>
      <trkpt lat="49.11993" lon="1.50117">
        <ele>118.19999694824</ele>
        <time>2021-05-10T15:26:26.000Z</time>
      </trkpt>
      <trkpt lat="49.11995" lon="1.50119">
        <ele>118.59999847412</ele>
        <time>2021-05-10T15:26:28.000Z</time>
      </trkpt>
      <trkpt lat="49.11999" lon="1.50121">
        <ele>119.19999694824</ele>
        <time>2021-05-10T15:26:30.000Z</time>
      </trkpt>
      <trkpt lat="49.12002" lon="1.50124">
        <ele>119.59999847412</ele>
        <time>2021-05-10T15:26:32.000Z</time>
      </trkpt>
      <trkpt lat="49.12006" lon="1.50127">
        <ele>120.40000152588</ele>
        <time>2021-05-10T15:26:35.000Z</time>
      </trkpt>
      <trkpt lat="49.12012" lon="1.5013">
        <ele>121.19999694824</ele>
        <time>2021-05-10T15:26:38.000Z</time>
      </trkpt>
      <trkpt lat="49.12014" lon="1.50132">
        <ele>121.40000152588</ele>
        <time>2021-05-10T15:26:40.000Z</time>
      </trkpt>
      <trkpt lat="49.1202" lon="1.50135">
        <ele>122</ele>
        <time>2021-05-10T15:26:45.000Z</time>
      </trkpt>
      <trkpt lat="49.12022" lon="1.50136">
        <ele>122.59999847412</ele>
        <time>2021-05-10T15:26:47.000Z</time>
      </trkpt>
      <trkpt lat="49.12034" lon="1.50139">
        <ele>123.80000305176</ele>
        <time>2021-05-10T15:26:54.000Z</time>
      </trkpt>
      <trkpt lat="49.12051" lon="1.50142">
        <ele>124.80000305176</ele>
        <time>2021-05-10T15:27:01.000Z</time>
      </trkpt>
      <trkpt lat="49.1207" lon="1.50146">
        <ele>125.59999847412</ele>
        <time>2021-05-10T15:27:08.000Z</time>
      </trkpt>
      <trkpt lat="49.12077" lon="1.50149">
        <ele>125.80000305176</ele>
        <time>2021-05-10T15:27:11.000Z</time>
      </trkpt>
      <trkpt lat="49.12081" lon="1.5015">
        <ele>126</ele>
        <time>2021-05-10T15:27:15.000Z</time>
      </trkpt>
      <trkpt lat="49.12082" lon="1.50151">
        <ele>126.19999694824</ele>
        <time>2021-05-10T15:27:16.000Z</time>
      </trkpt>
      <trkpt lat="49.12088" lon="1.50156">
        <ele>126.80000305176</ele>
        <time>2021-05-10T15:28:36.000Z</time>
      </trkpt>
      <trkpt lat="49.1209" lon="1.5016">
        <ele>126.80000305176</ele>
        <time>2021-05-10T15:28:39.000Z</time>
      </trkpt>
      <trkpt lat="49.12097" lon="1.50169">
        <ele>126.80000305176</ele>
        <time>2021-05-10T15:28:45.000Z</time>
      </trkpt>
      <trkpt lat="49.12109" lon="1.50185">
        <ele>126.59999847412</ele>
        <time>2021-05-10T15:28:50.000Z</time>
      </trkpt>
      <trkpt lat="49.12126" lon="1.50209">
        <ele>126.59999847412</ele>
        <time>2021-05-10T15:28:57.000Z</time>
      </trkpt>
      <trkpt lat="49.12149" lon="1.50243">
        <ele>126.40000152588</ele>
        <time>2021-05-10T15:29:04.000Z</time>
      </trkpt>
      <trkpt lat="49.1216" lon="1.50258">
        <ele>126.40000152588</ele>
        <time>2021-05-10T15:29:07.000Z</time>
      </trkpt>
      <trkpt lat="49.12172" lon="1.50271">
        <ele>126.19999694824</ele>
        <time>2021-05-10T15:29:10.000Z</time>
      </trkpt>
      <trkpt lat="49.12191" lon="1.50296">
        <ele>126.19999694824</ele>
        <time>2021-05-10T15:29:16.000Z</time>
      </trkpt>
      <trkpt lat="49.1221" lon="1.5032">
        <ele>126.40000152588</ele>
        <time>2021-05-10T15:29:22.000Z</time>
      </trkpt>
      <trkpt lat="49.12221" lon="1.50336">
        <ele>126.59999847412</ele>
        <time>2021-05-10T15:29:26.000Z</time>
      </trkpt>
      <trkpt lat="49.12225" lon="1.5034">
        <ele>126.59999847412</ele>
        <time>2021-05-10T15:29:27.000Z</time>
      </trkpt>
      <trkpt lat="49.12237" lon="1.50357">
        <ele>127</ele>
        <time>2021-05-10T15:29:31.000Z</time>
      </trkpt>
      <trkpt lat="49.1225" lon="1.50375">
        <ele>127</ele>
        <time>2021-05-10T15:29:35.000Z</time>
      </trkpt>
      <trkpt lat="49.12253" lon="1.50379">
        <ele>127.19999694824</ele>
        <time>2021-05-10T15:29:36.000Z</time>
      </trkpt>
      <trkpt lat="49.1227" lon="1.50407">
        <ele>127.40000152588</ele>
        <time>2021-05-10T15:29:42.000Z</time>
      </trkpt>
      <trkpt lat="49.12285" lon="1.50429">
        <ele>127.40000152588</ele>
        <time>2021-05-10T15:29:47.000Z</time>
      </trkpt>
      <trkpt lat="49.12293" lon="1.50439">
        <ele>127.40000152588</ele>
        <time>2021-05-10T15:29:49.000Z</time>
      </trkpt>
      <trkpt lat="49.12304" lon="1.50454">
        <ele>127.40000152588</ele>
        <time>2021-05-10T15:29:52.000Z</time>
      </trkpt>
      <trkpt lat="49.12312" lon="1.50464">
        <ele>127.40000152588</ele>
        <time>2021-05-10T15:29:54.000Z</time>
      </trkpt>
      <trkpt lat="49.12319" lon="1.50474">
        <ele>127.40000152588</ele>
        <time>2021-05-10T15:29:56.000Z</time>
      </trkpt>
      <trkpt lat="49.12325" lon="1.50485">
        <ele>127.40000152588</ele>
        <time>2021-05-10T15:29:58.000Z</time>
      </trkpt>
      <trkpt lat="49.12329" lon="1.50492">
        <ele>127.40000152588</ele>
        <time>2021-05-10T15:29:59.000Z</time>
      </trkpt>
      <trkpt lat="49.12347" lon="1.50512">
        <ele>127.40000152588</ele>
        <time>2021-05-10T15:30:03.000Z</time>
      </trkpt>
      <trkpt lat="49.12368" lon="1.50547">
        <ele>126.80000305176</ele>
        <time>2021-05-10T15:30:09.000Z</time>
      </trkpt>
      <trkpt lat="49.12389" lon="1.50593">
        <ele>126.40000152588</ele>
        <time>2021-05-10T15:30:16.000Z</time>
      </trkpt>
      <trkpt lat="49.12392" lon="1.50599">
        <ele>126.40000152588</ele>
        <time>2021-05-10T15:30:17.000Z</time>
      </trkpt>
      <trkpt lat="49.12398" lon="1.50618">
        <ele>126.19999694824</ele>
        <time>2021-05-10T15:30:21.000Z</time>
      </trkpt>
      <trkpt lat="49.12402" lon="1.50626">
        <ele>126</ele>
        <time>2021-05-10T15:30:23.000Z</time>
      </trkpt>
      <trkpt lat="49.12412" lon="1.50645">
        <ele>125.80000305176</ele>
        <time>2021-05-10T15:30:27.000Z</time>
      </trkpt>
      <trkpt lat="49.12421" lon="1.50663">
        <ele>125.80000305176</ele>
        <time>2021-05-10T15:30:30.000Z</time>
      </trkpt>
      <trkpt lat="49.1243" lon="1.50683">
        <ele>125.80000305176</ele>
        <time>2021-05-10T15:30:34.000Z</time>
      </trkpt>
      <trkpt lat="49.12439" lon="1.50699">
        <ele>125.59999847412</ele>
        <time>2021-05-10T15:30:39.000Z</time>
      </trkpt>
      <trkpt lat="49.12454" lon="1.50724">
        <ele>125.59999847412</ele>
        <time>2021-05-10T15:30:45.000Z</time>
      </trkpt>
      <trkpt lat="49.12469" lon="1.5075">
        <ele>125.80000305176</ele>
        <time>2021-05-10T15:30:51.000Z</time>
      </trkpt>
      <trkpt lat="49.12484" lon="1.50779">
        <ele>126</ele>
        <time>2021-05-10T15:30:57.000Z</time>
      </trkpt>
      <trkpt lat="49.12497" lon="1.50808">
        <ele>126.19999694824</ele>
        <time>2021-05-10T15:31:03.000Z</time>
      </trkpt>
      <trkpt lat="49.12513" lon="1.50831">
        <ele>126.19999694824</ele>
        <time>2021-05-10T15:31:08.000Z</time>
      </trkpt>
      <trkpt lat="49.12524" lon="1.50855">
        <ele>126.40000152588</ele>
        <time>2021-05-10T15:31:13.000Z</time>
      </trkpt>
      <trkpt lat="49.12546" lon="1.50895">
        <ele>126.80000305176</ele>
        <time>2021-05-10T15:31:20.000Z</time>
      </trkpt>
      <trkpt lat="49.12565" lon="1.50934">
        <ele>127</ele>
        <time>2021-05-10T15:31:26.000Z</time>
      </trkpt>
      <trkpt lat="49.12568" lon="1.5094">
        <ele>127</ele>
        <time>2021-05-10T15:31:27.000Z</time>
      </trkpt>
      <trkpt lat="49.12575" lon="1.50951">
        <ele>127</ele>
        <time>2021-05-10T15:31:29.000Z</time>
      </trkpt>
      <trkpt lat="49.12584" lon="1.5097">
        <ele>127.19999694824</ele>
        <time>2021-05-10T15:31:32.000Z</time>
      </trkpt>
      <trkpt lat="49.12599" lon="1.50993">
        <ele>127.19999694824</ele>
        <time>2021-05-10T15:31:36.000Z</time>
      </trkpt>
      <trkpt lat="49.1261" lon="1.51013">
        <ele>127.19999694824</ele>
        <time>2021-05-10T15:31:39.000Z</time>
      </trkpt>
      <trkpt lat="49.12618" lon="1.51026">
        <ele>127.19999694824</ele>
        <time>2021-05-10T15:31:41.000Z</time>
      </trkpt>
      <trkpt lat="49.12626" lon="1.51037">
        <ele>127</ele>
        <time>2021-05-10T15:31:43.000Z</time>
      </trkpt>
      <trkpt lat="49.12638" lon="1.51054">
        <ele>127</ele>
        <time>2021-05-10T15:31:46.000Z</time>
      </trkpt>
      <trkpt lat="49.12641" lon="1.5106">
        <ele>127</ele>
        <time>2021-05-10T15:31:47.000Z</time>
      </trkpt>
      <trkpt lat="49.12645" lon="1.51065">
        <ele>126.80000305176</ele>
        <time>2021-05-10T15:31:48.000Z</time>
      </trkpt>
      <trkpt lat="49.1267" lon="1.51105">
        <ele>126.19999694824</ele>
        <time>2021-05-10T15:31:55.000Z</time>
      </trkpt>
      <trkpt lat="49.12676" lon="1.51118">
        <ele>126.19999694824</ele>
        <time>2021-05-10T15:31:57.000Z</time>
      </trkpt>
      <trkpt lat="49.12684" lon="1.51138">
        <ele>126.19999694824</ele>
        <time>2021-05-10T15:32:00.000Z</time>
      </trkpt>
      <trkpt lat="49.12703" lon="1.51174">
        <ele>126.19999694824</ele>
        <time>2021-05-10T15:32:06.000Z</time>
      </trkpt>
      <trkpt lat="49.1272" lon="1.51205">
        <ele>126.40000152588</ele>
        <time>2021-05-10T15:32:12.000Z</time>
      </trkpt>
      <trkpt lat="49.12729" lon="1.51214">
        <ele>126.40000152588</ele>
        <time>2021-05-10T15:32:15.000Z</time>
      </trkpt>
      <trkpt lat="49.1273" lon="1.51217">
        <ele>126.59999847412</ele>
        <time>2021-05-10T15:32:16.000Z</time>
      </trkpt>
      <trkpt lat="49.12735" lon="1.51227">
        <ele>126.59999847412</ele>
        <time>2021-05-10T15:32:19.000Z</time>
      </trkpt>
      <trkpt lat="49.12738" lon="1.51231">
        <ele>126.59999847412</ele>
        <time>2021-05-10T15:32:21.000Z</time>
      </trkpt>
      <trkpt lat="49.12741" lon="1.51235">
        <ele>126.80000305176</ele>
        <time>2021-05-10T15:32:25.000Z</time>
      </trkpt>
      <trkpt lat="49.12742" lon="1.51237">
        <ele>127.19999694824</ele>
        <time>2021-05-10T15:32:35.000Z</time>
      </trkpt>
      <trkpt lat="49.12743" lon="1.51238">
        <ele>127.19999694824</ele>
        <time>2021-05-10T15:32:36.000Z</time>
      </trkpt>
      <trkpt lat="49.12748" lon="1.51246">
        <ele>127.40000152588</ele>
        <time>2021-05-10T15:32:40.000Z</time>
      </trkpt>
      <trkpt lat="49.12767" lon="1.51273">
        <ele>127.19999694824</ele>
        <time>2021-05-10T15:32:48.000Z</time>
      </trkpt>
      <trkpt lat="49.12794" lon="1.51302">
        <ele>127.59999847412</ele>
        <time>2021-05-10T15:32:56.000Z</time>
      </trkpt>
      <trkpt lat="49.12808" lon="1.51315">
        <ele>128.39999389648</ele>
        <time>2021-05-10T15:33:00.000Z</time>
      </trkpt>
      <trkpt lat="49.12822" lon="1.51328">
        <ele>129.60000610352</ele>
        <time>2021-05-10T15:33:04.000Z</time>
      </trkpt>
      <trkpt lat="49.12826" lon="1.51331">
        <ele>129.80000305176</ele>
        <time>2021-05-10T15:33:05.000Z</time>
      </trkpt>
      <trkpt lat="49.12844" lon="1.51348">
        <ele>130.80000305176</ele>
        <time>2021-05-10T15:33:10.000Z</time>
      </trkpt>
      <trkpt lat="49.12855" lon="1.51358">
        <ele>131</ele>
        <time>2021-05-10T15:33:13.000Z</time>
      </trkpt>
      <trkpt lat="49.1288" lon="1.5138">
        <ele>131.80000305176</ele>
        <time>2021-05-10T15:33:20.000Z</time>
      </trkpt>
      <trkpt lat="49.12892" lon="1.51391">
        <ele>132.19999694824</ele>
        <time>2021-05-10T15:33:23.000Z</time>
      </trkpt>
      <trkpt lat="49.12908" lon="1.51406">
        <ele>132.60000610352</ele>
        <time>2021-05-10T15:33:27.000Z</time>
      </trkpt>
      <trkpt lat="49.12915" lon="1.51413">
        <ele>133</ele>
        <time>2021-05-10T15:33:29.000Z</time>
      </trkpt>
      <trkpt lat="49.12937" lon="1.51434">
        <ele>133.39999389648</ele>
        <time>2021-05-10T15:33:35.000Z</time>
      </trkpt>
      <trkpt lat="49.12961" lon="1.51457">
        <ele>133.80000305176</ele>
        <time>2021-05-10T15:33:41.000Z</time>
      </trkpt>
      <trkpt lat="49.12965" lon="1.51461">
        <ele>134</ele>
        <time>2021-05-10T15:33:42.000Z</time>
      </trkpt>
      <trkpt lat="49.12993" lon="1.51489">
        <ele>134.39999389648</ele>
        <time>2021-05-10T15:33:48.000Z</time>
      </trkpt>
      <trkpt lat="49.13032" lon="1.51527">
        <ele>134.60000610352</ele>
        <time>2021-05-10T15:33:56.000Z</time>
      </trkpt>
      <trkpt lat="49.13072" lon="1.51564">
        <ele>135</ele>
        <time>2021-05-10T15:34:04.000Z</time>
      </trkpt>
      <trkpt lat="49.13082" lon="1.51574">
        <ele>135</ele>
        <time>2021-05-10T15:34:06.000Z</time>
      </trkpt>
      <trkpt lat="49.13119" lon="1.51609">
        <ele>135.39999389648</ele>
        <time>2021-05-10T15:34:13.000Z</time>
      </trkpt>
      <trkpt lat="49.1317" lon="1.51657">
        <ele>135.39999389648</ele>
        <time>2021-05-10T15:34:22.000Z</time>
      </trkpt>
      <trkpt lat="49.13221" lon="1.51705">
        <ele>136</ele>
        <time>2021-05-10T15:34:31.000Z</time>
      </trkpt>
      <trkpt lat="49.13238" lon="1.51721">
        <ele>136.39999389648</ele>
        <time>2021-05-10T15:34:34.000Z</time>
      </trkpt>
      <trkpt lat="49.13282" lon="1.51762">
        <ele>137.19999694824</ele>
        <time>2021-05-10T15:34:42.000Z</time>
      </trkpt>
      <trkpt lat="49.13288" lon="1.51767">
        <ele>137.39999389648</ele>
        <time>2021-05-10T15:34:43.000Z</time>
      </trkpt>
      <trkpt lat="49.13327" lon="1.51803">
        <ele>137.80000305176</ele>
        <time>2021-05-10T15:34:50.000Z</time>
      </trkpt>
      <trkpt lat="49.13365" lon="1.51837">
        <ele>138.39999389648</ele>
        <time>2021-05-10T15:34:57.000Z</time>
      </trkpt>
      <trkpt lat="49.1338" lon="1.51851">
        <ele>138.39999389648</ele>
        <time>2021-05-10T15:35:00.000Z</time>
      </trkpt>
      <trkpt lat="49.13386" lon="1.51856">
        <ele>138.39999389648</ele>
        <time>2021-05-10T15:35:01.000Z</time>
      </trkpt>
      <trkpt lat="49.13412" lon="1.51882">
        <ele>138.60000610352</ele>
        <time>2021-05-10T15:35:06.000Z</time>
      </trkpt>
      <trkpt lat="49.13429" lon="1.51896">
        <ele>138.60000610352</ele>
        <time>2021-05-10T15:35:09.000Z</time>
      </trkpt>
      <trkpt lat="49.13446" lon="1.5191">
        <ele>138.80000305176</ele>
        <time>2021-05-10T15:35:12.000Z</time>
      </trkpt>
      <trkpt lat="49.13451" lon="1.51916">
        <ele>138.80000305176</ele>
        <time>2021-05-10T15:35:13.000Z</time>
      </trkpt>
      <trkpt lat="49.13491" lon="1.51955">
        <ele>139.60000610352</ele>
        <time>2021-05-10T15:35:20.000Z</time>
      </trkpt>
      <trkpt lat="49.13539" lon="1.52001">
        <ele>139.39999389648</ele>
        <time>2021-05-10T15:35:28.000Z</time>
      </trkpt>
      <trkpt lat="49.13545" lon="1.52007">
        <ele>139.39999389648</ele>
        <time>2021-05-10T15:35:29.000Z</time>
      </trkpt>
      <trkpt lat="49.1359" lon="1.52046">
        <ele>139.19999694824</ele>
        <time>2021-05-10T15:35:36.000Z</time>
      </trkpt>
      <trkpt lat="49.1362" lon="1.5207">
        <ele>139</ele>
        <time>2021-05-10T15:35:41.000Z</time>
      </trkpt>
      <trkpt lat="49.13632" lon="1.52081">
        <ele>139</ele>
        <time>2021-05-10T15:35:43.000Z</time>
      </trkpt>
      <trkpt lat="49.13648" lon="1.52097">
        <ele>138.80000305176</ele>
        <time>2021-05-10T15:35:46.000Z</time>
      </trkpt>
      <trkpt lat="49.13656" lon="1.52109">
        <ele>138.80000305176</ele>
        <time>2021-05-10T15:35:48.000Z</time>
      </trkpt>
      <trkpt lat="49.13666" lon="1.52121">
        <ele>138.80000305176</ele>
        <time>2021-05-10T15:35:50.000Z</time>
      </trkpt>
      <trkpt lat="49.13671" lon="1.52125">
        <ele>138.80000305176</ele>
        <time>2021-05-10T15:35:51.000Z</time>
      </trkpt>
      <trkpt lat="49.13687" lon="1.52119">
        <ele>138.80000305176</ele>
        <time>2021-05-10T15:35:54.000Z</time>
      </trkpt>
      <trkpt lat="49.13711" lon="1.52089">
        <ele>138.80000305176</ele>
        <time>2021-05-10T15:35:59.000Z</time>
      </trkpt>
      <trkpt lat="49.13733" lon="1.52083">
        <ele>138.60000610352</ele>
        <time>2021-05-10T15:36:02.000Z</time>
      </trkpt>
      <trkpt lat="49.13748" lon="1.52085">
        <ele>138.60000610352</ele>
        <time>2021-05-10T15:36:04.000Z</time>
      </trkpt>
      <trkpt lat="49.1377" lon="1.5209">
        <ele>138</ele>
        <time>2021-05-10T15:36:07.000Z</time>
      </trkpt>
      <trkpt lat="49.13777" lon="1.52091">
        <ele>137.39999389648</ele>
        <time>2021-05-10T15:36:08.000Z</time>
      </trkpt>
      <trkpt lat="49.13791" lon="1.52094">
        <ele>136.19999694824</ele>
        <time>2021-05-10T15:36:10.000Z</time>
      </trkpt>
      <trkpt lat="49.13816" lon="1.521">
        <ele>136</ele>
        <time>2021-05-10T15:36:14.000Z</time>
      </trkpt>
      <trkpt lat="49.13867" lon="1.52112">
        <ele>137.39999389648</ele>
        <time>2021-05-10T15:36:23.000Z</time>
      </trkpt>
      <trkpt lat="49.13895" lon="1.52118">
        <ele>138.60000610352</ele>
        <time>2021-05-10T15:36:28.000Z</time>
      </trkpt>
      <trkpt lat="49.13924" lon="1.52125">
        <ele>139</ele>
        <time>2021-05-10T15:36:33.000Z</time>
      </trkpt>
      <trkpt lat="49.13965" lon="1.52134">
        <ele>139</ele>
        <time>2021-05-10T15:36:40.000Z</time>
      </trkpt>
      <trkpt lat="49.13971" lon="1.52133">
        <ele>139</ele>
        <time>2021-05-10T15:36:41.000Z</time>
      </trkpt>
      <trkpt lat="49.14008" lon="1.5212">
        <ele>138.80000305176</ele>
        <time>2021-05-10T15:36:47.000Z</time>
      </trkpt>
      <trkpt lat="49.1406" lon="1.52093">
        <ele>138.80000305176</ele>
        <time>2021-05-10T15:36:56.000Z</time>
      </trkpt>
      <trkpt lat="49.14098" lon="1.52087">
        <ele>139</ele>
        <time>2021-05-10T15:37:03.000Z</time>
      </trkpt>
      <trkpt lat="49.14119" lon="1.52086">
        <ele>140</ele>
        <time>2021-05-10T15:37:07.000Z</time>
      </trkpt>
      <trkpt lat="49.14139" lon="1.52081">
        <ele>141</ele>
        <time>2021-05-10T15:37:11.000Z</time>
      </trkpt>
      <trkpt lat="49.14184" lon="1.52066">
        <ele>141.80000305176</ele>
        <time>2021-05-10T15:37:20.000Z</time>
      </trkpt>
      <trkpt lat="49.14202" lon="1.5206">
        <ele>142</ele>
        <time>2021-05-10T15:37:24.000Z</time>
      </trkpt>
      <trkpt lat="49.14217" lon="1.52056">
        <ele>142</ele>
        <time>2021-05-10T15:37:27.000Z</time>
      </trkpt>
      <trkpt lat="49.14231" lon="1.5205">
        <ele>142.19999694824</ele>
        <time>2021-05-10T15:37:30.000Z</time>
      </trkpt>
      <trkpt lat="49.14241" lon="1.52046">
        <ele>142.39999389648</ele>
        <time>2021-05-10T15:37:32.000Z</time>
      </trkpt>
      <trkpt lat="49.14257" lon="1.52041">
        <ele>143.39999389648</ele>
        <time>2021-05-10T15:37:36.000Z</time>
      </trkpt>
      <trkpt lat="49.14285" lon="1.52031">
        <ele>143.60000610352</ele>
        <time>2021-05-10T15:37:44.000Z</time>
      </trkpt>
      <trkpt lat="49.14303" lon="1.52022">
        <ele>143.80000305176</ele>
        <time>2021-05-10T15:37:49.000Z</time>
      </trkpt>
      <trkpt lat="49.1431" lon="1.52016">
        <ele>144</ele>
        <time>2021-05-10T15:37:51.000Z</time>
      </trkpt>
      <trkpt lat="49.14316" lon="1.52009">
        <ele>144.39999389648</ele>
        <time>2021-05-10T15:37:53.000Z</time>
      </trkpt>
      <trkpt lat="49.14341" lon="1.51987">
        <ele>145.19999694824</ele>
        <time>2021-05-10T15:38:00.000Z</time>
      </trkpt>
      <trkpt lat="49.14361" lon="1.51969">
        <ele>145.60000610352</ele>
        <time>2021-05-10T15:38:05.000Z</time>
      </trkpt>
      <trkpt lat="49.14374" lon="1.51958">
        <ele>145.80000305176</ele>
        <time>2021-05-10T15:38:08.000Z</time>
      </trkpt>
      <trkpt lat="49.14405" lon="1.51935">
        <ele>146.80000305176</ele>
        <time>2021-05-10T15:38:15.000Z</time>
      </trkpt>
      <trkpt lat="49.14439" lon="1.51909">
        <ele>148</ele>
        <time>2021-05-10T15:38:23.000Z</time>
      </trkpt>
      <trkpt lat="49.14443" lon="1.51906">
        <ele>148.19999694824</ele>
        <time>2021-05-10T15:38:24.000Z</time>
      </trkpt>
      <trkpt lat="49.14473" lon="1.51882">
        <ele>148.39999389648</ele>
        <time>2021-05-10T15:38:31.000Z</time>
      </trkpt>
      <trkpt lat="49.14513" lon="1.51848">
        <ele>148.19999694824</ele>
        <time>2021-05-10T15:38:40.000Z</time>
      </trkpt>
      <trkpt lat="49.14539" lon="1.51827">
        <ele>148.19999694824</ele>
        <time>2021-05-10T15:38:46.000Z</time>
      </trkpt>
      <trkpt lat="49.14583" lon="1.51792">
        <ele>148</ele>
        <time>2021-05-10T15:38:55.000Z</time>
      </trkpt>
      <trkpt lat="49.14619" lon="1.51764">
        <ele>147.19999694824</ele>
        <time>2021-05-10T15:39:02.000Z</time>
      </trkpt>
      <trkpt lat="49.14625" lon="1.5176">
        <ele>147</ele>
        <time>2021-05-10T15:39:03.000Z</time>
      </trkpt>
      <trkpt lat="49.14663" lon="1.51732">
        <ele>145.60000610352</ele>
        <time>2021-05-10T15:39:10.000Z</time>
      </trkpt>
      <trkpt lat="49.14669" lon="1.51728">
        <ele>145.39999389648</ele>
        <time>2021-05-10T15:39:11.000Z</time>
      </trkpt>
      <trkpt lat="49.14699" lon="1.51706">
        <ele>144.60000610352</ele>
        <time>2021-05-10T15:39:16.000Z</time>
      </trkpt>
      <trkpt lat="49.14706" lon="1.51701">
        <ele>144.39999389648</ele>
        <time>2021-05-10T15:39:17.000Z</time>
      </trkpt>
      <trkpt lat="49.14724" lon="1.51683">
        <ele>143.39999389648</ele>
        <time>2021-05-10T15:39:20.000Z</time>
      </trkpt>
      <trkpt lat="49.14734" lon="1.51668">
        <ele>143</ele>
        <time>2021-05-10T15:39:22.000Z</time>
      </trkpt>
      <trkpt lat="49.14751" lon="1.51633">
        <ele>142.39999389648</ele>
        <time>2021-05-10T15:39:26.000Z</time>
      </trkpt>
      <trkpt lat="49.14759" lon="1.51616">
        <ele>141.80000305176</ele>
        <time>2021-05-10T15:39:28.000Z</time>
      </trkpt>
      <trkpt lat="49.14762" lon="1.51607">
        <ele>141.39999389648</ele>
        <time>2021-05-10T15:39:29.000Z</time>
      </trkpt>
      <trkpt lat="49.1477" lon="1.51581">
        <ele>140.19999694824</ele>
        <time>2021-05-10T15:39:32.000Z</time>
      </trkpt>
      <trkpt lat="49.14771" lon="1.51572">
        <ele>140</ele>
        <time>2021-05-10T15:39:33.000Z</time>
      </trkpt>
      <trkpt lat="49.1477" lon="1.51547">
        <ele>139</ele>
        <time>2021-05-10T15:39:36.000Z</time>
      </trkpt>
      <trkpt lat="49.14768" lon="1.51532">
        <ele>138.60000610352</ele>
        <time>2021-05-10T15:39:38.000Z</time>
      </trkpt>
      <trkpt lat="49.14761" lon="1.515">
        <ele>138</ele>
        <time>2021-05-10T15:39:42.000Z</time>
      </trkpt>
      <trkpt lat="49.14753" lon="1.51458">
        <ele>137.80000305176</ele>
        <time>2021-05-10T15:39:47.000Z</time>
      </trkpt>
      <trkpt lat="49.14741" lon="1.51399">
        <ele>137</ele>
        <time>2021-05-10T15:39:54.000Z</time>
      </trkpt>
      <trkpt lat="49.1474" lon="1.5139">
        <ele>137</ele>
        <time>2021-05-10T15:39:55.000Z</time>
      </trkpt>
      <trkpt lat="49.14743" lon="1.51356">
        <ele>136.60000610352</ele>
        <time>2021-05-10T15:39:59.000Z</time>
      </trkpt>
      <trkpt lat="49.14757" lon="1.51338">
        <ele>136.39999389648</ele>
        <time>2021-05-10T15:40:02.000Z</time>
      </trkpt>
      <trkpt lat="49.14762" lon="1.51333">
        <ele>136.39999389648</ele>
        <time>2021-05-10T15:40:03.000Z</time>
      </trkpt>
      <trkpt lat="49.14792" lon="1.51305">
        <ele>136.39999389648</ele>
        <time>2021-05-10T15:40:09.000Z</time>
      </trkpt>
      <trkpt lat="49.14807" lon="1.51276">
        <ele>136.60000610352</ele>
        <time>2021-05-10T15:40:13.000Z</time>
      </trkpt>
      <trkpt lat="49.1481" lon="1.51267">
        <ele>136.80000305176</ele>
        <time>2021-05-10T15:40:14.000Z</time>
      </trkpt>
      <trkpt lat="49.14835" lon="1.51188">
        <ele>137.39999389648</ele>
        <time>2021-05-10T15:40:24.000Z</time>
      </trkpt>
      <trkpt lat="49.14844" lon="1.5116">
        <ele>137.39999389648</ele>
        <time>2021-05-10T15:40:28.000Z</time>
      </trkpt>
      <trkpt lat="49.14852" lon="1.51132">
        <ele>137.80000305176</ele>
        <time>2021-05-10T15:40:32.000Z</time>
      </trkpt>
      <trkpt lat="49.14856" lon="1.51118">
        <ele>138.19999694824</ele>
        <time>2021-05-10T15:40:34.000Z</time>
      </trkpt>
      <trkpt lat="49.14869" lon="1.51077">
        <ele>138.60000610352</ele>
        <time>2021-05-10T15:40:40.000Z</time>
      </trkpt>
      <trkpt lat="49.14886" lon="1.51019">
        <ele>139.19999694824</ele>
        <time>2021-05-10T15:40:49.000Z</time>
      </trkpt>
      <trkpt lat="49.14898" lon="1.50982">
        <ele>140.39999389648</ele>
        <time>2021-05-10T15:40:55.000Z</time>
      </trkpt>
      <trkpt lat="49.14905" lon="1.50958">
        <ele>140.80000305176</ele>
        <time>2021-05-10T15:40:59.000Z</time>
      </trkpt>
      <trkpt lat="49.14918" lon="1.50916">
        <ele>141.39999389648</ele>
        <time>2021-05-10T15:41:06.000Z</time>
      </trkpt>
      <trkpt lat="49.14922" lon="1.50904">
        <ele>141.39999389648</ele>
        <time>2021-05-10T15:41:08.000Z</time>
      </trkpt>
      <trkpt lat="49.14944" lon="1.50834">
        <ele>142</ele>
        <time>2021-05-10T15:41:20.000Z</time>
      </trkpt>
      <trkpt lat="49.14947" lon="1.50823">
        <ele>142.39999389648</ele>
        <time>2021-05-10T15:41:22.000Z</time>
      </trkpt>
      <trkpt lat="49.14954" lon="1.50802">
        <ele>143.19999694824</ele>
        <time>2021-05-10T15:41:26.000Z</time>
      </trkpt>
      <trkpt lat="49.14958" lon="1.50787">
        <ele>143.60000610352</ele>
        <time>2021-05-10T15:41:29.000Z</time>
      </trkpt>
      <trkpt lat="49.14963" lon="1.50761">
        <ele>143.80000305176</ele>
        <time>2021-05-10T15:41:34.000Z</time>
      </trkpt>
      <trkpt lat="49.14966" lon="1.50712">
        <ele>144.60000610352</ele>
        <time>2021-05-10T15:41:43.000Z</time>
      </trkpt>
      <trkpt lat="49.14969" lon="1.50667">
        <ele>145.80000305176</ele>
        <time>2021-05-10T15:41:51.000Z</time>
      </trkpt>
      <trkpt lat="49.14976" lon="1.50617">
        <ele>146.60000610352</ele>
        <time>2021-05-10T15:42:00.000Z</time>
      </trkpt>
      <trkpt lat="49.14977" lon="1.50587">
        <ele>147.19999694824</ele>
        <time>2021-05-10T15:42:05.000Z</time>
      </trkpt>
      <trkpt lat="49.14977" lon="1.50552">
        <ele>148</ele>
        <time>2021-05-10T15:42:11.000Z</time>
      </trkpt>
      <trkpt lat="49.14977" lon="1.50519">
        <ele>148.19999694824</ele>
        <time>2021-05-10T15:42:16.000Z</time>
      </trkpt>
      <trkpt lat="49.14977" lon="1.50505">
        <ele>148.19999694824</ele>
        <time>2021-05-10T15:42:18.000Z</time>
      </trkpt>
      <trkpt lat="49.14978" lon="1.5045">
        <ele>148.60000610352</ele>
        <time>2021-05-10T15:42:26.000Z</time>
      </trkpt>
      <trkpt lat="49.14979" lon="1.50409">
        <ele>149.19999694824</ele>
        <time>2021-05-10T15:42:32.000Z</time>
      </trkpt>
      <trkpt lat="49.14979" lon="1.50395">
        <ele>149.39999389648</ele>
        <time>2021-05-10T15:42:34.000Z</time>
      </trkpt>
      <trkpt lat="49.1498" lon="1.50317">
        <ele>150</ele>
        <time>2021-05-10T15:42:44.000Z</time>
      </trkpt>
      <trkpt lat="49.14982" lon="1.50301">
        <ele>150.19999694824</ele>
        <time>2021-05-10T15:42:46.000Z</time>
      </trkpt>
      <trkpt lat="49.14988" lon="1.5028">
        <ele>150.19999694824</ele>
        <time>2021-05-10T15:42:49.000Z</time>
      </trkpt>
      <trkpt lat="49.14995" lon="1.50256">
        <ele>150.39999389648</ele>
        <time>2021-05-10T15:42:54.000Z</time>
      </trkpt>
      <trkpt lat="49.14997" lon="1.50255">
        <ele>150.39999389648</ele>
        <time>2021-05-10T15:42:55.000Z</time>
      </trkpt>
      <trkpt lat="49.15002" lon="1.50258">
        <ele>150.39999389648</ele>
        <time>2021-05-10T15:42:58.000Z</time>
      </trkpt>
      <trkpt lat="49.15018" lon="1.50262">
        <ele>150.80000305176</ele>
        <time>2021-05-10T15:43:03.000Z</time>
      </trkpt>
      <trkpt lat="49.15028" lon="1.50264">
        <ele>151.39999389648</ele>
        <time>2021-05-10T15:43:05.000Z</time>
      </trkpt>
      <trkpt lat="49.15049" lon="1.50269">
        <ele>151.60000610352</ele>
        <time>2021-05-10T15:43:09.000Z</time>
      </trkpt>
      <trkpt lat="49.15078" lon="1.50287">
        <ele>151.60000610352</ele>
        <time>2021-05-10T15:43:15.000Z</time>
      </trkpt>
      <trkpt lat="49.15104" lon="1.5031">
        <ele>151.80000305176</ele>
        <time>2021-05-10T15:43:22.000Z</time>
      </trkpt>
      <trkpt lat="49.15115" lon="1.50312">
        <ele>151.60000610352</ele>
        <time>2021-05-10T15:43:25.000Z</time>
      </trkpt>
      <trkpt lat="49.15118" lon="1.50309">
        <ele>151.60000610352</ele>
        <time>2021-05-10T15:43:26.000Z</time>
      </trkpt>
      <trkpt lat="49.15126" lon="1.50293">
        <ele>151.60000610352</ele>
        <time>2021-05-10T15:43:29.000Z</time>
      </trkpt>
      <trkpt lat="49.15131" lon="1.50281">
        <ele>151.39999389648</ele>
        <time>2021-05-10T15:43:31.000Z</time>
      </trkpt>
      <trkpt lat="49.15149" lon="1.50231">
        <ele>151.19999694824</ele>
        <time>2021-05-10T15:43:39.000Z</time>
      </trkpt>
      <trkpt lat="49.15166" lon="1.50187">
        <ele>150.80000305176</ele>
        <time>2021-05-10T15:43:46.000Z</time>
      </trkpt>
      <trkpt lat="49.15171" lon="1.50175">
        <ele>151</ele>
        <time>2021-05-10T15:43:48.000Z</time>
      </trkpt>
      <trkpt lat="49.15189" lon="1.50147">
        <ele>151</ele>
        <time>2021-05-10T15:43:53.000Z</time>
      </trkpt>
      <trkpt lat="49.15193" lon="1.50142">
        <ele>151.19999694824</ele>
        <time>2021-05-10T15:43:54.000Z</time>
      </trkpt>
      <trkpt lat="49.15207" lon="1.50133">
        <ele>151.60000610352</ele>
        <time>2021-05-10T15:43:57.000Z</time>
      </trkpt>
      <trkpt lat="49.15211" lon="1.50131">
        <ele>151.60000610352</ele>
        <time>2021-05-10T15:43:58.000Z</time>
      </trkpt>
      <trkpt lat="49.15242" lon="1.50124">
        <ele>151.60000610352</ele>
        <time>2021-05-10T15:44:04.000Z</time>
      </trkpt>
      <trkpt lat="49.15269" lon="1.50111">
        <ele>151.39999389648</ele>
        <time>2021-05-10T15:44:09.000Z</time>
      </trkpt>
      <trkpt lat="49.15274" lon="1.50107">
        <ele>151.39999389648</ele>
        <time>2021-05-10T15:44:10.000Z</time>
      </trkpt>
      <trkpt lat="49.15302" lon="1.50082">
        <ele>151.19999694824</ele>
        <time>2021-05-10T15:44:16.000Z</time>
      </trkpt>
      <trkpt lat="49.1533" lon="1.50054">
        <ele>150.80000305176</ele>
        <time>2021-05-10T15:44:22.000Z</time>
      </trkpt>
      <trkpt lat="49.15338" lon="1.50045">
        <ele>150.39999389648</ele>
        <time>2021-05-10T15:44:24.000Z</time>
      </trkpt>
      <trkpt lat="49.15347" lon="1.50034">
        <ele>150</ele>
        <time>2021-05-10T15:44:26.000Z</time>
      </trkpt>
      <trkpt lat="49.15362" lon="1.50022">
        <ele>149.60000610352</ele>
        <time>2021-05-10T15:44:29.000Z</time>
      </trkpt>
      <trkpt lat="49.15373" lon="1.50018">
        <ele>149.39999389648</ele>
        <time>2021-05-10T15:44:31.000Z</time>
      </trkpt>
      <trkpt lat="49.15378" lon="1.50017">
        <ele>149.19999694824</ele>
        <time>2021-05-10T15:44:32.000Z</time>
      </trkpt>
      <trkpt lat="49.1539" lon="1.50014">
        <ele>149</ele>
        <time>2021-05-10T15:44:34.000Z</time>
      </trkpt>
      <trkpt lat="49.15408" lon="1.49996">
        <ele>148.60000610352</ele>
        <time>2021-05-10T15:44:38.000Z</time>
      </trkpt>
      <trkpt lat="49.15414" lon="1.49982">
        <ele>148.19999694824</ele>
        <time>2021-05-10T15:44:40.000Z</time>
      </trkpt>
      <trkpt lat="49.15416" lon="1.49975">
        <ele>148.19999694824</ele>
        <time>2021-05-10T15:44:41.000Z</time>
      </trkpt>
      <trkpt lat="49.15424" lon="1.49951">
        <ele>147.80000305176</ele>
        <time>2021-05-10T15:44:44.000Z</time>
      </trkpt>
      <trkpt lat="49.15434" lon="1.49916">
        <ele>147</ele>
        <time>2021-05-10T15:44:48.000Z</time>
      </trkpt>
      <trkpt lat="49.15447" lon="1.49876">
        <ele>146.39999389648</ele>
        <time>2021-05-10T15:44:53.000Z</time>
      </trkpt>
      <trkpt lat="49.15449" lon="1.49868">
        <ele>146.39999389648</ele>
        <time>2021-05-10T15:44:54.000Z</time>
      </trkpt>
      <trkpt lat="49.15462" lon="1.49823">
        <ele>146.60000610352</ele>
        <time>2021-05-10T15:45:00.000Z</time>
      </trkpt>
      <trkpt lat="49.15467" lon="1.498">
        <ele>146.80000305176</ele>
        <time>2021-05-10T15:45:03.000Z</time>
      </trkpt>
      <trkpt lat="49.15468" lon="1.49783">
        <ele>147</ele>
        <time>2021-05-10T15:45:05.000Z</time>
      </trkpt>
      <trkpt lat="49.15461" lon="1.49754">
        <ele>147.39999389648</ele>
        <time>2021-05-10T15:45:09.000Z</time>
      </trkpt>
      <trkpt lat="49.1545" lon="1.49734">
        <ele>147.80000305176</ele>
        <time>2021-05-10T15:45:12.000Z</time>
      </trkpt>
      <trkpt lat="49.15439" lon="1.49715">
        <ele>147.80000305176</ele>
        <time>2021-05-10T15:45:15.000Z</time>
      </trkpt>
      <trkpt lat="49.15411" lon="1.49667">
        <ele>148</ele>
        <time>2021-05-10T15:45:22.000Z</time>
      </trkpt>
      <trkpt lat="49.15402" lon="1.49653">
        <ele>148.19999694824</ele>
        <time>2021-05-10T15:45:24.000Z</time>
      </trkpt>
      <trkpt lat="49.15384" lon="1.49628">
        <ele>148</ele>
        <time>2021-05-10T15:45:28.000Z</time>
      </trkpt>
      <trkpt lat="49.15375" lon="1.49615">
        <ele>148</ele>
        <time>2021-05-10T15:45:30.000Z</time>
      </trkpt>
      <trkpt lat="49.15373" lon="1.49599">
        <ele>147.80000305176</ele>
        <time>2021-05-10T15:45:32.000Z</time>
      </trkpt>
      <trkpt lat="49.15383" lon="1.49579">
        <ele>147.80000305176</ele>
        <time>2021-05-10T15:45:35.000Z</time>
      </trkpt>
      <trkpt lat="49.15387" lon="1.49573">
        <ele>147.80000305176</ele>
        <time>2021-05-10T15:45:36.000Z</time>
      </trkpt>
      <trkpt lat="49.15411" lon="1.49536">
        <ele>147.80000305176</ele>
        <time>2021-05-10T15:45:42.000Z</time>
      </trkpt>
      <trkpt lat="49.15417" lon="1.49524">
        <ele>147.80000305176</ele>
        <time>2021-05-10T15:45:44.000Z</time>
      </trkpt>
      <trkpt lat="49.15426" lon="1.49507">
        <ele>148.19999694824</ele>
        <time>2021-05-10T15:45:47.000Z</time>
      </trkpt>
      <trkpt lat="49.15429" lon="1.49501">
        <ele>148.19999694824</ele>
        <time>2021-05-10T15:45:48.000Z</time>
      </trkpt>
      <trkpt lat="49.15436" lon="1.49489">
        <ele>148.60000610352</ele>
        <time>2021-05-10T15:45:50.000Z</time>
      </trkpt>
      <trkpt lat="49.15447" lon="1.49472">
        <ele>149.19999694824</ele>
        <time>2021-05-10T15:45:53.000Z</time>
      </trkpt>
      <trkpt lat="49.15473" lon="1.4943">
        <ele>149.39999389648</ele>
        <time>2021-05-10T15:46:00.000Z</time>
      </trkpt>
      <trkpt lat="49.15497" lon="1.49385">
        <ele>149</ele>
        <time>2021-05-10T15:46:07.000Z</time>
      </trkpt>
      <trkpt lat="49.15521" lon="1.49345">
        <ele>148.80000305176</ele>
        <time>2021-05-10T15:46:14.000Z</time>
      </trkpt>
      <trkpt lat="49.15532" lon="1.49328">
        <ele>148.60000610352</ele>
        <time>2021-05-10T15:46:17.000Z</time>
      </trkpt>
      <trkpt lat="49.1554" lon="1.49316">
        <ele>148.39999389648</ele>
        <time>2021-05-10T15:46:19.000Z</time>
      </trkpt>
      <trkpt lat="49.15544" lon="1.49309">
        <ele>148.19999694824</ele>
        <time>2021-05-10T15:46:20.000Z</time>
      </trkpt>
      <trkpt lat="49.15551" lon="1.49297">
        <ele>147.80000305176</ele>
        <time>2021-05-10T15:46:22.000Z</time>
      </trkpt>
      <trkpt lat="49.15564" lon="1.49278">
        <ele>147</ele>
        <time>2021-05-10T15:46:25.000Z</time>
      </trkpt>
      <trkpt lat="49.15568" lon="1.49271">
        <ele>146.80000305176</ele>
        <time>2021-05-10T15:46:26.000Z</time>
      </trkpt>
      <trkpt lat="49.15582" lon="1.49252">
        <ele>146</ele>
        <time>2021-05-10T15:46:29.000Z</time>
      </trkpt>
      <trkpt lat="49.15593" lon="1.49241">
        <ele>145.60000610352</ele>
        <time>2021-05-10T15:46:31.000Z</time>
      </trkpt>
      <trkpt lat="49.15601" lon="1.49234">
        <ele>145.39999389648</ele>
        <time>2021-05-10T15:46:33.000Z</time>
      </trkpt>
      <trkpt lat="49.15618" lon="1.4922">
        <ele>144.60000610352</ele>
        <time>2021-05-10T15:46:36.000Z</time>
      </trkpt>
      <trkpt lat="49.15623" lon="1.49212">
        <ele>144.39999389648</ele>
        <time>2021-05-10T15:46:37.000Z</time>
      </trkpt>
      <trkpt lat="49.15635" lon="1.49192">
        <ele>144</ele>
        <time>2021-05-10T15:46:40.000Z</time>
      </trkpt>
      <trkpt lat="49.15643" lon="1.49194">
        <ele>143.39999389648</ele>
        <time>2021-05-10T15:46:42.000Z</time>
      </trkpt>
      <trkpt lat="49.15646" lon="1.49198">
        <ele>142.80000305176</ele>
        <time>2021-05-10T15:46:43.000Z</time>
      </trkpt>
      <trkpt lat="49.15648" lon="1.49203">
        <ele>142.39999389648</ele>
        <time>2021-05-10T15:46:44.000Z</time>
      </trkpt>
      <trkpt lat="49.15657" lon="1.4922">
        <ele>140.80000305176</ele>
        <time>2021-05-10T15:46:47.000Z</time>
      </trkpt>
      <trkpt lat="49.15664" lon="1.49233">
        <ele>140.19999694824</ele>
        <time>2021-05-10T15:46:49.000Z</time>
      </trkpt>
      <trkpt lat="49.15696" lon="1.49296">
        <ele>139.80000305176</ele>
        <time>2021-05-10T15:46:58.000Z</time>
      </trkpt>
      <trkpt lat="49.15705" lon="1.49319">
        <ele>139.80000305176</ele>
        <time>2021-05-10T15:47:01.000Z</time>
      </trkpt>
      <trkpt lat="49.15711" lon="1.49335">
        <ele>140</ele>
        <time>2021-05-10T15:47:03.000Z</time>
      </trkpt>
      <trkpt lat="49.15714" lon="1.49343">
        <ele>140</ele>
        <time>2021-05-10T15:47:04.000Z</time>
      </trkpt>
      <trkpt lat="49.15744" lon="1.49413">
        <ele>141</ele>
        <time>2021-05-10T15:47:13.000Z</time>
      </trkpt>
      <trkpt lat="49.15762" lon="1.49455">
        <ele>141.19999694824</ele>
        <time>2021-05-10T15:47:19.000Z</time>
      </trkpt>
      <trkpt lat="49.1578" lon="1.49491">
        <ele>141.80000305176</ele>
        <time>2021-05-10T15:47:25.000Z</time>
      </trkpt>
      <trkpt lat="49.15794" lon="1.49522">
        <ele>143</ele>
        <time>2021-05-10T15:47:30.000Z</time>
      </trkpt>
      <trkpt lat="49.15803" lon="1.49541">
        <ele>143.39999389648</ele>
        <time>2021-05-10T15:47:33.000Z</time>
      </trkpt>
      <trkpt lat="49.15817" lon="1.49575">
        <ele>143.60000610352</ele>
        <time>2021-05-10T15:47:38.000Z</time>
      </trkpt>
      <trkpt lat="49.15822" lon="1.49589">
        <ele>143.80000305176</ele>
        <time>2021-05-10T15:47:40.000Z</time>
      </trkpt>
      <trkpt lat="49.1583" lon="1.49609">
        <ele>144</ele>
        <time>2021-05-10T15:47:43.000Z</time>
      </trkpt>
      <trkpt lat="49.15839" lon="1.4963">
        <ele>144.19999694824</ele>
        <time>2021-05-10T15:47:46.000Z</time>
      </trkpt>
      <trkpt lat="49.15861" lon="1.49685">
        <ele>144.80000305176</ele>
        <time>2021-05-10T15:47:54.000Z</time>
      </trkpt>
      <trkpt lat="49.15874" lon="1.49714">
        <ele>145</ele>
        <time>2021-05-10T15:47:58.000Z</time>
      </trkpt>
      <trkpt lat="49.15884" lon="1.49738">
        <ele>145.19999694824</ele>
        <time>2021-05-10T15:48:01.000Z</time>
      </trkpt>
      <trkpt lat="49.15895" lon="1.49761">
        <ele>145.19999694824</ele>
        <time>2021-05-10T15:48:04.000Z</time>
      </trkpt>
      <trkpt lat="49.15904" lon="1.49784">
        <ele>145.19999694824</ele>
        <time>2021-05-10T15:48:07.000Z</time>
      </trkpt>
      <trkpt lat="49.1593" lon="1.4984">
        <ele>144.19999694824</ele>
        <time>2021-05-10T15:48:14.000Z</time>
      </trkpt>
      <trkpt lat="49.15947" lon="1.49882">
        <ele>144</ele>
        <time>2021-05-10T15:48:19.000Z</time>
      </trkpt>
      <trkpt lat="49.15951" lon="1.49892">
        <ele>144</ele>
        <time>2021-05-10T15:48:20.000Z</time>
      </trkpt>
      <trkpt lat="49.1598" lon="1.49963">
        <ele>143.19999694824</ele>
        <time>2021-05-10T15:48:27.000Z</time>
      </trkpt>
      <trkpt lat="49.15984" lon="1.49973">
        <ele>142.80000305176</ele>
        <time>2021-05-10T15:48:28.000Z</time>
      </trkpt>
      <trkpt lat="49.16" lon="1.50012">
        <ele>141.80000305176</ele>
        <time>2021-05-10T15:48:32.000Z</time>
      </trkpt>
      <trkpt lat="49.16004" lon="1.50021">
        <ele>141.80000305176</ele>
        <time>2021-05-10T15:48:33.000Z</time>
      </trkpt>
      <trkpt lat="49.16026" lon="1.50071">
        <ele>141.60000610352</ele>
        <time>2021-05-10T15:48:39.000Z</time>
      </trkpt>
      <trkpt lat="49.16048" lon="1.50122">
        <ele>142</ele>
        <time>2021-05-10T15:48:46.000Z</time>
      </trkpt>
      <trkpt lat="49.16051" lon="1.5013">
        <ele>142</ele>
        <time>2021-05-10T15:48:47.000Z</time>
      </trkpt>
      <trkpt lat="49.16066" lon="1.50166">
        <ele>142.60000610352</ele>
        <time>2021-05-10T15:48:52.000Z</time>
      </trkpt>
      <trkpt lat="49.1607" lon="1.50173">
        <ele>142.60000610352</ele>
        <time>2021-05-10T15:48:53.000Z</time>
      </trkpt>
      <trkpt lat="49.16076" lon="1.50188">
        <ele>143</ele>
        <time>2021-05-10T15:48:55.000Z</time>
      </trkpt>
      <trkpt lat="49.16093" lon="1.50226">
        <ele>143.39999389648</ele>
        <time>2021-05-10T15:49:00.000Z</time>
      </trkpt>
      <trkpt lat="49.16115" lon="1.50274">
        <ele>143.39999389648</ele>
        <time>2021-05-10T15:49:06.000Z</time>
      </trkpt>
      <trkpt lat="49.16136" lon="1.50325">
        <ele>143.19999694824</ele>
        <time>2021-05-10T15:49:12.000Z</time>
      </trkpt>
      <trkpt lat="49.16166" lon="1.50391">
        <ele>142</ele>
        <time>2021-05-10T15:49:20.000Z</time>
      </trkpt>
      <trkpt lat="49.16174" lon="1.50408">
        <ele>141.60000610352</ele>
        <time>2021-05-10T15:49:22.000Z</time>
      </trkpt>
      <trkpt lat="49.1619" lon="1.50444">
        <ele>141.19999694824</ele>
        <time>2021-05-10T15:49:26.000Z</time>
      </trkpt>
      <trkpt lat="49.16194" lon="1.50453">
        <ele>140.80000305176</ele>
        <time>2021-05-10T15:49:27.000Z</time>
      </trkpt>
      <trkpt lat="49.16214" lon="1.50499">
        <ele>139.80000305176</ele>
        <time>2021-05-10T15:49:32.000Z</time>
      </trkpt>
      <trkpt lat="49.16222" lon="1.50518">
        <ele>139.19999694824</ele>
        <time>2021-05-10T15:49:34.000Z</time>
      </trkpt>
      <trkpt lat="49.1623" lon="1.50537">
        <ele>138.60000610352</ele>
        <time>2021-05-10T15:49:36.000Z</time>
      </trkpt>
      <trkpt lat="49.16248" lon="1.50577">
        <ele>137.60000610352</ele>
        <time>2021-05-10T15:49:41.000Z</time>
      </trkpt>
      <trkpt lat="49.16261" lon="1.50607">
        <ele>137.60000610352</ele>
        <time>2021-05-10T15:49:46.000Z</time>
      </trkpt>
      <trkpt lat="49.16278" lon="1.50638">
        <ele>139.60000610352</ele>
        <time>2021-05-10T15:49:53.000Z</time>
      </trkpt>
      <trkpt lat="49.16297" lon="1.50644">
        <ele>140.60000610352</ele>
        <time>2021-05-10T15:49:57.000Z</time>
      </trkpt>
      <trkpt lat="49.16302" lon="1.50645">
        <ele>140.80000305176</ele>
        <time>2021-05-10T15:49:58.000Z</time>
      </trkpt>
      <trkpt lat="49.1632" lon="1.50644">
        <ele>141</ele>
        <time>2021-05-10T15:50:01.000Z</time>
      </trkpt>
      <trkpt lat="49.16346" lon="1.50644">
        <ele>141</ele>
        <time>2021-05-10T15:50:05.000Z</time>
      </trkpt>
      <trkpt lat="49.16353" lon="1.50643">
        <ele>141</ele>
        <time>2021-05-10T15:50:06.000Z</time>
      </trkpt>
      <trkpt lat="49.16397" lon="1.5064">
        <ele>139.60000610352</ele>
        <time>2021-05-10T15:50:12.000Z</time>
      </trkpt>
      <trkpt lat="49.16403" lon="1.50639">
        <ele>138.80000305176</ele>
        <time>2021-05-10T15:50:13.000Z</time>
      </trkpt>
      <trkpt lat="49.16409" lon="1.50638">
        <ele>138.39999389648</ele>
        <time>2021-05-10T15:50:14.000Z</time>
      </trkpt>
      <trkpt lat="49.16432" lon="1.50636">
        <ele>137.39999389648</ele>
        <time>2021-05-10T15:50:18.000Z</time>
      </trkpt>
      <trkpt lat="49.16438" lon="1.50635">
        <ele>137.19999694824</ele>
        <time>2021-05-10T15:50:19.000Z</time>
      </trkpt>
      <trkpt lat="49.16477" lon="1.50624">
        <ele>136.39999389648</ele>
        <time>2021-05-10T15:50:26.000Z</time>
      </trkpt>
      <trkpt lat="49.16517" lon="1.5061">
        <ele>136</ele>
        <time>2021-05-10T15:50:32.000Z</time>
      </trkpt>
      <trkpt lat="49.16551" lon="1.50594">
        <ele>135.80000305176</ele>
        <time>2021-05-10T15:50:38.000Z</time>
      </trkpt>
      <trkpt lat="49.16577" lon="1.50579">
        <ele>136.19999694824</ele>
        <time>2021-05-10T15:50:44.000Z</time>
      </trkpt>
      <trkpt lat="49.16588" lon="1.50572">
        <ele>137.60000610352</ele>
        <time>2021-05-10T15:50:48.000Z</time>
      </trkpt>
      <trkpt lat="49.16592" lon="1.5057">
        <ele>138</ele>
        <time>2021-05-10T15:50:49.000Z</time>
      </trkpt>
      <trkpt lat="49.16604" lon="1.50562">
        <ele>139</ele>
        <time>2021-05-10T15:50:52.000Z</time>
      </trkpt>
      <trkpt lat="49.16619" lon="1.50552">
        <ele>140</ele>
        <time>2021-05-10T15:50:56.000Z</time>
      </trkpt>
      <trkpt lat="49.16622" lon="1.5055">
        <ele>140.39999389648</ele>
        <time>2021-05-10T15:50:57.000Z</time>
      </trkpt>
      <trkpt lat="49.16633" lon="1.50543">
        <ele>141.39999389648</ele>
        <time>2021-05-10T15:51:00.000Z</time>
      </trkpt>
      <trkpt lat="49.16651" lon="1.50532">
        <ele>142.60000610352</ele>
        <time>2021-05-10T15:51:05.000Z</time>
      </trkpt>
      <trkpt lat="49.1667" lon="1.50524">
        <ele>143.80000305176</ele>
        <time>2021-05-10T15:51:10.000Z</time>
      </trkpt>
      <trkpt lat="49.16682" lon="1.5052">
        <ele>144.39999389648</ele>
        <time>2021-05-10T15:51:13.000Z</time>
      </trkpt>
      <trkpt lat="49.16701" lon="1.50514">
        <ele>144.80000305176</ele>
        <time>2021-05-10T15:51:18.000Z</time>
      </trkpt>
      <trkpt lat="49.16716" lon="1.5051">
        <ele>145.39999389648</ele>
        <time>2021-05-10T15:51:22.000Z</time>
      </trkpt>
      <trkpt lat="49.16728" lon="1.50509">
        <ele>146</ele>
        <time>2021-05-10T15:51:25.000Z</time>
      </trkpt>
      <trkpt lat="49.16749" lon="1.50507">
        <ele>146.80000305176</ele>
        <time>2021-05-10T15:51:31.000Z</time>
      </trkpt>
      <trkpt lat="49.16759" lon="1.50507">
        <ele>147</ele>
        <time>2021-05-10T15:51:34.000Z</time>
      </trkpt>
      <trkpt lat="49.16772" lon="1.50508">
        <ele>148.19999694824</ele>
        <time>2021-05-10T15:51:38.000Z</time>
      </trkpt>
      <trkpt lat="49.16779" lon="1.50508">
        <ele>148.60000610352</ele>
        <time>2021-05-10T15:51:40.000Z</time>
      </trkpt>
      <trkpt lat="49.16795" lon="1.50505">
        <ele>149.19999694824</ele>
        <time>2021-05-10T15:51:45.000Z</time>
      </trkpt>
      <trkpt lat="49.16805" lon="1.50502">
        <ele>149.60000610352</ele>
        <time>2021-05-10T15:51:48.000Z</time>
      </trkpt>
      <trkpt lat="49.16824" lon="1.50493">
        <ele>150.39999389648</ele>
        <time>2021-05-10T15:51:54.000Z</time>
      </trkpt>
      <trkpt lat="49.16834" lon="1.50487">
        <ele>150.80000305176</ele>
        <time>2021-05-10T15:51:57.000Z</time>
      </trkpt>
      <trkpt lat="49.16855" lon="1.50469">
        <ele>151.39999389648</ele>
        <time>2021-05-10T15:52:04.000Z</time>
      </trkpt>
      <trkpt lat="49.16858" lon="1.50467">
        <ele>151.80000305176</ele>
        <time>2021-05-10T15:52:05.000Z</time>
      </trkpt>
      <trkpt lat="49.1688" lon="1.50441">
        <ele>152.39999389648</ele>
        <time>2021-05-10T15:52:13.000Z</time>
      </trkpt>
      <trkpt lat="49.16888" lon="1.50432">
        <ele>153</ele>
        <time>2021-05-10T15:52:16.000Z</time>
      </trkpt>
      <trkpt lat="49.16904" lon="1.50415">
        <ele>153.60000610352</ele>
        <time>2021-05-10T15:52:21.000Z</time>
      </trkpt>
      <trkpt lat="49.16913" lon="1.50406">
        <ele>153.80000305176</ele>
        <time>2021-05-10T15:52:24.000Z</time>
      </trkpt>
      <trkpt lat="49.16923" lon="1.50395">
        <ele>154</ele>
        <time>2021-05-10T15:52:27.000Z</time>
      </trkpt>
      <trkpt lat="49.16936" lon="1.50382">
        <ele>154.39999389648</ele>
        <time>2021-05-10T15:52:31.000Z</time>
      </trkpt>
      <trkpt lat="49.16939" lon="1.50379">
        <ele>154.60000610352</ele>
        <time>2021-05-10T15:52:32.000Z</time>
      </trkpt>
      <trkpt lat="49.16959" lon="1.50358">
        <ele>154.60000610352</ele>
        <time>2021-05-10T15:52:38.000Z</time>
      </trkpt>
      <trkpt lat="49.16992" lon="1.50322">
        <ele>154.60000610352</ele>
        <time>2021-05-10T15:52:48.000Z</time>
      </trkpt>
      <trkpt lat="49.17023" lon="1.50291">
        <ele>155.19999694824</ele>
        <time>2021-05-10T15:52:56.000Z</time>
      </trkpt>
      <trkpt lat="49.17055" lon="1.50264">
        <ele>155.60000610352</ele>
        <time>2021-05-10T15:53:04.000Z</time>
      </trkpt>
      <trkpt lat="49.17059" lon="1.50261">
        <ele>155.60000610352</ele>
        <time>2021-05-10T15:53:05.000Z</time>
      </trkpt>
      <trkpt lat="49.17082" lon="1.50242">
        <ele>155.80000305176</ele>
        <time>2021-05-10T15:53:10.000Z</time>
      </trkpt>
      <trkpt lat="49.17107" lon="1.50212">
        <ele>156</ele>
        <time>2021-05-10T15:53:16.000Z</time>
      </trkpt>
      <trkpt lat="49.17116" lon="1.50202">
        <ele>156</ele>
        <time>2021-05-10T15:53:18.000Z</time>
      </trkpt>
      <trkpt lat="49.17148" lon="1.50169">
        <ele>156</ele>
        <time>2021-05-10T15:53:25.000Z</time>
      </trkpt>
      <trkpt lat="49.17159" lon="1.50159">
        <ele>155.80000305176</ele>
        <time>2021-05-10T15:53:29.000Z</time>
      </trkpt>
      <trkpt lat="49.17159" lon="1.50158">
        <ele>155.60000610352</ele>
        <time>2021-05-10T15:53:31.000Z</time>
      </trkpt>
      <trkpt lat="49.17161" lon="1.50157">
        <ele>155</ele>
        <time>2021-05-10T15:54:11.000Z</time>
      </trkpt>
      <trkpt lat="49.17162" lon="1.50155">
        <ele>155</ele>
        <time>2021-05-10T15:54:12.000Z</time>
      </trkpt>
      <trkpt lat="49.17177" lon="1.50147">
        <ele>155</ele>
        <time>2021-05-10T15:54:18.000Z</time>
      </trkpt>
      <trkpt lat="49.17193" lon="1.50142">
        <ele>154.80000305176</ele>
        <time>2021-05-10T15:54:22.000Z</time>
      </trkpt>
      <trkpt lat="49.1721" lon="1.50137">
        <ele>154.19999694824</ele>
        <time>2021-05-10T15:54:26.000Z</time>
      </trkpt>
      <trkpt lat="49.17237" lon="1.50129">
        <ele>153.60000610352</ele>
        <time>2021-05-10T15:54:31.000Z</time>
      </trkpt>
      <trkpt lat="49.17248" lon="1.50126">
        <ele>153.19999694824</ele>
        <time>2021-05-10T15:54:33.000Z</time>
      </trkpt>
      <trkpt lat="49.17289" lon="1.5011">
        <ele>152.39999389648</ele>
        <time>2021-05-10T15:54:40.000Z</time>
      </trkpt>
      <trkpt lat="49.173" lon="1.50105">
        <ele>152</ele>
        <time>2021-05-10T15:54:42.000Z</time>
      </trkpt>
      <trkpt lat="49.17337" lon="1.50091">
        <ele>151.19999694824</ele>
        <time>2021-05-10T15:54:48.000Z</time>
      </trkpt>
      <trkpt lat="49.17349" lon="1.50086">
        <ele>151.19999694824</ele>
        <time>2021-05-10T15:54:50.000Z</time>
      </trkpt>
      <trkpt lat="49.17394" lon="1.50072">
        <ele>150.19999694824</ele>
        <time>2021-05-10T15:54:57.000Z</time>
      </trkpt>
      <trkpt lat="49.174" lon="1.5007">
        <ele>150.19999694824</ele>
        <time>2021-05-10T15:54:58.000Z</time>
      </trkpt>
      <trkpt lat="49.17433" lon="1.50059">
        <ele>149.19999694824</ele>
        <time>2021-05-10T15:55:03.000Z</time>
      </trkpt>
      <trkpt lat="49.17471" lon="1.50046">
        <ele>148.19999694824</ele>
        <time>2021-05-10T15:55:09.000Z</time>
      </trkpt>
      <trkpt lat="49.17477" lon="1.50044">
        <ele>148</ele>
        <time>2021-05-10T15:55:10.000Z</time>
      </trkpt>
      <trkpt lat="49.17532" lon="1.50026">
        <ele>147.19999694824</ele>
        <time>2021-05-10T15:55:20.000Z</time>
      </trkpt>
      <trkpt lat="49.17543" lon="1.50038">
        <ele>147.19999694824</ele>
        <time>2021-05-10T15:55:23.000Z</time>
      </trkpt>
      <trkpt lat="49.17544" lon="1.50045">
        <ele>147.19999694824</ele>
        <time>2021-05-10T15:55:24.000Z</time>
      </trkpt>
      <trkpt lat="49.17549" lon="1.5006">
        <ele>147.19999694824</ele>
        <time>2021-05-10T15:55:26.000Z</time>
      </trkpt>
      <trkpt lat="49.17557" lon="1.50067">
        <ele>147.60000610352</ele>
        <time>2021-05-10T15:55:28.000Z</time>
      </trkpt>
      <trkpt lat="49.17567" lon="1.50058">
        <ele>148</ele>
        <time>2021-05-10T15:55:31.000Z</time>
      </trkpt>
      <trkpt lat="49.17571" lon="1.50054">
        <ele>148.19999694824</ele>
        <time>2021-05-10T15:55:32.000Z</time>
      </trkpt>
      <trkpt lat="49.17582" lon="1.50042">
        <ele>148.39999389648</ele>
        <time>2021-05-10T15:55:35.000Z</time>
      </trkpt>
      <trkpt lat="49.17589" lon="1.50036">
        <ele>148.60000610352</ele>
        <time>2021-05-10T15:55:37.000Z</time>
      </trkpt>
      <trkpt lat="49.1762" lon="1.50014">
        <ele>149.19999694824</ele>
        <time>2021-05-10T15:55:45.000Z</time>
      </trkpt>
      <trkpt lat="49.17664" lon="1.49985">
        <ele>150.19999694824</ele>
        <time>2021-05-10T15:55:56.000Z</time>
      </trkpt>
      <trkpt lat="49.17696" lon="1.49961">
        <ele>151</ele>
        <time>2021-05-10T15:56:04.000Z</time>
      </trkpt>
      <trkpt lat="49.17724" lon="1.49942">
        <ele>151.39999389648</ele>
        <time>2021-05-10T15:56:11.000Z</time>
      </trkpt>
      <trkpt lat="49.17732" lon="1.49936">
        <ele>151.60000610352</ele>
        <time>2021-05-10T15:56:13.000Z</time>
      </trkpt>
      <trkpt lat="49.17771" lon="1.49915">
        <ele>152</ele>
        <time>2021-05-10T15:56:22.000Z</time>
      </trkpt>
      <trkpt lat="49.17793" lon="1.49905">
        <ele>152.60000610352</ele>
        <time>2021-05-10T15:56:27.000Z</time>
      </trkpt>
      <trkpt lat="49.17819" lon="1.49895">
        <ele>153</ele>
        <time>2021-05-10T15:56:33.000Z</time>
      </trkpt>
      <trkpt lat="49.17874" lon="1.49884">
        <ele>153.39999389648</ele>
        <time>2021-05-10T15:56:45.000Z</time>
      </trkpt>
      <trkpt lat="49.17914" lon="1.4988">
        <ele>153.39999389648</ele>
        <time>2021-05-10T15:56:54.000Z</time>
      </trkpt>
      <trkpt lat="49.17937" lon="1.49877">
        <ele>153.60000610352</ele>
        <time>2021-05-10T15:56:59.000Z</time>
      </trkpt>
      <trkpt lat="49.17946" lon="1.49872">
        <ele>153.39999389648</ele>
        <time>2021-05-10T15:57:01.000Z</time>
      </trkpt>
      <trkpt lat="49.17954" lon="1.49863">
        <ele>153.39999389648</ele>
        <time>2021-05-10T15:57:03.000Z</time>
      </trkpt>
      <trkpt lat="49.17967" lon="1.49849">
        <ele>153.19999694824</ele>
        <time>2021-05-10T15:57:06.000Z</time>
      </trkpt>
      <trkpt lat="49.18" lon="1.49825">
        <ele>152.39999389648</ele>
        <time>2021-05-10T15:57:13.000Z</time>
      </trkpt>
      <trkpt lat="49.18035" lon="1.49809">
        <ele>151.60000610352</ele>
        <time>2021-05-10T15:57:20.000Z</time>
      </trkpt>
      <trkpt lat="49.18042" lon="1.49807">
        <ele>151.60000610352</ele>
        <time>2021-05-10T15:57:23.000Z</time>
      </trkpt>
      <trkpt lat="49.18041" lon="1.49807">
        <ele>151.19999694824</ele>
        <time>2021-05-10T15:57:25.000Z</time>
      </trkpt>
      <trkpt lat="49.18043" lon="1.49808">
        <ele>149.80000305176</ele>
        <time>2021-05-10T15:57:36.000Z</time>
      </trkpt>
      <trkpt lat="49.18047" lon="1.49807">
        <ele>149.60000610352</ele>
        <time>2021-05-10T15:57:38.000Z</time>
      </trkpt>
      <trkpt lat="49.18065" lon="1.49803">
        <ele>149.19999694824</ele>
        <time>2021-05-10T15:57:45.000Z</time>
      </trkpt>
      <trkpt lat="49.18077" lon="1.49796">
        <ele>149.19999694824</ele>
        <time>2021-05-10T15:57:48.000Z</time>
      </trkpt>
      <trkpt lat="49.18088" lon="1.49792">
        <ele>148.80000305176</ele>
        <time>2021-05-10T15:57:50.000Z</time>
      </trkpt>
      <trkpt lat="49.18101" lon="1.49789">
        <ele>148.60000610352</ele>
        <time>2021-05-10T15:57:52.000Z</time>
      </trkpt>
      <trkpt lat="49.18117" lon="1.49787">
        <ele>148.39999389648</ele>
        <time>2021-05-10T15:57:54.000Z</time>
      </trkpt>
      <trkpt lat="49.18142" lon="1.49789">
        <ele>147</ele>
        <time>2021-05-10T15:57:57.000Z</time>
      </trkpt>
      <trkpt lat="49.18151" lon="1.49791">
        <ele>146.19999694824</ele>
        <time>2021-05-10T15:57:58.000Z</time>
      </trkpt>
      <trkpt lat="49.18161" lon="1.49793">
        <ele>145.60000610352</ele>
        <time>2021-05-10T15:57:59.000Z</time>
      </trkpt>
      <trkpt lat="49.18182" lon="1.49797">
        <ele>143.39999389648</ele>
        <time>2021-05-10T15:58:01.000Z</time>
      </trkpt>
      <trkpt lat="49.18192" lon="1.498">
        <ele>142.19999694824</ele>
        <time>2021-05-10T15:58:02.000Z</time>
      </trkpt>
      <trkpt lat="49.18202" lon="1.49803">
        <ele>141</ele>
        <time>2021-05-10T15:58:03.000Z</time>
      </trkpt>
      <trkpt lat="49.18211" lon="1.49807">
        <ele>140</ele>
        <time>2021-05-10T15:58:04.000Z</time>
      </trkpt>
      <trkpt lat="49.18219" lon="1.49813">
        <ele>138.80000305176</ele>
        <time>2021-05-10T15:58:05.000Z</time>
      </trkpt>
      <trkpt lat="49.18227" lon="1.49818">
        <ele>136.80000305176</ele>
        <time>2021-05-10T15:58:06.000Z</time>
      </trkpt>
      <trkpt lat="49.18234" lon="1.49822">
        <ele>134.60000610352</ele>
        <time>2021-05-10T15:58:07.000Z</time>
      </trkpt>
      <trkpt lat="49.18241" lon="1.49824">
        <ele>132.39999389648</ele>
        <time>2021-05-10T15:58:08.000Z</time>
      </trkpt>
      <trkpt lat="49.18248" lon="1.49825">
        <ele>130.80000305176</ele>
        <time>2021-05-10T15:58:09.000Z</time>
      </trkpt>
      <trkpt lat="49.1826" lon="1.49824">
        <ele>129.39999389648</ele>
        <time>2021-05-10T15:58:11.000Z</time>
      </trkpt>
      <trkpt lat="49.18264" lon="1.49824">
        <ele>129</ele>
        <time>2021-05-10T15:58:12.000Z</time>
      </trkpt>
      <trkpt lat="49.1828" lon="1.49816">
        <ele>128.80000305176</ele>
        <time>2021-05-10T15:58:17.000Z</time>
      </trkpt>
      <trkpt lat="49.1829" lon="1.49809">
        <ele>130.60000610352</ele>
        <time>2021-05-10T15:58:21.000Z</time>
      </trkpt>
      <trkpt lat="49.18294" lon="1.49806">
        <ele>131.80000305176</ele>
        <time>2021-05-10T15:58:23.000Z</time>
      </trkpt>
      <trkpt lat="49.18296" lon="1.49805">
        <ele>132</ele>
        <time>2021-05-10T15:58:24.000Z</time>
      </trkpt>
      <trkpt lat="49.18299" lon="1.49802">
        <ele>132.80000305176</ele>
        <time>2021-05-10T15:58:26.000Z</time>
      </trkpt>
      <trkpt lat="49.18304" lon="1.49799">
        <ele>133.80000305176</ele>
        <time>2021-05-10T15:58:29.000Z</time>
      </trkpt>
      <trkpt lat="49.18308" lon="1.49796">
        <ele>135</ele>
        <time>2021-05-10T15:58:32.000Z</time>
      </trkpt>
      <trkpt lat="49.18313" lon="1.49794">
        <ele>136</ele>
        <time>2021-05-10T15:58:35.000Z</time>
      </trkpt>
      <trkpt lat="49.18317" lon="1.49791">
        <ele>137.19999694824</ele>
        <time>2021-05-10T15:58:38.000Z</time>
      </trkpt>
      <trkpt lat="49.1832" lon="1.4979">
        <ele>137.80000305176</ele>
        <time>2021-05-10T15:58:40.000Z</time>
      </trkpt>
      <trkpt lat="49.18322" lon="1.49789">
        <ele>138.19999694824</ele>
        <time>2021-05-10T15:58:41.000Z</time>
      </trkpt>
      <trkpt lat="49.18328" lon="1.49785">
        <ele>139.39999389648</ele>
        <time>2021-05-10T15:58:45.000Z</time>
      </trkpt>
      <trkpt lat="49.18333" lon="1.49782">
        <ele>140.39999389648</ele>
        <time>2021-05-10T15:58:48.000Z</time>
      </trkpt>
      <trkpt lat="49.18344" lon="1.49776">
        <ele>141.60000610352</ele>
        <time>2021-05-10T15:58:55.000Z</time>
      </trkpt>
      <trkpt lat="49.18347" lon="1.49774">
        <ele>141.80000305176</ele>
        <time>2021-05-10T15:58:57.000Z</time>
      </trkpt>
      <trkpt lat="49.18356" lon="1.4977">
        <ele>142.60000610352</ele>
        <time>2021-05-10T15:59:03.000Z</time>
      </trkpt>
      <trkpt lat="49.18358" lon="1.49769">
        <ele>142.60000610352</ele>
        <time>2021-05-10T15:59:04.000Z</time>
      </trkpt>
      <trkpt lat="49.18371" lon="1.49762">
        <ele>143.19999694824</ele>
        <time>2021-05-10T15:59:12.000Z</time>
      </trkpt>
      <trkpt lat="49.18374" lon="1.49759">
        <ele>143.60000610352</ele>
        <time>2021-05-10T15:59:14.000Z</time>
      </trkpt>
      <trkpt lat="49.18384" lon="1.49753">
        <ele>144.60000610352</ele>
        <time>2021-05-10T15:59:20.000Z</time>
      </trkpt>
      <trkpt lat="49.18403" lon="1.49742">
        <ele>145.80000305176</ele>
        <time>2021-05-10T15:59:29.000Z</time>
      </trkpt>
      <trkpt lat="49.18422" lon="1.4973">
        <ele>146.39999389648</ele>
        <time>2021-05-10T15:59:36.000Z</time>
      </trkpt>
      <trkpt lat="49.18428" lon="1.49727">
        <ele>146.80000305176</ele>
        <time>2021-05-10T15:59:38.000Z</time>
      </trkpt>
      <trkpt lat="49.18446" lon="1.49717">
        <ele>147.80000305176</ele>
        <time>2021-05-10T15:59:44.000Z</time>
      </trkpt>
      <trkpt lat="49.18449" lon="1.49716">
        <ele>147.80000305176</ele>
        <time>2021-05-10T15:59:45.000Z</time>
      </trkpt>
      <trkpt lat="49.18464" lon="1.49709">
        <ele>149</ele>
        <time>2021-05-10T15:59:50.000Z</time>
      </trkpt>
      <trkpt lat="49.18469" lon="1.49705">
        <ele>149.60000610352</ele>
        <time>2021-05-10T15:59:52.000Z</time>
      </trkpt>
      <trkpt lat="49.18483" lon="1.49693">
        <ele>150</ele>
        <time>2021-05-10T15:59:57.000Z</time>
      </trkpt>
      <trkpt lat="49.18492" lon="1.49683">
        <ele>150.19999694824</ele>
        <time>2021-05-10T16:00:00.000Z</time>
      </trkpt>
      <trkpt lat="49.18512" lon="1.49655">
        <ele>151</ele>
        <time>2021-05-10T16:00:07.000Z</time>
      </trkpt>
      <trkpt lat="49.18518" lon="1.49648">
        <ele>151.19999694824</ele>
        <time>2021-05-10T16:00:09.000Z</time>
      </trkpt>
      <trkpt lat="49.18533" lon="1.49626">
        <ele>151.80000305176</ele>
        <time>2021-05-10T16:00:14.000Z</time>
      </trkpt>
      <trkpt lat="49.18545" lon="1.4961">
        <ele>152.19999694824</ele>
        <time>2021-05-10T16:00:18.000Z</time>
      </trkpt>
      <trkpt lat="49.18555" lon="1.49587">
        <ele>152.60000610352</ele>
        <time>2021-05-10T16:00:23.000Z</time>
      </trkpt>
      <trkpt lat="49.18555" lon="1.49581">
        <ele>152.60000610352</ele>
        <time>2021-05-10T16:00:24.000Z</time>
      </trkpt>
      <trkpt lat="49.1855" lon="1.49556">
        <ele>152.80000305176</ele>
        <time>2021-05-10T16:00:28.000Z</time>
      </trkpt>
      <trkpt lat="49.18546" lon="1.49538">
        <ele>152.80000305176</ele>
        <time>2021-05-10T16:00:31.000Z</time>
      </trkpt>
      <trkpt lat="49.18545" lon="1.49511">
        <ele>152.80000305176</ele>
        <time>2021-05-10T16:00:35.000Z</time>
      </trkpt>
      <trkpt lat="49.18548" lon="1.49491">
        <ele>153</ele>
        <time>2021-05-10T16:00:38.000Z</time>
      </trkpt>
      <trkpt lat="49.18552" lon="1.49472">
        <ele>153.60000610352</ele>
        <time>2021-05-10T16:00:41.000Z</time>
      </trkpt>
      <trkpt lat="49.18556" lon="1.49439">
        <ele>154.60000610352</ele>
        <time>2021-05-10T16:00:46.000Z</time>
      </trkpt>
      <trkpt lat="49.18557" lon="1.49424">
        <ele>154.80000305176</ele>
        <time>2021-05-10T16:00:48.000Z</time>
      </trkpt>
      <trkpt lat="49.18561" lon="1.49403">
        <ele>155</ele>
        <time>2021-05-10T16:00:51.000Z</time>
      </trkpt>
      <trkpt lat="49.18566" lon="1.49384">
        <ele>155</ele>
        <time>2021-05-10T16:00:54.000Z</time>
      </trkpt>
      <trkpt lat="49.18575" lon="1.49341">
        <ele>155.39999389648</ele>
        <time>2021-05-10T16:01:00.000Z</time>
      </trkpt>
      <trkpt lat="49.18575" lon="1.49334">
        <ele>155.39999389648</ele>
        <time>2021-05-10T16:01:01.000Z</time>
      </trkpt>
      <trkpt lat="49.18574" lon="1.4928">
        <ele>155.60000610352</ele>
        <time>2021-05-10T16:01:08.000Z</time>
      </trkpt>
      <trkpt lat="49.1857" lon="1.49215">
        <ele>155.60000610352</ele>
        <time>2021-05-10T16:01:16.000Z</time>
      </trkpt>
      <trkpt lat="49.18569" lon="1.49208">
        <ele>155.60000610352</ele>
        <time>2021-05-10T16:01:17.000Z</time>
      </trkpt>
      <trkpt lat="49.18563" lon="1.49169">
        <ele>155.60000610352</ele>
        <time>2021-05-10T16:01:23.000Z</time>
      </trkpt>
      <trkpt lat="49.18564" lon="1.49162">
        <ele>155.80000305176</ele>
        <time>2021-05-10T16:01:24.000Z</time>
      </trkpt>
      <trkpt lat="49.18565" lon="1.49157">
        <ele>155.80000305176</ele>
        <time>2021-05-10T16:01:25.000Z</time>
      </trkpt>
      <trkpt lat="49.18572" lon="1.49143">
        <ele>156.19999694824</ele>
        <time>2021-05-10T16:01:28.000Z</time>
      </trkpt>
      <trkpt lat="49.18575" lon="1.49138">
        <ele>156.19999694824</ele>
        <time>2021-05-10T16:01:29.000Z</time>
      </trkpt>
      <trkpt lat="49.18587" lon="1.49112">
        <ele>156.39999389648</ele>
        <time>2021-05-10T16:01:34.000Z</time>
      </trkpt>
      <trkpt lat="49.18591" lon="1.49099">
        <ele>156.39999389648</ele>
        <time>2021-05-10T16:01:36.000Z</time>
      </trkpt>
      <trkpt lat="49.18601" lon="1.49042">
        <ele>156.60000610352</ele>
        <time>2021-05-10T16:01:44.000Z</time>
      </trkpt>
      <trkpt lat="49.18615" lon="1.48957">
        <ele>156.39999389648</ele>
        <time>2021-05-10T16:01:55.000Z</time>
      </trkpt>
      <trkpt lat="49.18617" lon="1.48949">
        <ele>156.39999389648</ele>
        <time>2021-05-10T16:01:56.000Z</time>
      </trkpt>
      <trkpt lat="49.18632" lon="1.48878">
        <ele>156.19999694824</ele>
        <time>2021-05-10T16:02:05.000Z</time>
      </trkpt>
      <trkpt lat="49.18652" lon="1.488">
        <ele>156.39999389648</ele>
        <time>2021-05-10T16:02:15.000Z</time>
      </trkpt>
      <trkpt lat="49.18657" lon="1.48777">
        <ele>156.39999389648</ele>
        <time>2021-05-10T16:02:18.000Z</time>
      </trkpt>
      <trkpt lat="49.18675" lon="1.48707">
        <ele>156.19999694824</ele>
        <time>2021-05-10T16:02:27.000Z</time>
      </trkpt>
      <trkpt lat="49.18691" lon="1.48628">
        <ele>155.19999694824</ele>
        <time>2021-05-10T16:02:37.000Z</time>
      </trkpt>
      <trkpt lat="49.18697" lon="1.48586">
        <ele>155</ele>
        <time>2021-05-10T16:02:42.000Z</time>
      </trkpt>
      <trkpt lat="49.18701" lon="1.48551">
        <ele>154.80000305176</ele>
        <time>2021-05-10T16:02:46.000Z</time>
      </trkpt>
      <trkpt lat="49.18707" lon="1.48499">
        <ele>154.60000610352</ele>
        <time>2021-05-10T16:02:52.000Z</time>
      </trkpt>
      <trkpt lat="49.18715" lon="1.48415">
        <ele>154.19999694824</ele>
        <time>2021-05-10T16:03:01.000Z</time>
      </trkpt>
      <trkpt lat="49.18717" lon="1.48396">
        <ele>154</ele>
        <time>2021-05-10T16:03:03.000Z</time>
      </trkpt>
      <trkpt lat="49.18722" lon="1.4834">
        <ele>153.60000610352</ele>
        <time>2021-05-10T16:03:09.000Z</time>
      </trkpt>
      <trkpt lat="49.18731" lon="1.48258">
        <ele>153.80000305176</ele>
        <time>2021-05-10T16:03:18.000Z</time>
      </trkpt>
      <trkpt lat="49.18738" lon="1.48187">
        <ele>153.80000305176</ele>
        <time>2021-05-10T16:03:26.000Z</time>
      </trkpt>
      <trkpt lat="49.1875" lon="1.4812">
        <ele>153</ele>
        <time>2021-05-10T16:03:34.000Z</time>
      </trkpt>
      <trkpt lat="49.18752" lon="1.48111">
        <ele>152.80000305176</ele>
        <time>2021-05-10T16:03:35.000Z</time>
      </trkpt>
      <trkpt lat="49.1876" lon="1.48075">
        <ele>151.80000305176</ele>
        <time>2021-05-10T16:03:39.000Z</time>
      </trkpt>
      <trkpt lat="49.18768" lon="1.48047">
        <ele>151.19999694824</ele>
        <time>2021-05-10T16:03:42.000Z</time>
      </trkpt>
      <trkpt lat="49.18787" lon="1.47976">
        <ele>150.80000305176</ele>
        <time>2021-05-10T16:03:49.000Z</time>
      </trkpt>
      <trkpt lat="49.18804" lon="1.47915">
        <ele>150.80000305176</ele>
        <time>2021-05-10T16:03:55.000Z</time>
      </trkpt>
      <trkpt lat="49.1881" lon="1.47896">
        <ele>150.80000305176</ele>
        <time>2021-05-10T16:03:57.000Z</time>
      </trkpt>
      <trkpt lat="49.18829" lon="1.47827">
        <ele>149.80000305176</ele>
        <time>2021-05-10T16:04:04.000Z</time>
      </trkpt>
      <trkpt lat="49.18832" lon="1.47816">
        <ele>149.60000610352</ele>
        <time>2021-05-10T16:04:05.000Z</time>
      </trkpt>
      <trkpt lat="49.18851" lon="1.47743">
        <ele>148.60000610352</ele>
        <time>2021-05-10T16:04:12.000Z</time>
      </trkpt>
      <trkpt lat="49.18858" lon="1.47713">
        <ele>148.60000610352</ele>
        <time>2021-05-10T16:04:15.000Z</time>
      </trkpt>
      <trkpt lat="49.18868" lon="1.47662">
        <ele>148.39999389648</ele>
        <time>2021-05-10T16:04:20.000Z</time>
      </trkpt>
      <trkpt lat="49.18874" lon="1.4761">
        <ele>147.60000610352</ele>
        <time>2021-05-10T16:04:25.000Z</time>
      </trkpt>
      <trkpt lat="49.18875" lon="1.47599">
        <ele>147.39999389648</ele>
        <time>2021-05-10T16:04:26.000Z</time>
      </trkpt>
      <trkpt lat="49.18873" lon="1.47536">
        <ele>147.19999694824</ele>
        <time>2021-05-10T16:04:32.000Z</time>
      </trkpt>
      <trkpt lat="49.18866" lon="1.47467">
        <ele>146.80000305176</ele>
        <time>2021-05-10T16:04:39.000Z</time>
      </trkpt>
      <trkpt lat="49.18859" lon="1.4741">
        <ele>146.39999389648</ele>
        <time>2021-05-10T16:04:44.000Z</time>
      </trkpt>
      <trkpt lat="49.18848" lon="1.47327">
        <ele>145.60000610352</ele>
        <time>2021-05-10T16:04:51.000Z</time>
      </trkpt>
      <trkpt lat="49.18845" lon="1.47284">
        <ele>145.19999694824</ele>
        <time>2021-05-10T16:04:55.000Z</time>
      </trkpt>
      <trkpt lat="49.18846" lon="1.47274">
        <ele>145.19999694824</ele>
        <time>2021-05-10T16:04:56.000Z</time>
      </trkpt>
      <trkpt lat="49.18855" lon="1.47238">
        <ele>144.39999389648</ele>
        <time>2021-05-10T16:05:00.000Z</time>
      </trkpt>
      <trkpt lat="49.18862" lon="1.47222">
        <ele>144.19999694824</ele>
        <time>2021-05-10T16:05:02.000Z</time>
      </trkpt>
      <trkpt lat="49.18872" lon="1.47202">
        <ele>144.19999694824</ele>
        <time>2021-05-10T16:05:05.000Z</time>
      </trkpt>
      <trkpt lat="49.18879" lon="1.4719">
        <ele>144.19999694824</ele>
        <time>2021-05-10T16:05:07.000Z</time>
      </trkpt>
      <trkpt lat="49.18884" lon="1.47177">
        <ele>144.19999694824</ele>
        <time>2021-05-10T16:05:09.000Z</time>
      </trkpt>
      <trkpt lat="49.18882" lon="1.47153">
        <ele>144.39999389648</ele>
        <time>2021-05-10T16:05:12.000Z</time>
      </trkpt>
      <trkpt lat="49.18866" lon="1.47127">
        <ele>144.60000610352</ele>
        <time>2021-05-10T16:05:16.000Z</time>
      </trkpt>
      <trkpt lat="49.18832" lon="1.47086">
        <ele>144.60000610352</ele>
        <time>2021-05-10T16:05:23.000Z</time>
      </trkpt>
      <trkpt lat="49.18809" lon="1.47058">
        <ele>144.19999694824</ele>
        <time>2021-05-10T16:05:28.000Z</time>
      </trkpt>
      <trkpt lat="49.188" lon="1.47047">
        <ele>144.19999694824</ele>
        <time>2021-05-10T16:05:30.000Z</time>
      </trkpt>
      <trkpt lat="49.18796" lon="1.47041">
        <ele>144</ele>
        <time>2021-05-10T16:05:31.000Z</time>
      </trkpt>
      <trkpt lat="49.18792" lon="1.47026">
        <ele>143.80000305176</ele>
        <time>2021-05-10T16:05:33.000Z</time>
      </trkpt>
      <trkpt lat="49.18792" lon="1.47009">
        <ele>143</ele>
        <time>2021-05-10T16:05:35.000Z</time>
      </trkpt>
      <trkpt lat="49.18795" lon="1.47002">
        <ele>142.80000305176</ele>
        <time>2021-05-10T16:05:36.000Z</time>
      </trkpt>
      <trkpt lat="49.18802" lon="1.46989">
        <ele>142.80000305176</ele>
        <time>2021-05-10T16:05:38.000Z</time>
      </trkpt>
      <trkpt lat="49.18813" lon="1.4697">
        <ele>142.80000305176</ele>
        <time>2021-05-10T16:05:41.000Z</time>
      </trkpt>
      <trkpt lat="49.18839" lon="1.46926">
        <ele>143.60000610352</ele>
        <time>2021-05-10T16:05:47.000Z</time>
      </trkpt>
      <trkpt lat="49.18848" lon="1.46911">
        <ele>144</ele>
        <time>2021-05-10T16:05:49.000Z</time>
      </trkpt>
      <trkpt lat="49.18866" lon="1.46887">
        <ele>144.80000305176</ele>
        <time>2021-05-10T16:05:53.000Z</time>
      </trkpt>
      <trkpt lat="49.18874" lon="1.46876">
        <ele>145</ele>
        <time>2021-05-10T16:05:55.000Z</time>
      </trkpt>
      <trkpt lat="49.18879" lon="1.46872">
        <ele>145.19999694824</ele>
        <time>2021-05-10T16:05:56.000Z</time>
      </trkpt>
      <trkpt lat="49.18891" lon="1.46859">
        <ele>146</ele>
        <time>2021-05-10T16:05:59.000Z</time>
      </trkpt>
      <trkpt lat="49.18896" lon="1.46855">
        <ele>146.60000610352</ele>
        <time>2021-05-10T16:06:00.000Z</time>
      </trkpt>
      <trkpt lat="49.18904" lon="1.46848">
        <ele>147.60000610352</ele>
        <time>2021-05-10T16:06:02.000Z</time>
      </trkpt>
      <trkpt lat="49.18916" lon="1.46837">
        <ele>148.39999389648</ele>
        <time>2021-05-10T16:06:05.000Z</time>
      </trkpt>
      <trkpt lat="49.18923" lon="1.4683">
        <ele>148.80000305176</ele>
        <time>2021-05-10T16:06:07.000Z</time>
      </trkpt>
      <trkpt lat="49.18943" lon="1.46811">
        <ele>149.19999694824</ele>
        <time>2021-05-10T16:06:12.000Z</time>
      </trkpt>
      <trkpt lat="49.18968" lon="1.46782">
        <ele>149.60000610352</ele>
        <time>2021-05-10T16:06:19.000Z</time>
      </trkpt>
      <trkpt lat="49.18988" lon="1.46752">
        <ele>149.80000305176</ele>
        <time>2021-05-10T16:06:25.000Z</time>
      </trkpt>
      <trkpt lat="49.18991" lon="1.46746">
        <ele>150.19999694824</ele>
        <time>2021-05-10T16:06:26.000Z</time>
      </trkpt>
      <trkpt lat="49.18997" lon="1.46733">
        <ele>150.39999389648</ele>
        <time>2021-05-10T16:06:28.000Z</time>
      </trkpt>
      <trkpt lat="49.19006" lon="1.46704">
        <ele>150.60000610352</ele>
        <time>2021-05-10T16:06:32.000Z</time>
      </trkpt>
      <trkpt lat="49.19027" lon="1.46637">
        <ele>150.19999694824</ele>
        <time>2021-05-10T16:06:41.000Z</time>
      </trkpt>
      <trkpt lat="49.19044" lon="1.46578">
        <ele>149.60000610352</ele>
        <time>2021-05-10T16:06:49.000Z</time>
      </trkpt>
      <trkpt lat="49.19058" lon="1.46505">
        <ele>149</ele>
        <time>2021-05-10T16:06:58.000Z</time>
      </trkpt>
      <trkpt lat="49.19062" lon="1.4649">
        <ele>148.80000305176</ele>
        <time>2021-05-10T16:07:00.000Z</time>
      </trkpt>
      <trkpt lat="49.19073" lon="1.46473">
        <ele>148.60000610352</ele>
        <time>2021-05-10T16:07:03.000Z</time>
      </trkpt>
      <trkpt lat="49.19088" lon="1.46474">
        <ele>148.60000610352</ele>
        <time>2021-05-10T16:07:06.000Z</time>
      </trkpt>
      <trkpt lat="49.1913" lon="1.46483">
        <ele>149.39999389648</ele>
        <time>2021-05-10T16:07:14.000Z</time>
      </trkpt>
      <trkpt lat="49.19158" lon="1.46489">
        <ele>150.19999694824</ele>
        <time>2021-05-10T16:07:19.000Z</time>
      </trkpt>
      <trkpt lat="49.19171" lon="1.46492">
        <ele>150.60000610352</ele>
        <time>2021-05-10T16:07:21.000Z</time>
      </trkpt>
      <trkpt lat="49.192" lon="1.46495">
        <ele>151.19999694824</ele>
        <time>2021-05-10T16:07:26.000Z</time>
      </trkpt>
      <trkpt lat="49.19212" lon="1.46491">
        <ele>151.19999694824</ele>
        <time>2021-05-10T16:07:28.000Z</time>
      </trkpt>
      <trkpt lat="49.19231" lon="1.46484">
        <ele>151.39999389648</ele>
        <time>2021-05-10T16:07:32.000Z</time>
      </trkpt>
      <trkpt lat="49.19248" lon="1.46476">
        <ele>151.39999389648</ele>
        <time>2021-05-10T16:07:36.000Z</time>
      </trkpt>
      <trkpt lat="49.19257" lon="1.46473">
        <ele>151.19999694824</ele>
        <time>2021-05-10T16:07:38.000Z</time>
      </trkpt>
      <trkpt lat="49.19262" lon="1.46471">
        <ele>151.19999694824</ele>
        <time>2021-05-10T16:07:39.000Z</time>
      </trkpt>
      <trkpt lat="49.19267" lon="1.46468">
        <ele>151.19999694824</ele>
        <time>2021-05-10T16:07:40.000Z</time>
      </trkpt>
      <trkpt lat="49.19292" lon="1.46449">
        <ele>150.80000305176</ele>
        <time>2021-05-10T16:07:45.000Z</time>
      </trkpt>
      <trkpt lat="49.19297" lon="1.46444">
        <ele>150.80000305176</ele>
        <time>2021-05-10T16:07:46.000Z</time>
      </trkpt>
      <trkpt lat="49.19334" lon="1.46405">
        <ele>150</ele>
        <time>2021-05-10T16:07:53.000Z</time>
      </trkpt>
      <trkpt lat="49.19346" lon="1.46395">
        <ele>149.60000610352</ele>
        <time>2021-05-10T16:07:55.000Z</time>
      </trkpt>
      <trkpt lat="49.19364" lon="1.4638">
        <ele>149</ele>
        <time>2021-05-10T16:07:58.000Z</time>
      </trkpt>
      <trkpt lat="49.19383" lon="1.46367">
        <ele>147.60000610352</ele>
        <time>2021-05-10T16:08:01.000Z</time>
      </trkpt>
      <trkpt lat="49.1942" lon="1.46345">
        <ele>146.60000610352</ele>
        <time>2021-05-10T16:08:07.000Z</time>
      </trkpt>
      <trkpt lat="49.19432" lon="1.4634">
        <ele>146</ele>
        <time>2021-05-10T16:08:09.000Z</time>
      </trkpt>
      <trkpt lat="49.1945" lon="1.46335">
        <ele>145.80000305176</ele>
        <time>2021-05-10T16:08:12.000Z</time>
      </trkpt>
      <trkpt lat="49.19463" lon="1.46336">
        <ele>145.39999389648</ele>
        <time>2021-05-10T16:08:14.000Z</time>
      </trkpt>
      <trkpt lat="49.19482" lon="1.46337">
        <ele>145.19999694824</ele>
        <time>2021-05-10T16:08:17.000Z</time>
      </trkpt>
      <trkpt lat="49.19494" lon="1.46336">
        <ele>145.19999694824</ele>
        <time>2021-05-10T16:08:19.000Z</time>
      </trkpt>
      <trkpt lat="49.19502" lon="1.46326">
        <ele>145.19999694824</ele>
        <time>2021-05-10T16:08:21.000Z</time>
      </trkpt>
      <trkpt lat="49.19504" lon="1.46302">
        <ele>145.19999694824</ele>
        <time>2021-05-10T16:08:24.000Z</time>
      </trkpt>
      <trkpt lat="49.19504" lon="1.46293">
        <ele>145</ele>
        <time>2021-05-10T16:08:25.000Z</time>
      </trkpt>
      <trkpt lat="49.19512" lon="1.46271">
        <ele>145</ele>
        <time>2021-05-10T16:08:28.000Z</time>
      </trkpt>
      <trkpt lat="49.19515" lon="1.46264">
        <ele>145</ele>
        <time>2021-05-10T16:08:29.000Z</time>
      </trkpt>
      <trkpt lat="49.19519" lon="1.46257">
        <ele>145</ele>
        <time>2021-05-10T16:08:30.000Z</time>
      </trkpt>
      <trkpt lat="49.1953" lon="1.46227">
        <ele>145</ele>
        <time>2021-05-10T16:08:34.000Z</time>
      </trkpt>
      <trkpt lat="49.19546" lon="1.46175">
        <ele>144.80000305176</ele>
        <time>2021-05-10T16:08:41.000Z</time>
      </trkpt>
      <trkpt lat="49.19568" lon="1.46119">
        <ele>144.80000305176</ele>
        <time>2021-05-10T16:08:49.000Z</time>
      </trkpt>
      <trkpt lat="49.1959" lon="1.46067">
        <ele>144.60000610352</ele>
        <time>2021-05-10T16:08:55.000Z</time>
      </trkpt>
      <trkpt lat="49.19607" lon="1.46029">
        <ele>144.19999694824</ele>
        <time>2021-05-10T16:08:59.000Z</time>
      </trkpt>
      <trkpt lat="49.19623" lon="1.45993">
        <ele>143.60000610352</ele>
        <time>2021-05-10T16:09:03.000Z</time>
      </trkpt>
      <trkpt lat="49.19625" lon="1.45984">
        <ele>143.19999694824</ele>
        <time>2021-05-10T16:09:04.000Z</time>
      </trkpt>
      <trkpt lat="49.19627" lon="1.45974">
        <ele>142.80000305176</ele>
        <time>2021-05-10T16:09:05.000Z</time>
      </trkpt>
      <trkpt lat="49.1963" lon="1.45956">
        <ele>142.19999694824</ele>
        <time>2021-05-10T16:09:07.000Z</time>
      </trkpt>
      <trkpt lat="49.19644" lon="1.45885">
        <ele>142</ele>
        <time>2021-05-10T16:09:14.000Z</time>
      </trkpt>
      <trkpt lat="49.1966" lon="1.45851">
        <ele>142.19999694824</ele>
        <time>2021-05-10T16:09:18.000Z</time>
      </trkpt>
      <trkpt lat="49.1967" lon="1.45838">
        <ele>142.39999389648</ele>
        <time>2021-05-10T16:09:20.000Z</time>
      </trkpt>
      <trkpt lat="49.19687" lon="1.45823">
        <ele>142.39999389648</ele>
        <time>2021-05-10T16:09:23.000Z</time>
      </trkpt>
      <trkpt lat="49.19693" lon="1.45819">
        <ele>142.39999389648</ele>
        <time>2021-05-10T16:09:24.000Z</time>
      </trkpt>
      <trkpt lat="49.19717" lon="1.45811">
        <ele>142.80000305176</ele>
        <time>2021-05-10T16:09:28.000Z</time>
      </trkpt>
      <trkpt lat="49.19741" lon="1.45806">
        <ele>144.19999694824</ele>
        <time>2021-05-10T16:09:32.000Z</time>
      </trkpt>
      <trkpt lat="49.19746" lon="1.45805">
        <ele>144.39999389648</ele>
        <time>2021-05-10T16:09:33.000Z</time>
      </trkpt>
      <trkpt lat="49.19757" lon="1.45799">
        <ele>144.80000305176</ele>
        <time>2021-05-10T16:09:35.000Z</time>
      </trkpt>
      <trkpt lat="49.19772" lon="1.45789">
        <ele>145.19999694824</ele>
        <time>2021-05-10T16:09:38.000Z</time>
      </trkpt>
      <trkpt lat="49.19776" lon="1.45785">
        <ele>145.39999389648</ele>
        <time>2021-05-10T16:09:39.000Z</time>
      </trkpt>
      <trkpt lat="49.19794" lon="1.45771">
        <ele>145.80000305176</ele>
        <time>2021-05-10T16:09:43.000Z</time>
      </trkpt>
      <trkpt lat="49.19833" lon="1.45745">
        <ele>146</ele>
        <time>2021-05-10T16:09:51.000Z</time>
      </trkpt>
      <trkpt lat="49.19875" lon="1.45728">
        <ele>146.19999694824</ele>
        <time>2021-05-10T16:09:59.000Z</time>
      </trkpt>
      <trkpt lat="49.1989" lon="1.45719">
        <ele>146.19999694824</ele>
        <time>2021-05-10T16:10:02.000Z</time>
      </trkpt>
      <trkpt lat="49.19894" lon="1.45714">
        <ele>146.39999389648</ele>
        <time>2021-05-10T16:10:03.000Z</time>
      </trkpt>
      <trkpt lat="49.19898" lon="1.4571">
        <ele>146.39999389648</ele>
        <time>2021-05-10T16:10:04.000Z</time>
      </trkpt>
      <trkpt lat="49.19923" lon="1.4568">
        <ele>146.60000610352</ele>
        <time>2021-05-10T16:10:10.000Z</time>
      </trkpt>
      <trkpt lat="49.19925" lon="1.45673">
        <ele>146.60000610352</ele>
        <time>2021-05-10T16:10:11.000Z</time>
      </trkpt>
      <trkpt lat="49.19925" lon="1.45646">
        <ele>146.60000610352</ele>
        <time>2021-05-10T16:10:14.000Z</time>
      </trkpt>
      <trkpt lat="49.19926" lon="1.45637">
        <ele>146.60000610352</ele>
        <time>2021-05-10T16:10:15.000Z</time>
      </trkpt>
      <trkpt lat="49.19928" lon="1.45609">
        <ele>146.60000610352</ele>
        <time>2021-05-10T16:10:18.000Z</time>
      </trkpt>
      <trkpt lat="49.19932" lon="1.45592">
        <ele>146.60000610352</ele>
        <time>2021-05-10T16:10:20.000Z</time>
      </trkpt>
      <trkpt lat="49.19938" lon="1.45577">
        <ele>146.19999694824</ele>
        <time>2021-05-10T16:10:22.000Z</time>
      </trkpt>
      <trkpt lat="49.19947" lon="1.45553">
        <ele>146</ele>
        <time>2021-05-10T16:10:25.000Z</time>
      </trkpt>
      <trkpt lat="49.19953" lon="1.45537">
        <ele>145.80000305176</ele>
        <time>2021-05-10T16:10:27.000Z</time>
      </trkpt>
      <trkpt lat="49.19957" lon="1.45513">
        <ele>145.80000305176</ele>
        <time>2021-05-10T16:10:30.000Z</time>
      </trkpt>
      <trkpt lat="49.19954" lon="1.4547">
        <ele>145.60000610352</ele>
        <time>2021-05-10T16:10:35.000Z</time>
      </trkpt>
      <trkpt lat="49.19948" lon="1.45454">
        <ele>145.60000610352</ele>
        <time>2021-05-10T16:10:37.000Z</time>
      </trkpt>
      <trkpt lat="49.1994" lon="1.45429">
        <ele>145.39999389648</ele>
        <time>2021-05-10T16:10:40.000Z</time>
      </trkpt>
      <trkpt lat="49.19937" lon="1.45411">
        <ele>145</ele>
        <time>2021-05-10T16:10:42.000Z</time>
      </trkpt>
      <trkpt lat="49.19938" lon="1.45402">
        <ele>144.80000305176</ele>
        <time>2021-05-10T16:10:43.000Z</time>
      </trkpt>
      <trkpt lat="49.19945" lon="1.45378">
        <ele>144.60000610352</ele>
        <time>2021-05-10T16:10:46.000Z</time>
      </trkpt>
      <trkpt lat="49.19953" lon="1.45354">
        <ele>144.39999389648</ele>
        <time>2021-05-10T16:10:49.000Z</time>
      </trkpt>
      <trkpt lat="49.1996" lon="1.45338">
        <ele>144</ele>
        <time>2021-05-10T16:10:51.000Z</time>
      </trkpt>
      <trkpt lat="49.19977" lon="1.45299">
        <ele>143.19999694824</ele>
        <time>2021-05-10T16:10:56.000Z</time>
      </trkpt>
      <trkpt lat="49.19987" lon="1.45278">
        <ele>143</ele>
        <time>2021-05-10T16:10:59.000Z</time>
      </trkpt>
      <trkpt lat="49.19993" lon="1.45265">
        <ele>142.80000305176</ele>
        <time>2021-05-10T16:11:01.000Z</time>
      </trkpt>
      <trkpt lat="49.19996" lon="1.45258">
        <ele>142.60000610352</ele>
        <time>2021-05-10T16:11:02.000Z</time>
      </trkpt>
      <trkpt lat="49.20002" lon="1.45227">
        <ele>142.60000610352</ele>
        <time>2021-05-10T16:11:06.000Z</time>
      </trkpt>
      <trkpt lat="49.20003" lon="1.45219">
        <ele>142.39999389648</ele>
        <time>2021-05-10T16:11:07.000Z</time>
      </trkpt>
      <trkpt lat="49.20007" lon="1.45163">
        <ele>141.80000305176</ele>
        <time>2021-05-10T16:11:13.000Z</time>
      </trkpt>
      <trkpt lat="49.20008" lon="1.45154">
        <ele>141.60000610352</ele>
        <time>2021-05-10T16:11:14.000Z</time>
      </trkpt>
      <trkpt lat="49.20009" lon="1.45136">
        <ele>141.39999389648</ele>
        <time>2021-05-10T16:11:17.000Z</time>
      </trkpt>
      <trkpt lat="49.20012" lon="1.45109">
        <ele>140.80000305176</ele>
        <time>2021-05-10T16:11:23.000Z</time>
      </trkpt>
      <trkpt lat="49.20003" lon="1.45103">
        <ele>140.60000610352</ele>
        <time>2021-05-10T16:11:26.000Z</time>
      </trkpt>
      <trkpt lat="49.19999" lon="1.45102">
        <ele>140.60000610352</ele>
        <time>2021-05-10T16:11:27.000Z</time>
      </trkpt>
      <trkpt lat="49.19975" lon="1.45096">
        <ele>140.39999389648</ele>
        <time>2021-05-10T16:11:32.000Z</time>
      </trkpt>
      <trkpt lat="49.19949" lon="1.45092">
        <ele>139.80000305176</ele>
        <time>2021-05-10T16:11:37.000Z</time>
      </trkpt>
      <trkpt lat="49.19934" lon="1.45091">
        <ele>139.39999389648</ele>
        <time>2021-05-10T16:11:40.000Z</time>
      </trkpt>
      <trkpt lat="49.19928" lon="1.45079">
        <ele>139.39999389648</ele>
        <time>2021-05-10T16:11:42.000Z</time>
      </trkpt>
      <trkpt lat="49.19927" lon="1.45072">
        <ele>139.39999389648</ele>
        <time>2021-05-10T16:11:43.000Z</time>
      </trkpt>
      <trkpt lat="49.19927" lon="1.45064">
        <ele>139.39999389648</ele>
        <time>2021-05-10T16:11:44.000Z</time>
      </trkpt>
      <trkpt lat="49.19926" lon="1.45048">
        <ele>139.19999694824</ele>
        <time>2021-05-10T16:11:46.000Z</time>
      </trkpt>
      <trkpt lat="49.19924" lon="1.45032">
        <ele>138.60000610352</ele>
        <time>2021-05-10T16:11:48.000Z</time>
      </trkpt>
      <trkpt lat="49.1992" lon="1.44985">
        <ele>137.80000305176</ele>
        <time>2021-05-10T16:11:54.000Z</time>
      </trkpt>
      <trkpt lat="49.19917" lon="1.44969">
        <ele>137.39999389648</ele>
        <time>2021-05-10T16:11:56.000Z</time>
      </trkpt>
      <trkpt lat="49.19911" lon="1.44926">
        <ele>136.80000305176</ele>
        <time>2021-05-10T16:12:01.000Z</time>
      </trkpt>
      <trkpt lat="49.19907" lon="1.44903">
        <ele>136.39999389648</ele>
        <time>2021-05-10T16:12:04.000Z</time>
      </trkpt>
      <trkpt lat="49.19907" lon="1.4489">
        <ele>136.19999694824</ele>
        <time>2021-05-10T16:12:06.000Z</time>
      </trkpt>
      <trkpt lat="49.19915" lon="1.44882">
        <ele>135.80000305176</ele>
        <time>2021-05-10T16:12:09.000Z</time>
      </trkpt>
      <trkpt lat="49.19917" lon="1.44882">
        <ele>135.60000610352</ele>
        <time>2021-05-10T16:12:10.000Z</time>
      </trkpt>
      <trkpt lat="49.19921" lon="1.44881">
        <ele>135.19999694824</ele>
        <time>2021-05-10T16:12:12.000Z</time>
      </trkpt>
      <trkpt lat="49.19922" lon="1.44881">
        <ele>135</ele>
        <time>2021-05-10T16:12:14.000Z</time>
      </trkpt>
      <trkpt lat="49.19922" lon="1.4488">
        <ele>135</ele>
        <time>2021-05-10T16:12:15.000Z</time>
      </trkpt>
    </trkseg>
  </trk>
</gpx>